<?xml version="1.0" encoding="UTF-8" standalone="no" ?>
<gpx xmlns="http://www.topografix.com/GPX/1/1" xmlns:xsi="http://www.w3.org/2001/XMLSchema-instance" xsi:schemaLocation="http://www.topografix.com/GPX/1/1 http://www.topografix.com/GPX/1/1/gpx.xsd" version="1.1" creator="VisuGPX - https://www.visugpx.com">
  <metadata>
    <name>009SG76-8057752</name>
    <desc><![CDATA[
01]]></desc>
  </metadata>
  <trk>
    <name><![CDATA[009SG76-8057752]]></name>
    <trkseg>
      <trkpt lat="46.69911" lon="-1.93375">
        <ele>5</ele>
        <time>2018-01-12T14:53:25Z</time>
      </trkpt>
      <trkpt lat="46.69912" lon="-1.93375">
        <ele>5</ele>
        <time>2018-01-12T14:54:25Z</time>
      </trkpt>
      <trkpt lat="46.69914" lon="-1.93375">
        <ele>5</ele>
        <time>2018-01-12T14:55:25Z</time>
      </trkpt>
      <trkpt lat="46.69915" lon="-1.93376">
        <ele>5</ele>
        <time>2018-01-12T14:56:25Z</time>
      </trkpt>
      <trkpt lat="46.69915" lon="-1.93377">
        <ele>4</ele>
        <time>2018-01-12T14:57:25Z</time>
      </trkpt>
      <trkpt lat="46.69916" lon="-1.93379">
        <ele>4</ele>
        <time>2018-01-12T14:58:25Z</time>
      </trkpt>
      <trkpt lat="46.69916" lon="-1.93382">
        <ele>4</ele>
        <time>2018-01-12T14:59:25Z</time>
      </trkpt>
      <trkpt lat="46.69915" lon="-1.93383">
        <ele>4</ele>
        <time>2018-01-12T15:00:25Z</time>
      </trkpt>
      <trkpt lat="46.69915" lon="-1.93384">
        <ele>4</ele>
        <time>2018-01-12T15:01:25Z</time>
      </trkpt>
      <trkpt lat="46.69913" lon="-1.93385">
        <ele>4</ele>
        <time>2018-01-12T15:02:25Z</time>
      </trkpt>
      <trkpt lat="46.69912" lon="-1.93386">
        <ele>4</ele>
        <time>2018-01-12T15:03:25Z</time>
      </trkpt>
      <trkpt lat="46.69911" lon="-1.93386">
        <ele>4</ele>
        <time>2018-01-12T15:04:25Z</time>
      </trkpt>
      <trkpt lat="46.69909" lon="-1.93385">
        <ele>4</ele>
        <time>2018-01-12T15:05:25Z</time>
      </trkpt>
      <trkpt lat="46.69908" lon="-1.93383">
        <ele>4</ele>
        <time>2018-01-12T15:06:25Z</time>
      </trkpt>
      <trkpt lat="46.69908" lon="-1.93383">
        <ele>4</ele>
        <time>2018-01-12T15:07:25Z</time>
      </trkpt>
      <trkpt lat="46.69901" lon="-1.93383">
        <ele>5</ele>
        <time>2018-01-12T15:08:25Z</time>
      </trkpt>
      <trkpt lat="46.69898" lon="-1.93383">
        <ele>5</ele>
        <time>2018-01-12T15:09:25Z</time>
      </trkpt>
      <trkpt lat="46.69892" lon="-1.93385">
        <ele>5</ele>
        <time>2018-01-12T15:10:25Z</time>
      </trkpt>
      <trkpt lat="46.69824" lon="-1.93411">
        <ele>5</ele>
        <time>2018-01-12T15:11:25Z</time>
      </trkpt>
      <trkpt lat="46.69806" lon="-1.93419">
        <ele>5</ele>
        <time>2018-01-12T15:12:25Z</time>
      </trkpt>
      <trkpt lat="46.69798" lon="-1.93421">
        <ele>5</ele>
        <time>2018-01-12T15:13:25Z</time>
      </trkpt>
      <trkpt lat="46.69797" lon="-1.93421">
        <ele>5</ele>
        <time>2018-01-12T15:14:25Z</time>
      </trkpt>
      <trkpt lat="46.69793" lon="-1.9342">
        <ele>5</ele>
        <time>2018-01-12T15:15:25Z</time>
      </trkpt>
      <trkpt lat="46.69793" lon="-1.93421">
        <ele>5</ele>
        <time>2018-01-12T15:16:25Z</time>
      </trkpt>
      <trkpt lat="46.69793" lon="-1.93422">
        <ele>5</ele>
        <time>2018-01-12T15:17:25Z</time>
      </trkpt>
      <trkpt lat="46.69793" lon="-1.93423">
        <ele>5</ele>
        <time>2018-01-12T15:18:25Z</time>
      </trkpt>
      <trkpt lat="46.69793" lon="-1.93424">
        <ele>5</ele>
        <time>2018-01-12T15:19:25Z</time>
      </trkpt>
      <trkpt lat="46.69792" lon="-1.93425">
        <ele>5</ele>
        <time>2018-01-12T15:20:25Z</time>
      </trkpt>
      <trkpt lat="46.69792" lon="-1.93426">
        <ele>5</ele>
        <time>2018-01-12T15:21:25Z</time>
      </trkpt>
      <trkpt lat="46.69791" lon="-1.93426">
        <ele>5</ele>
        <time>2018-01-12T15:22:25Z</time>
      </trkpt>
      <trkpt lat="46.69791" lon="-1.93427">
        <ele>5</ele>
        <time>2018-01-12T15:23:25Z</time>
      </trkpt>
      <trkpt lat="46.6979" lon="-1.93427">
        <ele>5</ele>
        <time>2018-01-12T15:24:25Z</time>
      </trkpt>
      <trkpt lat="46.6979" lon="-1.93428">
        <ele>5</ele>
        <time>2018-01-12T15:25:25Z</time>
      </trkpt>
      <trkpt lat="46.69789" lon="-1.93428">
        <ele>5</ele>
        <time>2018-01-12T15:26:25Z</time>
      </trkpt>
      <trkpt lat="46.69788" lon="-1.93428">
        <ele>5</ele>
        <time>2018-01-12T15:27:25Z</time>
      </trkpt>
      <trkpt lat="46.69788" lon="-1.93427">
        <ele>5</ele>
        <time>2018-01-12T15:28:25Z</time>
      </trkpt>
      <trkpt lat="46.69787" lon="-1.93427">
        <ele>5</ele>
        <time>2018-01-12T15:29:25Z</time>
      </trkpt>
      <trkpt lat="46.69787" lon="-1.93426">
        <ele>5</ele>
        <time>2018-01-12T15:30:25Z</time>
      </trkpt>
      <trkpt lat="46.69786" lon="-1.93426">
        <ele>5</ele>
        <time>2018-01-12T15:31:25Z</time>
      </trkpt>
      <trkpt lat="46.69786" lon="-1.93425">
        <ele>5</ele>
        <time>2018-01-12T15:32:25Z</time>
      </trkpt>
      <trkpt lat="46.69786" lon="-1.93424">
        <ele>5</ele>
        <time>2018-01-12T15:33:25Z</time>
      </trkpt>
      <trkpt lat="46.69785" lon="-1.93424">
        <ele>5</ele>
        <time>2018-01-12T15:34:25Z</time>
      </trkpt>
      <trkpt lat="46.69785" lon="-1.93423">
        <ele>5</ele>
        <time>2018-01-12T15:35:25Z</time>
      </trkpt>
      <trkpt lat="46.69785" lon="-1.93422">
        <ele>5</ele>
        <time>2018-01-12T15:36:25Z</time>
      </trkpt>
      <trkpt lat="46.69779" lon="-1.9342">
        <ele>5</ele>
        <time>2018-01-12T15:37:25Z</time>
      </trkpt>
      <trkpt lat="46.69776" lon="-1.9342">
        <ele>5</ele>
        <time>2018-01-12T15:38:25Z</time>
      </trkpt>
      <trkpt lat="46.69772" lon="-1.9342">
        <ele>5</ele>
        <time>2018-01-12T15:39:25Z</time>
      </trkpt>
      <trkpt lat="46.69762" lon="-1.93423">
        <ele>5</ele>
        <time>2018-01-12T15:40:25Z</time>
      </trkpt>
      <trkpt lat="46.69759" lon="-1.93424">
        <ele>5</ele>
        <time>2018-01-12T15:41:25Z</time>
      </trkpt>
      <trkpt lat="46.69721" lon="-1.93434">
        <ele>5</ele>
        <time>2018-01-12T15:42:25Z</time>
      </trkpt>
      <trkpt lat="46.69714" lon="-1.93435">
        <ele>5</ele>
        <time>2018-01-12T15:43:25Z</time>
      </trkpt>
      <trkpt lat="46.69697" lon="-1.93436">
        <ele>5</ele>
        <time>2018-01-12T15:44:25Z</time>
      </trkpt>
      <trkpt lat="46.69685" lon="-1.93435">
        <ele>5</ele>
        <time>2018-01-12T15:45:25Z</time>
      </trkpt>
      <trkpt lat="46.69633" lon="-1.93423">
        <ele>5</ele>
        <time>2018-01-12T15:46:25Z</time>
      </trkpt>
      <trkpt lat="46.69633" lon="-1.93423">
        <ele>5</ele>
        <time>2018-01-12T15:47:25Z</time>
      </trkpt>
      <trkpt lat="46.69633" lon="-1.93424">
        <ele>4</ele>
        <time>2018-01-12T15:48:25Z</time>
      </trkpt>
      <trkpt lat="46.69633" lon="-1.93425">
        <ele>4</ele>
        <time>2018-01-12T15:49:25Z</time>
      </trkpt>
      <trkpt lat="46.69633" lon="-1.93426">
        <ele>4</ele>
        <time>2018-01-12T15:50:25Z</time>
      </trkpt>
      <trkpt lat="46.69633" lon="-1.93427">
        <ele>4</ele>
        <time>2018-01-12T15:51:25Z</time>
      </trkpt>
      <trkpt lat="46.69633" lon="-1.93428">
        <ele>4</ele>
        <time>2018-01-12T15:52:25Z</time>
      </trkpt>
      <trkpt lat="46.69633" lon="-1.93429">
        <ele>4</ele>
        <time>2018-01-12T15:53:25Z</time>
      </trkpt>
      <trkpt lat="46.69633" lon="-1.9343">
        <ele>4</ele>
        <time>2018-01-12T15:54:25Z</time>
      </trkpt>
      <trkpt lat="46.69632" lon="-1.9343">
        <ele>4</ele>
        <time>2018-01-12T15:55:25Z</time>
      </trkpt>
      <trkpt lat="46.69632" lon="-1.93431">
        <ele>4</ele>
        <time>2018-01-12T15:56:25Z</time>
      </trkpt>
      <trkpt lat="46.69632" lon="-1.93432">
        <ele>4</ele>
        <time>2018-01-12T15:57:25Z</time>
      </trkpt>
      <trkpt lat="46.69631" lon="-1.93432">
        <ele>4</ele>
        <time>2018-01-12T15:58:25Z</time>
      </trkpt>
      <trkpt lat="46.69631" lon="-1.93433">
        <ele>4</ele>
        <time>2018-01-12T15:59:25Z</time>
      </trkpt>
      <trkpt lat="46.69631" lon="-1.93434">
        <ele>4</ele>
        <time>2018-01-12T16:00:25Z</time>
      </trkpt>
      <trkpt lat="46.6963" lon="-1.93434">
        <ele>4</ele>
        <time>2018-01-12T16:01:25Z</time>
      </trkpt>
      <trkpt lat="46.6963" lon="-1.93435">
        <ele>4</ele>
        <time>2018-01-12T16:02:25Z</time>
      </trkpt>
      <trkpt lat="46.69629" lon="-1.93435">
        <ele>4</ele>
        <time>2018-01-12T16:03:25Z</time>
      </trkpt>
      <trkpt lat="46.69629" lon="-1.93436">
        <ele>4</ele>
        <time>2018-01-12T16:04:25Z</time>
      </trkpt>
      <trkpt lat="46.69628" lon="-1.93436">
        <ele>4</ele>
        <time>2018-01-12T16:05:25Z</time>
      </trkpt>
      <trkpt lat="46.69627" lon="-1.93436">
        <ele>4</ele>
        <time>2018-01-12T16:06:25Z</time>
      </trkpt>
      <trkpt lat="46.69627" lon="-1.93437">
        <ele>4</ele>
        <time>2018-01-12T16:07:25Z</time>
      </trkpt>
      <trkpt lat="46.69626" lon="-1.93437">
        <ele>4</ele>
        <time>2018-01-12T16:08:25Z</time>
      </trkpt>
      <trkpt lat="46.69625" lon="-1.93437">
        <ele>4</ele>
        <time>2018-01-12T16:09:25Z</time>
      </trkpt>
      <trkpt lat="46.69624" lon="-1.93437">
        <ele>4</ele>
        <time>2018-01-12T16:10:25Z</time>
      </trkpt>
      <trkpt lat="46.69623" lon="-1.93437">
        <ele>4</ele>
        <time>2018-01-12T16:11:25Z</time>
      </trkpt>
      <trkpt lat="46.69622" lon="-1.93436">
        <ele>4</ele>
        <time>2018-01-12T16:12:25Z</time>
      </trkpt>
      <trkpt lat="46.69621" lon="-1.93436">
        <ele>4</ele>
        <time>2018-01-12T16:13:25Z</time>
      </trkpt>
      <trkpt lat="46.6962" lon="-1.93435">
        <ele>4</ele>
        <time>2018-01-12T16:14:25Z</time>
      </trkpt>
      <trkpt lat="46.69619" lon="-1.93434">
        <ele>4</ele>
        <time>2018-01-12T16:15:25Z</time>
      </trkpt>
      <trkpt lat="46.69619" lon="-1.93433">
        <ele>4</ele>
        <time>2018-01-12T16:16:25Z</time>
      </trkpt>
      <trkpt lat="46.69618" lon="-1.93433">
        <ele>4</ele>
        <time>2018-01-12T16:17:25Z</time>
      </trkpt>
      <trkpt lat="46.69618" lon="-1.93432">
        <ele>4</ele>
        <time>2018-01-12T16:18:25Z</time>
      </trkpt>
      <trkpt lat="46.69618" lon="-1.93431">
        <ele>4</ele>
        <time>2018-01-12T16:19:25Z</time>
      </trkpt>
      <trkpt lat="46.69617" lon="-1.93431">
        <ele>4</ele>
        <time>2018-01-12T16:20:25Z</time>
      </trkpt>
      <trkpt lat="46.69617" lon="-1.9343">
        <ele>4</ele>
        <time>2018-01-12T16:21:25Z</time>
      </trkpt>
      <trkpt lat="46.69617" lon="-1.93429">
        <ele>4</ele>
        <time>2018-01-12T16:22:25Z</time>
      </trkpt>
      <trkpt lat="46.69617" lon="-1.93428">
        <ele>4</ele>
        <time>2018-01-12T16:23:25Z</time>
      </trkpt>
      <trkpt lat="46.69616" lon="-1.93428">
        <ele>4</ele>
        <time>2018-01-12T16:24:25Z</time>
      </trkpt>
      <trkpt lat="46.69616" lon="-1.93427">
        <ele>4</ele>
        <time>2018-01-12T16:25:25Z</time>
      </trkpt>
      <trkpt lat="46.69616" lon="-1.93426">
        <ele>4</ele>
        <time>2018-01-12T16:26:25Z</time>
      </trkpt>
      <trkpt lat="46.69616" lon="-1.93425">
        <ele>4</ele>
        <time>2018-01-12T16:27:25Z</time>
      </trkpt>
      <trkpt lat="46.69616" lon="-1.93424">
        <ele>4</ele>
        <time>2018-01-12T16:28:25Z</time>
      </trkpt>
      <trkpt lat="46.69616" lon="-1.93423">
        <ele>4</ele>
        <time>2018-01-12T16:29:25Z</time>
      </trkpt>
      <trkpt lat="46.69616" lon="-1.93422">
        <ele>4</ele>
        <time>2018-01-12T16:30:25Z</time>
      </trkpt>
      <trkpt lat="46.69616" lon="-1.93421">
        <ele>4</ele>
        <time>2018-01-12T16:31:25Z</time>
      </trkpt>
      <trkpt lat="46.69617" lon="-1.93421">
        <ele>4</ele>
        <time>2018-01-12T16:32:25Z</time>
      </trkpt>
      <trkpt lat="46.69617" lon="-1.9342">
        <ele>4</ele>
        <time>2018-01-12T16:33:25Z</time>
      </trkpt>
      <trkpt lat="46.69607" lon="-1.93416">
        <ele>4</ele>
        <time>2018-01-12T16:34:25Z</time>
      </trkpt>
      <trkpt lat="46.69587" lon="-1.93404">
        <ele>4</ele>
        <time>2018-01-12T16:35:25Z</time>
      </trkpt>
      <trkpt lat="46.69551" lon="-1.93388">
        <ele>4</ele>
        <time>2018-01-12T16:36:25Z</time>
      </trkpt>
      <trkpt lat="46.69518" lon="-1.93374">
        <ele>4</ele>
        <time>2018-01-12T16:37:25Z</time>
      </trkpt>
      <trkpt lat="46.69507" lon="-1.9337">
        <ele>4</ele>
        <time>2018-01-12T16:38:25Z</time>
      </trkpt>
      <trkpt lat="46.69503" lon="-1.93368">
        <ele>4</ele>
        <time>2018-01-12T16:39:25Z</time>
      </trkpt>
      <trkpt lat="46.69498" lon="-1.93366">
        <ele>4</ele>
        <time>2018-01-12T16:40:25Z</time>
      </trkpt>
      <trkpt lat="46.6946" lon="-1.93349">
        <ele>4</ele>
        <time>2018-01-12T16:41:25Z</time>
      </trkpt>
      <trkpt lat="46.69431" lon="-1.93336">
        <ele>4</ele>
        <time>2018-01-12T16:42:25Z</time>
      </trkpt>
      <trkpt lat="46.69426" lon="-1.93334">
        <ele>4</ele>
        <time>2018-01-12T16:43:25Z</time>
      </trkpt>
      <trkpt lat="46.69421" lon="-1.93333">
        <ele>4</ele>
        <time>2018-01-12T16:44:25Z</time>
      </trkpt>
      <trkpt lat="46.69416" lon="-1.93331">
        <ele>4</ele>
        <time>2018-01-12T16:45:25Z</time>
      </trkpt>
      <trkpt lat="46.69405" lon="-1.9333">
        <ele>4</ele>
        <time>2018-01-12T16:46:25Z</time>
      </trkpt>
      <trkpt lat="46.69394" lon="-1.93333">
        <ele>4</ele>
        <time>2018-01-12T16:47:25Z</time>
      </trkpt>
      <trkpt lat="46.69394" lon="-1.93333">
        <ele>4</ele>
        <time>2018-01-12T16:48:25Z</time>
      </trkpt>
      <trkpt lat="46.69394" lon="-1.93334">
        <ele>4</ele>
        <time>2018-01-12T16:49:25Z</time>
      </trkpt>
      <trkpt lat="46.69394" lon="-1.93335">
        <ele>4</ele>
        <time>2018-01-12T16:50:25Z</time>
      </trkpt>
      <trkpt lat="46.69393" lon="-1.93335">
        <ele>4</ele>
        <time>2018-01-12T16:51:25Z</time>
      </trkpt>
      <trkpt lat="46.69393" lon="-1.93336">
        <ele>4</ele>
        <time>2018-01-12T16:52:25Z</time>
      </trkpt>
      <trkpt lat="46.69392" lon="-1.93336">
        <ele>4</ele>
        <time>2018-01-12T16:53:25Z</time>
      </trkpt>
      <trkpt lat="46.69392" lon="-1.93337">
        <ele>4</ele>
        <time>2018-01-12T16:54:25Z</time>
      </trkpt>
      <trkpt lat="46.69391" lon="-1.93337">
        <ele>4</ele>
        <time>2018-01-12T16:55:25Z</time>
      </trkpt>
      <trkpt lat="46.6939" lon="-1.93338">
        <ele>4</ele>
        <time>2018-01-12T16:56:25Z</time>
      </trkpt>
      <trkpt lat="46.69389" lon="-1.93338">
        <ele>4</ele>
        <time>2018-01-12T16:57:25Z</time>
      </trkpt>
      <trkpt lat="46.69388" lon="-1.93338">
        <ele>4</ele>
        <time>2018-01-12T16:58:25Z</time>
      </trkpt>
      <trkpt lat="46.69387" lon="-1.93338">
        <ele>4</ele>
        <time>2018-01-12T16:59:25Z</time>
      </trkpt>
      <trkpt lat="46.69386" lon="-1.93338">
        <ele>4</ele>
        <time>2018-01-12T17:00:25Z</time>
      </trkpt>
      <trkpt lat="46.69385" lon="-1.93338">
        <ele>4</ele>
        <time>2018-01-12T17:01:25Z</time>
      </trkpt>
      <trkpt lat="46.69384" lon="-1.93338">
        <ele>4</ele>
        <time>2018-01-12T17:02:25Z</time>
      </trkpt>
      <trkpt lat="46.69384" lon="-1.93337">
        <ele>4</ele>
        <time>2018-01-12T17:03:25Z</time>
      </trkpt>
      <trkpt lat="46.69383" lon="-1.93337">
        <ele>4</ele>
        <time>2018-01-12T17:04:25Z</time>
      </trkpt>
      <trkpt lat="46.69383" lon="-1.93336">
        <ele>4</ele>
        <time>2018-01-12T17:05:25Z</time>
      </trkpt>
      <trkpt lat="46.69382" lon="-1.93336">
        <ele>4</ele>
        <time>2018-01-12T17:06:25Z</time>
      </trkpt>
      <trkpt lat="46.69382" lon="-1.93335">
        <ele>4</ele>
        <time>2018-01-12T17:07:25Z</time>
      </trkpt>
      <trkpt lat="46.69381" lon="-1.93335">
        <ele>4</ele>
        <time>2018-01-12T17:08:25Z</time>
      </trkpt>
      <trkpt lat="46.69381" lon="-1.93334">
        <ele>4</ele>
        <time>2018-01-12T17:09:25Z</time>
      </trkpt>
      <trkpt lat="46.6938" lon="-1.93333">
        <ele>4</ele>
        <time>2018-01-12T17:10:25Z</time>
      </trkpt>
      <trkpt lat="46.6938" lon="-1.93332">
        <ele>4</ele>
        <time>2018-01-12T17:11:25Z</time>
      </trkpt>
      <trkpt lat="46.69379" lon="-1.93332">
        <ele>4</ele>
        <time>2018-01-12T17:12:25Z</time>
      </trkpt>
      <trkpt lat="46.69379" lon="-1.93331">
        <ele>4</ele>
        <time>2018-01-12T17:13:25Z</time>
      </trkpt>
      <trkpt lat="46.69379" lon="-1.9333">
        <ele>4</ele>
        <time>2018-01-12T17:14:25Z</time>
      </trkpt>
      <trkpt lat="46.69379" lon="-1.93329">
        <ele>4</ele>
        <time>2018-01-12T17:15:25Z</time>
      </trkpt>
      <trkpt lat="46.69376" lon="-1.93327">
        <ele>4</ele>
        <time>2018-01-12T17:16:25Z</time>
      </trkpt>
      <trkpt lat="46.69367" lon="-1.93325">
        <ele>4</ele>
        <time>2018-01-12T17:17:25Z</time>
      </trkpt>
      <trkpt lat="46.69363" lon="-1.93325">
        <ele>4</ele>
        <time>2018-01-12T17:18:25Z</time>
      </trkpt>
      <trkpt lat="46.69356" lon="-1.93325">
        <ele>4</ele>
        <time>2018-01-12T17:19:25Z</time>
      </trkpt>
      <trkpt lat="46.69353" lon="-1.93324">
        <ele>4</ele>
        <time>2018-01-12T17:20:25Z</time>
      </trkpt>
      <trkpt lat="46.69315" lon="-1.93317">
        <ele>4</ele>
        <time>2018-01-12T17:21:25Z</time>
      </trkpt>
      <trkpt lat="46.69286" lon="-1.93313">
        <ele>4</ele>
        <time>2018-01-12T17:22:25Z</time>
      </trkpt>
      <trkpt lat="46.6924" lon="-1.93303">
        <ele>3</ele>
        <time>2018-01-12T17:23:25Z</time>
      </trkpt>
      <trkpt lat="46.69218" lon="-1.933">
        <ele>3</ele>
        <time>2018-01-12T17:24:25Z</time>
      </trkpt>
      <trkpt lat="46.69217" lon="-1.933">
        <ele>3</ele>
        <time>2018-01-12T17:25:25Z</time>
      </trkpt>
      <trkpt lat="46.69209" lon="-1.93298">
        <ele>3</ele>
        <time>2018-01-12T17:26:25Z</time>
      </trkpt>
      <trkpt lat="46.69203" lon="-1.93298">
        <ele>3</ele>
        <time>2018-01-12T17:27:25Z</time>
      </trkpt>
      <trkpt lat="46.69197" lon="-1.93299">
        <ele>3</ele>
        <time>2018-01-12T17:28:25Z</time>
      </trkpt>
      <trkpt lat="46.69182" lon="-1.93301">
        <ele>3</ele>
        <time>2018-01-12T17:29:25Z</time>
      </trkpt>
      <trkpt lat="46.69182" lon="-1.93301">
        <ele>3</ele>
        <time>2018-01-12T17:30:25Z</time>
      </trkpt>
      <trkpt lat="46.6918" lon="-1.93305">
        <ele>3</ele>
        <time>2018-01-12T17:31:25Z</time>
      </trkpt>
      <trkpt lat="46.69177" lon="-1.93307">
        <ele>3</ele>
        <time>2018-01-12T17:32:25Z</time>
      </trkpt>
      <trkpt lat="46.69173" lon="-1.93307">
        <ele>3</ele>
        <time>2018-01-12T17:33:25Z</time>
      </trkpt>
      <trkpt lat="46.69169" lon="-1.93306">
        <ele>3</ele>
        <time>2018-01-12T17:34:25Z</time>
      </trkpt>
      <trkpt lat="46.69167" lon="-1.93304">
        <ele>3</ele>
        <time>2018-01-12T17:35:25Z</time>
      </trkpt>
      <trkpt lat="46.69165" lon="-1.93301">
        <ele>3</ele>
        <time>2018-01-12T17:36:25Z</time>
      </trkpt>
      <trkpt lat="46.69164" lon="-1.93298">
        <ele>3</ele>
        <time>2018-01-12T17:37:25Z</time>
      </trkpt>
      <trkpt lat="46.69163" lon="-1.93296">
        <ele>3</ele>
        <time>2018-01-12T17:38:25Z</time>
      </trkpt>
      <trkpt lat="46.69163" lon="-1.93293">
        <ele>2</ele>
        <time>2018-01-12T17:39:25Z</time>
      </trkpt>
      <trkpt lat="46.69163" lon="-1.93289">
        <ele>2</ele>
        <time>2018-01-12T17:40:25Z</time>
      </trkpt>
      <trkpt lat="46.69165" lon="-1.93285">
        <ele>2</ele>
        <time>2018-01-12T17:41:25Z</time>
      </trkpt>
      <trkpt lat="46.69169" lon="-1.9328">
        <ele>2</ele>
        <time>2018-01-12T17:42:25Z</time>
      </trkpt>
      <trkpt lat="46.69166" lon="-1.93273">
        <ele>2</ele>
        <time>2018-01-12T17:43:25Z</time>
      </trkpt>
      <trkpt lat="46.69166" lon="-1.93263">
        <ele>2</ele>
        <time>2018-01-12T17:44:25Z</time>
      </trkpt>
      <trkpt lat="46.69167" lon="-1.93252">
        <ele>2</ele>
        <time>2018-01-12T17:45:25Z</time>
      </trkpt>
      <trkpt lat="46.69169" lon="-1.93244">
        <ele>2</ele>
        <time>2018-01-12T17:46:25Z</time>
      </trkpt>
      <trkpt lat="46.69177" lon="-1.93193">
        <ele>4</ele>
        <time>2018-01-12T17:47:25Z</time>
      </trkpt>
      <trkpt lat="46.69179" lon="-1.9318">
        <ele>4</ele>
        <time>2018-01-12T17:48:25Z</time>
      </trkpt>
      <trkpt lat="46.69182" lon="-1.93159">
        <ele>4</ele>
        <time>2018-01-12T17:49:25Z</time>
      </trkpt>
      <trkpt lat="46.69183" lon="-1.9315">
        <ele>4</ele>
        <time>2018-01-12T17:50:25Z</time>
      </trkpt>
      <trkpt lat="46.69186" lon="-1.93138">
        <ele>4</ele>
        <time>2018-01-12T17:51:25Z</time>
      </trkpt>
      <trkpt lat="46.69187" lon="-1.93134">
        <ele>4</ele>
        <time>2018-01-12T17:52:25Z</time>
      </trkpt>
      <trkpt lat="46.6919" lon="-1.93125">
        <ele>4</ele>
        <time>2018-01-12T17:53:25Z</time>
      </trkpt>
      <trkpt lat="46.69194" lon="-1.93117">
        <ele>4</ele>
        <time>2018-01-12T17:54:25Z</time>
      </trkpt>
      <trkpt lat="46.69201" lon="-1.93103">
        <ele>4</ele>
        <time>2018-01-12T17:55:25Z</time>
      </trkpt>
      <trkpt lat="46.6921" lon="-1.93085">
        <ele>5</ele>
        <time>2018-01-12T17:56:25Z</time>
      </trkpt>
      <trkpt lat="46.69219" lon="-1.93065">
        <ele>5</ele>
        <time>2018-01-12T17:57:25Z</time>
      </trkpt>
      <trkpt lat="46.69224" lon="-1.93053">
        <ele>5</ele>
        <time>2018-01-12T17:58:25Z</time>
      </trkpt>
      <trkpt lat="46.69224" lon="-1.93053">
        <ele>5</ele>
        <time>2018-01-12T17:59:25Z</time>
      </trkpt>
      <trkpt lat="46.69217" lon="-1.93046">
        <ele>5</ele>
        <time>2018-01-12T18:00:25Z</time>
      </trkpt>
      <trkpt lat="46.69194" lon="-1.93026">
        <ele>5</ele>
        <time>2018-01-12T18:01:25Z</time>
      </trkpt>
      <trkpt lat="46.69175" lon="-1.93009">
        <ele>4</ele>
        <time>2018-01-12T18:02:25Z</time>
      </trkpt>
      <trkpt lat="46.6917" lon="-1.93005">
        <ele>4</ele>
        <time>2018-01-12T18:03:25Z</time>
      </trkpt>
      <trkpt lat="46.69154" lon="-1.92991">
        <ele>4</ele>
        <time>2018-01-12T18:04:25Z</time>
      </trkpt>
      <trkpt lat="46.69133" lon="-1.92971">
        <ele>4</ele>
        <time>2018-01-12T18:05:25Z</time>
      </trkpt>
      <trkpt lat="46.69107" lon="-1.92948">
        <ele>4</ele>
        <time>2018-01-12T18:06:25Z</time>
      </trkpt>
      <trkpt lat="46.69095" lon="-1.92938">
        <ele>4</ele>
        <time>2018-01-12T18:07:25Z</time>
      </trkpt>
      <trkpt lat="46.69068" lon="-1.92907">
        <ele>4</ele>
        <time>2018-01-12T18:08:25Z</time>
      </trkpt>
      <trkpt lat="46.69055" lon="-1.9289">
        <ele>4</ele>
        <time>2018-01-12T18:09:25Z</time>
      </trkpt>
      <trkpt lat="46.69038" lon="-1.92867">
        <ele>4</ele>
        <time>2018-01-12T18:10:25Z</time>
      </trkpt>
      <trkpt lat="46.69014" lon="-1.92836">
        <ele>4</ele>
        <time>2018-01-12T18:11:25Z</time>
      </trkpt>
      <trkpt lat="46.68993" lon="-1.92806">
        <ele>4</ele>
        <time>2018-01-12T18:12:25Z</time>
      </trkpt>
      <trkpt lat="46.68992" lon="-1.92805">
        <ele>4</ele>
        <time>2018-01-12T18:13:25Z</time>
      </trkpt>
      <trkpt lat="46.68977" lon="-1.92784">
        <ele>4</ele>
        <time>2018-01-12T18:14:25Z</time>
      </trkpt>
      <trkpt lat="46.68969" lon="-1.92774">
        <ele>4</ele>
        <time>2018-01-12T18:15:25Z</time>
      </trkpt>
      <trkpt lat="46.68965" lon="-1.92769">
        <ele>4</ele>
        <time>2018-01-12T18:16:25Z</time>
      </trkpt>
      <trkpt lat="46.68955" lon="-1.92755">
        <ele>4</ele>
        <time>2018-01-12T18:17:25Z</time>
      </trkpt>
      <trkpt lat="46.68947" lon="-1.92747">
        <ele>4</ele>
        <time>2018-01-12T18:18:25Z</time>
      </trkpt>
      <trkpt lat="46.68936" lon="-1.92737">
        <ele>4</ele>
        <time>2018-01-12T18:19:25Z</time>
      </trkpt>
      <trkpt lat="46.68926" lon="-1.9273">
        <ele>4</ele>
        <time>2018-01-12T18:20:25Z</time>
      </trkpt>
      <trkpt lat="46.68913" lon="-1.92723">
        <ele>4</ele>
        <time>2018-01-12T18:21:25Z</time>
      </trkpt>
      <trkpt lat="46.68897" lon="-1.92716">
        <ele>4</ele>
        <time>2018-01-12T18:22:25Z</time>
      </trkpt>
      <trkpt lat="46.68881" lon="-1.92711">
        <ele>5</ele>
        <time>2018-01-12T18:23:25Z</time>
      </trkpt>
      <trkpt lat="46.68869" lon="-1.92706">
        <ele>5</ele>
        <time>2018-01-12T18:24:25Z</time>
      </trkpt>
      <trkpt lat="46.6886" lon="-1.92704">
        <ele>6</ele>
        <time>2018-01-12T18:25:25Z</time>
      </trkpt>
      <trkpt lat="46.68859" lon="-1.92704">
        <ele>6</ele>
        <time>2018-01-12T18:26:25Z</time>
      </trkpt>
      <trkpt lat="46.68851" lon="-1.92698">
        <ele>6</ele>
        <time>2018-01-12T18:27:25Z</time>
      </trkpt>
      <trkpt lat="46.68851" lon="-1.92698">
        <ele>6</ele>
        <time>2018-01-12T18:28:25Z</time>
      </trkpt>
      <trkpt lat="46.68851" lon="-1.92699">
        <ele>6</ele>
        <time>2018-01-12T18:29:25Z</time>
      </trkpt>
      <trkpt lat="46.6885" lon="-1.92699">
        <ele>6</ele>
        <time>2018-01-12T18:30:25Z</time>
      </trkpt>
      <trkpt lat="46.68849" lon="-1.927">
        <ele>6</ele>
        <time>2018-01-12T18:31:25Z</time>
      </trkpt>
      <trkpt lat="46.68848" lon="-1.927">
        <ele>6</ele>
        <time>2018-01-12T18:32:25Z</time>
      </trkpt>
      <trkpt lat="46.68848" lon="-1.92701">
        <ele>6</ele>
        <time>2018-01-12T18:33:25Z</time>
      </trkpt>
      <trkpt lat="46.68847" lon="-1.92701">
        <ele>6</ele>
        <time>2018-01-12T18:34:25Z</time>
      </trkpt>
      <trkpt lat="46.68846" lon="-1.92701">
        <ele>6</ele>
        <time>2018-01-12T18:35:25Z</time>
      </trkpt>
      <trkpt lat="46.68845" lon="-1.92701">
        <ele>6</ele>
        <time>2018-01-12T18:36:25Z</time>
      </trkpt>
      <trkpt lat="46.68844" lon="-1.92701">
        <ele>7</ele>
        <time>2018-01-12T18:37:25Z</time>
      </trkpt>
      <trkpt lat="46.68844" lon="-1.927">
        <ele>7</ele>
        <time>2018-01-12T18:38:25Z</time>
      </trkpt>
      <trkpt lat="46.68843" lon="-1.927">
        <ele>7</ele>
        <time>2018-01-12T18:39:25Z</time>
      </trkpt>
      <trkpt lat="46.68842" lon="-1.92699">
        <ele>7</ele>
        <time>2018-01-12T18:40:25Z</time>
      </trkpt>
      <trkpt lat="46.68837" lon="-1.927">
        <ele>7</ele>
        <time>2018-01-12T18:41:25Z</time>
      </trkpt>
      <trkpt lat="46.68833" lon="-1.92701">
        <ele>7</ele>
        <time>2018-01-12T18:42:25Z</time>
      </trkpt>
      <trkpt lat="46.68828" lon="-1.927">
        <ele>7</ele>
        <time>2018-01-12T18:43:25Z</time>
      </trkpt>
      <trkpt lat="46.68827" lon="-1.927">
        <ele>7</ele>
        <time>2018-01-12T18:44:25Z</time>
      </trkpt>
      <trkpt lat="46.68827" lon="-1.92701">
        <ele>7</ele>
        <time>2018-01-12T18:45:25Z</time>
      </trkpt>
      <trkpt lat="46.68826" lon="-1.92701">
        <ele>7</ele>
        <time>2018-01-12T18:46:25Z</time>
      </trkpt>
      <trkpt lat="46.68826" lon="-1.92702">
        <ele>7</ele>
        <time>2018-01-12T18:47:25Z</time>
      </trkpt>
      <trkpt lat="46.68825" lon="-1.92702">
        <ele>7</ele>
        <time>2018-01-12T18:48:25Z</time>
      </trkpt>
      <trkpt lat="46.68825" lon="-1.92703">
        <ele>7</ele>
        <time>2018-01-12T18:49:25Z</time>
      </trkpt>
      <trkpt lat="46.68824" lon="-1.92703">
        <ele>7</ele>
        <time>2018-01-12T18:50:25Z</time>
      </trkpt>
      <trkpt lat="46.68823" lon="-1.92703">
        <ele>7</ele>
        <time>2018-01-12T18:51:25Z</time>
      </trkpt>
      <trkpt lat="46.68822" lon="-1.92703">
        <ele>7</ele>
        <time>2018-01-12T18:52:25Z</time>
      </trkpt>
      <trkpt lat="46.68821" lon="-1.92703">
        <ele>7</ele>
        <time>2018-01-12T18:53:25Z</time>
      </trkpt>
      <trkpt lat="46.68821" lon="-1.92702">
        <ele>7</ele>
        <time>2018-01-12T18:54:25Z</time>
      </trkpt>
      <trkpt lat="46.6882" lon="-1.92702">
        <ele>7</ele>
        <time>2018-01-12T18:55:25Z</time>
      </trkpt>
      <trkpt lat="46.6882" lon="-1.92701">
        <ele>7</ele>
        <time>2018-01-12T18:56:25Z</time>
      </trkpt>
      <trkpt lat="46.68819" lon="-1.92701">
        <ele>7</ele>
        <time>2018-01-12T18:57:25Z</time>
      </trkpt>
      <trkpt lat="46.68819" lon="-1.927">
        <ele>7</ele>
        <time>2018-01-12T18:58:25Z</time>
      </trkpt>
      <trkpt lat="46.68818" lon="-1.927">
        <ele>7</ele>
        <time>2018-01-12T18:59:25Z</time>
      </trkpt>
      <trkpt lat="46.68818" lon="-1.92699">
        <ele>7</ele>
        <time>2018-01-12T19:00:25Z</time>
      </trkpt>
      <trkpt lat="46.68818" lon="-1.92698">
        <ele>7</ele>
        <time>2018-01-12T19:01:25Z</time>
      </trkpt>
      <trkpt lat="46.68817" lon="-1.92698">
        <ele>7</ele>
        <time>2018-01-12T19:02:25Z</time>
      </trkpt>
      <trkpt lat="46.68817" lon="-1.92697">
        <ele>7</ele>
        <time>2018-01-12T19:03:25Z</time>
      </trkpt>
      <trkpt lat="46.68817" lon="-1.92696">
        <ele>7</ele>
        <time>2018-01-12T19:04:25Z</time>
      </trkpt>
      <trkpt lat="46.68817" lon="-1.92695">
        <ele>7</ele>
        <time>2018-01-12T19:05:25Z</time>
      </trkpt>
      <trkpt lat="46.68817" lon="-1.92694">
        <ele>7</ele>
        <time>2018-01-12T19:06:25Z</time>
      </trkpt>
      <trkpt lat="46.68817" lon="-1.92693">
        <ele>7</ele>
        <time>2018-01-12T19:07:25Z</time>
      </trkpt>
      <trkpt lat="46.68817" lon="-1.92692">
        <ele>7</ele>
        <time>2018-01-12T19:08:25Z</time>
      </trkpt>
      <trkpt lat="46.68817" lon="-1.92691">
        <ele>7</ele>
        <time>2018-01-12T19:09:25Z</time>
      </trkpt>
      <trkpt lat="46.68817" lon="-1.9269">
        <ele>7</ele>
        <time>2018-01-12T19:10:25Z</time>
      </trkpt>
      <trkpt lat="46.68804" lon="-1.92685">
        <ele>7</ele>
        <time>2018-01-12T19:11:25Z</time>
      </trkpt>
      <trkpt lat="46.68787" lon="-1.9268">
        <ele>8</ele>
        <time>2018-01-12T19:12:25Z</time>
      </trkpt>
      <trkpt lat="46.68776" lon="-1.92676">
        <ele>8</ele>
        <time>2018-01-12T19:13:25Z</time>
      </trkpt>
      <trkpt lat="46.6876" lon="-1.92669">
        <ele>8</ele>
        <time>2018-01-12T19:14:25Z</time>
      </trkpt>
      <trkpt lat="46.68759" lon="-1.92668">
        <ele>8</ele>
        <time>2018-01-12T19:15:25Z</time>
      </trkpt>
      <trkpt lat="46.68733" lon="-1.92654">
        <ele>8</ele>
        <time>2018-01-12T19:16:25Z</time>
      </trkpt>
      <trkpt lat="46.68732" lon="-1.92654">
        <ele>8</ele>
        <time>2018-01-12T19:17:25Z</time>
      </trkpt>
      <trkpt lat="46.68707" lon="-1.92638">
        <ele>9</ele>
        <time>2018-01-12T19:18:25Z</time>
      </trkpt>
      <trkpt lat="46.68669" lon="-1.92615">
        <ele>10</ele>
        <time>2018-01-12T19:19:25Z</time>
      </trkpt>
      <trkpt lat="46.68651" lon="-1.92602">
        <ele>10</ele>
        <time>2018-01-12T19:20:25Z</time>
      </trkpt>
      <trkpt lat="46.68644" lon="-1.92596">
        <ele>10</ele>
        <time>2018-01-12T19:21:25Z</time>
      </trkpt>
      <trkpt lat="46.68635" lon="-1.92588">
        <ele>10</ele>
        <time>2018-01-12T19:22:25Z</time>
      </trkpt>
      <trkpt lat="46.68634" lon="-1.92586">
        <ele>10</ele>
        <time>2018-01-12T19:23:25Z</time>
      </trkpt>
      <trkpt lat="46.68629" lon="-1.9258">
        <ele>10</ele>
        <time>2018-01-12T19:24:25Z</time>
      </trkpt>
      <trkpt lat="46.68625" lon="-1.92575">
        <ele>10</ele>
        <time>2018-01-12T19:25:25Z</time>
      </trkpt>
      <trkpt lat="46.68616" lon="-1.92563">
        <ele>10</ele>
        <time>2018-01-12T19:26:25Z</time>
      </trkpt>
      <trkpt lat="46.68605" lon="-1.92548">
        <ele>10</ele>
        <time>2018-01-12T19:27:25Z</time>
      </trkpt>
      <trkpt lat="46.68594" lon="-1.92534">
        <ele>10</ele>
        <time>2018-01-12T19:28:25Z</time>
      </trkpt>
      <trkpt lat="46.68589" lon="-1.92528">
        <ele>10</ele>
        <time>2018-01-12T19:29:25Z</time>
      </trkpt>
      <trkpt lat="46.68567" lon="-1.925">
        <ele>10</ele>
        <time>2018-01-12T19:30:25Z</time>
      </trkpt>
      <trkpt lat="46.68549" lon="-1.92476">
        <ele>10</ele>
        <time>2018-01-12T19:31:25Z</time>
      </trkpt>
      <trkpt lat="46.68538" lon="-1.92464">
        <ele>10</ele>
        <time>2018-01-12T19:32:25Z</time>
      </trkpt>
      <trkpt lat="46.68532" lon="-1.92456">
        <ele>10</ele>
        <time>2018-01-12T19:33:25Z</time>
      </trkpt>
      <trkpt lat="46.68528" lon="-1.9245">
        <ele>10</ele>
        <time>2018-01-12T19:34:25Z</time>
      </trkpt>
      <trkpt lat="46.68514" lon="-1.92436">
        <ele>10</ele>
        <time>2018-01-12T19:35:25Z</time>
      </trkpt>
      <trkpt lat="46.68505" lon="-1.92428">
        <ele>10</ele>
        <time>2018-01-12T19:36:25Z</time>
      </trkpt>
      <trkpt lat="46.68495" lon="-1.9242">
        <ele>10</ele>
        <time>2018-01-12T19:37:25Z</time>
      </trkpt>
      <trkpt lat="46.68487" lon="-1.92415">
        <ele>10</ele>
        <time>2018-01-12T19:38:25Z</time>
      </trkpt>
      <trkpt lat="46.68481" lon="-1.92411">
        <ele>10</ele>
        <time>2018-01-12T19:39:25Z</time>
      </trkpt>
      <trkpt lat="46.68472" lon="-1.92408">
        <ele>10</ele>
        <time>2018-01-12T19:40:25Z</time>
      </trkpt>
      <trkpt lat="46.68463" lon="-1.92406">
        <ele>10</ele>
        <time>2018-01-12T19:41:25Z</time>
      </trkpt>
      <trkpt lat="46.68454" lon="-1.92404">
        <ele>10</ele>
        <time>2018-01-12T19:42:25Z</time>
      </trkpt>
      <trkpt lat="46.68447" lon="-1.92403">
        <ele>10</ele>
        <time>2018-01-12T19:43:25Z</time>
      </trkpt>
      <trkpt lat="46.68435" lon="-1.924">
        <ele>10</ele>
        <time>2018-01-12T19:44:25Z</time>
      </trkpt>
      <trkpt lat="46.68426" lon="-1.92396">
        <ele>10</ele>
        <time>2018-01-12T19:45:25Z</time>
      </trkpt>
      <trkpt lat="46.68413" lon="-1.92388">
        <ele>10</ele>
        <time>2018-01-12T19:46:25Z</time>
      </trkpt>
      <trkpt lat="46.68403" lon="-1.9238">
        <ele>10</ele>
        <time>2018-01-12T19:47:25Z</time>
      </trkpt>
      <trkpt lat="46.68389" lon="-1.92363">
        <ele>10</ele>
        <time>2018-01-12T19:48:25Z</time>
      </trkpt>
      <trkpt lat="46.6838" lon="-1.92351">
        <ele>10</ele>
        <time>2018-01-12T19:49:25Z</time>
      </trkpt>
      <trkpt lat="46.68377" lon="-1.92346">
        <ele>10</ele>
        <time>2018-01-12T19:50:25Z</time>
      </trkpt>
      <trkpt lat="46.6837" lon="-1.92334">
        <ele>10</ele>
        <time>2018-01-12T19:51:25Z</time>
      </trkpt>
      <trkpt lat="46.68355" lon="-1.92305">
        <ele>10</ele>
        <time>2018-01-12T19:52:25Z</time>
      </trkpt>
      <trkpt lat="46.6833" lon="-1.92261">
        <ele>9</ele>
        <time>2018-01-12T19:53:25Z</time>
      </trkpt>
      <trkpt lat="46.6832" lon="-1.92245">
        <ele>9</ele>
        <time>2018-01-12T19:54:25Z</time>
      </trkpt>
      <trkpt lat="46.68306" lon="-1.92219">
        <ele>9</ele>
        <time>2018-01-12T19:55:25Z</time>
      </trkpt>
      <trkpt lat="46.68291" lon="-1.92193">
        <ele>8</ele>
        <time>2018-01-12T19:56:25Z</time>
      </trkpt>
      <trkpt lat="46.68286" lon="-1.92186">
        <ele>8</ele>
        <time>2018-01-12T19:57:25Z</time>
      </trkpt>
      <trkpt lat="46.68277" lon="-1.92172">
        <ele>8</ele>
        <time>2018-01-12T19:58:25Z</time>
      </trkpt>
      <trkpt lat="46.68267" lon="-1.92157">
        <ele>7</ele>
        <time>2018-01-12T19:59:25Z</time>
      </trkpt>
      <trkpt lat="46.68255" lon="-1.9214">
        <ele>7</ele>
        <time>2018-01-12T20:00:25Z</time>
      </trkpt>
      <trkpt lat="46.6823" lon="-1.92107">
        <ele>7</ele>
        <time>2018-01-12T20:01:25Z</time>
      </trkpt>
      <trkpt lat="46.68227" lon="-1.92103">
        <ele>7</ele>
        <time>2018-01-12T20:02:25Z</time>
      </trkpt>
      <trkpt lat="46.68224" lon="-1.92098">
        <ele>7</ele>
        <time>2018-01-12T20:03:25Z</time>
      </trkpt>
      <trkpt lat="46.68224" lon="-1.92097">
        <ele>7</ele>
        <time>2018-01-12T20:04:25Z</time>
      </trkpt>
      <trkpt lat="46.6822" lon="-1.92091">
        <ele>7</ele>
        <time>2018-01-12T20:05:25Z</time>
      </trkpt>
      <trkpt lat="46.68208" lon="-1.92073">
        <ele>7</ele>
        <time>2018-01-12T20:06:25Z</time>
      </trkpt>
      <trkpt lat="46.68198" lon="-1.92057">
        <ele>7</ele>
        <time>2018-01-12T20:07:25Z</time>
      </trkpt>
      <trkpt lat="46.68174" lon="-1.92025">
        <ele>8</ele>
        <time>2018-01-12T20:08:25Z</time>
      </trkpt>
      <trkpt lat="46.68158" lon="-1.92003">
        <ele>8</ele>
        <time>2018-01-12T20:09:25Z</time>
      </trkpt>
      <trkpt lat="46.68115" lon="-1.91941">
        <ele>8</ele>
        <time>2018-01-12T20:10:25Z</time>
      </trkpt>
      <trkpt lat="46.68083" lon="-1.91897">
        <ele>8</ele>
        <time>2018-01-12T20:11:25Z</time>
      </trkpt>
      <trkpt lat="46.68057" lon="-1.91858">
        <ele>8</ele>
        <time>2018-01-12T20:12:25Z</time>
      </trkpt>
      <trkpt lat="46.68041" lon="-1.91836">
        <ele>8</ele>
        <time>2018-01-12T20:13:25Z</time>
      </trkpt>
      <trkpt lat="46.68033" lon="-1.91825">
        <ele>8</ele>
        <time>2018-01-12T20:14:25Z</time>
      </trkpt>
      <trkpt lat="46.68022" lon="-1.91808">
        <ele>8</ele>
        <time>2018-01-12T20:15:25Z</time>
      </trkpt>
      <trkpt lat="46.68" lon="-1.91776">
        <ele>8</ele>
        <time>2018-01-12T20:16:25Z</time>
      </trkpt>
      <trkpt lat="46.67972" lon="-1.91737">
        <ele>7</ele>
        <time>2018-01-12T20:17:25Z</time>
      </trkpt>
      <trkpt lat="46.67947" lon="-1.91703">
        <ele>7</ele>
        <time>2018-01-12T20:18:25Z</time>
      </trkpt>
      <trkpt lat="46.67928" lon="-1.91675">
        <ele>7</ele>
        <time>2018-01-12T20:19:25Z</time>
      </trkpt>
      <trkpt lat="46.67898" lon="-1.91633">
        <ele>7</ele>
        <time>2018-01-12T20:20:25Z</time>
      </trkpt>
      <trkpt lat="46.67883" lon="-1.91611">
        <ele>6</ele>
        <time>2018-01-12T20:21:25Z</time>
      </trkpt>
      <trkpt lat="46.67864" lon="-1.91583">
        <ele>6</ele>
        <time>2018-01-12T20:22:25Z</time>
      </trkpt>
      <trkpt lat="46.6784" lon="-1.91552">
        <ele>6</ele>
        <time>2018-01-12T20:23:25Z</time>
      </trkpt>
      <trkpt lat="46.67831" lon="-1.91538">
        <ele>6</ele>
        <time>2018-01-12T20:24:25Z</time>
      </trkpt>
      <trkpt lat="46.67783" lon="-1.91471">
        <ele>6</ele>
        <time>2018-01-12T20:25:25Z</time>
      </trkpt>
      <trkpt lat="46.67747" lon="-1.9142">
        <ele>6</ele>
        <time>2018-01-12T20:26:25Z</time>
      </trkpt>
      <trkpt lat="46.67743" lon="-1.91414">
        <ele>6</ele>
        <time>2018-01-12T20:27:25Z</time>
      </trkpt>
      <trkpt lat="46.67704" lon="-1.91358">
        <ele>5</ele>
        <time>2018-01-12T20:28:25Z</time>
      </trkpt>
      <trkpt lat="46.67662" lon="-1.91298">
        <ele>5</ele>
        <time>2018-01-12T20:29:25Z</time>
      </trkpt>
      <trkpt lat="46.67634" lon="-1.91261">
        <ele>5</ele>
        <time>2018-01-12T20:30:25Z</time>
      </trkpt>
      <trkpt lat="46.67612" lon="-1.91228">
        <ele>5</ele>
        <time>2018-01-12T20:31:25Z</time>
      </trkpt>
      <trkpt lat="46.67587" lon="-1.91194">
        <ele>6</ele>
        <time>2018-01-12T20:32:25Z</time>
      </trkpt>
      <trkpt lat="46.67578" lon="-1.91181">
        <ele>6</ele>
        <time>2018-01-12T20:33:25Z</time>
      </trkpt>
      <trkpt lat="46.67546" lon="-1.91137">
        <ele>5</ele>
        <time>2018-01-12T20:34:25Z</time>
      </trkpt>
      <trkpt lat="46.67518" lon="-1.91097">
        <ele>5</ele>
        <time>2018-01-12T20:35:25Z</time>
      </trkpt>
      <trkpt lat="46.6749" lon="-1.9106">
        <ele>5</ele>
        <time>2018-01-12T20:36:25Z</time>
      </trkpt>
      <trkpt lat="46.67469" lon="-1.9103">
        <ele>4</ele>
        <time>2018-01-12T20:37:25Z</time>
      </trkpt>
      <trkpt lat="46.67456" lon="-1.9101">
        <ele>4</ele>
        <time>2018-01-12T20:38:25Z</time>
      </trkpt>
      <trkpt lat="46.67452" lon="-1.91005">
        <ele>4</ele>
        <time>2018-01-12T20:39:25Z</time>
      </trkpt>
      <trkpt lat="46.67446" lon="-1.90996">
        <ele>4</ele>
        <time>2018-01-12T20:40:25Z</time>
      </trkpt>
      <trkpt lat="46.6744" lon="-1.90984">
        <ele>4</ele>
        <time>2018-01-12T20:41:25Z</time>
      </trkpt>
      <trkpt lat="46.67435" lon="-1.90971">
        <ele>3</ele>
        <time>2018-01-12T20:42:25Z</time>
      </trkpt>
      <trkpt lat="46.67435" lon="-1.90971">
        <ele>3</ele>
        <time>2018-01-12T20:43:25Z</time>
      </trkpt>
      <trkpt lat="46.67432" lon="-1.90969">
        <ele>3</ele>
        <time>2018-01-12T20:44:25Z</time>
      </trkpt>
      <trkpt lat="46.6743" lon="-1.90968">
        <ele>3</ele>
        <time>2018-01-12T20:45:25Z</time>
      </trkpt>
      <trkpt lat="46.67429" lon="-1.90967">
        <ele>3</ele>
        <time>2018-01-12T20:46:25Z</time>
      </trkpt>
      <trkpt lat="46.67427" lon="-1.90965">
        <ele>3</ele>
        <time>2018-01-12T20:47:25Z</time>
      </trkpt>
      <trkpt lat="46.67426" lon="-1.90964">
        <ele>3</ele>
        <time>2018-01-12T20:48:25Z</time>
      </trkpt>
      <trkpt lat="46.67424" lon="-1.90962">
        <ele>3</ele>
        <time>2018-01-12T20:49:25Z</time>
      </trkpt>
      <trkpt lat="46.67423" lon="-1.9096">
        <ele>3</ele>
        <time>2018-01-12T20:50:25Z</time>
      </trkpt>
      <trkpt lat="46.67422" lon="-1.90958">
        <ele>3</ele>
        <time>2018-01-12T20:51:25Z</time>
      </trkpt>
      <trkpt lat="46.67421" lon="-1.90956">
        <ele>3</ele>
        <time>2018-01-12T20:52:25Z</time>
      </trkpt>
      <trkpt lat="46.6742" lon="-1.90953">
        <ele>3</ele>
        <time>2018-01-12T20:53:25Z</time>
      </trkpt>
      <trkpt lat="46.6742" lon="-1.90951">
        <ele>3</ele>
        <time>2018-01-12T20:54:25Z</time>
      </trkpt>
      <trkpt lat="46.6742" lon="-1.9095">
        <ele>3</ele>
        <time>2018-01-12T20:55:25Z</time>
      </trkpt>
      <trkpt lat="46.67419" lon="-1.9095">
        <ele>3</ele>
        <time>2018-01-12T20:56:25Z</time>
      </trkpt>
      <trkpt lat="46.67419" lon="-1.90949">
        <ele>3</ele>
        <time>2018-01-12T20:57:25Z</time>
      </trkpt>
      <trkpt lat="46.67419" lon="-1.90948">
        <ele>3</ele>
        <time>2018-01-12T20:58:25Z</time>
      </trkpt>
      <trkpt lat="46.67419" lon="-1.90947">
        <ele>3</ele>
        <time>2018-01-12T20:59:25Z</time>
      </trkpt>
      <trkpt lat="46.67419" lon="-1.90946">
        <ele>3</ele>
        <time>2018-01-12T21:00:25Z</time>
      </trkpt>
      <trkpt lat="46.67414" lon="-1.90938">
        <ele>3</ele>
        <time>2018-01-12T21:01:25Z</time>
      </trkpt>
      <trkpt lat="46.67409" lon="-1.90932">
        <ele>3</ele>
        <time>2018-01-12T21:02:25Z</time>
      </trkpt>
      <trkpt lat="46.67407" lon="-1.90929">
        <ele>3</ele>
        <time>2018-01-12T21:03:25Z</time>
      </trkpt>
      <trkpt lat="46.67405" lon="-1.90925">
        <ele>3</ele>
        <time>2018-01-12T21:04:25Z</time>
      </trkpt>
      <trkpt lat="46.67398" lon="-1.90917">
        <ele>3</ele>
        <time>2018-01-12T21:05:25Z</time>
      </trkpt>
      <trkpt lat="46.67384" lon="-1.90901">
        <ele>3</ele>
        <time>2018-01-12T21:06:25Z</time>
      </trkpt>
      <trkpt lat="46.67344" lon="-1.90854">
        <ele>2</ele>
        <time>2018-01-12T21:07:25Z</time>
      </trkpt>
      <trkpt lat="46.67339" lon="-1.90844">
        <ele>2</ele>
        <time>2018-01-12T21:08:25Z</time>
      </trkpt>
      <trkpt lat="46.67336" lon="-1.9084">
        <ele>2</ele>
        <time>2018-01-12T21:09:25Z</time>
      </trkpt>
      <trkpt lat="46.67333" lon="-1.90837">
        <ele>2</ele>
        <time>2018-01-12T21:10:25Z</time>
      </trkpt>
      <trkpt lat="46.6733" lon="-1.90833">
        <ele>2</ele>
        <time>2018-01-12T21:11:25Z</time>
      </trkpt>
      <trkpt lat="46.67327" lon="-1.90829">
        <ele>2</ele>
        <time>2018-01-12T21:12:25Z</time>
      </trkpt>
      <trkpt lat="46.67323" lon="-1.90824">
        <ele>2</ele>
        <time>2018-01-12T21:13:25Z</time>
      </trkpt>
      <trkpt lat="46.6732" lon="-1.90819">
        <ele>2</ele>
        <time>2018-01-12T21:14:25Z</time>
      </trkpt>
      <trkpt lat="46.67313" lon="-1.9081">
        <ele>2</ele>
        <time>2018-01-12T21:15:25Z</time>
      </trkpt>
      <trkpt lat="46.67301" lon="-1.90794">
        <ele>2</ele>
        <time>2018-01-12T21:16:25Z</time>
      </trkpt>
      <trkpt lat="46.67282" lon="-1.90767">
        <ele>3</ele>
        <time>2018-01-12T21:17:25Z</time>
      </trkpt>
      <trkpt lat="46.67255" lon="-1.90729">
        <ele>3</ele>
        <time>2018-01-12T21:18:25Z</time>
      </trkpt>
      <trkpt lat="46.67226" lon="-1.90688">
        <ele>4</ele>
        <time>2018-01-12T21:19:25Z</time>
      </trkpt>
      <trkpt lat="46.67205" lon="-1.90658">
        <ele>4</ele>
        <time>2018-01-12T21:20:25Z</time>
      </trkpt>
      <trkpt lat="46.67166" lon="-1.90604">
        <ele>5</ele>
        <time>2018-01-12T21:21:25Z</time>
      </trkpt>
      <trkpt lat="46.67105" lon="-1.90518">
        <ele>5</ele>
        <time>2018-01-12T21:22:25Z</time>
      </trkpt>
      <trkpt lat="46.67097" lon="-1.90511">
        <ele>5</ele>
        <time>2018-01-12T21:23:25Z</time>
      </trkpt>
      <trkpt lat="46.67055" lon="-1.90456">
        <ele>5</ele>
        <time>2018-01-12T21:24:25Z</time>
      </trkpt>
      <trkpt lat="46.67046" lon="-1.90444">
        <ele>5</ele>
        <time>2018-01-12T21:25:25Z</time>
      </trkpt>
      <trkpt lat="46.67037" lon="-1.9043">
        <ele>5</ele>
        <time>2018-01-12T21:26:25Z</time>
      </trkpt>
      <trkpt lat="46.67034" lon="-1.90427">
        <ele>5</ele>
        <time>2018-01-12T21:27:25Z</time>
      </trkpt>
      <trkpt lat="46.67019" lon="-1.90408">
        <ele>5</ele>
        <time>2018-01-12T21:28:25Z</time>
      </trkpt>
      <trkpt lat="46.67018" lon="-1.90407">
        <ele>5</ele>
        <time>2018-01-12T21:29:25Z</time>
      </trkpt>
      <trkpt lat="46.67017" lon="-1.90406">
        <ele>5</ele>
        <time>2018-01-12T21:30:25Z</time>
      </trkpt>
      <trkpt lat="46.67016" lon="-1.90404">
        <ele>5</ele>
        <time>2018-01-12T21:31:25Z</time>
      </trkpt>
      <trkpt lat="46.67014" lon="-1.90402">
        <ele>5</ele>
        <time>2018-01-12T21:32:25Z</time>
      </trkpt>
      <trkpt lat="46.67012" lon="-1.90399">
        <ele>5</ele>
        <time>2018-01-12T21:33:25Z</time>
      </trkpt>
      <trkpt lat="46.66999" lon="-1.9038">
        <ele>5</ele>
        <time>2018-01-12T21:34:25Z</time>
      </trkpt>
      <trkpt lat="46.66997" lon="-1.90377">
        <ele>5</ele>
        <time>2018-01-12T21:35:25Z</time>
      </trkpt>
      <trkpt lat="46.66995" lon="-1.90374">
        <ele>5</ele>
        <time>2018-01-12T21:36:25Z</time>
      </trkpt>
      <trkpt lat="46.66993" lon="-1.90372">
        <ele>5</ele>
        <time>2018-01-12T21:37:25Z</time>
      </trkpt>
      <trkpt lat="46.66982" lon="-1.90356">
        <ele>5</ele>
        <time>2018-01-12T21:38:25Z</time>
      </trkpt>
      <trkpt lat="46.66982" lon="-1.90356">
        <ele>5</ele>
        <time>2018-01-12T21:39:25Z</time>
      </trkpt>
      <trkpt lat="46.66981" lon="-1.90356">
        <ele>5</ele>
        <time>2018-01-12T21:40:25Z</time>
      </trkpt>
      <trkpt lat="46.66979" lon="-1.90355">
        <ele>5</ele>
        <time>2018-01-12T21:41:25Z</time>
      </trkpt>
      <trkpt lat="46.66978" lon="-1.90355">
        <ele>5</ele>
        <time>2018-01-12T21:42:25Z</time>
      </trkpt>
      <trkpt lat="46.66977" lon="-1.90354">
        <ele>5</ele>
        <time>2018-01-12T21:43:25Z</time>
      </trkpt>
      <trkpt lat="46.66976" lon="-1.90353">
        <ele>5</ele>
        <time>2018-01-12T21:44:25Z</time>
      </trkpt>
      <trkpt lat="46.66975" lon="-1.90352">
        <ele>5</ele>
        <time>2018-01-12T21:45:25Z</time>
      </trkpt>
      <trkpt lat="46.66974" lon="-1.90351">
        <ele>5</ele>
        <time>2018-01-12T21:46:25Z</time>
      </trkpt>
      <trkpt lat="46.66973" lon="-1.9035">
        <ele>5</ele>
        <time>2018-01-12T21:47:25Z</time>
      </trkpt>
      <trkpt lat="46.66972" lon="-1.90349">
        <ele>5</ele>
        <time>2018-01-12T21:48:25Z</time>
      </trkpt>
      <trkpt lat="46.66971" lon="-1.90348">
        <ele>5</ele>
        <time>2018-01-12T21:49:25Z</time>
      </trkpt>
      <trkpt lat="46.6697" lon="-1.90346">
        <ele>5</ele>
        <time>2018-01-12T21:50:25Z</time>
      </trkpt>
      <trkpt lat="46.66969" lon="-1.90345">
        <ele>5</ele>
        <time>2018-01-12T21:51:25Z</time>
      </trkpt>
      <trkpt lat="46.66969" lon="-1.90343">
        <ele>5</ele>
        <time>2018-01-12T21:52:25Z</time>
      </trkpt>
      <trkpt lat="46.66968" lon="-1.90341">
        <ele>5</ele>
        <time>2018-01-12T21:53:25Z</time>
      </trkpt>
      <trkpt lat="46.66968" lon="-1.9034">
        <ele>5</ele>
        <time>2018-01-12T21:54:25Z</time>
      </trkpt>
      <trkpt lat="46.66967" lon="-1.90338">
        <ele>5</ele>
        <time>2018-01-12T21:55:25Z</time>
      </trkpt>
      <trkpt lat="46.66967" lon="-1.90335">
        <ele>5</ele>
        <time>2018-01-12T21:56:25Z</time>
      </trkpt>
      <trkpt lat="46.66963" lon="-1.90329">
        <ele>5</ele>
        <time>2018-01-12T21:57:25Z</time>
      </trkpt>
      <trkpt lat="46.66956" lon="-1.90318">
        <ele>5</ele>
        <time>2018-01-12T21:58:25Z</time>
      </trkpt>
      <trkpt lat="46.66936" lon="-1.90291">
        <ele>5</ele>
        <time>2018-01-12T21:59:25Z</time>
      </trkpt>
      <trkpt lat="46.66926" lon="-1.90283">
        <ele>5</ele>
        <time>2018-01-12T22:00:25Z</time>
      </trkpt>
      <trkpt lat="46.66922" lon="-1.90279">
        <ele>5</ele>
        <time>2018-01-12T22:01:25Z</time>
      </trkpt>
      <trkpt lat="46.66917" lon="-1.90275">
        <ele>5</ele>
        <time>2018-01-12T22:02:25Z</time>
      </trkpt>
      <trkpt lat="46.66913" lon="-1.90272">
        <ele>5</ele>
        <time>2018-01-12T22:03:25Z</time>
      </trkpt>
      <trkpt lat="46.66908" lon="-1.90269">
        <ele>5</ele>
        <time>2018-01-12T22:04:25Z</time>
      </trkpt>
      <trkpt lat="46.66902" lon="-1.90265">
        <ele>5</ele>
        <time>2018-01-12T22:05:25Z</time>
      </trkpt>
      <trkpt lat="46.66895" lon="-1.90261">
        <ele>5</ele>
        <time>2018-01-12T22:06:25Z</time>
      </trkpt>
      <trkpt lat="46.66891" lon="-1.90258">
        <ele>5</ele>
        <time>2018-01-12T22:07:25Z</time>
      </trkpt>
      <trkpt lat="46.66887" lon="-1.90256">
        <ele>5</ele>
        <time>2018-01-12T22:08:25Z</time>
      </trkpt>
      <trkpt lat="46.66883" lon="-1.90253">
        <ele>5</ele>
        <time>2018-01-12T22:09:25Z</time>
      </trkpt>
      <trkpt lat="46.66878" lon="-1.90251">
        <ele>5</ele>
        <time>2018-01-12T22:10:25Z</time>
      </trkpt>
      <trkpt lat="46.66874" lon="-1.90248">
        <ele>5</ele>
        <time>2018-01-12T22:11:25Z</time>
      </trkpt>
      <trkpt lat="46.66868" lon="-1.90245">
        <ele>5</ele>
        <time>2018-01-12T22:12:25Z</time>
      </trkpt>
      <trkpt lat="46.66863" lon="-1.90243">
        <ele>5</ele>
        <time>2018-01-12T22:13:25Z</time>
      </trkpt>
      <trkpt lat="46.66848" lon="-1.90237">
        <ele>5</ele>
        <time>2018-01-12T22:14:25Z</time>
      </trkpt>
      <trkpt lat="46.66842" lon="-1.90237">
        <ele>5</ele>
        <time>2018-01-12T22:15:25Z</time>
      </trkpt>
      <trkpt lat="46.66834" lon="-1.90235">
        <ele>5</ele>
        <time>2018-01-12T22:16:25Z</time>
      </trkpt>
      <trkpt lat="46.66812" lon="-1.9023">
        <ele>5</ele>
        <time>2018-01-12T22:17:25Z</time>
      </trkpt>
      <trkpt lat="46.66774" lon="-1.90221">
        <ele>5</ele>
        <time>2018-01-12T22:18:25Z</time>
      </trkpt>
      <trkpt lat="46.66754" lon="-1.90216">
        <ele>5</ele>
        <time>2018-01-12T22:19:25Z</time>
      </trkpt>
      <trkpt lat="46.66747" lon="-1.90214">
        <ele>5</ele>
        <time>2018-01-12T22:20:25Z</time>
      </trkpt>
      <trkpt lat="46.66649" lon="-1.9019">
        <ele>5</ele>
        <time>2018-01-12T22:21:25Z</time>
      </trkpt>
      <trkpt lat="46.66644" lon="-1.90186">
        <ele>5</ele>
        <time>2018-01-12T22:22:25Z</time>
      </trkpt>
      <trkpt lat="46.66598" lon="-1.90175">
        <ele>4</ele>
        <time>2018-01-12T22:23:25Z</time>
      </trkpt>
      <trkpt lat="46.66556" lon="-1.90164">
        <ele>3</ele>
        <time>2018-01-12T22:24:25Z</time>
      </trkpt>
      <trkpt lat="46.66457" lon="-1.90141">
        <ele>3</ele>
        <time>2018-01-12T22:25:25Z</time>
      </trkpt>
      <trkpt lat="46.66365" lon="-1.90118">
        <ele>1</ele>
        <time>2018-01-12T22:26:25Z</time>
      </trkpt>
      <trkpt lat="46.6636" lon="-1.90117">
        <ele>1</ele>
        <time>2018-01-12T22:27:25Z</time>
      </trkpt>
      <trkpt lat="46.66354" lon="-1.90116">
        <ele>1</ele>
        <time>2018-01-12T22:28:25Z</time>
      </trkpt>
      <trkpt lat="46.66342" lon="-1.90113">
        <ele>1</ele>
        <time>2018-01-12T22:29:25Z</time>
      </trkpt>
      <trkpt lat="46.66335" lon="-1.90111">
        <ele>1</ele>
        <time>2018-01-12T22:30:25Z</time>
      </trkpt>
      <trkpt lat="46.66328" lon="-1.90109">
        <ele>1</ele>
        <time>2018-01-12T22:31:25Z</time>
      </trkpt>
      <trkpt lat="46.66301" lon="-1.90103">
        <ele>1</ele>
        <time>2018-01-12T22:32:25Z</time>
      </trkpt>
      <trkpt lat="46.66278" lon="-1.90097">
        <ele>2</ele>
        <time>2018-01-12T22:33:25Z</time>
      </trkpt>
      <trkpt lat="46.66265" lon="-1.90094">
        <ele>2</ele>
        <time>2018-01-12T22:34:25Z</time>
      </trkpt>
      <trkpt lat="46.66258" lon="-1.90092">
        <ele>2</ele>
        <time>2018-01-12T22:35:25Z</time>
      </trkpt>
      <trkpt lat="46.66254" lon="-1.90091">
        <ele>2</ele>
        <time>2018-01-12T22:36:25Z</time>
      </trkpt>
      <trkpt lat="46.66251" lon="-1.90089">
        <ele>2</ele>
        <time>2018-01-12T22:37:25Z</time>
      </trkpt>
      <trkpt lat="46.66244" lon="-1.90087">
        <ele>2</ele>
        <time>2018-01-12T22:38:25Z</time>
      </trkpt>
      <trkpt lat="46.66237" lon="-1.90084">
        <ele>2</ele>
        <time>2018-01-12T22:39:25Z</time>
      </trkpt>
      <trkpt lat="46.66229" lon="-1.9008">
        <ele>3</ele>
        <time>2018-01-12T22:40:25Z</time>
      </trkpt>
      <trkpt lat="46.66223" lon="-1.90077">
        <ele>3</ele>
        <time>2018-01-12T22:41:25Z</time>
      </trkpt>
      <trkpt lat="46.66216" lon="-1.90073">
        <ele>3</ele>
        <time>2018-01-12T22:42:25Z</time>
      </trkpt>
      <trkpt lat="46.66205" lon="-1.90067">
        <ele>3</ele>
        <time>2018-01-12T22:43:25Z</time>
      </trkpt>
      <trkpt lat="46.66183" lon="-1.90053">
        <ele>4</ele>
        <time>2018-01-12T22:44:25Z</time>
      </trkpt>
      <trkpt lat="46.6615" lon="-1.90033">
        <ele>5</ele>
        <time>2018-01-12T22:45:25Z</time>
      </trkpt>
      <trkpt lat="46.66116" lon="-1.90011">
        <ele>6</ele>
        <time>2018-01-12T22:46:25Z</time>
      </trkpt>
      <trkpt lat="46.6609" lon="-1.89996">
        <ele>7</ele>
        <time>2018-01-12T22:47:25Z</time>
      </trkpt>
      <trkpt lat="46.66074" lon="-1.89986">
        <ele>7</ele>
        <time>2018-01-12T22:48:25Z</time>
      </trkpt>
      <trkpt lat="46.66028" lon="-1.89956">
        <ele>8</ele>
        <time>2018-01-12T22:49:25Z</time>
      </trkpt>
      <trkpt lat="46.65975" lon="-1.89922">
        <ele>7</ele>
        <time>2018-01-12T22:50:25Z</time>
      </trkpt>
      <trkpt lat="46.65958" lon="-1.89911">
        <ele>6</ele>
        <time>2018-01-12T22:51:25Z</time>
      </trkpt>
      <trkpt lat="46.65944" lon="-1.89901">
        <ele>7</ele>
        <time>2018-01-12T22:52:25Z</time>
      </trkpt>
      <trkpt lat="46.65878" lon="-1.8986">
        <ele>7</ele>
        <time>2018-01-12T22:53:25Z</time>
      </trkpt>
      <trkpt lat="46.65759" lon="-1.89784">
        <ele>8</ele>
        <time>2018-01-12T22:54:25Z</time>
      </trkpt>
      <trkpt lat="46.65631" lon="-1.89698">
        <ele>8</ele>
        <time>2018-01-12T22:55:25Z</time>
      </trkpt>
      <trkpt lat="46.65546" lon="-1.89643">
        <ele>7</ele>
        <time>2018-01-12T22:56:25Z</time>
      </trkpt>
      <trkpt lat="46.65541" lon="-1.89641">
        <ele>7</ele>
        <time>2018-01-12T22:57:25Z</time>
      </trkpt>
      <trkpt lat="46.65489" lon="-1.89605">
        <ele>7</ele>
        <time>2018-01-12T22:58:25Z</time>
      </trkpt>
      <trkpt lat="46.65461" lon="-1.89586">
        <ele>8</ele>
        <time>2018-01-12T22:59:25Z</time>
      </trkpt>
      <trkpt lat="46.65438" lon="-1.89566">
        <ele>7</ele>
        <time>2018-01-12T23:00:25Z</time>
      </trkpt>
      <trkpt lat="46.65434" lon="-1.89563">
        <ele>7</ele>
        <time>2018-01-12T23:01:25Z</time>
      </trkpt>
      <trkpt lat="46.65366" lon="-1.89503">
        <ele>6</ele>
        <time>2018-01-12T23:02:25Z</time>
      </trkpt>
      <trkpt lat="46.65366" lon="-1.89503">
        <ele>6</ele>
        <time>2018-01-12T23:03:25Z</time>
      </trkpt>
      <trkpt lat="46.65369" lon="-1.89496">
        <ele>6</ele>
        <time>2018-01-12T23:04:25Z</time>
      </trkpt>
      <trkpt lat="46.65366" lon="-1.89476">
        <ele>6</ele>
        <time>2018-01-12T23:05:25Z</time>
      </trkpt>
      <trkpt lat="46.65354" lon="-1.894">
        <ele>5</ele>
        <time>2018-01-12T23:06:25Z</time>
      </trkpt>
      <trkpt lat="46.65344" lon="-1.89332">
        <ele>5</ele>
        <time>2018-01-12T23:07:25Z</time>
      </trkpt>
      <trkpt lat="46.65335" lon="-1.89273">
        <ele>5</ele>
        <time>2018-01-12T23:08:25Z</time>
      </trkpt>
      <trkpt lat="46.65331" lon="-1.89246">
        <ele>5</ele>
        <time>2018-01-12T23:09:25Z</time>
      </trkpt>
      <trkpt lat="46.65321" lon="-1.89187">
        <ele>5</ele>
        <time>2018-01-12T23:10:25Z</time>
      </trkpt>
      <trkpt lat="46.65308" lon="-1.89096">
        <ele>6</ele>
        <time>2018-01-12T23:11:25Z</time>
      </trkpt>
      <trkpt lat="46.65298" lon="-1.89032">
        <ele>7</ele>
        <time>2018-01-12T23:12:25Z</time>
      </trkpt>
      <trkpt lat="46.65287" lon="-1.88968">
        <ele>8</ele>
        <time>2018-01-12T23:13:25Z</time>
      </trkpt>
      <trkpt lat="46.65283" lon="-1.88941">
        <ele>8</ele>
        <time>2018-01-12T23:14:25Z</time>
      </trkpt>
      <trkpt lat="46.65275" lon="-1.88888">
        <ele>8</ele>
        <time>2018-01-12T23:15:25Z</time>
      </trkpt>
      <trkpt lat="46.65267" lon="-1.88835">
        <ele>7</ele>
        <time>2018-01-12T23:16:25Z</time>
      </trkpt>
      <trkpt lat="46.65261" lon="-1.888">
        <ele>7</ele>
        <time>2018-01-12T23:17:25Z</time>
      </trkpt>
      <trkpt lat="46.65257" lon="-1.88772">
        <ele>8</ele>
        <time>2018-01-12T23:18:25Z</time>
      </trkpt>
      <trkpt lat="46.65254" lon="-1.88736">
        <ele>7</ele>
        <time>2018-01-12T23:19:25Z</time>
      </trkpt>
      <trkpt lat="46.65248" lon="-1.88687">
        <ele>7</ele>
        <time>2018-01-12T23:20:25Z</time>
      </trkpt>
      <trkpt lat="46.65243" lon="-1.88632">
        <ele>6</ele>
        <time>2018-01-12T23:21:25Z</time>
      </trkpt>
      <trkpt lat="46.65239" lon="-1.88591">
        <ele>5</ele>
        <time>2018-01-12T23:22:25Z</time>
      </trkpt>
      <trkpt lat="46.65235" lon="-1.88551">
        <ele>6</ele>
        <time>2018-01-12T23:23:25Z</time>
      </trkpt>
      <trkpt lat="46.65235" lon="-1.8855">
        <ele>6</ele>
        <time>2018-01-12T23:24:25Z</time>
      </trkpt>
      <trkpt lat="46.65229" lon="-1.88491">
        <ele>6</ele>
        <time>2018-01-12T23:25:25Z</time>
      </trkpt>
      <trkpt lat="46.65226" lon="-1.88446">
        <ele>5</ele>
        <time>2018-01-12T23:26:25Z</time>
      </trkpt>
      <trkpt lat="46.6522" lon="-1.88391">
        <ele>5</ele>
        <time>2018-01-12T23:27:25Z</time>
      </trkpt>
      <trkpt lat="46.65215" lon="-1.8834">
        <ele>6</ele>
        <time>2018-01-12T23:28:25Z</time>
      </trkpt>
      <trkpt lat="46.65211" lon="-1.88306">
        <ele>7</ele>
        <time>2018-01-12T23:29:25Z</time>
      </trkpt>
      <trkpt lat="46.65208" lon="-1.88282">
        <ele>7</ele>
        <time>2018-01-12T23:30:25Z</time>
      </trkpt>
      <trkpt lat="46.65207" lon="-1.88274">
        <ele>7</ele>
        <time>2018-01-12T23:31:25Z</time>
      </trkpt>
      <trkpt lat="46.65202" lon="-1.88244">
        <ele>8</ele>
        <time>2018-01-12T23:32:25Z</time>
      </trkpt>
      <trkpt lat="46.65195" lon="-1.8821">
        <ele>8</ele>
        <time>2018-01-12T23:33:25Z</time>
      </trkpt>
      <trkpt lat="46.65186" lon="-1.88173">
        <ele>9</ele>
        <time>2018-01-12T23:34:25Z</time>
      </trkpt>
      <trkpt lat="46.65171" lon="-1.88116">
        <ele>10</ele>
        <time>2018-01-12T23:35:25Z</time>
      </trkpt>
      <trkpt lat="46.65158" lon="-1.88068">
        <ele>10</ele>
        <time>2018-01-12T23:36:25Z</time>
      </trkpt>
      <trkpt lat="46.65151" lon="-1.8804">
        <ele>10</ele>
        <time>2018-01-12T23:37:25Z</time>
      </trkpt>
      <trkpt lat="46.65145" lon="-1.88021">
        <ele>11</ele>
        <time>2018-01-12T23:38:25Z</time>
      </trkpt>
      <trkpt lat="46.65137" lon="-1.87988">
        <ele>11</ele>
        <time>2018-01-12T23:39:25Z</time>
      </trkpt>
      <trkpt lat="46.65133" lon="-1.87974">
        <ele>11</ele>
        <time>2018-01-12T23:40:25Z</time>
      </trkpt>
      <trkpt lat="46.65133" lon="-1.87972">
        <ele>11</ele>
        <time>2018-01-12T23:41:25Z</time>
      </trkpt>
      <trkpt lat="46.65124" lon="-1.87945">
        <ele>11</ele>
        <time>2018-01-12T23:42:25Z</time>
      </trkpt>
      <trkpt lat="46.65116" lon="-1.87918">
        <ele>11</ele>
        <time>2018-01-12T23:43:25Z</time>
      </trkpt>
      <trkpt lat="46.65109" lon="-1.87885">
        <ele>11</ele>
        <time>2018-01-12T23:44:25Z</time>
      </trkpt>
      <trkpt lat="46.65105" lon="-1.87853">
        <ele>11</ele>
        <time>2018-01-12T23:45:25Z</time>
      </trkpt>
      <trkpt lat="46.65101" lon="-1.87824">
        <ele>11</ele>
        <time>2018-01-12T23:46:25Z</time>
      </trkpt>
      <trkpt lat="46.651" lon="-1.87802">
        <ele>10</ele>
        <time>2018-01-12T23:47:25Z</time>
      </trkpt>
      <trkpt lat="46.65099" lon="-1.87787">
        <ele>10</ele>
        <time>2018-01-12T23:48:25Z</time>
      </trkpt>
      <trkpt lat="46.65097" lon="-1.87734">
        <ele>9</ele>
        <time>2018-01-12T23:49:25Z</time>
      </trkpt>
      <trkpt lat="46.65096" lon="-1.87689">
        <ele>9</ele>
        <time>2018-01-12T23:50:25Z</time>
      </trkpt>
      <trkpt lat="46.65095" lon="-1.87668">
        <ele>9</ele>
        <time>2018-01-12T23:51:25Z</time>
      </trkpt>
      <trkpt lat="46.65094" lon="-1.87638">
        <ele>10</ele>
        <time>2018-01-12T23:52:25Z</time>
      </trkpt>
      <trkpt lat="46.65091" lon="-1.87603">
        <ele>10</ele>
        <time>2018-01-12T23:53:25Z</time>
      </trkpt>
      <trkpt lat="46.65088" lon="-1.87575">
        <ele>11</ele>
        <time>2018-01-12T23:54:25Z</time>
      </trkpt>
      <trkpt lat="46.65086" lon="-1.87557">
        <ele>11</ele>
        <time>2018-01-12T23:55:25Z</time>
      </trkpt>
      <trkpt lat="46.65082" lon="-1.87529">
        <ele>10</ele>
        <time>2018-01-12T23:56:25Z</time>
      </trkpt>
      <trkpt lat="46.65079" lon="-1.87507">
        <ele>10</ele>
        <time>2018-01-12T23:57:25Z</time>
      </trkpt>
      <trkpt lat="46.65071" lon="-1.87461">
        <ele>10</ele>
        <time>2018-01-12T23:58:25Z</time>
      </trkpt>
      <trkpt lat="46.65059" lon="-1.87392">
        <ele>10</ele>
        <time>2018-01-12T23:59:25Z</time>
      </trkpt>
      <trkpt lat="46.65055" lon="-1.87369">
        <ele>10</ele>
        <time>2018-01-13T00:00:25Z</time>
      </trkpt>
      <trkpt lat="46.65046" lon="-1.87318">
        <ele>11</ele>
        <time>2018-01-13T00:01:25Z</time>
      </trkpt>
      <trkpt lat="46.65042" lon="-1.8729">
        <ele>10</ele>
        <time>2018-01-13T00:02:25Z</time>
      </trkpt>
      <trkpt lat="46.65039" lon="-1.87258">
        <ele>10</ele>
        <time>2018-01-13T00:03:25Z</time>
      </trkpt>
      <trkpt lat="46.65036" lon="-1.87224">
        <ele>10</ele>
        <time>2018-01-13T00:04:25Z</time>
      </trkpt>
      <trkpt lat="46.65033" lon="-1.8719">
        <ele>11</ele>
        <time>2018-01-13T00:05:25Z</time>
      </trkpt>
      <trkpt lat="46.6503" lon="-1.87136">
        <ele>11</ele>
        <time>2018-01-13T00:06:25Z</time>
      </trkpt>
      <trkpt lat="46.65026" lon="-1.87069">
        <ele>12</ele>
        <time>2018-01-13T00:07:25Z</time>
      </trkpt>
      <trkpt lat="46.65019" lon="-1.86982">
        <ele>12</ele>
        <time>2018-01-13T00:08:25Z</time>
      </trkpt>
      <trkpt lat="46.65015" lon="-1.86918">
        <ele>12</ele>
        <time>2018-01-13T00:09:25Z</time>
      </trkpt>
      <trkpt lat="46.6501" lon="-1.86857">
        <ele>9</ele>
        <time>2018-01-13T00:10:25Z</time>
      </trkpt>
      <trkpt lat="46.65007" lon="-1.86796">
        <ele>8</ele>
        <time>2018-01-13T00:11:25Z</time>
      </trkpt>
      <trkpt lat="46.65005" lon="-1.86741">
        <ele>7</ele>
        <time>2018-01-13T00:12:25Z</time>
      </trkpt>
      <trkpt lat="46.65004" lon="-1.86709">
        <ele>7</ele>
        <time>2018-01-13T00:13:25Z</time>
      </trkpt>
      <trkpt lat="46.65004" lon="-1.86682">
        <ele>7</ele>
        <time>2018-01-13T00:14:25Z</time>
      </trkpt>
      <trkpt lat="46.65003" lon="-1.86633">
        <ele>8</ele>
        <time>2018-01-13T00:15:25Z</time>
      </trkpt>
      <trkpt lat="46.65001" lon="-1.86559">
        <ele>10</ele>
        <time>2018-01-13T00:16:25Z</time>
      </trkpt>
      <trkpt lat="46.64999" lon="-1.86515">
        <ele>12</ele>
        <time>2018-01-13T00:17:25Z</time>
      </trkpt>
      <trkpt lat="46.64998" lon="-1.86496">
        <ele>12</ele>
        <time>2018-01-13T00:18:25Z</time>
      </trkpt>
      <trkpt lat="46.64996" lon="-1.86474">
        <ele>13</ele>
        <time>2018-01-13T00:19:25Z</time>
      </trkpt>
      <trkpt lat="46.64991" lon="-1.86428">
        <ele>14</ele>
        <time>2018-01-13T00:20:25Z</time>
      </trkpt>
      <trkpt lat="46.64987" lon="-1.8638">
        <ele>14</ele>
        <time>2018-01-13T00:21:25Z</time>
      </trkpt>
      <trkpt lat="46.64981" lon="-1.86324">
        <ele>14</ele>
        <time>2018-01-13T00:22:25Z</time>
      </trkpt>
      <trkpt lat="46.64975" lon="-1.86256">
        <ele>16</ele>
        <time>2018-01-13T00:23:25Z</time>
      </trkpt>
      <trkpt lat="46.64968" lon="-1.86171">
        <ele>18</ele>
        <time>2018-01-13T00:24:25Z</time>
      </trkpt>
      <trkpt lat="46.6496" lon="-1.86087">
        <ele>20</ele>
        <time>2018-01-13T00:25:25Z</time>
      </trkpt>
      <trkpt lat="46.64952" lon="-1.86">
        <ele>20</ele>
        <time>2018-01-13T00:26:25Z</time>
      </trkpt>
      <trkpt lat="46.64945" lon="-1.85915">
        <ele>20</ele>
        <time>2018-01-13T00:27:25Z</time>
      </trkpt>
      <trkpt lat="46.64942" lon="-1.85886">
        <ele>20</ele>
        <time>2018-01-13T00:28:25Z</time>
      </trkpt>
      <trkpt lat="46.64938" lon="-1.85845">
        <ele>21</ele>
        <time>2018-01-13T00:29:25Z</time>
      </trkpt>
      <trkpt lat="46.64937" lon="-1.85835">
        <ele>21</ele>
        <time>2018-01-13T00:30:25Z</time>
      </trkpt>
      <trkpt lat="46.64934" lon="-1.85805">
        <ele>20</ele>
        <time>2018-01-13T00:31:25Z</time>
      </trkpt>
      <trkpt lat="46.64929" lon="-1.85757">
        <ele>19</ele>
        <time>2018-01-13T00:32:25Z</time>
      </trkpt>
      <trkpt lat="46.64925" lon="-1.85725">
        <ele>18</ele>
        <time>2018-01-13T00:33:25Z</time>
      </trkpt>
      <trkpt lat="46.6492" lon="-1.85676">
        <ele>17</ele>
        <time>2018-01-13T00:34:25Z</time>
      </trkpt>
      <trkpt lat="46.64915" lon="-1.85626">
        <ele>17</ele>
        <time>2018-01-13T00:35:25Z</time>
      </trkpt>
      <trkpt lat="46.64909" lon="-1.85574">
        <ele>17</ele>
        <time>2018-01-13T00:36:25Z</time>
      </trkpt>
      <trkpt lat="46.64901" lon="-1.85506">
        <ele>17</ele>
        <time>2018-01-13T00:37:25Z</time>
      </trkpt>
      <trkpt lat="46.64893" lon="-1.85436">
        <ele>19</ele>
        <time>2018-01-13T00:38:25Z</time>
      </trkpt>
      <trkpt lat="46.64889" lon="-1.85398">
        <ele>19</ele>
        <time>2018-01-13T00:39:25Z</time>
      </trkpt>
      <trkpt lat="46.64883" lon="-1.85341">
        <ele>19</ele>
        <time>2018-01-13T00:40:25Z</time>
      </trkpt>
      <trkpt lat="46.64876" lon="-1.85276">
        <ele>18</ele>
        <time>2018-01-13T00:41:25Z</time>
      </trkpt>
      <trkpt lat="46.64868" lon="-1.85198">
        <ele>18</ele>
        <time>2018-01-13T00:42:25Z</time>
      </trkpt>
      <trkpt lat="46.64863" lon="-1.85146">
        <ele>19</ele>
        <time>2018-01-13T00:43:25Z</time>
      </trkpt>
      <trkpt lat="46.6486" lon="-1.85108">
        <ele>18</ele>
        <time>2018-01-13T00:44:25Z</time>
      </trkpt>
      <trkpt lat="46.64858" lon="-1.85092">
        <ele>18</ele>
        <time>2018-01-13T00:45:25Z</time>
      </trkpt>
      <trkpt lat="46.64857" lon="-1.85077">
        <ele>18</ele>
        <time>2018-01-13T00:46:25Z</time>
      </trkpt>
      <trkpt lat="46.64856" lon="-1.85061">
        <ele>18</ele>
        <time>2018-01-13T00:47:25Z</time>
      </trkpt>
      <trkpt lat="46.64855" lon="-1.85046">
        <ele>18</ele>
        <time>2018-01-13T00:48:25Z</time>
      </trkpt>
      <trkpt lat="46.64853" lon="-1.8503">
        <ele>19</ele>
        <time>2018-01-13T00:49:25Z</time>
      </trkpt>
      <trkpt lat="46.64852" lon="-1.85014">
        <ele>19</ele>
        <time>2018-01-13T00:50:25Z</time>
      </trkpt>
      <trkpt lat="46.64851" lon="-1.84998">
        <ele>19</ele>
        <time>2018-01-13T00:51:25Z</time>
      </trkpt>
      <trkpt lat="46.64847" lon="-1.84949">
        <ele>19</ele>
        <time>2018-01-13T00:52:25Z</time>
      </trkpt>
      <trkpt lat="46.6484" lon="-1.84872">
        <ele>18</ele>
        <time>2018-01-13T00:53:25Z</time>
      </trkpt>
      <trkpt lat="46.64839" lon="-1.84856">
        <ele>18</ele>
        <time>2018-01-13T00:54:25Z</time>
      </trkpt>
      <trkpt lat="46.64838" lon="-1.8484">
        <ele>18</ele>
        <time>2018-01-13T00:55:25Z</time>
      </trkpt>
      <trkpt lat="46.64837" lon="-1.84824">
        <ele>18</ele>
        <time>2018-01-13T00:56:25Z</time>
      </trkpt>
      <trkpt lat="46.64835" lon="-1.84806">
        <ele>18</ele>
        <time>2018-01-13T00:57:25Z</time>
      </trkpt>
      <trkpt lat="46.64834" lon="-1.84791">
        <ele>18</ele>
        <time>2018-01-13T00:58:25Z</time>
      </trkpt>
      <trkpt lat="46.64833" lon="-1.84774">
        <ele>18</ele>
        <time>2018-01-13T00:59:25Z</time>
      </trkpt>
      <trkpt lat="46.64832" lon="-1.84758">
        <ele>18</ele>
        <time>2018-01-13T01:00:25Z</time>
      </trkpt>
      <trkpt lat="46.6483" lon="-1.84741">
        <ele>18</ele>
        <time>2018-01-13T01:01:25Z</time>
      </trkpt>
      <trkpt lat="46.64829" lon="-1.84724">
        <ele>18</ele>
        <time>2018-01-13T01:02:25Z</time>
      </trkpt>
      <trkpt lat="46.64827" lon="-1.84708">
        <ele>18</ele>
        <time>2018-01-13T01:03:25Z</time>
      </trkpt>
      <trkpt lat="46.64826" lon="-1.84691">
        <ele>17</ele>
        <time>2018-01-13T01:04:25Z</time>
      </trkpt>
      <trkpt lat="46.64825" lon="-1.84675">
        <ele>17</ele>
        <time>2018-01-13T01:05:25Z</time>
      </trkpt>
      <trkpt lat="46.64824" lon="-1.84658">
        <ele>17</ele>
        <time>2018-01-13T01:06:25Z</time>
      </trkpt>
      <trkpt lat="46.64823" lon="-1.84642">
        <ele>18</ele>
        <time>2018-01-13T01:07:25Z</time>
      </trkpt>
      <trkpt lat="46.64822" lon="-1.84625">
        <ele>18</ele>
        <time>2018-01-13T01:08:25Z</time>
      </trkpt>
      <trkpt lat="46.6482" lon="-1.84609">
        <ele>18</ele>
        <time>2018-01-13T01:09:25Z</time>
      </trkpt>
      <trkpt lat="46.64819" lon="-1.84593">
        <ele>19</ele>
        <time>2018-01-13T01:10:25Z</time>
      </trkpt>
      <trkpt lat="46.64818" lon="-1.84577">
        <ele>19</ele>
        <time>2018-01-13T01:11:25Z</time>
      </trkpt>
      <trkpt lat="46.64816" lon="-1.84561">
        <ele>19</ele>
        <time>2018-01-13T01:12:25Z</time>
      </trkpt>
      <trkpt lat="46.64815" lon="-1.84544">
        <ele>19</ele>
        <time>2018-01-13T01:13:25Z</time>
      </trkpt>
      <trkpt lat="46.64814" lon="-1.84528">
        <ele>18</ele>
        <time>2018-01-13T01:14:25Z</time>
      </trkpt>
      <trkpt lat="46.64812" lon="-1.84512">
        <ele>18</ele>
        <time>2018-01-13T01:15:25Z</time>
      </trkpt>
      <trkpt lat="46.6481" lon="-1.84496">
        <ele>18</ele>
        <time>2018-01-13T01:16:25Z</time>
      </trkpt>
      <trkpt lat="46.64808" lon="-1.84479">
        <ele>18</ele>
        <time>2018-01-13T01:17:25Z</time>
      </trkpt>
      <trkpt lat="46.64806" lon="-1.84463">
        <ele>18</ele>
        <time>2018-01-13T01:18:25Z</time>
      </trkpt>
      <trkpt lat="46.64804" lon="-1.84448">
        <ele>18</ele>
        <time>2018-01-13T01:19:25Z</time>
      </trkpt>
      <trkpt lat="46.64802" lon="-1.84431">
        <ele>17</ele>
        <time>2018-01-13T01:20:25Z</time>
      </trkpt>
      <trkpt lat="46.64799" lon="-1.84416">
        <ele>17</ele>
        <time>2018-01-13T01:21:25Z</time>
      </trkpt>
      <trkpt lat="46.64797" lon="-1.844">
        <ele>18</ele>
        <time>2018-01-13T01:22:25Z</time>
      </trkpt>
      <trkpt lat="46.64794" lon="-1.84384">
        <ele>18</ele>
        <time>2018-01-13T01:23:25Z</time>
      </trkpt>
      <trkpt lat="46.64792" lon="-1.84368">
        <ele>18</ele>
        <time>2018-01-13T01:24:25Z</time>
      </trkpt>
      <trkpt lat="46.64789" lon="-1.84353">
        <ele>18</ele>
        <time>2018-01-13T01:25:25Z</time>
      </trkpt>
      <trkpt lat="46.64787" lon="-1.84338">
        <ele>19</ele>
        <time>2018-01-13T01:26:25Z</time>
      </trkpt>
      <trkpt lat="46.64784" lon="-1.84322">
        <ele>19</ele>
        <time>2018-01-13T01:27:25Z</time>
      </trkpt>
      <trkpt lat="46.64782" lon="-1.84306">
        <ele>19</ele>
        <time>2018-01-13T01:28:25Z</time>
      </trkpt>
      <trkpt lat="46.64779" lon="-1.84291">
        <ele>19</ele>
        <time>2018-01-13T01:29:25Z</time>
      </trkpt>
      <trkpt lat="46.64777" lon="-1.84276">
        <ele>20</ele>
        <time>2018-01-13T01:30:25Z</time>
      </trkpt>
      <trkpt lat="46.64775" lon="-1.84261">
        <ele>20</ele>
        <time>2018-01-13T01:31:25Z</time>
      </trkpt>
      <trkpt lat="46.64772" lon="-1.84247">
        <ele>20</ele>
        <time>2018-01-13T01:32:25Z</time>
      </trkpt>
      <trkpt lat="46.6477" lon="-1.84232">
        <ele>21</ele>
        <time>2018-01-13T01:33:25Z</time>
      </trkpt>
      <trkpt lat="46.64768" lon="-1.84218">
        <ele>21</ele>
        <time>2018-01-13T01:34:25Z</time>
      </trkpt>
      <trkpt lat="46.64766" lon="-1.84204">
        <ele>21</ele>
        <time>2018-01-13T01:35:25Z</time>
      </trkpt>
      <trkpt lat="46.64763" lon="-1.8419">
        <ele>21</ele>
        <time>2018-01-13T01:36:25Z</time>
      </trkpt>
      <trkpt lat="46.64761" lon="-1.84175">
        <ele>22</ele>
        <time>2018-01-13T01:37:25Z</time>
      </trkpt>
      <trkpt lat="46.64759" lon="-1.84161">
        <ele>22</ele>
        <time>2018-01-13T01:38:25Z</time>
      </trkpt>
      <trkpt lat="46.64757" lon="-1.84147">
        <ele>22</ele>
        <time>2018-01-13T01:39:25Z</time>
      </trkpt>
      <trkpt lat="46.64755" lon="-1.84133">
        <ele>22</ele>
        <time>2018-01-13T01:40:25Z</time>
      </trkpt>
      <trkpt lat="46.64752" lon="-1.84118">
        <ele>22</ele>
        <time>2018-01-13T01:41:25Z</time>
      </trkpt>
      <trkpt lat="46.64748" lon="-1.84087">
        <ele>22</ele>
        <time>2018-01-13T01:42:25Z</time>
      </trkpt>
      <trkpt lat="46.64746" lon="-1.84077">
        <ele>22</ele>
        <time>2018-01-13T01:43:25Z</time>
      </trkpt>
      <trkpt lat="46.64744" lon="-1.84064">
        <ele>22</ele>
        <time>2018-01-13T01:44:25Z</time>
      </trkpt>
      <trkpt lat="46.64742" lon="-1.8405">
        <ele>22</ele>
        <time>2018-01-13T01:45:25Z</time>
      </trkpt>
      <trkpt lat="46.6474" lon="-1.84036">
        <ele>22</ele>
        <time>2018-01-13T01:46:25Z</time>
      </trkpt>
      <trkpt lat="46.64738" lon="-1.84022">
        <ele>22</ele>
        <time>2018-01-13T01:47:25Z</time>
      </trkpt>
      <trkpt lat="46.64736" lon="-1.84008">
        <ele>22</ele>
        <time>2018-01-13T01:48:25Z</time>
      </trkpt>
      <trkpt lat="46.64734" lon="-1.83994">
        <ele>22</ele>
        <time>2018-01-13T01:49:25Z</time>
      </trkpt>
      <trkpt lat="46.64732" lon="-1.8398">
        <ele>22</ele>
        <time>2018-01-13T01:50:25Z</time>
      </trkpt>
      <trkpt lat="46.64731" lon="-1.83965">
        <ele>22</ele>
        <time>2018-01-13T01:51:25Z</time>
      </trkpt>
      <trkpt lat="46.64729" lon="-1.83951">
        <ele>22</ele>
        <time>2018-01-13T01:52:25Z</time>
      </trkpt>
      <trkpt lat="46.64728" lon="-1.83937">
        <ele>22</ele>
        <time>2018-01-13T01:53:25Z</time>
      </trkpt>
      <trkpt lat="46.64728" lon="-1.83924">
        <ele>22</ele>
        <time>2018-01-13T01:54:25Z</time>
      </trkpt>
      <trkpt lat="46.64728" lon="-1.8391">
        <ele>22</ele>
        <time>2018-01-13T01:55:25Z</time>
      </trkpt>
      <trkpt lat="46.64728" lon="-1.83896">
        <ele>23</ele>
        <time>2018-01-13T01:56:25Z</time>
      </trkpt>
      <trkpt lat="46.64729" lon="-1.83883">
        <ele>23</ele>
        <time>2018-01-13T01:57:25Z</time>
      </trkpt>
      <trkpt lat="46.6473" lon="-1.8387">
        <ele>23</ele>
        <time>2018-01-13T01:58:25Z</time>
      </trkpt>
      <trkpt lat="46.64732" lon="-1.83857">
        <ele>23</ele>
        <time>2018-01-13T01:59:25Z</time>
      </trkpt>
      <trkpt lat="46.64736" lon="-1.83833">
        <ele>24</ele>
        <time>2018-01-13T02:00:25Z</time>
      </trkpt>
      <trkpt lat="46.64738" lon="-1.83821">
        <ele>24</ele>
        <time>2018-01-13T02:01:25Z</time>
      </trkpt>
      <trkpt lat="46.6474" lon="-1.83809">
        <ele>25</ele>
        <time>2018-01-13T02:02:25Z</time>
      </trkpt>
      <trkpt lat="46.64743" lon="-1.83796">
        <ele>25</ele>
        <time>2018-01-13T02:03:25Z</time>
      </trkpt>
      <trkpt lat="46.64745" lon="-1.83784">
        <ele>26</ele>
        <time>2018-01-13T02:04:25Z</time>
      </trkpt>
      <trkpt lat="46.64747" lon="-1.83771">
        <ele>26</ele>
        <time>2018-01-13T02:05:25Z</time>
      </trkpt>
      <trkpt lat="46.6475" lon="-1.83758">
        <ele>27</ele>
        <time>2018-01-13T02:06:25Z</time>
      </trkpt>
      <trkpt lat="46.64752" lon="-1.83746">
        <ele>27</ele>
        <time>2018-01-13T02:07:25Z</time>
      </trkpt>
      <trkpt lat="46.64754" lon="-1.83733">
        <ele>27</ele>
        <time>2018-01-13T02:08:25Z</time>
      </trkpt>
      <trkpt lat="46.64757" lon="-1.83721">
        <ele>26</ele>
        <time>2018-01-13T02:09:25Z</time>
      </trkpt>
      <trkpt lat="46.64759" lon="-1.83709">
        <ele>26</ele>
        <time>2018-01-13T02:10:25Z</time>
      </trkpt>
      <trkpt lat="46.64761" lon="-1.83695">
        <ele>26</ele>
        <time>2018-01-13T02:11:25Z</time>
      </trkpt>
      <trkpt lat="46.64764" lon="-1.83683">
        <ele>26</ele>
        <time>2018-01-13T02:12:25Z</time>
      </trkpt>
      <trkpt lat="46.64766" lon="-1.8367">
        <ele>25</ele>
        <time>2018-01-13T02:13:25Z</time>
      </trkpt>
      <trkpt lat="46.64769" lon="-1.83657">
        <ele>25</ele>
        <time>2018-01-13T02:14:25Z</time>
      </trkpt>
      <trkpt lat="46.64771" lon="-1.83644">
        <ele>25</ele>
        <time>2018-01-13T02:15:25Z</time>
      </trkpt>
      <trkpt lat="46.64773" lon="-1.83631">
        <ele>25</ele>
        <time>2018-01-13T02:16:25Z</time>
      </trkpt>
      <trkpt lat="46.64776" lon="-1.83619">
        <ele>25</ele>
        <time>2018-01-13T02:17:25Z</time>
      </trkpt>
      <trkpt lat="46.64778" lon="-1.83606">
        <ele>25</ele>
        <time>2018-01-13T02:18:25Z</time>
      </trkpt>
      <trkpt lat="46.6478" lon="-1.83593">
        <ele>24</ele>
        <time>2018-01-13T02:19:25Z</time>
      </trkpt>
      <trkpt lat="46.64783" lon="-1.83579">
        <ele>24</ele>
        <time>2018-01-13T02:20:25Z</time>
      </trkpt>
      <trkpt lat="46.64785" lon="-1.83566">
        <ele>24</ele>
        <time>2018-01-13T02:21:25Z</time>
      </trkpt>
      <trkpt lat="46.64788" lon="-1.83553">
        <ele>24</ele>
        <time>2018-01-13T02:22:25Z</time>
      </trkpt>
      <trkpt lat="46.6479" lon="-1.8354">
        <ele>23</ele>
        <time>2018-01-13T02:23:25Z</time>
      </trkpt>
      <trkpt lat="46.64793" lon="-1.83526">
        <ele>23</ele>
        <time>2018-01-13T02:24:25Z</time>
      </trkpt>
      <trkpt lat="46.64795" lon="-1.83513">
        <ele>23</ele>
        <time>2018-01-13T02:25:25Z</time>
      </trkpt>
      <trkpt lat="46.64798" lon="-1.83501">
        <ele>23</ele>
        <time>2018-01-13T02:26:25Z</time>
      </trkpt>
      <trkpt lat="46.648" lon="-1.83488">
        <ele>22</ele>
        <time>2018-01-13T02:27:25Z</time>
      </trkpt>
      <trkpt lat="46.64801" lon="-1.83477">
        <ele>22</ele>
        <time>2018-01-13T02:28:25Z</time>
      </trkpt>
      <trkpt lat="46.64803" lon="-1.83473">
        <ele>22</ele>
        <time>2018-01-13T02:29:25Z</time>
      </trkpt>
      <trkpt lat="46.64805" lon="-1.83461">
        <ele>22</ele>
        <time>2018-01-13T02:30:25Z</time>
      </trkpt>
      <trkpt lat="46.64807" lon="-1.83448">
        <ele>21</ele>
        <time>2018-01-13T02:31:25Z</time>
      </trkpt>
      <trkpt lat="46.6481" lon="-1.83435">
        <ele>21</ele>
        <time>2018-01-13T02:32:25Z</time>
      </trkpt>
      <trkpt lat="46.64812" lon="-1.83422">
        <ele>21</ele>
        <time>2018-01-13T02:33:25Z</time>
      </trkpt>
      <trkpt lat="46.64813" lon="-1.83408">
        <ele>21</ele>
        <time>2018-01-13T02:34:25Z</time>
      </trkpt>
      <trkpt lat="46.64815" lon="-1.83395">
        <ele>21</ele>
        <time>2018-01-13T02:35:25Z</time>
      </trkpt>
      <trkpt lat="46.64816" lon="-1.83381">
        <ele>21</ele>
        <time>2018-01-13T02:36:25Z</time>
      </trkpt>
      <trkpt lat="46.64816" lon="-1.83368">
        <ele>21</ele>
        <time>2018-01-13T02:37:25Z</time>
      </trkpt>
      <trkpt lat="46.64816" lon="-1.83354">
        <ele>21</ele>
        <time>2018-01-13T02:38:25Z</time>
      </trkpt>
      <trkpt lat="46.64815" lon="-1.83335">
        <ele>21</ele>
        <time>2018-01-13T02:39:25Z</time>
      </trkpt>
      <trkpt lat="46.64815" lon="-1.83328">
        <ele>21</ele>
        <time>2018-01-13T02:40:25Z</time>
      </trkpt>
      <trkpt lat="46.64814" lon="-1.83316">
        <ele>21</ele>
        <time>2018-01-13T02:41:25Z</time>
      </trkpt>
      <trkpt lat="46.64813" lon="-1.83302">
        <ele>21</ele>
        <time>2018-01-13T02:42:25Z</time>
      </trkpt>
      <trkpt lat="46.64811" lon="-1.8329">
        <ele>21</ele>
        <time>2018-01-13T02:43:25Z</time>
      </trkpt>
      <trkpt lat="46.6481" lon="-1.83276">
        <ele>22</ele>
        <time>2018-01-13T02:44:25Z</time>
      </trkpt>
      <trkpt lat="46.64808" lon="-1.83264">
        <ele>22</ele>
        <time>2018-01-13T02:45:25Z</time>
      </trkpt>
      <trkpt lat="46.64807" lon="-1.83251">
        <ele>22</ele>
        <time>2018-01-13T02:46:25Z</time>
      </trkpt>
      <trkpt lat="46.64805" lon="-1.83238">
        <ele>22</ele>
        <time>2018-01-13T02:47:25Z</time>
      </trkpt>
      <trkpt lat="46.64804" lon="-1.83225">
        <ele>22</ele>
        <time>2018-01-13T02:48:25Z</time>
      </trkpt>
      <trkpt lat="46.64802" lon="-1.83212">
        <ele>22</ele>
        <time>2018-01-13T02:49:25Z</time>
      </trkpt>
      <trkpt lat="46.648" lon="-1.832">
        <ele>23</ele>
        <time>2018-01-13T02:50:25Z</time>
      </trkpt>
      <trkpt lat="46.64798" lon="-1.83187">
        <ele>23</ele>
        <time>2018-01-13T02:51:25Z</time>
      </trkpt>
      <trkpt lat="46.64797" lon="-1.83185">
        <ele>23</ele>
        <time>2018-01-13T02:52:25Z</time>
      </trkpt>
      <trkpt lat="46.64792" lon="-1.83165">
        <ele>23</ele>
        <time>2018-01-13T02:53:25Z</time>
      </trkpt>
      <trkpt lat="46.64789" lon="-1.83153">
        <ele>23</ele>
        <time>2018-01-13T02:54:25Z</time>
      </trkpt>
      <trkpt lat="46.64786" lon="-1.83142">
        <ele>23</ele>
        <time>2018-01-13T02:55:25Z</time>
      </trkpt>
      <trkpt lat="46.64783" lon="-1.83131">
        <ele>23</ele>
        <time>2018-01-13T02:56:25Z</time>
      </trkpt>
      <trkpt lat="46.6478" lon="-1.8312">
        <ele>23</ele>
        <time>2018-01-13T02:57:25Z</time>
      </trkpt>
      <trkpt lat="46.64777" lon="-1.83109">
        <ele>23</ele>
        <time>2018-01-13T02:58:25Z</time>
      </trkpt>
      <trkpt lat="46.64773" lon="-1.83098">
        <ele>23</ele>
        <time>2018-01-13T02:59:25Z</time>
      </trkpt>
      <trkpt lat="46.6477" lon="-1.83086">
        <ele>23</ele>
        <time>2018-01-13T03:00:25Z</time>
      </trkpt>
      <trkpt lat="46.64767" lon="-1.83075">
        <ele>23</ele>
        <time>2018-01-13T03:01:25Z</time>
      </trkpt>
      <trkpt lat="46.64765" lon="-1.83063">
        <ele>23</ele>
        <time>2018-01-13T03:02:25Z</time>
      </trkpt>
      <trkpt lat="46.64762" lon="-1.83051">
        <ele>23</ele>
        <time>2018-01-13T03:03:25Z</time>
      </trkpt>
      <trkpt lat="46.6476" lon="-1.83039">
        <ele>23</ele>
        <time>2018-01-13T03:04:25Z</time>
      </trkpt>
      <trkpt lat="46.64758" lon="-1.83027">
        <ele>23</ele>
        <time>2018-01-13T03:05:25Z</time>
      </trkpt>
      <trkpt lat="46.64757" lon="-1.83014">
        <ele>23</ele>
        <time>2018-01-13T03:06:25Z</time>
      </trkpt>
      <trkpt lat="46.64756" lon="-1.83004">
        <ele>23</ele>
        <time>2018-01-13T03:07:25Z</time>
      </trkpt>
      <trkpt lat="46.64751" lon="-1.82946">
        <ele>23</ele>
        <time>2018-01-13T03:08:25Z</time>
      </trkpt>
      <trkpt lat="46.64747" lon="-1.82909">
        <ele>23</ele>
        <time>2018-01-13T03:09:25Z</time>
      </trkpt>
      <trkpt lat="46.64745" lon="-1.82879">
        <ele>23</ele>
        <time>2018-01-13T03:10:25Z</time>
      </trkpt>
      <trkpt lat="46.64744" lon="-1.8287">
        <ele>23</ele>
        <time>2018-01-13T03:11:25Z</time>
      </trkpt>
      <trkpt lat="46.64743" lon="-1.82855">
        <ele>23</ele>
        <time>2018-01-13T03:12:25Z</time>
      </trkpt>
      <trkpt lat="46.64742" lon="-1.82842">
        <ele>23</ele>
        <time>2018-01-13T03:13:25Z</time>
      </trkpt>
      <trkpt lat="46.6474" lon="-1.82828">
        <ele>23</ele>
        <time>2018-01-13T03:14:25Z</time>
      </trkpt>
      <trkpt lat="46.64739" lon="-1.82814">
        <ele>23</ele>
        <time>2018-01-13T03:15:25Z</time>
      </trkpt>
      <trkpt lat="46.64737" lon="-1.828">
        <ele>23</ele>
        <time>2018-01-13T03:16:25Z</time>
      </trkpt>
      <trkpt lat="46.64736" lon="-1.82786">
        <ele>23</ele>
        <time>2018-01-13T03:17:25Z</time>
      </trkpt>
      <trkpt lat="46.64734" lon="-1.82772">
        <ele>23</ele>
        <time>2018-01-13T03:18:25Z</time>
      </trkpt>
      <trkpt lat="46.64733" lon="-1.82759">
        <ele>23</ele>
        <time>2018-01-13T03:19:25Z</time>
      </trkpt>
      <trkpt lat="46.64731" lon="-1.82745">
        <ele>23</ele>
        <time>2018-01-13T03:20:25Z</time>
      </trkpt>
      <trkpt lat="46.6473" lon="-1.82732">
        <ele>23</ele>
        <time>2018-01-13T03:21:25Z</time>
      </trkpt>
      <trkpt lat="46.64728" lon="-1.82718">
        <ele>23</ele>
        <time>2018-01-13T03:22:25Z</time>
      </trkpt>
      <trkpt lat="46.64726" lon="-1.82705">
        <ele>24</ele>
        <time>2018-01-13T03:23:25Z</time>
      </trkpt>
      <trkpt lat="46.64725" lon="-1.82692">
        <ele>24</ele>
        <time>2018-01-13T03:24:25Z</time>
      </trkpt>
      <trkpt lat="46.64723" lon="-1.8268">
        <ele>24</ele>
        <time>2018-01-13T03:25:25Z</time>
      </trkpt>
      <trkpt lat="46.64722" lon="-1.82668">
        <ele>25</ele>
        <time>2018-01-13T03:26:25Z</time>
      </trkpt>
      <trkpt lat="46.6472" lon="-1.82655">
        <ele>25</ele>
        <time>2018-01-13T03:27:25Z</time>
      </trkpt>
      <trkpt lat="46.64716" lon="-1.8263">
        <ele>25</ele>
        <time>2018-01-13T03:28:25Z</time>
      </trkpt>
      <trkpt lat="46.64712" lon="-1.82607">
        <ele>26</ele>
        <time>2018-01-13T03:29:25Z</time>
      </trkpt>
      <trkpt lat="46.64708" lon="-1.82584">
        <ele>26</ele>
        <time>2018-01-13T03:30:25Z</time>
      </trkpt>
      <trkpt lat="46.64703" lon="-1.82552">
        <ele>26</ele>
        <time>2018-01-13T03:31:25Z</time>
      </trkpt>
      <trkpt lat="46.647" lon="-1.82536">
        <ele>26</ele>
        <time>2018-01-13T03:32:25Z</time>
      </trkpt>
      <trkpt lat="46.64698" lon="-1.82523">
        <ele>26</ele>
        <time>2018-01-13T03:33:25Z</time>
      </trkpt>
      <trkpt lat="46.64695" lon="-1.8251">
        <ele>26</ele>
        <time>2018-01-13T03:34:25Z</time>
      </trkpt>
      <trkpt lat="46.64693" lon="-1.82497">
        <ele>26</ele>
        <time>2018-01-13T03:35:25Z</time>
      </trkpt>
      <trkpt lat="46.64691" lon="-1.82485">
        <ele>26</ele>
        <time>2018-01-13T03:36:25Z</time>
      </trkpt>
      <trkpt lat="46.64689" lon="-1.82472">
        <ele>26</ele>
        <time>2018-01-13T03:37:25Z</time>
      </trkpt>
      <trkpt lat="46.64687" lon="-1.82459">
        <ele>26</ele>
        <time>2018-01-13T03:38:25Z</time>
      </trkpt>
      <trkpt lat="46.64685" lon="-1.82446">
        <ele>26</ele>
        <time>2018-01-13T03:39:25Z</time>
      </trkpt>
      <trkpt lat="46.64684" lon="-1.8244">
        <ele>26</ele>
        <time>2018-01-13T03:40:25Z</time>
      </trkpt>
      <trkpt lat="46.64682" lon="-1.82433">
        <ele>26</ele>
        <time>2018-01-13T03:41:25Z</time>
      </trkpt>
      <trkpt lat="46.64681" lon="-1.82426">
        <ele>26</ele>
        <time>2018-01-13T03:42:25Z</time>
      </trkpt>
      <trkpt lat="46.6468" lon="-1.82413">
        <ele>26</ele>
        <time>2018-01-13T03:43:25Z</time>
      </trkpt>
      <trkpt lat="46.64679" lon="-1.82402">
        <ele>27</ele>
        <time>2018-01-13T03:44:25Z</time>
      </trkpt>
      <trkpt lat="46.64679" lon="-1.82391">
        <ele>27</ele>
        <time>2018-01-13T03:45:25Z</time>
      </trkpt>
      <trkpt lat="46.6468" lon="-1.82381">
        <ele>27</ele>
        <time>2018-01-13T03:46:25Z</time>
      </trkpt>
      <trkpt lat="46.6468" lon="-1.82371">
        <ele>28</ele>
        <time>2018-01-13T03:47:25Z</time>
      </trkpt>
      <trkpt lat="46.64682" lon="-1.82362">
        <ele>28</ele>
        <time>2018-01-13T03:48:25Z</time>
      </trkpt>
      <trkpt lat="46.64684" lon="-1.82352">
        <ele>28</ele>
        <time>2018-01-13T03:49:25Z</time>
      </trkpt>
      <trkpt lat="46.64686" lon="-1.82344">
        <ele>28</ele>
        <time>2018-01-13T03:50:25Z</time>
      </trkpt>
      <trkpt lat="46.64689" lon="-1.82336">
        <ele>28</ele>
        <time>2018-01-13T03:51:25Z</time>
      </trkpt>
      <trkpt lat="46.64693" lon="-1.82329">
        <ele>28</ele>
        <time>2018-01-13T03:52:25Z</time>
      </trkpt>
      <trkpt lat="46.64697" lon="-1.82323">
        <ele>29</ele>
        <time>2018-01-13T03:53:25Z</time>
      </trkpt>
      <trkpt lat="46.64701" lon="-1.82317">
        <ele>29</ele>
        <time>2018-01-13T03:54:25Z</time>
      </trkpt>
      <trkpt lat="46.64705" lon="-1.82312">
        <ele>29</ele>
        <time>2018-01-13T03:55:25Z</time>
      </trkpt>
      <trkpt lat="46.64709" lon="-1.82307">
        <ele>29</ele>
        <time>2018-01-13T03:56:25Z</time>
      </trkpt>
      <trkpt lat="46.64714" lon="-1.82301">
        <ele>29</ele>
        <time>2018-01-13T03:57:25Z</time>
      </trkpt>
      <trkpt lat="46.64716" lon="-1.82297">
        <ele>29</ele>
        <time>2018-01-13T03:58:25Z</time>
      </trkpt>
      <trkpt lat="46.64719" lon="-1.82293">
        <ele>29</ele>
        <time>2018-01-13T03:59:25Z</time>
      </trkpt>
      <trkpt lat="46.64721" lon="-1.82287">
        <ele>29</ele>
        <time>2018-01-13T04:00:25Z</time>
      </trkpt>
      <trkpt lat="46.64723" lon="-1.82282">
        <ele>29</ele>
        <time>2018-01-13T04:01:25Z</time>
      </trkpt>
      <trkpt lat="46.64724" lon="-1.82276">
        <ele>29</ele>
        <time>2018-01-13T04:02:25Z</time>
      </trkpt>
      <trkpt lat="46.64726" lon="-1.82269">
        <ele>30</ele>
        <time>2018-01-13T04:03:25Z</time>
      </trkpt>
      <trkpt lat="46.64726" lon="-1.82261">
        <ele>30</ele>
        <time>2018-01-13T04:04:25Z</time>
      </trkpt>
      <trkpt lat="46.64727" lon="-1.82253">
        <ele>30</ele>
        <time>2018-01-13T04:05:25Z</time>
      </trkpt>
      <trkpt lat="46.64728" lon="-1.82244">
        <ele>30</ele>
        <time>2018-01-13T04:06:25Z</time>
      </trkpt>
      <trkpt lat="46.64728" lon="-1.82235">
        <ele>30</ele>
        <time>2018-01-13T04:07:25Z</time>
      </trkpt>
      <trkpt lat="46.6473" lon="-1.82221">
        <ele>31</ele>
        <time>2018-01-13T04:08:25Z</time>
      </trkpt>
      <trkpt lat="46.64732" lon="-1.82195">
        <ele>31</ele>
        <time>2018-01-13T04:09:25Z</time>
      </trkpt>
      <trkpt lat="46.64733" lon="-1.82184">
        <ele>31</ele>
        <time>2018-01-13T04:10:25Z</time>
      </trkpt>
      <trkpt lat="46.64736" lon="-1.82154">
        <ele>31</ele>
        <time>2018-01-13T04:11:25Z</time>
      </trkpt>
      <trkpt lat="46.64738" lon="-1.82138">
        <ele>32</ele>
        <time>2018-01-13T04:12:25Z</time>
      </trkpt>
      <trkpt lat="46.64739" lon="-1.82126">
        <ele>32</ele>
        <time>2018-01-13T04:13:25Z</time>
      </trkpt>
      <trkpt lat="46.64742" lon="-1.82103">
        <ele>32</ele>
        <time>2018-01-13T04:14:25Z</time>
      </trkpt>
      <trkpt lat="46.64744" lon="-1.82092">
        <ele>32</ele>
        <time>2018-01-13T04:15:25Z</time>
      </trkpt>
      <trkpt lat="46.64745" lon="-1.82081">
        <ele>32</ele>
        <time>2018-01-13T04:16:25Z</time>
      </trkpt>
      <trkpt lat="46.64747" lon="-1.82069">
        <ele>32</ele>
        <time>2018-01-13T04:17:25Z</time>
      </trkpt>
      <trkpt lat="46.64749" lon="-1.82058">
        <ele>32</ele>
        <time>2018-01-13T04:18:25Z</time>
      </trkpt>
      <trkpt lat="46.64751" lon="-1.82048">
        <ele>32</ele>
        <time>2018-01-13T04:19:25Z</time>
      </trkpt>
      <trkpt lat="46.64753" lon="-1.82037">
        <ele>32</ele>
        <time>2018-01-13T04:20:25Z</time>
      </trkpt>
      <trkpt lat="46.64755" lon="-1.82027">
        <ele>32</ele>
        <time>2018-01-13T04:21:25Z</time>
      </trkpt>
      <trkpt lat="46.64757" lon="-1.82018">
        <ele>32</ele>
        <time>2018-01-13T04:22:25Z</time>
      </trkpt>
      <trkpt lat="46.64759" lon="-1.82008">
        <ele>32</ele>
        <time>2018-01-13T04:23:25Z</time>
      </trkpt>
      <trkpt lat="46.64761" lon="-1.81999">
        <ele>32</ele>
        <time>2018-01-13T04:24:25Z</time>
      </trkpt>
      <trkpt lat="46.64762" lon="-1.81991">
        <ele>32</ele>
        <time>2018-01-13T04:25:25Z</time>
      </trkpt>
      <trkpt lat="46.64763" lon="-1.81982">
        <ele>32</ele>
        <time>2018-01-13T04:26:25Z</time>
      </trkpt>
      <trkpt lat="46.64764" lon="-1.81975">
        <ele>32</ele>
        <time>2018-01-13T04:27:25Z</time>
      </trkpt>
      <trkpt lat="46.64764" lon="-1.81967">
        <ele>32</ele>
        <time>2018-01-13T04:28:25Z</time>
      </trkpt>
      <trkpt lat="46.64764" lon="-1.81961">
        <ele>32</ele>
        <time>2018-01-13T04:29:25Z</time>
      </trkpt>
      <trkpt lat="46.64762" lon="-1.81944">
        <ele>32</ele>
        <time>2018-01-13T04:30:25Z</time>
      </trkpt>
      <trkpt lat="46.64762" lon="-1.81944">
        <ele>32</ele>
        <time>2018-01-13T04:31:25Z</time>
      </trkpt>
      <trkpt lat="46.64762" lon="-1.81943">
        <ele>32</ele>
        <time>2018-01-13T04:32:25Z</time>
      </trkpt>
      <trkpt lat="46.64761" lon="-1.81943">
        <ele>32</ele>
        <time>2018-01-13T04:33:25Z</time>
      </trkpt>
      <trkpt lat="46.6476" lon="-1.81943">
        <ele>32</ele>
        <time>2018-01-13T04:34:25Z</time>
      </trkpt>
      <trkpt lat="46.6476" lon="-1.81942">
        <ele>32</ele>
        <time>2018-01-13T04:35:25Z</time>
      </trkpt>
      <trkpt lat="46.64759" lon="-1.81942">
        <ele>33</ele>
        <time>2018-01-13T04:36:25Z</time>
      </trkpt>
      <trkpt lat="46.64759" lon="-1.81941">
        <ele>33</ele>
        <time>2018-01-13T04:37:25Z</time>
      </trkpt>
      <trkpt lat="46.64759" lon="-1.8194">
        <ele>33</ele>
        <time>2018-01-13T04:38:25Z</time>
      </trkpt>
      <trkpt lat="46.64758" lon="-1.8194">
        <ele>33</ele>
        <time>2018-01-13T04:39:25Z</time>
      </trkpt>
      <trkpt lat="46.64758" lon="-1.81939">
        <ele>33</ele>
        <time>2018-01-13T04:40:25Z</time>
      </trkpt>
      <trkpt lat="46.64758" lon="-1.81938">
        <ele>33</ele>
        <time>2018-01-13T04:41:25Z</time>
      </trkpt>
      <trkpt lat="46.64757" lon="-1.81937">
        <ele>33</ele>
        <time>2018-01-13T04:42:25Z</time>
      </trkpt>
      <trkpt lat="46.64757" lon="-1.81936">
        <ele>33</ele>
        <time>2018-01-13T04:43:25Z</time>
      </trkpt>
      <trkpt lat="46.64757" lon="-1.81935">
        <ele>33</ele>
        <time>2018-01-13T04:44:25Z</time>
      </trkpt>
      <trkpt lat="46.64757" lon="-1.81934">
        <ele>33</ele>
        <time>2018-01-13T04:45:25Z</time>
      </trkpt>
      <trkpt lat="46.64758" lon="-1.81934">
        <ele>33</ele>
        <time>2018-01-13T04:46:25Z</time>
      </trkpt>
      <trkpt lat="46.64758" lon="-1.81933">
        <ele>33</ele>
        <time>2018-01-13T04:47:25Z</time>
      </trkpt>
      <trkpt lat="46.64758" lon="-1.81932">
        <ele>33</ele>
        <time>2018-01-13T04:48:25Z</time>
      </trkpt>
      <trkpt lat="46.64758" lon="-1.81931">
        <ele>33</ele>
        <time>2018-01-13T04:49:25Z</time>
      </trkpt>
      <trkpt lat="46.64759" lon="-1.81931">
        <ele>33</ele>
        <time>2018-01-13T04:50:25Z</time>
      </trkpt>
      <trkpt lat="46.64759" lon="-1.8193">
        <ele>33</ele>
        <time>2018-01-13T04:51:25Z</time>
      </trkpt>
      <trkpt lat="46.64759" lon="-1.81929">
        <ele>33</ele>
        <time>2018-01-13T04:52:25Z</time>
      </trkpt>
      <trkpt lat="46.6476" lon="-1.81929">
        <ele>32</ele>
        <time>2018-01-13T04:53:25Z</time>
      </trkpt>
      <trkpt lat="46.6476" lon="-1.81928">
        <ele>32</ele>
        <time>2018-01-13T04:54:25Z</time>
      </trkpt>
      <trkpt lat="46.64761" lon="-1.81928">
        <ele>32</ele>
        <time>2018-01-13T04:55:25Z</time>
      </trkpt>
      <trkpt lat="46.64762" lon="-1.81928">
        <ele>32</ele>
        <time>2018-01-13T04:56:25Z</time>
      </trkpt>
      <trkpt lat="46.64762" lon="-1.81927">
        <ele>32</ele>
        <time>2018-01-13T04:57:25Z</time>
      </trkpt>
      <trkpt lat="46.64763" lon="-1.81927">
        <ele>32</ele>
        <time>2018-01-13T04:58:25Z</time>
      </trkpt>
      <trkpt lat="46.64764" lon="-1.81927">
        <ele>32</ele>
        <time>2018-01-13T04:59:25Z</time>
      </trkpt>
      <trkpt lat="46.64764" lon="-1.81928">
        <ele>32</ele>
        <time>2018-01-13T05:00:25Z</time>
      </trkpt>
      <trkpt lat="46.64777" lon="-1.81899">
        <ele>32</ele>
        <time>2018-01-13T05:01:25Z</time>
      </trkpt>
      <trkpt lat="46.64778" lon="-1.81898">
        <ele>32</ele>
        <time>2018-01-13T05:02:25Z</time>
      </trkpt>
      <trkpt lat="46.64778" lon="-1.81897">
        <ele>32</ele>
        <time>2018-01-13T05:03:25Z</time>
      </trkpt>
      <trkpt lat="46.64778" lon="-1.81896">
        <ele>32</ele>
        <time>2018-01-13T05:04:25Z</time>
      </trkpt>
      <trkpt lat="46.64779" lon="-1.81895">
        <ele>32</ele>
        <time>2018-01-13T05:05:25Z</time>
      </trkpt>
      <trkpt lat="46.64779" lon="-1.81894">
        <ele>32</ele>
        <time>2018-01-13T05:06:25Z</time>
      </trkpt>
      <trkpt lat="46.64779" lon="-1.81893">
        <ele>32</ele>
        <time>2018-01-13T05:07:25Z</time>
      </trkpt>
      <trkpt lat="46.64779" lon="-1.81892">
        <ele>32</ele>
        <time>2018-01-13T05:08:25Z</time>
      </trkpt>
      <trkpt lat="46.64779" lon="-1.81891">
        <ele>32</ele>
        <time>2018-01-13T05:09:25Z</time>
      </trkpt>
      <trkpt lat="46.64782" lon="-1.81775">
        <ele>32</ele>
        <time>2018-01-13T05:10:25Z</time>
      </trkpt>
      <trkpt lat="46.64782" lon="-1.81769">
        <ele>32</ele>
        <time>2018-01-13T05:11:25Z</time>
      </trkpt>
      <trkpt lat="46.64782" lon="-1.81745">
        <ele>32</ele>
        <time>2018-01-13T05:12:25Z</time>
      </trkpt>
      <trkpt lat="46.64783" lon="-1.81739">
        <ele>32</ele>
        <time>2018-01-13T05:13:25Z</time>
      </trkpt>
      <trkpt lat="46.64783" lon="-1.81725">
        <ele>32</ele>
        <time>2018-01-13T05:14:25Z</time>
      </trkpt>
      <trkpt lat="46.64785" lon="-1.81711">
        <ele>32</ele>
        <time>2018-01-13T05:15:25Z</time>
      </trkpt>
      <trkpt lat="46.6479" lon="-1.81687">
        <ele>32</ele>
        <time>2018-01-13T05:16:25Z</time>
      </trkpt>
      <trkpt lat="46.64792" lon="-1.81673">
        <ele>32</ele>
        <time>2018-01-13T05:17:25Z</time>
      </trkpt>
      <trkpt lat="46.64794" lon="-1.81666">
        <ele>32</ele>
        <time>2018-01-13T05:18:25Z</time>
      </trkpt>
      <trkpt lat="46.64796" lon="-1.81661">
        <ele>32</ele>
        <time>2018-01-13T05:19:25Z</time>
      </trkpt>
      <trkpt lat="46.64803" lon="-1.8164">
        <ele>32</ele>
        <time>2018-01-13T05:20:25Z</time>
      </trkpt>
      <trkpt lat="46.64804" lon="-1.81636">
        <ele>32</ele>
        <time>2018-01-13T05:21:25Z</time>
      </trkpt>
      <trkpt lat="46.64811" lon="-1.81613">
        <ele>32</ele>
        <time>2018-01-13T05:22:25Z</time>
      </trkpt>
      <trkpt lat="46.64818" lon="-1.81589">
        <ele>33</ele>
        <time>2018-01-13T05:23:25Z</time>
      </trkpt>
      <trkpt lat="46.6482" lon="-1.81583">
        <ele>33</ele>
        <time>2018-01-13T05:24:25Z</time>
      </trkpt>
      <trkpt lat="46.64824" lon="-1.81567">
        <ele>33</ele>
        <time>2018-01-13T05:25:25Z</time>
      </trkpt>
      <trkpt lat="46.64824" lon="-1.81558">
        <ele>33</ele>
        <time>2018-01-13T05:26:25Z</time>
      </trkpt>
      <trkpt lat="46.64824" lon="-1.81552">
        <ele>33</ele>
        <time>2018-01-13T05:27:25Z</time>
      </trkpt>
      <trkpt lat="46.64821" lon="-1.8154">
        <ele>33</ele>
        <time>2018-01-13T05:28:25Z</time>
      </trkpt>
      <trkpt lat="46.64818" lon="-1.81529">
        <ele>33</ele>
        <time>2018-01-13T05:29:25Z</time>
      </trkpt>
      <trkpt lat="46.64816" lon="-1.81518">
        <ele>33</ele>
        <time>2018-01-13T05:30:25Z</time>
      </trkpt>
      <trkpt lat="46.64807" lon="-1.8149">
        <ele>34</ele>
        <time>2018-01-13T05:31:25Z</time>
      </trkpt>
      <trkpt lat="46.64801" lon="-1.8147">
        <ele>34</ele>
        <time>2018-01-13T05:32:25Z</time>
      </trkpt>
      <trkpt lat="46.64797" lon="-1.81453">
        <ele>34</ele>
        <time>2018-01-13T05:33:25Z</time>
      </trkpt>
      <trkpt lat="46.64794" lon="-1.81439">
        <ele>34</ele>
        <time>2018-01-13T05:34:25Z</time>
      </trkpt>
      <trkpt lat="46.64793" lon="-1.81429">
        <ele>34</ele>
        <time>2018-01-13T05:35:25Z</time>
      </trkpt>
      <trkpt lat="46.64793" lon="-1.81422">
        <ele>34</ele>
        <time>2018-01-13T05:36:25Z</time>
      </trkpt>
      <trkpt lat="46.64793" lon="-1.81409">
        <ele>34</ele>
        <time>2018-01-13T05:37:25Z</time>
      </trkpt>
      <trkpt lat="46.64793" lon="-1.81392">
        <ele>34</ele>
        <time>2018-01-13T05:38:25Z</time>
      </trkpt>
      <trkpt lat="46.64795" lon="-1.81372">
        <ele>34</ele>
        <time>2018-01-13T05:39:25Z</time>
      </trkpt>
      <trkpt lat="46.64795" lon="-1.81357">
        <ele>34</ele>
        <time>2018-01-13T05:40:25Z</time>
      </trkpt>
      <trkpt lat="46.64796" lon="-1.81342">
        <ele>34</ele>
        <time>2018-01-13T05:41:25Z</time>
      </trkpt>
      <trkpt lat="46.64796" lon="-1.81325">
        <ele>34</ele>
        <time>2018-01-13T05:42:25Z</time>
      </trkpt>
      <trkpt lat="46.64797" lon="-1.81307">
        <ele>34</ele>
        <time>2018-01-13T05:43:25Z</time>
      </trkpt>
      <trkpt lat="46.64797" lon="-1.81295">
        <ele>35</ele>
        <time>2018-01-13T05:44:25Z</time>
      </trkpt>
      <trkpt lat="46.648" lon="-1.81271">
        <ele>35</ele>
        <time>2018-01-13T05:45:25Z</time>
      </trkpt>
      <trkpt lat="46.64805" lon="-1.81216">
        <ele>34</ele>
        <time>2018-01-13T05:46:25Z</time>
      </trkpt>
      <trkpt lat="46.64805" lon="-1.812">
        <ele>34</ele>
        <time>2018-01-13T05:47:25Z</time>
      </trkpt>
      <trkpt lat="46.64804" lon="-1.81189">
        <ele>34</ele>
        <time>2018-01-13T05:48:25Z</time>
      </trkpt>
      <trkpt lat="46.64804" lon="-1.81182">
        <ele>34</ele>
        <time>2018-01-13T05:49:25Z</time>
      </trkpt>
      <trkpt lat="46.64804" lon="-1.81164">
        <ele>33</ele>
        <time>2018-01-13T05:50:25Z</time>
      </trkpt>
      <trkpt lat="46.64804" lon="-1.81164">
        <ele>33</ele>
        <time>2018-01-13T05:51:25Z</time>
      </trkpt>
      <trkpt lat="46.64803" lon="-1.81163">
        <ele>34</ele>
        <time>2018-01-13T05:52:25Z</time>
      </trkpt>
      <trkpt lat="46.64803" lon="-1.81162">
        <ele>34</ele>
        <time>2018-01-13T05:53:25Z</time>
      </trkpt>
      <trkpt lat="46.64802" lon="-1.81161">
        <ele>34</ele>
        <time>2018-01-13T05:54:25Z</time>
      </trkpt>
      <trkpt lat="46.64801" lon="-1.81159">
        <ele>34</ele>
        <time>2018-01-13T05:55:25Z</time>
      </trkpt>
      <trkpt lat="46.648" lon="-1.81158">
        <ele>34</ele>
        <time>2018-01-13T05:56:25Z</time>
      </trkpt>
      <trkpt lat="46.648" lon="-1.81157">
        <ele>34</ele>
        <time>2018-01-13T05:57:25Z</time>
      </trkpt>
      <trkpt lat="46.64799" lon="-1.81155">
        <ele>34</ele>
        <time>2018-01-13T05:58:25Z</time>
      </trkpt>
      <trkpt lat="46.64799" lon="-1.81154">
        <ele>34</ele>
        <time>2018-01-13T05:59:25Z</time>
      </trkpt>
      <trkpt lat="46.64799" lon="-1.81151">
        <ele>34</ele>
        <time>2018-01-13T06:00:25Z</time>
      </trkpt>
      <trkpt lat="46.64799" lon="-1.81149">
        <ele>34</ele>
        <time>2018-01-13T06:01:25Z</time>
      </trkpt>
      <trkpt lat="46.64799" lon="-1.81147">
        <ele>34</ele>
        <time>2018-01-13T06:02:25Z</time>
      </trkpt>
      <trkpt lat="46.64799" lon="-1.81146">
        <ele>34</ele>
        <time>2018-01-13T06:03:25Z</time>
      </trkpt>
      <trkpt lat="46.64799" lon="-1.81144">
        <ele>34</ele>
        <time>2018-01-13T06:04:25Z</time>
      </trkpt>
      <trkpt lat="46.648" lon="-1.81142">
        <ele>34</ele>
        <time>2018-01-13T06:05:25Z</time>
      </trkpt>
      <trkpt lat="46.64801" lon="-1.81141">
        <ele>34</ele>
        <time>2018-01-13T06:06:25Z</time>
      </trkpt>
      <trkpt lat="46.64801" lon="-1.81139">
        <ele>34</ele>
        <time>2018-01-13T06:07:25Z</time>
      </trkpt>
      <trkpt lat="46.64802" lon="-1.81138">
        <ele>34</ele>
        <time>2018-01-13T06:08:25Z</time>
      </trkpt>
      <trkpt lat="46.64803" lon="-1.81136">
        <ele>34</ele>
        <time>2018-01-13T06:09:25Z</time>
      </trkpt>
      <trkpt lat="46.64804" lon="-1.81136">
        <ele>34</ele>
        <time>2018-01-13T06:10:25Z</time>
      </trkpt>
      <trkpt lat="46.64804" lon="-1.81135">
        <ele>34</ele>
        <time>2018-01-13T06:11:25Z</time>
      </trkpt>
      <trkpt lat="46.64805" lon="-1.81135">
        <ele>34</ele>
        <time>2018-01-13T06:12:25Z</time>
      </trkpt>
      <trkpt lat="46.64806" lon="-1.81134">
        <ele>34</ele>
        <time>2018-01-13T06:13:25Z</time>
      </trkpt>
      <trkpt lat="46.64807" lon="-1.81133">
        <ele>34</ele>
        <time>2018-01-13T06:14:25Z</time>
      </trkpt>
      <trkpt lat="46.64808" lon="-1.81133">
        <ele>34</ele>
        <time>2018-01-13T06:15:25Z</time>
      </trkpt>
      <trkpt lat="46.6481" lon="-1.81132">
        <ele>34</ele>
        <time>2018-01-13T06:16:25Z</time>
      </trkpt>
      <trkpt lat="46.64811" lon="-1.81132">
        <ele>34</ele>
        <time>2018-01-13T06:17:25Z</time>
      </trkpt>
      <trkpt lat="46.64812" lon="-1.81132">
        <ele>34</ele>
        <time>2018-01-13T06:18:25Z</time>
      </trkpt>
      <trkpt lat="46.64813" lon="-1.81133">
        <ele>34</ele>
        <time>2018-01-13T06:19:25Z</time>
      </trkpt>
      <trkpt lat="46.64815" lon="-1.81133">
        <ele>34</ele>
        <time>2018-01-13T06:20:25Z</time>
      </trkpt>
      <trkpt lat="46.64816" lon="-1.81134">
        <ele>33</ele>
        <time>2018-01-13T06:21:25Z</time>
      </trkpt>
      <trkpt lat="46.64817" lon="-1.81134">
        <ele>33</ele>
        <time>2018-01-13T06:22:25Z</time>
      </trkpt>
      <trkpt lat="46.64818" lon="-1.81135">
        <ele>33</ele>
        <time>2018-01-13T06:23:25Z</time>
      </trkpt>
      <trkpt lat="46.6482" lon="-1.81138">
        <ele>33</ele>
        <time>2018-01-13T06:24:25Z</time>
      </trkpt>
      <trkpt lat="46.64821" lon="-1.81138">
        <ele>33</ele>
        <time>2018-01-13T06:25:25Z</time>
      </trkpt>
      <trkpt lat="46.64821" lon="-1.81139">
        <ele>33</ele>
        <time>2018-01-13T06:26:25Z</time>
      </trkpt>
      <trkpt lat="46.64822" lon="-1.8114">
        <ele>33</ele>
        <time>2018-01-13T06:27:25Z</time>
      </trkpt>
      <trkpt lat="46.64822" lon="-1.81141">
        <ele>33</ele>
        <time>2018-01-13T06:28:25Z</time>
      </trkpt>
      <trkpt lat="46.64822" lon="-1.81142">
        <ele>33</ele>
        <time>2018-01-13T06:29:25Z</time>
      </trkpt>
      <trkpt lat="46.64823" lon="-1.81143">
        <ele>33</ele>
        <time>2018-01-13T06:30:25Z</time>
      </trkpt>
      <trkpt lat="46.64823" lon="-1.81144">
        <ele>33</ele>
        <time>2018-01-13T06:31:25Z</time>
      </trkpt>
      <trkpt lat="46.64823" lon="-1.81146">
        <ele>33</ele>
        <time>2018-01-13T06:32:25Z</time>
      </trkpt>
      <trkpt lat="46.64827" lon="-1.81149">
        <ele>33</ele>
        <time>2018-01-13T06:33:25Z</time>
      </trkpt>
      <trkpt lat="46.6483" lon="-1.81153">
        <ele>32</ele>
        <time>2018-01-13T06:34:25Z</time>
      </trkpt>
      <trkpt lat="46.64835" lon="-1.81162">
        <ele>32</ele>
        <time>2018-01-13T06:35:25Z</time>
      </trkpt>
      <trkpt lat="46.64838" lon="-1.81167">
        <ele>32</ele>
        <time>2018-01-13T06:36:25Z</time>
      </trkpt>
      <trkpt lat="46.64852" lon="-1.81183">
        <ele>33</ele>
        <time>2018-01-13T06:37:25Z</time>
      </trkpt>
      <trkpt lat="46.64867" lon="-1.81202">
        <ele>33</ele>
        <time>2018-01-13T06:38:25Z</time>
      </trkpt>
      <trkpt lat="46.64884" lon="-1.81224">
        <ele>33</ele>
        <time>2018-01-13T06:39:25Z</time>
      </trkpt>
      <trkpt lat="46.64898" lon="-1.81244">
        <ele>33</ele>
        <time>2018-01-13T06:40:25Z</time>
      </trkpt>
      <trkpt lat="46.6492" lon="-1.81274">
        <ele>31</ele>
        <time>2018-01-13T06:41:25Z</time>
      </trkpt>
      <trkpt lat="46.6494" lon="-1.81303">
        <ele>29</ele>
        <time>2018-01-13T06:42:25Z</time>
      </trkpt>
      <trkpt lat="46.64956" lon="-1.81325">
        <ele>28</ele>
        <time>2018-01-13T06:43:25Z</time>
      </trkpt>
      <trkpt lat="46.64972" lon="-1.81347">
        <ele>27</ele>
        <time>2018-01-13T06:44:25Z</time>
      </trkpt>
      <trkpt lat="46.64981" lon="-1.8136">
        <ele>26</ele>
        <time>2018-01-13T06:45:25Z</time>
      </trkpt>
      <trkpt lat="46.64993" lon="-1.81374">
        <ele>25</ele>
        <time>2018-01-13T06:46:25Z</time>
      </trkpt>
      <trkpt lat="46.65006" lon="-1.81385">
        <ele>24</ele>
        <time>2018-01-13T06:47:25Z</time>
      </trkpt>
      <trkpt lat="46.65014" lon="-1.8139">
        <ele>23</ele>
        <time>2018-01-13T06:48:25Z</time>
      </trkpt>
      <trkpt lat="46.65023" lon="-1.81396">
        <ele>22</ele>
        <time>2018-01-13T06:49:25Z</time>
      </trkpt>
      <trkpt lat="46.65032" lon="-1.81399">
        <ele>21</ele>
        <time>2018-01-13T06:50:25Z</time>
      </trkpt>
      <trkpt lat="46.65041" lon="-1.81402">
        <ele>20</ele>
        <time>2018-01-13T06:51:25Z</time>
      </trkpt>
      <trkpt lat="46.6505" lon="-1.81402">
        <ele>19</ele>
        <time>2018-01-13T06:52:25Z</time>
      </trkpt>
      <trkpt lat="46.65056" lon="-1.81403">
        <ele>18</ele>
        <time>2018-01-13T06:53:25Z</time>
      </trkpt>
      <trkpt lat="46.65062" lon="-1.81402">
        <ele>18</ele>
        <time>2018-01-13T06:54:25Z</time>
      </trkpt>
      <trkpt lat="46.65081" lon="-1.81398">
        <ele>16</ele>
        <time>2018-01-13T06:55:25Z</time>
      </trkpt>
      <trkpt lat="46.65097" lon="-1.81393">
        <ele>15</ele>
        <time>2018-01-13T06:56:25Z</time>
      </trkpt>
      <trkpt lat="46.65102" lon="-1.81391">
        <ele>15</ele>
        <time>2018-01-13T06:57:25Z</time>
      </trkpt>
      <trkpt lat="46.6511" lon="-1.81388">
        <ele>14</ele>
        <time>2018-01-13T06:58:25Z</time>
      </trkpt>
      <trkpt lat="46.65132" lon="-1.8138">
        <ele>13</ele>
        <time>2018-01-13T06:59:25Z</time>
      </trkpt>
      <trkpt lat="46.6514" lon="-1.81377">
        <ele>13</ele>
        <time>2018-01-13T07:00:25Z</time>
      </trkpt>
      <trkpt lat="46.6516" lon="-1.81369">
        <ele>11</ele>
        <time>2018-01-13T07:01:25Z</time>
      </trkpt>
      <trkpt lat="46.65167" lon="-1.81367">
        <ele>11</ele>
        <time>2018-01-13T07:02:25Z</time>
      </trkpt>
      <trkpt lat="46.65199" lon="-1.81355">
        <ele>10</ele>
        <time>2018-01-13T07:03:25Z</time>
      </trkpt>
      <trkpt lat="46.65216" lon="-1.81349">
        <ele>9</ele>
        <time>2018-01-13T07:04:25Z</time>
      </trkpt>
      <trkpt lat="46.65243" lon="-1.81339">
        <ele>8</ele>
        <time>2018-01-13T07:05:25Z</time>
      </trkpt>
      <trkpt lat="46.65259" lon="-1.81334">
        <ele>8</ele>
        <time>2018-01-13T07:06:25Z</time>
      </trkpt>
      <trkpt lat="46.6527" lon="-1.8133">
        <ele>7</ele>
        <time>2018-01-13T07:07:25Z</time>
      </trkpt>
      <trkpt lat="46.65291" lon="-1.81322">
        <ele>6</ele>
        <time>2018-01-13T07:08:25Z</time>
      </trkpt>
      <trkpt lat="46.65302" lon="-1.81319">
        <ele>6</ele>
        <time>2018-01-13T07:09:25Z</time>
      </trkpt>
      <trkpt lat="46.65311" lon="-1.81317">
        <ele>6</ele>
        <time>2018-01-13T07:10:25Z</time>
      </trkpt>
      <trkpt lat="46.65328" lon="-1.81312">
        <ele>5</ele>
        <time>2018-01-13T07:11:25Z</time>
      </trkpt>
      <trkpt lat="46.65328" lon="-1.81312">
        <ele>5</ele>
        <time>2018-01-13T07:12:25Z</time>
      </trkpt>
      <trkpt lat="46.65339" lon="-1.81296">
        <ele>5</ele>
        <time>2018-01-13T07:13:25Z</time>
      </trkpt>
      <trkpt lat="46.65345" lon="-1.8129">
        <ele>5</ele>
        <time>2018-01-13T07:14:25Z</time>
      </trkpt>
      <trkpt lat="46.65349" lon="-1.81287">
        <ele>5</ele>
        <time>2018-01-13T07:15:25Z</time>
      </trkpt>
      <trkpt lat="46.6536" lon="-1.81269">
        <ele>5</ele>
        <time>2018-01-13T07:16:25Z</time>
      </trkpt>
      <trkpt lat="46.65373" lon="-1.81251">
        <ele>5</ele>
        <time>2018-01-13T07:17:25Z</time>
      </trkpt>
      <trkpt lat="46.65378" lon="-1.81243">
        <ele>6</ele>
        <time>2018-01-13T07:18:25Z</time>
      </trkpt>
      <trkpt lat="46.65388" lon="-1.81228">
        <ele>6</ele>
        <time>2018-01-13T07:19:25Z</time>
      </trkpt>
      <trkpt lat="46.65397" lon="-1.81213">
        <ele>6</ele>
        <time>2018-01-13T07:20:25Z</time>
      </trkpt>
      <trkpt lat="46.65415" lon="-1.81193">
        <ele>7</ele>
        <time>2018-01-13T07:21:25Z</time>
      </trkpt>
      <trkpt lat="46.6543" lon="-1.81177">
        <ele>8</ele>
        <time>2018-01-13T07:22:25Z</time>
      </trkpt>
      <trkpt lat="46.65444" lon="-1.81163">
        <ele>9</ele>
        <time>2018-01-13T07:23:25Z</time>
      </trkpt>
      <trkpt lat="46.65452" lon="-1.81156">
        <ele>9</ele>
        <time>2018-01-13T07:24:25Z</time>
      </trkpt>
      <trkpt lat="46.65469" lon="-1.8114">
        <ele>11</ele>
        <time>2018-01-13T07:25:25Z</time>
      </trkpt>
      <trkpt lat="46.6547" lon="-1.81139">
        <ele>11</ele>
        <time>2018-01-13T07:26:25Z</time>
      </trkpt>
      <trkpt lat="46.65494" lon="-1.81119">
        <ele>13</ele>
        <time>2018-01-13T07:27:25Z</time>
      </trkpt>
      <trkpt lat="46.65511" lon="-1.81105">
        <ele>14</ele>
        <time>2018-01-13T07:28:25Z</time>
      </trkpt>
      <trkpt lat="46.65534" lon="-1.81085">
        <ele>16</ele>
        <time>2018-01-13T07:29:25Z</time>
      </trkpt>
      <trkpt lat="46.6556" lon="-1.81064">
        <ele>17</ele>
        <time>2018-01-13T07:30:25Z</time>
      </trkpt>
      <trkpt lat="46.65565" lon="-1.8106">
        <ele>18</ele>
        <time>2018-01-13T07:31:25Z</time>
      </trkpt>
      <trkpt lat="46.65578" lon="-1.81051">
        <ele>18</ele>
        <time>2018-01-13T07:32:25Z</time>
      </trkpt>
      <trkpt lat="46.65592" lon="-1.81042">
        <ele>19</ele>
        <time>2018-01-13T07:33:25Z</time>
      </trkpt>
      <trkpt lat="46.65619" lon="-1.8103">
        <ele>20</ele>
        <time>2018-01-13T07:34:25Z</time>
      </trkpt>
      <trkpt lat="46.65628" lon="-1.81025">
        <ele>21</ele>
        <time>2018-01-13T07:35:25Z</time>
      </trkpt>
      <trkpt lat="46.65648" lon="-1.81017">
        <ele>21</ele>
        <time>2018-01-13T07:36:25Z</time>
      </trkpt>
      <trkpt lat="46.65677" lon="-1.81006">
        <ele>22</ele>
        <time>2018-01-13T07:37:25Z</time>
      </trkpt>
      <trkpt lat="46.6569" lon="-1.81001">
        <ele>22</ele>
        <time>2018-01-13T07:38:25Z</time>
      </trkpt>
      <trkpt lat="46.65718" lon="-1.80992">
        <ele>23</ele>
        <time>2018-01-13T07:39:25Z</time>
      </trkpt>
      <trkpt lat="46.65763" lon="-1.80975">
        <ele>22</ele>
        <time>2018-01-13T07:40:25Z</time>
      </trkpt>
      <trkpt lat="46.65802" lon="-1.80961">
        <ele>21</ele>
        <time>2018-01-13T07:41:25Z</time>
      </trkpt>
      <trkpt lat="46.65849" lon="-1.80944">
        <ele>19</ele>
        <time>2018-01-13T07:42:25Z</time>
      </trkpt>
      <trkpt lat="46.65887" lon="-1.80931">
        <ele>18</ele>
        <time>2018-01-13T07:43:25Z</time>
      </trkpt>
      <trkpt lat="46.65914" lon="-1.80922">
        <ele>16</ele>
        <time>2018-01-13T07:44:25Z</time>
      </trkpt>
      <trkpt lat="46.65935" lon="-1.80913">
        <ele>17</ele>
        <time>2018-01-13T07:45:25Z</time>
      </trkpt>
      <trkpt lat="46.65942" lon="-1.80911">
        <ele>17</ele>
        <time>2018-01-13T07:46:25Z</time>
      </trkpt>
      <trkpt lat="46.65967" lon="-1.80899">
        <ele>18</ele>
        <time>2018-01-13T07:47:25Z</time>
      </trkpt>
      <trkpt lat="46.65981" lon="-1.80893">
        <ele>19</ele>
        <time>2018-01-13T07:48:25Z</time>
      </trkpt>
      <trkpt lat="46.65988" lon="-1.80888">
        <ele>19</ele>
        <time>2018-01-13T07:49:25Z</time>
      </trkpt>
      <trkpt lat="46.66007" lon="-1.80876">
        <ele>20</ele>
        <time>2018-01-13T07:50:25Z</time>
      </trkpt>
      <trkpt lat="46.66033" lon="-1.80858">
        <ele>21</ele>
        <time>2018-01-13T07:51:25Z</time>
      </trkpt>
      <trkpt lat="46.66057" lon="-1.80838">
        <ele>23</ele>
        <time>2018-01-13T07:52:25Z</time>
      </trkpt>
      <trkpt lat="46.66079" lon="-1.80825">
        <ele>25</ele>
        <time>2018-01-13T07:53:25Z</time>
      </trkpt>
      <trkpt lat="46.66105" lon="-1.80803">
        <ele>26</ele>
        <time>2018-01-13T07:54:25Z</time>
      </trkpt>
      <trkpt lat="46.66138" lon="-1.80775">
        <ele>28</ele>
        <time>2018-01-13T07:55:25Z</time>
      </trkpt>
      <trkpt lat="46.66171" lon="-1.80741">
        <ele>30</ele>
        <time>2018-01-13T07:56:25Z</time>
      </trkpt>
      <trkpt lat="46.6621" lon="-1.80697">
        <ele>32</ele>
        <time>2018-01-13T07:57:25Z</time>
      </trkpt>
      <trkpt lat="46.66255" lon="-1.80646">
        <ele>33</ele>
        <time>2018-01-13T07:58:25Z</time>
      </trkpt>
      <trkpt lat="46.66296" lon="-1.80602">
        <ele>34</ele>
        <time>2018-01-13T07:59:25Z</time>
      </trkpt>
      <trkpt lat="46.66332" lon="-1.80562">
        <ele>35</ele>
        <time>2018-01-13T08:00:25Z</time>
      </trkpt>
      <trkpt lat="46.66375" lon="-1.80515">
        <ele>36</ele>
        <time>2018-01-13T08:01:25Z</time>
      </trkpt>
      <trkpt lat="46.66413" lon="-1.80473">
        <ele>36</ele>
        <time>2018-01-13T08:02:25Z</time>
      </trkpt>
      <trkpt lat="46.66452" lon="-1.8043">
        <ele>36</ele>
        <time>2018-01-13T08:03:25Z</time>
      </trkpt>
      <trkpt lat="46.66489" lon="-1.80389">
        <ele>37</ele>
        <time>2018-01-13T08:04:25Z</time>
      </trkpt>
      <trkpt lat="46.66505" lon="-1.8037">
        <ele>38</ele>
        <time>2018-01-13T08:05:25Z</time>
      </trkpt>
      <trkpt lat="46.66512" lon="-1.80361">
        <ele>38</ele>
        <time>2018-01-13T08:06:25Z</time>
      </trkpt>
      <trkpt lat="46.66519" lon="-1.8035">
        <ele>38</ele>
        <time>2018-01-13T08:07:25Z</time>
      </trkpt>
      <trkpt lat="46.6653" lon="-1.80332">
        <ele>38</ele>
        <time>2018-01-13T08:08:25Z</time>
      </trkpt>
      <trkpt lat="46.66541" lon="-1.80309">
        <ele>38</ele>
        <time>2018-01-13T08:09:25Z</time>
      </trkpt>
      <trkpt lat="46.66553" lon="-1.80279">
        <ele>38</ele>
        <time>2018-01-13T08:10:25Z</time>
      </trkpt>
      <trkpt lat="46.66567" lon="-1.80237">
        <ele>39</ele>
        <time>2018-01-13T08:11:25Z</time>
      </trkpt>
      <trkpt lat="46.66584" lon="-1.80188">
        <ele>39</ele>
        <time>2018-01-13T08:12:25Z</time>
      </trkpt>
      <trkpt lat="46.66599" lon="-1.80141">
        <ele>39</ele>
        <time>2018-01-13T08:13:25Z</time>
      </trkpt>
      <trkpt lat="46.66618" lon="-1.80087">
        <ele>39</ele>
        <time>2018-01-13T08:14:25Z</time>
      </trkpt>
      <trkpt lat="46.66632" lon="-1.80041">
        <ele>39</ele>
        <time>2018-01-13T08:15:25Z</time>
      </trkpt>
      <trkpt lat="46.66644" lon="-1.80009">
        <ele>40</ele>
        <time>2018-01-13T08:16:25Z</time>
      </trkpt>
      <trkpt lat="46.66652" lon="-1.79982">
        <ele>40</ele>
        <time>2018-01-13T08:17:25Z</time>
      </trkpt>
      <trkpt lat="46.66667" lon="-1.79927">
        <ele>40</ele>
        <time>2018-01-13T08:18:25Z</time>
      </trkpt>
      <trkpt lat="46.6668" lon="-1.79875">
        <ele>40</ele>
        <time>2018-01-13T08:19:25Z</time>
      </trkpt>
      <trkpt lat="46.66694" lon="-1.79817">
        <ele>41</ele>
        <time>2018-01-13T08:20:25Z</time>
      </trkpt>
      <trkpt lat="46.66715" lon="-1.79735">
        <ele>41</ele>
        <time>2018-01-13T08:21:25Z</time>
      </trkpt>
      <trkpt lat="46.66725" lon="-1.79698">
        <ele>40</ele>
        <time>2018-01-13T08:22:25Z</time>
      </trkpt>
      <trkpt lat="46.66733" lon="-1.79661">
        <ele>39</ele>
        <time>2018-01-13T08:23:25Z</time>
      </trkpt>
      <trkpt lat="46.66746" lon="-1.79613">
        <ele>40</ele>
        <time>2018-01-13T08:24:25Z</time>
      </trkpt>
      <trkpt lat="46.66757" lon="-1.79571">
        <ele>40</ele>
        <time>2018-01-13T08:25:25Z</time>
      </trkpt>
      <trkpt lat="46.66766" lon="-1.79541">
        <ele>40</ele>
        <time>2018-01-13T08:26:25Z</time>
      </trkpt>
      <trkpt lat="46.66769" lon="-1.79531">
        <ele>40</ele>
        <time>2018-01-13T08:27:25Z</time>
      </trkpt>
      <trkpt lat="46.66773" lon="-1.7952">
        <ele>40</ele>
        <time>2018-01-13T08:28:25Z</time>
      </trkpt>
      <trkpt lat="46.66782" lon="-1.795">
        <ele>41</ele>
        <time>2018-01-13T08:29:25Z</time>
      </trkpt>
      <trkpt lat="46.66796" lon="-1.7947">
        <ele>41</ele>
        <time>2018-01-13T08:30:25Z</time>
      </trkpt>
      <trkpt lat="46.66813" lon="-1.79439">
        <ele>41</ele>
        <time>2018-01-13T08:31:25Z</time>
      </trkpt>
      <trkpt lat="46.6683" lon="-1.79413">
        <ele>41</ele>
        <time>2018-01-13T08:32:25Z</time>
      </trkpt>
      <trkpt lat="46.66851" lon="-1.7938">
        <ele>40</ele>
        <time>2018-01-13T08:33:25Z</time>
      </trkpt>
      <trkpt lat="46.6686" lon="-1.79365">
        <ele>39</ele>
        <time>2018-01-13T08:34:25Z</time>
      </trkpt>
      <trkpt lat="46.6688" lon="-1.79336">
        <ele>38</ele>
        <time>2018-01-13T08:35:25Z</time>
      </trkpt>
      <trkpt lat="46.66906" lon="-1.79295">
        <ele>38</ele>
        <time>2018-01-13T08:36:25Z</time>
      </trkpt>
      <trkpt lat="46.66934" lon="-1.79253">
        <ele>38</ele>
        <time>2018-01-13T08:37:25Z</time>
      </trkpt>
      <trkpt lat="46.66963" lon="-1.79214">
        <ele>37</ele>
        <time>2018-01-13T08:38:25Z</time>
      </trkpt>
      <trkpt lat="46.67009" lon="-1.79151">
        <ele>35</ele>
        <time>2018-01-13T08:39:25Z</time>
      </trkpt>
      <trkpt lat="46.67045" lon="-1.79101">
        <ele>35</ele>
        <time>2018-01-13T08:40:25Z</time>
      </trkpt>
      <trkpt lat="46.67085" lon="-1.79047">
        <ele>34</ele>
        <time>2018-01-13T08:41:25Z</time>
      </trkpt>
      <trkpt lat="46.67124" lon="-1.78995">
        <ele>33</ele>
        <time>2018-01-13T08:42:25Z</time>
      </trkpt>
      <trkpt lat="46.67142" lon="-1.78968">
        <ele>33</ele>
        <time>2018-01-13T08:43:25Z</time>
      </trkpt>
      <trkpt lat="46.67152" lon="-1.78953">
        <ele>32</ele>
        <time>2018-01-13T08:44:25Z</time>
      </trkpt>
      <trkpt lat="46.67191" lon="-1.78901">
        <ele>33</ele>
        <time>2018-01-13T08:45:25Z</time>
      </trkpt>
      <trkpt lat="46.67234" lon="-1.7884">
        <ele>34</ele>
        <time>2018-01-13T08:46:25Z</time>
      </trkpt>
      <trkpt lat="46.67257" lon="-1.7881">
        <ele>34</ele>
        <time>2018-01-13T08:47:25Z</time>
      </trkpt>
      <trkpt lat="46.67272" lon="-1.7879">
        <ele>34</ele>
        <time>2018-01-13T08:48:25Z</time>
      </trkpt>
      <trkpt lat="46.67292" lon="-1.78763">
        <ele>33</ele>
        <time>2018-01-13T08:49:25Z</time>
      </trkpt>
      <trkpt lat="46.6731" lon="-1.78739">
        <ele>33</ele>
        <time>2018-01-13T08:50:25Z</time>
      </trkpt>
      <trkpt lat="46.67332" lon="-1.78709">
        <ele>34</ele>
        <time>2018-01-13T08:51:25Z</time>
      </trkpt>
      <trkpt lat="46.67355" lon="-1.78678">
        <ele>35</ele>
        <time>2018-01-13T08:52:25Z</time>
      </trkpt>
      <trkpt lat="46.6739" lon="-1.78629">
        <ele>35</ele>
        <time>2018-01-13T08:53:25Z</time>
      </trkpt>
      <trkpt lat="46.6742" lon="-1.7859">
        <ele>36</ele>
        <time>2018-01-13T08:54:25Z</time>
      </trkpt>
      <trkpt lat="46.67442" lon="-1.78559">
        <ele>36</ele>
        <time>2018-01-13T08:55:25Z</time>
      </trkpt>
      <trkpt lat="46.67445" lon="-1.78554">
        <ele>36</ele>
        <time>2018-01-13T08:56:25Z</time>
      </trkpt>
      <trkpt lat="46.67451" lon="-1.78547">
        <ele>36</ele>
        <time>2018-01-13T08:57:25Z</time>
      </trkpt>
      <trkpt lat="46.67466" lon="-1.78526">
        <ele>36</ele>
        <time>2018-01-13T08:58:25Z</time>
      </trkpt>
      <trkpt lat="46.67492" lon="-1.78492">
        <ele>36</ele>
        <time>2018-01-13T08:59:25Z</time>
      </trkpt>
      <trkpt lat="46.67526" lon="-1.78446">
        <ele>38</ele>
        <time>2018-01-13T09:00:25Z</time>
      </trkpt>
      <trkpt lat="46.67553" lon="-1.78408">
        <ele>39</ele>
        <time>2018-01-13T09:01:25Z</time>
      </trkpt>
      <trkpt lat="46.67586" lon="-1.78364">
        <ele>40</ele>
        <time>2018-01-13T09:02:25Z</time>
      </trkpt>
      <trkpt lat="46.6762" lon="-1.78317">
        <ele>41</ele>
        <time>2018-01-13T09:03:25Z</time>
      </trkpt>
      <trkpt lat="46.67664" lon="-1.78259">
        <ele>42</ele>
        <time>2018-01-13T09:04:25Z</time>
      </trkpt>
      <trkpt lat="46.67694" lon="-1.78218">
        <ele>42</ele>
        <time>2018-01-13T09:05:25Z</time>
      </trkpt>
      <trkpt lat="46.67715" lon="-1.7819">
        <ele>43</ele>
        <time>2018-01-13T09:06:25Z</time>
      </trkpt>
      <trkpt lat="46.67728" lon="-1.78173">
        <ele>43</ele>
        <time>2018-01-13T09:07:25Z</time>
      </trkpt>
      <trkpt lat="46.67753" lon="-1.78138">
        <ele>44</ele>
        <time>2018-01-13T09:08:25Z</time>
      </trkpt>
      <trkpt lat="46.67773" lon="-1.78109">
        <ele>44</ele>
        <time>2018-01-13T09:09:25Z</time>
      </trkpt>
      <trkpt lat="46.67796" lon="-1.7808">
        <ele>44</ele>
        <time>2018-01-13T09:10:25Z</time>
      </trkpt>
      <trkpt lat="46.67821" lon="-1.78044">
        <ele>45</ele>
        <time>2018-01-13T09:11:25Z</time>
      </trkpt>
      <trkpt lat="46.67845" lon="-1.78011">
        <ele>45</ele>
        <time>2018-01-13T09:12:25Z</time>
      </trkpt>
      <trkpt lat="46.67852" lon="-1.78001">
        <ele>45</ele>
        <time>2018-01-13T09:13:25Z</time>
      </trkpt>
      <trkpt lat="46.67874" lon="-1.77973">
        <ele>46</ele>
        <time>2018-01-13T09:14:25Z</time>
      </trkpt>
      <trkpt lat="46.67895" lon="-1.77943">
        <ele>46</ele>
        <time>2018-01-13T09:15:25Z</time>
      </trkpt>
      <trkpt lat="46.67917" lon="-1.77914">
        <ele>47</ele>
        <time>2018-01-13T09:16:25Z</time>
      </trkpt>
      <trkpt lat="46.67939" lon="-1.77884">
        <ele>47</ele>
        <time>2018-01-13T09:17:25Z</time>
      </trkpt>
      <trkpt lat="46.67964" lon="-1.77851">
        <ele>48</ele>
        <time>2018-01-13T09:18:25Z</time>
      </trkpt>
      <trkpt lat="46.67988" lon="-1.77817">
        <ele>49</ele>
        <time>2018-01-13T09:19:25Z</time>
      </trkpt>
      <trkpt lat="46.68012" lon="-1.77785">
        <ele>49</ele>
        <time>2018-01-13T09:20:25Z</time>
      </trkpt>
      <trkpt lat="46.68046" lon="-1.77739">
        <ele>49</ele>
        <time>2018-01-13T09:21:25Z</time>
      </trkpt>
      <trkpt lat="46.68063" lon="-1.77717">
        <ele>49</ele>
        <time>2018-01-13T09:22:25Z</time>
      </trkpt>
      <trkpt lat="46.68081" lon="-1.77694">
        <ele>49</ele>
        <time>2018-01-13T09:23:25Z</time>
      </trkpt>
      <trkpt lat="46.68098" lon="-1.77671">
        <ele>50</ele>
        <time>2018-01-13T09:24:25Z</time>
      </trkpt>
      <trkpt lat="46.68112" lon="-1.77655">
        <ele>50</ele>
        <time>2018-01-13T09:25:25Z</time>
      </trkpt>
      <trkpt lat="46.68125" lon="-1.77641">
        <ele>50</ele>
        <time>2018-01-13T09:26:25Z</time>
      </trkpt>
      <trkpt lat="46.6814" lon="-1.77627">
        <ele>50</ele>
        <time>2018-01-13T09:27:25Z</time>
      </trkpt>
      <trkpt lat="46.68155" lon="-1.77615">
        <ele>50</ele>
        <time>2018-01-13T09:28:25Z</time>
      </trkpt>
      <trkpt lat="46.68193" lon="-1.77584">
        <ele>50</ele>
        <time>2018-01-13T09:29:25Z</time>
      </trkpt>
      <trkpt lat="46.68229" lon="-1.77556">
        <ele>51</ele>
        <time>2018-01-13T09:30:25Z</time>
      </trkpt>
      <trkpt lat="46.68269" lon="-1.77524">
        <ele>51</ele>
        <time>2018-01-13T09:31:25Z</time>
      </trkpt>
      <trkpt lat="46.68299" lon="-1.775">
        <ele>51</ele>
        <time>2018-01-13T09:32:25Z</time>
      </trkpt>
      <trkpt lat="46.68317" lon="-1.77486">
        <ele>51</ele>
        <time>2018-01-13T09:33:25Z</time>
      </trkpt>
      <trkpt lat="46.68335" lon="-1.77471">
        <ele>52</ele>
        <time>2018-01-13T09:34:25Z</time>
      </trkpt>
      <trkpt lat="46.68357" lon="-1.77453">
        <ele>52</ele>
        <time>2018-01-13T09:35:25Z</time>
      </trkpt>
      <trkpt lat="46.68372" lon="-1.77439">
        <ele>52</ele>
        <time>2018-01-13T09:36:25Z</time>
      </trkpt>
      <trkpt lat="46.68389" lon="-1.77423">
        <ele>52</ele>
        <time>2018-01-13T09:37:25Z</time>
      </trkpt>
      <trkpt lat="46.68404" lon="-1.77409">
        <ele>52</ele>
        <time>2018-01-13T09:38:25Z</time>
      </trkpt>
      <trkpt lat="46.68424" lon="-1.77386">
        <ele>53</ele>
        <time>2018-01-13T09:39:25Z</time>
      </trkpt>
      <trkpt lat="46.68442" lon="-1.77365">
        <ele>54</ele>
        <time>2018-01-13T09:40:25Z</time>
      </trkpt>
      <trkpt lat="46.6846" lon="-1.77344">
        <ele>54</ele>
        <time>2018-01-13T09:41:25Z</time>
      </trkpt>
      <trkpt lat="46.68486" lon="-1.77314">
        <ele>55</ele>
        <time>2018-01-13T09:42:25Z</time>
      </trkpt>
      <trkpt lat="46.68511" lon="-1.77283">
        <ele>56</ele>
        <time>2018-01-13T09:43:25Z</time>
      </trkpt>
      <trkpt lat="46.68544" lon="-1.77245">
        <ele>57</ele>
        <time>2018-01-13T09:44:25Z</time>
      </trkpt>
      <trkpt lat="46.68572" lon="-1.7721">
        <ele>57</ele>
        <time>2018-01-13T09:45:25Z</time>
      </trkpt>
      <trkpt lat="46.68597" lon="-1.77181">
        <ele>57</ele>
        <time>2018-01-13T09:46:25Z</time>
      </trkpt>
      <trkpt lat="46.68715" lon="-1.77046">
        <ele>56</ele>
        <time>2018-01-13T09:47:25Z</time>
      </trkpt>
      <trkpt lat="46.688" lon="-1.76944">
        <ele>54</ele>
        <time>2018-01-13T09:48:25Z</time>
      </trkpt>
      <trkpt lat="46.688" lon="-1.76943">
        <ele>54</ele>
        <time>2018-01-13T09:49:25Z</time>
      </trkpt>
      <trkpt lat="46.68799" lon="-1.76943">
        <ele>54</ele>
        <time>2018-01-13T09:50:25Z</time>
      </trkpt>
      <trkpt lat="46.68799" lon="-1.76942">
        <ele>54</ele>
        <time>2018-01-13T09:51:25Z</time>
      </trkpt>
      <trkpt lat="46.68799" lon="-1.76941">
        <ele>54</ele>
        <time>2018-01-13T09:52:25Z</time>
      </trkpt>
      <trkpt lat="46.68799" lon="-1.7694">
        <ele>54</ele>
        <time>2018-01-13T09:53:25Z</time>
      </trkpt>
      <trkpt lat="46.68798" lon="-1.76939">
        <ele>54</ele>
        <time>2018-01-13T09:54:25Z</time>
      </trkpt>
      <trkpt lat="46.68798" lon="-1.76938">
        <ele>54</ele>
        <time>2018-01-13T09:55:25Z</time>
      </trkpt>
      <trkpt lat="46.68798" lon="-1.76937">
        <ele>54</ele>
        <time>2018-01-13T09:56:25Z</time>
      </trkpt>
      <trkpt lat="46.68798" lon="-1.76936">
        <ele>54</ele>
        <time>2018-01-13T09:57:25Z</time>
      </trkpt>
      <trkpt lat="46.68798" lon="-1.76935">
        <ele>54</ele>
        <time>2018-01-13T09:58:25Z</time>
      </trkpt>
      <trkpt lat="46.68799" lon="-1.76935">
        <ele>54</ele>
        <time>2018-01-13T09:59:25Z</time>
      </trkpt>
      <trkpt lat="46.68799" lon="-1.76934">
        <ele>54</ele>
        <time>2018-01-13T10:00:25Z</time>
      </trkpt>
      <trkpt lat="46.68799" lon="-1.76933">
        <ele>54</ele>
        <time>2018-01-13T10:01:25Z</time>
      </trkpt>
      <trkpt lat="46.68799" lon="-1.76932">
        <ele>54</ele>
        <time>2018-01-13T10:02:25Z</time>
      </trkpt>
      <trkpt lat="46.68799" lon="-1.76931">
        <ele>54</ele>
        <time>2018-01-13T10:03:25Z</time>
      </trkpt>
      <trkpt lat="46.688" lon="-1.76931">
        <ele>54</ele>
        <time>2018-01-13T10:04:25Z</time>
      </trkpt>
      <trkpt lat="46.688" lon="-1.7693">
        <ele>54</ele>
        <time>2018-01-13T10:05:25Z</time>
      </trkpt>
      <trkpt lat="46.688" lon="-1.76929">
        <ele>54</ele>
        <time>2018-01-13T10:06:25Z</time>
      </trkpt>
      <trkpt lat="46.68801" lon="-1.76929">
        <ele>54</ele>
        <time>2018-01-13T10:07:25Z</time>
      </trkpt>
      <trkpt lat="46.68801" lon="-1.76928">
        <ele>54</ele>
        <time>2018-01-13T10:08:25Z</time>
      </trkpt>
      <trkpt lat="46.68802" lon="-1.76928">
        <ele>54</ele>
        <time>2018-01-13T10:09:25Z</time>
      </trkpt>
      <trkpt lat="46.68802" lon="-1.76927">
        <ele>54</ele>
        <time>2018-01-13T10:10:25Z</time>
      </trkpt>
      <trkpt lat="46.68803" lon="-1.76927">
        <ele>54</ele>
        <time>2018-01-13T10:11:25Z</time>
      </trkpt>
      <trkpt lat="46.68804" lon="-1.76927">
        <ele>54</ele>
        <time>2018-01-13T10:12:25Z</time>
      </trkpt>
      <trkpt lat="46.68804" lon="-1.76926">
        <ele>54</ele>
        <time>2018-01-13T10:13:25Z</time>
      </trkpt>
      <trkpt lat="46.68805" lon="-1.76926">
        <ele>54</ele>
        <time>2018-01-13T10:14:25Z</time>
      </trkpt>
      <trkpt lat="46.68806" lon="-1.76926">
        <ele>54</ele>
        <time>2018-01-13T10:15:25Z</time>
      </trkpt>
      <trkpt lat="46.68807" lon="-1.76926">
        <ele>54</ele>
        <time>2018-01-13T10:16:25Z</time>
      </trkpt>
      <trkpt lat="46.68808" lon="-1.76926">
        <ele>54</ele>
        <time>2018-01-13T10:17:25Z</time>
      </trkpt>
      <trkpt lat="46.68808" lon="-1.76927">
        <ele>54</ele>
        <time>2018-01-13T10:18:25Z</time>
      </trkpt>
      <trkpt lat="46.68809" lon="-1.76927">
        <ele>54</ele>
        <time>2018-01-13T10:19:25Z</time>
      </trkpt>
      <trkpt lat="46.6881" lon="-1.76928">
        <ele>54</ele>
        <time>2018-01-13T10:20:25Z</time>
      </trkpt>
      <trkpt lat="46.68811" lon="-1.76929">
        <ele>54</ele>
        <time>2018-01-13T10:21:25Z</time>
      </trkpt>
      <trkpt lat="46.68811" lon="-1.7693">
        <ele>54</ele>
        <time>2018-01-13T10:22:25Z</time>
      </trkpt>
      <trkpt lat="46.68812" lon="-1.7693">
        <ele>54</ele>
        <time>2018-01-13T10:23:25Z</time>
      </trkpt>
      <trkpt lat="46.68812" lon="-1.76931">
        <ele>54</ele>
        <time>2018-01-13T10:24:25Z</time>
      </trkpt>
      <trkpt lat="46.68812" lon="-1.76932">
        <ele>54</ele>
        <time>2018-01-13T10:25:25Z</time>
      </trkpt>
      <trkpt lat="46.68813" lon="-1.76932">
        <ele>54</ele>
        <time>2018-01-13T10:26:25Z</time>
      </trkpt>
      <trkpt lat="46.68864" lon="-1.76891">
        <ele>54</ele>
        <time>2018-01-13T10:27:25Z</time>
      </trkpt>
      <trkpt lat="46.68864" lon="-1.7689">
        <ele>54</ele>
        <time>2018-01-13T10:28:25Z</time>
      </trkpt>
      <trkpt lat="46.68864" lon="-1.76889">
        <ele>54</ele>
        <time>2018-01-13T10:29:25Z</time>
      </trkpt>
      <trkpt lat="46.68863" lon="-1.76889">
        <ele>54</ele>
        <time>2018-01-13T10:30:25Z</time>
      </trkpt>
      <trkpt lat="46.68863" lon="-1.76888">
        <ele>54</ele>
        <time>2018-01-13T10:31:25Z</time>
      </trkpt>
      <trkpt lat="46.68863" lon="-1.76887">
        <ele>54</ele>
        <time>2018-01-13T10:32:25Z</time>
      </trkpt>
      <trkpt lat="46.68863" lon="-1.76886">
        <ele>54</ele>
        <time>2018-01-13T10:33:25Z</time>
      </trkpt>
      <trkpt lat="46.68863" lon="-1.76885">
        <ele>54</ele>
        <time>2018-01-13T10:34:25Z</time>
      </trkpt>
      <trkpt lat="46.68863" lon="-1.76884">
        <ele>54</ele>
        <time>2018-01-13T10:35:25Z</time>
      </trkpt>
      <trkpt lat="46.68863" lon="-1.76883">
        <ele>54</ele>
        <time>2018-01-13T10:36:25Z</time>
      </trkpt>
      <trkpt lat="46.68864" lon="-1.76882">
        <ele>54</ele>
        <time>2018-01-13T10:37:25Z</time>
      </trkpt>
      <trkpt lat="46.68864" lon="-1.76881">
        <ele>54</ele>
        <time>2018-01-13T10:38:25Z</time>
      </trkpt>
      <trkpt lat="46.68864" lon="-1.7688">
        <ele>54</ele>
        <time>2018-01-13T10:39:25Z</time>
      </trkpt>
      <trkpt lat="46.68865" lon="-1.76879">
        <ele>54</ele>
        <time>2018-01-13T10:40:25Z</time>
      </trkpt>
      <trkpt lat="46.68865" lon="-1.76878">
        <ele>54</ele>
        <time>2018-01-13T10:41:25Z</time>
      </trkpt>
      <trkpt lat="46.68866" lon="-1.76878">
        <ele>54</ele>
        <time>2018-01-13T10:42:25Z</time>
      </trkpt>
      <trkpt lat="46.68866" lon="-1.76877">
        <ele>54</ele>
        <time>2018-01-13T10:43:25Z</time>
      </trkpt>
      <trkpt lat="46.68867" lon="-1.76877">
        <ele>54</ele>
        <time>2018-01-13T10:44:25Z</time>
      </trkpt>
      <trkpt lat="46.68867" lon="-1.76876">
        <ele>54</ele>
        <time>2018-01-13T10:45:25Z</time>
      </trkpt>
      <trkpt lat="46.68868" lon="-1.76875">
        <ele>54</ele>
        <time>2018-01-13T10:46:25Z</time>
      </trkpt>
      <trkpt lat="46.68869" lon="-1.76875">
        <ele>54</ele>
        <time>2018-01-13T10:47:25Z</time>
      </trkpt>
      <trkpt lat="46.68869" lon="-1.76874">
        <ele>54</ele>
        <time>2018-01-13T10:48:25Z</time>
      </trkpt>
      <trkpt lat="46.6887" lon="-1.76874">
        <ele>54</ele>
        <time>2018-01-13T10:49:25Z</time>
      </trkpt>
      <trkpt lat="46.68871" lon="-1.76874">
        <ele>54</ele>
        <time>2018-01-13T10:50:25Z</time>
      </trkpt>
      <trkpt lat="46.68872" lon="-1.76874">
        <ele>54</ele>
        <time>2018-01-13T10:51:25Z</time>
      </trkpt>
      <trkpt lat="46.68873" lon="-1.76874">
        <ele>54</ele>
        <time>2018-01-13T10:52:25Z</time>
      </trkpt>
      <trkpt lat="46.68874" lon="-1.76874">
        <ele>54</ele>
        <time>2018-01-13T10:53:25Z</time>
      </trkpt>
      <trkpt lat="46.68874" lon="-1.76875">
        <ele>54</ele>
        <time>2018-01-13T10:54:25Z</time>
      </trkpt>
      <trkpt lat="46.68875" lon="-1.76875">
        <ele>54</ele>
        <time>2018-01-13T10:55:25Z</time>
      </trkpt>
      <trkpt lat="46.68875" lon="-1.76876">
        <ele>54</ele>
        <time>2018-01-13T10:56:25Z</time>
      </trkpt>
      <trkpt lat="46.68876" lon="-1.76876">
        <ele>54</ele>
        <time>2018-01-13T10:57:25Z</time>
      </trkpt>
      <trkpt lat="46.68876" lon="-1.76877">
        <ele>54</ele>
        <time>2018-01-13T10:58:25Z</time>
      </trkpt>
      <trkpt lat="46.68877" lon="-1.76877">
        <ele>54</ele>
        <time>2018-01-13T10:59:25Z</time>
      </trkpt>
      <trkpt lat="46.68877" lon="-1.76878">
        <ele>54</ele>
        <time>2018-01-13T11:00:25Z</time>
      </trkpt>
      <trkpt lat="46.68878" lon="-1.76879">
        <ele>54</ele>
        <time>2018-01-13T11:01:25Z</time>
      </trkpt>
      <trkpt lat="46.68891" lon="-1.76866">
        <ele>54</ele>
        <time>2018-01-13T11:02:25Z</time>
      </trkpt>
      <trkpt lat="46.68893" lon="-1.76863">
        <ele>54</ele>
        <time>2018-01-13T11:03:25Z</time>
      </trkpt>
      <trkpt lat="46.68913" lon="-1.76842">
        <ele>54</ele>
        <time>2018-01-13T11:04:25Z</time>
      </trkpt>
      <trkpt lat="46.68946" lon="-1.76813">
        <ele>54</ele>
        <time>2018-01-13T11:05:25Z</time>
      </trkpt>
      <trkpt lat="46.68964" lon="-1.76796">
        <ele>55</ele>
        <time>2018-01-13T11:06:25Z</time>
      </trkpt>
      <trkpt lat="46.68992" lon="-1.76782">
        <ele>56</ele>
        <time>2018-01-13T11:07:25Z</time>
      </trkpt>
      <trkpt lat="46.69024" lon="-1.76766">
        <ele>56</ele>
        <time>2018-01-13T11:08:25Z</time>
      </trkpt>
      <trkpt lat="46.69031" lon="-1.76763">
        <ele>56</ele>
        <time>2018-01-13T11:09:25Z</time>
      </trkpt>
      <trkpt lat="46.69039" lon="-1.76759">
        <ele>56</ele>
        <time>2018-01-13T11:10:25Z</time>
      </trkpt>
      <trkpt lat="46.6905" lon="-1.76753">
        <ele>56</ele>
        <time>2018-01-13T11:11:25Z</time>
      </trkpt>
      <trkpt lat="46.69064" lon="-1.76747">
        <ele>55</ele>
        <time>2018-01-13T11:12:25Z</time>
      </trkpt>
      <trkpt lat="46.69069" lon="-1.76744">
        <ele>55</ele>
        <time>2018-01-13T11:13:25Z</time>
      </trkpt>
      <trkpt lat="46.69079" lon="-1.76741">
        <ele>55</ele>
        <time>2018-01-13T11:14:25Z</time>
      </trkpt>
      <trkpt lat="46.69083" lon="-1.7674">
        <ele>55</ele>
        <time>2018-01-13T11:15:25Z</time>
      </trkpt>
      <trkpt lat="46.69097" lon="-1.76737">
        <ele>55</ele>
        <time>2018-01-13T11:16:25Z</time>
      </trkpt>
      <trkpt lat="46.69113" lon="-1.76734">
        <ele>55</ele>
        <time>2018-01-13T11:17:25Z</time>
      </trkpt>
      <trkpt lat="46.69132" lon="-1.76732">
        <ele>55</ele>
        <time>2018-01-13T11:18:25Z</time>
      </trkpt>
      <trkpt lat="46.69139" lon="-1.76731">
        <ele>55</ele>
        <time>2018-01-13T11:19:25Z</time>
      </trkpt>
      <trkpt lat="46.69143" lon="-1.7673">
        <ele>55</ele>
        <time>2018-01-13T11:20:25Z</time>
      </trkpt>
      <trkpt lat="46.69151" lon="-1.76728">
        <ele>54</ele>
        <time>2018-01-13T11:21:25Z</time>
      </trkpt>
      <trkpt lat="46.69162" lon="-1.76726">
        <ele>54</ele>
        <time>2018-01-13T11:22:25Z</time>
      </trkpt>
      <trkpt lat="46.69166" lon="-1.76724">
        <ele>54</ele>
        <time>2018-01-13T11:23:25Z</time>
      </trkpt>
      <trkpt lat="46.69178" lon="-1.7672">
        <ele>54</ele>
        <time>2018-01-13T11:24:25Z</time>
      </trkpt>
      <trkpt lat="46.69182" lon="-1.76719">
        <ele>54</ele>
        <time>2018-01-13T11:25:25Z</time>
      </trkpt>
      <trkpt lat="46.69195" lon="-1.76713">
        <ele>54</ele>
        <time>2018-01-13T11:26:25Z</time>
      </trkpt>
      <trkpt lat="46.69212" lon="-1.76706">
        <ele>53</ele>
        <time>2018-01-13T11:27:25Z</time>
      </trkpt>
      <trkpt lat="46.69228" lon="-1.76697">
        <ele>53</ele>
        <time>2018-01-13T11:28:25Z</time>
      </trkpt>
      <trkpt lat="46.6925" lon="-1.76686">
        <ele>53</ele>
        <time>2018-01-13T11:29:25Z</time>
      </trkpt>
      <trkpt lat="46.69272" lon="-1.76675">
        <ele>52</ele>
        <time>2018-01-13T11:30:25Z</time>
      </trkpt>
      <trkpt lat="46.69301" lon="-1.7666">
        <ele>52</ele>
        <time>2018-01-13T11:31:25Z</time>
      </trkpt>
      <trkpt lat="46.69319" lon="-1.76651">
        <ele>51</ele>
        <time>2018-01-13T11:32:25Z</time>
      </trkpt>
      <trkpt lat="46.69338" lon="-1.76641">
        <ele>51</ele>
        <time>2018-01-13T11:33:25Z</time>
      </trkpt>
      <trkpt lat="46.69346" lon="-1.76637">
        <ele>51</ele>
        <time>2018-01-13T11:34:25Z</time>
      </trkpt>
      <trkpt lat="46.6937" lon="-1.76624">
        <ele>50</ele>
        <time>2018-01-13T11:35:25Z</time>
      </trkpt>
      <trkpt lat="46.69385" lon="-1.76617">
        <ele>50</ele>
        <time>2018-01-13T11:36:25Z</time>
      </trkpt>
      <trkpt lat="46.69404" lon="-1.76606">
        <ele>49</ele>
        <time>2018-01-13T11:37:25Z</time>
      </trkpt>
      <trkpt lat="46.69412" lon="-1.766">
        <ele>49</ele>
        <time>2018-01-13T11:38:25Z</time>
      </trkpt>
      <trkpt lat="46.69419" lon="-1.76595">
        <ele>49</ele>
        <time>2018-01-13T11:39:25Z</time>
      </trkpt>
      <trkpt lat="46.69424" lon="-1.76591">
        <ele>49</ele>
        <time>2018-01-13T11:40:25Z</time>
      </trkpt>
      <trkpt lat="46.69436" lon="-1.76583">
        <ele>48</ele>
        <time>2018-01-13T11:41:25Z</time>
      </trkpt>
      <trkpt lat="46.69438" lon="-1.76581">
        <ele>48</ele>
        <time>2018-01-13T11:42:25Z</time>
      </trkpt>
      <trkpt lat="46.69441" lon="-1.76578">
        <ele>48</ele>
        <time>2018-01-13T11:43:25Z</time>
      </trkpt>
      <trkpt lat="46.69451" lon="-1.7657">
        <ele>48</ele>
        <time>2018-01-13T11:44:25Z</time>
      </trkpt>
      <trkpt lat="46.69464" lon="-1.76557">
        <ele>47</ele>
        <time>2018-01-13T11:45:25Z</time>
      </trkpt>
      <trkpt lat="46.6948" lon="-1.76543">
        <ele>47</ele>
        <time>2018-01-13T11:46:25Z</time>
      </trkpt>
      <trkpt lat="46.69496" lon="-1.76528">
        <ele>46</ele>
        <time>2018-01-13T11:47:25Z</time>
      </trkpt>
      <trkpt lat="46.69509" lon="-1.76516">
        <ele>46</ele>
        <time>2018-01-13T11:48:25Z</time>
      </trkpt>
      <trkpt lat="46.69524" lon="-1.76501">
        <ele>45</ele>
        <time>2018-01-13T11:49:25Z</time>
      </trkpt>
      <trkpt lat="46.69539" lon="-1.76488">
        <ele>44</ele>
        <time>2018-01-13T11:50:25Z</time>
      </trkpt>
      <trkpt lat="46.69552" lon="-1.76476">
        <ele>43</ele>
        <time>2018-01-13T11:51:25Z</time>
      </trkpt>
      <trkpt lat="46.69557" lon="-1.76471">
        <ele>42</ele>
        <time>2018-01-13T11:52:25Z</time>
      </trkpt>
      <trkpt lat="46.69579" lon="-1.76447">
        <ele>40</ele>
        <time>2018-01-13T11:53:25Z</time>
      </trkpt>
      <trkpt lat="46.69581" lon="-1.76444">
        <ele>40</ele>
        <time>2018-01-13T11:54:25Z</time>
      </trkpt>
      <trkpt lat="46.69594" lon="-1.76433">
        <ele>39</ele>
        <time>2018-01-13T11:55:25Z</time>
      </trkpt>
      <trkpt lat="46.69604" lon="-1.76425">
        <ele>38</ele>
        <time>2018-01-13T11:56:25Z</time>
      </trkpt>
      <trkpt lat="46.69605" lon="-1.76424">
        <ele>38</ele>
        <time>2018-01-13T11:57:25Z</time>
      </trkpt>
      <trkpt lat="46.69618" lon="-1.76414">
        <ele>38</ele>
        <time>2018-01-13T11:58:25Z</time>
      </trkpt>
      <trkpt lat="46.6963" lon="-1.76405">
        <ele>37</ele>
        <time>2018-01-13T11:59:25Z</time>
      </trkpt>
      <trkpt lat="46.69638" lon="-1.764">
        <ele>37</ele>
        <time>2018-01-13T12:00:25Z</time>
      </trkpt>
      <trkpt lat="46.69642" lon="-1.76397">
        <ele>37</ele>
        <time>2018-01-13T12:01:25Z</time>
      </trkpt>
      <trkpt lat="46.69652" lon="-1.76389">
        <ele>37</ele>
        <time>2018-01-13T12:02:25Z</time>
      </trkpt>
      <trkpt lat="46.69659" lon="-1.76384">
        <ele>36</ele>
        <time>2018-01-13T12:03:25Z</time>
      </trkpt>
      <trkpt lat="46.69663" lon="-1.7638">
        <ele>36</ele>
        <time>2018-01-13T12:04:25Z</time>
      </trkpt>
      <trkpt lat="46.69666" lon="-1.76379">
        <ele>36</ele>
        <time>2018-01-13T12:05:25Z</time>
      </trkpt>
      <trkpt lat="46.69681" lon="-1.76368">
        <ele>37</ele>
        <time>2018-01-13T12:06:25Z</time>
      </trkpt>
      <trkpt lat="46.69696" lon="-1.76359">
        <ele>38</ele>
        <time>2018-01-13T12:07:25Z</time>
      </trkpt>
      <trkpt lat="46.69708" lon="-1.76351">
        <ele>39</ele>
        <time>2018-01-13T12:08:25Z</time>
      </trkpt>
      <trkpt lat="46.69719" lon="-1.76346">
        <ele>40</ele>
        <time>2018-01-13T12:09:25Z</time>
      </trkpt>
      <trkpt lat="46.6973" lon="-1.76345">
        <ele>40</ele>
        <time>2018-01-13T12:10:25Z</time>
      </trkpt>
      <trkpt lat="46.6973" lon="-1.76345">
        <ele>40</ele>
        <time>2018-01-13T12:11:25Z</time>
      </trkpt>
      <trkpt lat="46.6973" lon="-1.76344">
        <ele>40</ele>
        <time>2018-01-13T12:12:25Z</time>
      </trkpt>
      <trkpt lat="46.6973" lon="-1.76343">
        <ele>40</ele>
        <time>2018-01-13T12:13:25Z</time>
      </trkpt>
      <trkpt lat="46.6973" lon="-1.76342">
        <ele>40</ele>
        <time>2018-01-13T12:14:25Z</time>
      </trkpt>
      <trkpt lat="46.69731" lon="-1.76341">
        <ele>41</ele>
        <time>2018-01-13T12:15:25Z</time>
      </trkpt>
      <trkpt lat="46.69731" lon="-1.7634">
        <ele>41</ele>
        <time>2018-01-13T12:16:25Z</time>
      </trkpt>
      <trkpt lat="46.69732" lon="-1.76339">
        <ele>41</ele>
        <time>2018-01-13T12:17:25Z</time>
      </trkpt>
      <trkpt lat="46.69732" lon="-1.76338">
        <ele>41</ele>
        <time>2018-01-13T12:18:25Z</time>
      </trkpt>
      <trkpt lat="46.69733" lon="-1.76338">
        <ele>41</ele>
        <time>2018-01-13T12:19:25Z</time>
      </trkpt>
      <trkpt lat="46.69733" lon="-1.76337">
        <ele>41</ele>
        <time>2018-01-13T12:20:25Z</time>
      </trkpt>
      <trkpt lat="46.69734" lon="-1.76337">
        <ele>41</ele>
        <time>2018-01-13T12:21:25Z</time>
      </trkpt>
      <trkpt lat="46.69735" lon="-1.76336">
        <ele>41</ele>
        <time>2018-01-13T12:22:25Z</time>
      </trkpt>
      <trkpt lat="46.69736" lon="-1.76336">
        <ele>41</ele>
        <time>2018-01-13T12:23:25Z</time>
      </trkpt>
      <trkpt lat="46.69737" lon="-1.76336">
        <ele>41</ele>
        <time>2018-01-13T12:24:25Z</time>
      </trkpt>
      <trkpt lat="46.69738" lon="-1.76336">
        <ele>41</ele>
        <time>2018-01-13T12:25:25Z</time>
      </trkpt>
      <trkpt lat="46.69739" lon="-1.76336">
        <ele>41</ele>
        <time>2018-01-13T12:26:25Z</time>
      </trkpt>
      <trkpt lat="46.69742" lon="-1.76322">
        <ele>42</ele>
        <time>2018-01-13T12:27:25Z</time>
      </trkpt>
      <trkpt lat="46.69743" lon="-1.76301">
        <ele>42</ele>
        <time>2018-01-13T12:28:25Z</time>
      </trkpt>
      <trkpt lat="46.69745" lon="-1.76282">
        <ele>42</ele>
        <time>2018-01-13T12:29:25Z</time>
      </trkpt>
      <trkpt lat="46.69746" lon="-1.76271">
        <ele>42</ele>
        <time>2018-01-13T12:30:25Z</time>
      </trkpt>
      <trkpt lat="46.69746" lon="-1.76266">
        <ele>43</ele>
        <time>2018-01-13T12:31:25Z</time>
      </trkpt>
      <trkpt lat="46.6975" lon="-1.76245">
        <ele>43</ele>
        <time>2018-01-13T12:32:25Z</time>
      </trkpt>
      <trkpt lat="46.69753" lon="-1.76235">
        <ele>44</ele>
        <time>2018-01-13T12:33:25Z</time>
      </trkpt>
      <trkpt lat="46.69756" lon="-1.76225">
        <ele>45</ele>
        <time>2018-01-13T12:34:25Z</time>
      </trkpt>
      <trkpt lat="46.69759" lon="-1.76206">
        <ele>46</ele>
        <time>2018-01-13T12:35:25Z</time>
      </trkpt>
      <trkpt lat="46.69761" lon="-1.76192">
        <ele>47</ele>
        <time>2018-01-13T12:36:25Z</time>
      </trkpt>
      <trkpt lat="46.6976" lon="-1.76174">
        <ele>49</ele>
        <time>2018-01-13T12:37:25Z</time>
      </trkpt>
      <trkpt lat="46.69759" lon="-1.76164">
        <ele>49</ele>
        <time>2018-01-13T12:38:25Z</time>
      </trkpt>
      <trkpt lat="46.69758" lon="-1.76148">
        <ele>49</ele>
        <time>2018-01-13T12:39:25Z</time>
      </trkpt>
      <trkpt lat="46.69758" lon="-1.76148">
        <ele>49</ele>
        <time>2018-01-13T12:40:25Z</time>
      </trkpt>
      <trkpt lat="46.69773" lon="-1.76141">
        <ele>49</ele>
        <time>2018-01-13T12:41:25Z</time>
      </trkpt>
      <trkpt lat="46.69787" lon="-1.76136">
        <ele>49</ele>
        <time>2018-01-13T12:42:25Z</time>
      </trkpt>
      <trkpt lat="46.69808" lon="-1.76126">
        <ele>49</ele>
        <time>2018-01-13T12:43:25Z</time>
      </trkpt>
      <trkpt lat="46.69817" lon="-1.76124">
        <ele>49</ele>
        <time>2018-01-13T12:44:25Z</time>
      </trkpt>
      <trkpt lat="46.69826" lon="-1.76121">
        <ele>49</ele>
        <time>2018-01-13T12:45:25Z</time>
      </trkpt>
      <trkpt lat="46.6983" lon="-1.7612">
        <ele>49</ele>
        <time>2018-01-13T12:46:25Z</time>
      </trkpt>
      <trkpt lat="46.69838" lon="-1.76119">
        <ele>49</ele>
        <time>2018-01-13T12:47:25Z</time>
      </trkpt>
      <trkpt lat="46.69838" lon="-1.76119">
        <ele>49</ele>
        <time>2018-01-13T12:48:25Z</time>
      </trkpt>
      <trkpt lat="46.69839" lon="-1.76137">
        <ele>49</ele>
        <time>2018-01-13T12:49:25Z</time>
      </trkpt>
      <trkpt lat="46.69839" lon="-1.76137">
        <ele>49</ele>
        <time>2018-01-13T12:50:25Z</time>
      </trkpt>
      <trkpt lat="46.69838" lon="-1.76119">
        <ele>49</ele>
        <time>2018-01-13T12:51:25Z</time>
      </trkpt>
      <trkpt lat="46.69838" lon="-1.76119">
        <ele>49</ele>
        <time>2018-01-13T12:52:25Z</time>
      </trkpt>
      <trkpt lat="46.69842" lon="-1.76118">
        <ele>49</ele>
        <time>2018-01-13T12:53:25Z</time>
      </trkpt>
      <trkpt lat="46.69857" lon="-1.76118">
        <ele>49</ele>
        <time>2018-01-13T12:54:25Z</time>
      </trkpt>
      <trkpt lat="46.69867" lon="-1.7612">
        <ele>49</ele>
        <time>2018-01-13T12:55:25Z</time>
      </trkpt>
      <trkpt lat="46.69873" lon="-1.76122">
        <ele>49</ele>
        <time>2018-01-13T12:56:25Z</time>
      </trkpt>
      <trkpt lat="46.69877" lon="-1.76122">
        <ele>48</ele>
        <time>2018-01-13T12:57:25Z</time>
      </trkpt>
      <trkpt lat="46.69892" lon="-1.76123">
        <ele>48</ele>
        <time>2018-01-13T12:58:25Z</time>
      </trkpt>
      <trkpt lat="46.69904" lon="-1.7612">
        <ele>48</ele>
        <time>2018-01-13T12:59:25Z</time>
      </trkpt>
      <trkpt lat="46.6993" lon="-1.76112">
        <ele>48</ele>
        <time>2018-01-13T13:00:25Z</time>
      </trkpt>
      <trkpt lat="46.69958" lon="-1.76101">
        <ele>48</ele>
        <time>2018-01-13T13:01:25Z</time>
      </trkpt>
      <trkpt lat="46.69971" lon="-1.76096">
        <ele>49</ele>
        <time>2018-01-13T13:02:25Z</time>
      </trkpt>
      <trkpt lat="46.70005" lon="-1.76083">
        <ele>49</ele>
        <time>2018-01-13T13:03:25Z</time>
      </trkpt>
      <trkpt lat="46.70033" lon="-1.76073">
        <ele>49</ele>
        <time>2018-01-13T13:04:25Z</time>
      </trkpt>
      <trkpt lat="46.70079" lon="-1.76054">
        <ele>49</ele>
        <time>2018-01-13T13:05:25Z</time>
      </trkpt>
      <trkpt lat="46.70099" lon="-1.76044">
        <ele>50</ele>
        <time>2018-01-13T13:06:25Z</time>
      </trkpt>
      <trkpt lat="46.70131" lon="-1.7602">
        <ele>51</ele>
        <time>2018-01-13T13:07:25Z</time>
      </trkpt>
      <trkpt lat="46.70171" lon="-1.75989">
        <ele>52</ele>
        <time>2018-01-13T13:08:25Z</time>
      </trkpt>
      <trkpt lat="46.70203" lon="-1.75966">
        <ele>52</ele>
        <time>2018-01-13T13:09:25Z</time>
      </trkpt>
      <trkpt lat="46.70207" lon="-1.75963">
        <ele>52</ele>
        <time>2018-01-13T13:10:25Z</time>
      </trkpt>
      <trkpt lat="46.70221" lon="-1.75952">
        <ele>52</ele>
        <time>2018-01-13T13:11:25Z</time>
      </trkpt>
      <trkpt lat="46.70252" lon="-1.75929">
        <ele>53</ele>
        <time>2018-01-13T13:12:25Z</time>
      </trkpt>
      <trkpt lat="46.70278" lon="-1.75907">
        <ele>54</ele>
        <time>2018-01-13T13:13:25Z</time>
      </trkpt>
      <trkpt lat="46.70302" lon="-1.75884">
        <ele>55</ele>
        <time>2018-01-13T13:14:25Z</time>
      </trkpt>
      <trkpt lat="46.70303" lon="-1.75883">
        <ele>55</ele>
        <time>2018-01-13T13:15:25Z</time>
      </trkpt>
      <trkpt lat="46.70324" lon="-1.75861">
        <ele>55</ele>
        <time>2018-01-13T13:16:25Z</time>
      </trkpt>
      <trkpt lat="46.70329" lon="-1.75855">
        <ele>56</ele>
        <time>2018-01-13T13:17:25Z</time>
      </trkpt>
      <trkpt lat="46.70357" lon="-1.75821">
        <ele>56</ele>
        <time>2018-01-13T13:18:25Z</time>
      </trkpt>
      <trkpt lat="46.70367" lon="-1.75808">
        <ele>57</ele>
        <time>2018-01-13T13:19:25Z</time>
      </trkpt>
      <trkpt lat="46.7038" lon="-1.75792">
        <ele>57</ele>
        <time>2018-01-13T13:20:25Z</time>
      </trkpt>
      <trkpt lat="46.70395" lon="-1.75775">
        <ele>57</ele>
        <time>2018-01-13T13:21:25Z</time>
      </trkpt>
      <trkpt lat="46.70412" lon="-1.75757">
        <ele>57</ele>
        <time>2018-01-13T13:22:25Z</time>
      </trkpt>
      <trkpt lat="46.70427" lon="-1.75745">
        <ele>57</ele>
        <time>2018-01-13T13:23:25Z</time>
      </trkpt>
      <trkpt lat="46.70429" lon="-1.75743">
        <ele>57</ele>
        <time>2018-01-13T13:24:25Z</time>
      </trkpt>
      <trkpt lat="46.70444" lon="-1.75732">
        <ele>56</ele>
        <time>2018-01-13T13:25:25Z</time>
      </trkpt>
      <trkpt lat="46.70458" lon="-1.75723">
        <ele>56</ele>
        <time>2018-01-13T13:26:25Z</time>
      </trkpt>
      <trkpt lat="46.70465" lon="-1.75718">
        <ele>56</ele>
        <time>2018-01-13T13:27:25Z</time>
      </trkpt>
      <trkpt lat="46.70493" lon="-1.75701">
        <ele>55</ele>
        <time>2018-01-13T13:28:25Z</time>
      </trkpt>
      <trkpt lat="46.70514" lon="-1.75686">
        <ele>55</ele>
        <time>2018-01-13T13:29:25Z</time>
      </trkpt>
      <trkpt lat="46.70542" lon="-1.75663">
        <ele>55</ele>
        <time>2018-01-13T13:30:25Z</time>
      </trkpt>
      <trkpt lat="46.70565" lon="-1.75646">
        <ele>55</ele>
        <time>2018-01-13T13:31:25Z</time>
      </trkpt>
      <trkpt lat="46.70633" lon="-1.75602">
        <ele>54</ele>
        <time>2018-01-13T13:32:25Z</time>
      </trkpt>
      <trkpt lat="46.70658" lon="-1.75585">
        <ele>53</ele>
        <time>2018-01-13T13:33:25Z</time>
      </trkpt>
      <trkpt lat="46.70687" lon="-1.75564">
        <ele>53</ele>
        <time>2018-01-13T13:34:25Z</time>
      </trkpt>
      <trkpt lat="46.70704" lon="-1.7555">
        <ele>53</ele>
        <time>2018-01-13T13:35:25Z</time>
      </trkpt>
      <trkpt lat="46.7072" lon="-1.75538">
        <ele>53</ele>
        <time>2018-01-13T13:36:25Z</time>
      </trkpt>
      <trkpt lat="46.70728" lon="-1.75531">
        <ele>53</ele>
        <time>2018-01-13T13:37:25Z</time>
      </trkpt>
      <trkpt lat="46.70755" lon="-1.75509">
        <ele>53</ele>
        <time>2018-01-13T13:38:25Z</time>
      </trkpt>
      <trkpt lat="46.70775" lon="-1.75492">
        <ele>53</ele>
        <time>2018-01-13T13:39:25Z</time>
      </trkpt>
      <trkpt lat="46.70795" lon="-1.75468">
        <ele>53</ele>
        <time>2018-01-13T13:40:25Z</time>
      </trkpt>
      <trkpt lat="46.70817" lon="-1.75441">
        <ele>54</ele>
        <time>2018-01-13T13:41:25Z</time>
      </trkpt>
      <trkpt lat="46.70854" lon="-1.75392">
        <ele>54</ele>
        <time>2018-01-13T13:42:25Z</time>
      </trkpt>
      <trkpt lat="46.70882" lon="-1.75354">
        <ele>53</ele>
        <time>2018-01-13T13:43:25Z</time>
      </trkpt>
      <trkpt lat="46.70889" lon="-1.75346">
        <ele>53</ele>
        <time>2018-01-13T13:44:25Z</time>
      </trkpt>
      <trkpt lat="46.70953" lon="-1.75272">
        <ele>52</ele>
        <time>2018-01-13T13:45:25Z</time>
      </trkpt>
      <trkpt lat="46.70994" lon="-1.75227">
        <ele>50</ele>
        <time>2018-01-13T13:46:25Z</time>
      </trkpt>
      <trkpt lat="46.71028" lon="-1.75186">
        <ele>49</ele>
        <time>2018-01-13T13:47:25Z</time>
      </trkpt>
      <trkpt lat="46.71044" lon="-1.75162">
        <ele>48</ele>
        <time>2018-01-13T13:48:25Z</time>
      </trkpt>
      <trkpt lat="46.71058" lon="-1.75143">
        <ele>47</ele>
        <time>2018-01-13T13:49:25Z</time>
      </trkpt>
      <trkpt lat="46.71073" lon="-1.75125">
        <ele>46</ele>
        <time>2018-01-13T13:50:25Z</time>
      </trkpt>
      <trkpt lat="46.71089" lon="-1.75109">
        <ele>45</ele>
        <time>2018-01-13T13:51:25Z</time>
      </trkpt>
      <trkpt lat="46.71106" lon="-1.75098">
        <ele>45</ele>
        <time>2018-01-13T13:52:25Z</time>
      </trkpt>
      <trkpt lat="46.71132" lon="-1.75082">
        <ele>44</ele>
        <time>2018-01-13T13:53:25Z</time>
      </trkpt>
      <trkpt lat="46.71159" lon="-1.75069">
        <ele>43</ele>
        <time>2018-01-13T13:54:25Z</time>
      </trkpt>
      <trkpt lat="46.71189" lon="-1.75053">
        <ele>43</ele>
        <time>2018-01-13T13:55:25Z</time>
      </trkpt>
      <trkpt lat="46.71215" lon="-1.75039">
        <ele>42</ele>
        <time>2018-01-13T13:56:25Z</time>
      </trkpt>
      <trkpt lat="46.71247" lon="-1.7502">
        <ele>42</ele>
        <time>2018-01-13T13:57:25Z</time>
      </trkpt>
      <trkpt lat="46.71258" lon="-1.75015">
        <ele>42</ele>
        <time>2018-01-13T13:58:25Z</time>
      </trkpt>
      <trkpt lat="46.71275" lon="-1.75005">
        <ele>41</ele>
        <time>2018-01-13T13:59:25Z</time>
      </trkpt>
      <trkpt lat="46.71286" lon="-1.74996">
        <ele>41</ele>
        <time>2018-01-13T14:00:25Z</time>
      </trkpt>
      <trkpt lat="46.71298" lon="-1.74984">
        <ele>41</ele>
        <time>2018-01-13T14:01:25Z</time>
      </trkpt>
      <trkpt lat="46.7131" lon="-1.74972">
        <ele>40</ele>
        <time>2018-01-13T14:02:25Z</time>
      </trkpt>
      <trkpt lat="46.71312" lon="-1.74968">
        <ele>40</ele>
        <time>2018-01-13T14:03:25Z</time>
      </trkpt>
      <trkpt lat="46.71317" lon="-1.74964">
        <ele>40</ele>
        <time>2018-01-13T14:04:25Z</time>
      </trkpt>
      <trkpt lat="46.71338" lon="-1.74949">
        <ele>39</ele>
        <time>2018-01-13T14:05:25Z</time>
      </trkpt>
      <trkpt lat="46.71355" lon="-1.7494">
        <ele>40</ele>
        <time>2018-01-13T14:06:25Z</time>
      </trkpt>
      <trkpt lat="46.7137" lon="-1.74933">
        <ele>40</ele>
        <time>2018-01-13T14:07:25Z</time>
      </trkpt>
      <trkpt lat="46.71375" lon="-1.74933">
        <ele>40</ele>
        <time>2018-01-13T14:08:25Z</time>
      </trkpt>
      <trkpt lat="46.71379" lon="-1.74932">
        <ele>40</ele>
        <time>2018-01-13T14:09:25Z</time>
      </trkpt>
      <trkpt lat="46.71389" lon="-1.7493">
        <ele>40</ele>
        <time>2018-01-13T14:10:25Z</time>
      </trkpt>
      <trkpt lat="46.71404" lon="-1.74929">
        <ele>40</ele>
        <time>2018-01-13T14:11:25Z</time>
      </trkpt>
      <trkpt lat="46.71421" lon="-1.74928">
        <ele>41</ele>
        <time>2018-01-13T14:12:25Z</time>
      </trkpt>
      <trkpt lat="46.71447" lon="-1.74921">
        <ele>42</ele>
        <time>2018-01-13T14:13:25Z</time>
      </trkpt>
      <trkpt lat="46.71462" lon="-1.74913">
        <ele>43</ele>
        <time>2018-01-13T14:14:25Z</time>
      </trkpt>
      <trkpt lat="46.71473" lon="-1.74905">
        <ele>43</ele>
        <time>2018-01-13T14:15:25Z</time>
      </trkpt>
      <trkpt lat="46.71479" lon="-1.74902">
        <ele>43</ele>
        <time>2018-01-13T14:16:25Z</time>
      </trkpt>
      <trkpt lat="46.71486" lon="-1.74895">
        <ele>43</ele>
        <time>2018-01-13T14:17:25Z</time>
      </trkpt>
      <trkpt lat="46.71502" lon="-1.74882">
        <ele>44</ele>
        <time>2018-01-13T14:18:25Z</time>
      </trkpt>
      <trkpt lat="46.71521" lon="-1.74869">
        <ele>44</ele>
        <time>2018-01-13T14:19:25Z</time>
      </trkpt>
      <trkpt lat="46.71546" lon="-1.74854">
        <ele>44</ele>
        <time>2018-01-13T14:20:25Z</time>
      </trkpt>
      <trkpt lat="46.71578" lon="-1.74837">
        <ele>44</ele>
        <time>2018-01-13T14:21:25Z</time>
      </trkpt>
      <trkpt lat="46.71616" lon="-1.74817">
        <ele>44</ele>
        <time>2018-01-13T14:22:25Z</time>
      </trkpt>
      <trkpt lat="46.71654" lon="-1.74797">
        <ele>44</ele>
        <time>2018-01-13T14:23:25Z</time>
      </trkpt>
      <trkpt lat="46.71686" lon="-1.74781">
        <ele>43</ele>
        <time>2018-01-13T14:24:25Z</time>
      </trkpt>
      <trkpt lat="46.71732" lon="-1.74757">
        <ele>42</ele>
        <time>2018-01-13T14:25:25Z</time>
      </trkpt>
      <trkpt lat="46.71747" lon="-1.74749">
        <ele>42</ele>
        <time>2018-01-13T14:26:25Z</time>
      </trkpt>
      <trkpt lat="46.718" lon="-1.74721">
        <ele>40</ele>
        <time>2018-01-13T14:27:25Z</time>
      </trkpt>
      <trkpt lat="46.71855" lon="-1.7469">
        <ele>38</ele>
        <time>2018-01-13T14:28:25Z</time>
      </trkpt>
      <trkpt lat="46.71884" lon="-1.74674">
        <ele>38</ele>
        <time>2018-01-13T14:29:25Z</time>
      </trkpt>
      <trkpt lat="46.71898" lon="-1.74666">
        <ele>37</ele>
        <time>2018-01-13T14:30:25Z</time>
      </trkpt>
      <trkpt lat="46.71936" lon="-1.74645">
        <ele>36</ele>
        <time>2018-01-13T14:31:25Z</time>
      </trkpt>
      <trkpt lat="46.71949" lon="-1.74635">
        <ele>35</ele>
        <time>2018-01-13T14:32:25Z</time>
      </trkpt>
      <trkpt lat="46.7197" lon="-1.74624">
        <ele>34</ele>
        <time>2018-01-13T14:33:25Z</time>
      </trkpt>
      <trkpt lat="46.71978" lon="-1.7462">
        <ele>34</ele>
        <time>2018-01-13T14:34:25Z</time>
      </trkpt>
      <trkpt lat="46.71981" lon="-1.74619">
        <ele>34</ele>
        <time>2018-01-13T14:35:25Z</time>
      </trkpt>
      <trkpt lat="46.71987" lon="-1.74617">
        <ele>34</ele>
        <time>2018-01-13T14:36:25Z</time>
      </trkpt>
      <trkpt lat="46.72011" lon="-1.74607">
        <ele>33</ele>
        <time>2018-01-13T14:37:25Z</time>
      </trkpt>
      <trkpt lat="46.72056" lon="-1.74591">
        <ele>33</ele>
        <time>2018-01-13T14:38:25Z</time>
      </trkpt>
      <trkpt lat="46.72101" lon="-1.74576">
        <ele>34</ele>
        <time>2018-01-13T14:39:25Z</time>
      </trkpt>
      <trkpt lat="46.72128" lon="-1.74567">
        <ele>34</ele>
        <time>2018-01-13T14:40:25Z</time>
      </trkpt>
      <trkpt lat="46.72138" lon="-1.74564">
        <ele>35</ele>
        <time>2018-01-13T14:41:25Z</time>
      </trkpt>
      <trkpt lat="46.72142" lon="-1.74563">
        <ele>35</ele>
        <time>2018-01-13T14:42:25Z</time>
      </trkpt>
      <trkpt lat="46.72159" lon="-1.7456">
        <ele>35</ele>
        <time>2018-01-13T14:43:25Z</time>
      </trkpt>
      <trkpt lat="46.72181" lon="-1.74558">
        <ele>36</ele>
        <time>2018-01-13T14:44:25Z</time>
      </trkpt>
      <trkpt lat="46.72207" lon="-1.74559">
        <ele>36</ele>
        <time>2018-01-13T14:45:25Z</time>
      </trkpt>
      <trkpt lat="46.72249" lon="-1.74562">
        <ele>36</ele>
        <time>2018-01-13T14:46:25Z</time>
      </trkpt>
      <trkpt lat="46.72276" lon="-1.74564">
        <ele>38</ele>
        <time>2018-01-13T14:47:25Z</time>
      </trkpt>
      <trkpt lat="46.72314" lon="-1.74564">
        <ele>39</ele>
        <time>2018-01-13T14:48:25Z</time>
      </trkpt>
      <trkpt lat="46.72354" lon="-1.74563">
        <ele>41</ele>
        <time>2018-01-13T14:49:25Z</time>
      </trkpt>
      <trkpt lat="46.72383" lon="-1.74562">
        <ele>42</ele>
        <time>2018-01-13T14:50:25Z</time>
      </trkpt>
      <trkpt lat="46.72421" lon="-1.7456">
        <ele>43</ele>
        <time>2018-01-13T14:51:25Z</time>
      </trkpt>
      <trkpt lat="46.72447" lon="-1.74559">
        <ele>43</ele>
        <time>2018-01-13T14:52:25Z</time>
      </trkpt>
      <trkpt lat="46.72474" lon="-1.74556">
        <ele>43</ele>
        <time>2018-01-13T14:53:25Z</time>
      </trkpt>
      <trkpt lat="46.72514" lon="-1.74551">
        <ele>43</ele>
        <time>2018-01-13T14:54:25Z</time>
      </trkpt>
      <trkpt lat="46.72534" lon="-1.74549">
        <ele>43</ele>
        <time>2018-01-13T14:55:25Z</time>
      </trkpt>
      <trkpt lat="46.72568" lon="-1.74544">
        <ele>43</ele>
        <time>2018-01-13T14:56:25Z</time>
      </trkpt>
      <trkpt lat="46.72592" lon="-1.74542">
        <ele>42</ele>
        <time>2018-01-13T14:57:25Z</time>
      </trkpt>
      <trkpt lat="46.72599" lon="-1.74541">
        <ele>42</ele>
        <time>2018-01-13T14:58:25Z</time>
      </trkpt>
      <trkpt lat="46.72615" lon="-1.7454">
        <ele>42</ele>
        <time>2018-01-13T14:59:25Z</time>
      </trkpt>
      <trkpt lat="46.72628" lon="-1.74539">
        <ele>42</ele>
        <time>2018-01-13T15:00:25Z</time>
      </trkpt>
      <trkpt lat="46.72642" lon="-1.74539">
        <ele>41</ele>
        <time>2018-01-13T15:01:25Z</time>
      </trkpt>
      <trkpt lat="46.72652" lon="-1.7454">
        <ele>41</ele>
        <time>2018-01-13T15:02:25Z</time>
      </trkpt>
      <trkpt lat="46.72666" lon="-1.74542">
        <ele>41</ele>
        <time>2018-01-13T15:03:25Z</time>
      </trkpt>
      <trkpt lat="46.72678" lon="-1.74544">
        <ele>41</ele>
        <time>2018-01-13T15:04:25Z</time>
      </trkpt>
      <trkpt lat="46.72753" lon="-1.74558">
        <ele>39</ele>
        <time>2018-01-13T15:05:25Z</time>
      </trkpt>
      <trkpt lat="46.72857" lon="-1.74578">
        <ele>38</ele>
        <time>2018-01-13T15:06:25Z</time>
      </trkpt>
      <trkpt lat="46.72944" lon="-1.74595">
        <ele>36</ele>
        <time>2018-01-13T15:07:25Z</time>
      </trkpt>
      <trkpt lat="46.72998" lon="-1.74605">
        <ele>36</ele>
        <time>2018-01-13T15:08:25Z</time>
      </trkpt>
      <trkpt lat="46.73083" lon="-1.74621">
        <ele>38</ele>
        <time>2018-01-13T15:09:25Z</time>
      </trkpt>
      <trkpt lat="46.73136" lon="-1.74631">
        <ele>40</ele>
        <time>2018-01-13T15:10:25Z</time>
      </trkpt>
      <trkpt lat="46.73181" lon="-1.7464">
        <ele>42</ele>
        <time>2018-01-13T15:11:25Z</time>
      </trkpt>
      <trkpt lat="46.73217" lon="-1.74647">
        <ele>43</ele>
        <time>2018-01-13T15:12:25Z</time>
      </trkpt>
      <trkpt lat="46.73284" lon="-1.74661">
        <ele>44</ele>
        <time>2018-01-13T15:13:25Z</time>
      </trkpt>
      <trkpt lat="46.73323" lon="-1.7467">
        <ele>45</ele>
        <time>2018-01-13T15:14:25Z</time>
      </trkpt>
      <trkpt lat="46.73348" lon="-1.74675">
        <ele>45</ele>
        <time>2018-01-13T15:15:25Z</time>
      </trkpt>
      <trkpt lat="46.73369" lon="-1.74678">
        <ele>45</ele>
        <time>2018-01-13T15:16:25Z</time>
      </trkpt>
      <trkpt lat="46.734" lon="-1.7468">
        <ele>45</ele>
        <time>2018-01-13T15:17:25Z</time>
      </trkpt>
      <trkpt lat="46.73433" lon="-1.74684">
        <ele>45</ele>
        <time>2018-01-13T15:18:25Z</time>
      </trkpt>
      <trkpt lat="46.73514" lon="-1.74687">
        <ele>44</ele>
        <time>2018-01-13T15:19:25Z</time>
      </trkpt>
      <trkpt lat="46.7357" lon="-1.74688">
        <ele>43</ele>
        <time>2018-01-13T15:20:25Z</time>
      </trkpt>
      <trkpt lat="46.73667" lon="-1.74686">
        <ele>43</ele>
        <time>2018-01-13T15:21:25Z</time>
      </trkpt>
      <trkpt lat="46.73754" lon="-1.74682">
        <ele>41</ele>
        <time>2018-01-13T15:22:25Z</time>
      </trkpt>
      <trkpt lat="46.73876" lon="-1.7468">
        <ele>38</ele>
        <time>2018-01-13T15:23:25Z</time>
      </trkpt>
      <trkpt lat="46.73908" lon="-1.74678">
        <ele>38</ele>
        <time>2018-01-13T15:24:25Z</time>
      </trkpt>
      <trkpt lat="46.73914" lon="-1.74669">
        <ele>38</ele>
        <time>2018-01-13T15:25:25Z</time>
      </trkpt>
      <trkpt lat="46.73916" lon="-1.74666">
        <ele>38</ele>
        <time>2018-01-13T15:26:25Z</time>
      </trkpt>
      <trkpt lat="46.73917" lon="-1.74663">
        <ele>38</ele>
        <time>2018-01-13T15:27:25Z</time>
      </trkpt>
      <trkpt lat="46.73918" lon="-1.74659">
        <ele>38</ele>
        <time>2018-01-13T15:28:25Z</time>
      </trkpt>
      <trkpt lat="46.73919" lon="-1.74654">
        <ele>38</ele>
        <time>2018-01-13T15:29:25Z</time>
      </trkpt>
      <trkpt lat="46.73919" lon="-1.74654">
        <ele>38</ele>
        <time>2018-01-13T15:30:25Z</time>
      </trkpt>
      <trkpt lat="46.73922" lon="-1.74654">
        <ele>38</ele>
        <time>2018-01-13T15:31:25Z</time>
      </trkpt>
      <trkpt lat="46.7393" lon="-1.74655">
        <ele>38</ele>
        <time>2018-01-13T15:32:25Z</time>
      </trkpt>
      <trkpt lat="46.73938" lon="-1.74655">
        <ele>38</ele>
        <time>2018-01-13T15:33:25Z</time>
      </trkpt>
      <trkpt lat="46.73952" lon="-1.74656">
        <ele>37</ele>
        <time>2018-01-13T15:34:25Z</time>
      </trkpt>
      <trkpt lat="46.73957" lon="-1.74655">
        <ele>37</ele>
        <time>2018-01-13T15:35:25Z</time>
      </trkpt>
      <trkpt lat="46.7396" lon="-1.74655">
        <ele>37</ele>
        <time>2018-01-13T15:36:25Z</time>
      </trkpt>
      <trkpt lat="46.73968" lon="-1.74654">
        <ele>37</ele>
        <time>2018-01-13T15:37:25Z</time>
      </trkpt>
      <trkpt lat="46.74032" lon="-1.74638">
        <ele>36</ele>
        <time>2018-01-13T15:38:25Z</time>
      </trkpt>
      <trkpt lat="46.74046" lon="-1.74636">
        <ele>36</ele>
        <time>2018-01-13T15:39:25Z</time>
      </trkpt>
      <trkpt lat="46.74065" lon="-1.74635">
        <ele>36</ele>
        <time>2018-01-13T15:40:25Z</time>
      </trkpt>
      <trkpt lat="46.74088" lon="-1.74637">
        <ele>36</ele>
        <time>2018-01-13T15:41:25Z</time>
      </trkpt>
      <trkpt lat="46.74113" lon="-1.7464">
        <ele>36</ele>
        <time>2018-01-13T15:42:25Z</time>
      </trkpt>
      <trkpt lat="46.74118" lon="-1.7464">
        <ele>36</ele>
        <time>2018-01-13T15:43:25Z</time>
      </trkpt>
      <trkpt lat="46.74151" lon="-1.74646">
        <ele>36</ele>
        <time>2018-01-13T15:44:25Z</time>
      </trkpt>
      <trkpt lat="46.74172" lon="-1.74652">
        <ele>36</ele>
        <time>2018-01-13T15:45:25Z</time>
      </trkpt>
      <trkpt lat="46.742" lon="-1.7466">
        <ele>34</ele>
        <time>2018-01-13T15:46:25Z</time>
      </trkpt>
      <trkpt lat="46.74217" lon="-1.74665">
        <ele>34</ele>
        <time>2018-01-13T15:47:25Z</time>
      </trkpt>
      <trkpt lat="46.74233" lon="-1.74669">
        <ele>33</ele>
        <time>2018-01-13T15:48:25Z</time>
      </trkpt>
      <trkpt lat="46.74242" lon="-1.74671">
        <ele>32</ele>
        <time>2018-01-13T15:49:25Z</time>
      </trkpt>
      <trkpt lat="46.74247" lon="-1.74672">
        <ele>32</ele>
        <time>2018-01-13T15:50:25Z</time>
      </trkpt>
      <trkpt lat="46.74256" lon="-1.74673">
        <ele>32</ele>
        <time>2018-01-13T15:51:25Z</time>
      </trkpt>
      <trkpt lat="46.74267" lon="-1.74673">
        <ele>32</ele>
        <time>2018-01-13T15:52:25Z</time>
      </trkpt>
      <trkpt lat="46.74279" lon="-1.74673">
        <ele>32</ele>
        <time>2018-01-13T15:53:25Z</time>
      </trkpt>
      <trkpt lat="46.74296" lon="-1.74669">
        <ele>31</ele>
        <time>2018-01-13T15:54:25Z</time>
      </trkpt>
      <trkpt lat="46.74322" lon="-1.74664">
        <ele>31</ele>
        <time>2018-01-13T15:55:25Z</time>
      </trkpt>
      <trkpt lat="46.74375" lon="-1.74651">
        <ele>30</ele>
        <time>2018-01-13T15:56:25Z</time>
      </trkpt>
      <trkpt lat="46.74454" lon="-1.74632">
        <ele>28</ele>
        <time>2018-01-13T15:57:25Z</time>
      </trkpt>
      <trkpt lat="46.74508" lon="-1.74621">
        <ele>26</ele>
        <time>2018-01-13T15:58:25Z</time>
      </trkpt>
      <trkpt lat="46.74533" lon="-1.74615">
        <ele>26</ele>
        <time>2018-01-13T15:59:25Z</time>
      </trkpt>
      <trkpt lat="46.74542" lon="-1.74612">
        <ele>25</ele>
        <time>2018-01-13T16:00:25Z</time>
      </trkpt>
      <trkpt lat="46.74548" lon="-1.7461">
        <ele>25</ele>
        <time>2018-01-13T16:01:25Z</time>
      </trkpt>
      <trkpt lat="46.74551" lon="-1.74609">
        <ele>25</ele>
        <time>2018-01-13T16:02:25Z</time>
      </trkpt>
      <trkpt lat="46.74567" lon="-1.74604">
        <ele>25</ele>
        <time>2018-01-13T16:03:25Z</time>
      </trkpt>
      <trkpt lat="46.74573" lon="-1.74601">
        <ele>25</ele>
        <time>2018-01-13T16:04:25Z</time>
      </trkpt>
      <trkpt lat="46.74578" lon="-1.74598">
        <ele>24</ele>
        <time>2018-01-13T16:05:25Z</time>
      </trkpt>
      <trkpt lat="46.74584" lon="-1.74594">
        <ele>24</ele>
        <time>2018-01-13T16:06:25Z</time>
      </trkpt>
      <trkpt lat="46.74597" lon="-1.74586">
        <ele>24</ele>
        <time>2018-01-13T16:07:25Z</time>
      </trkpt>
      <trkpt lat="46.74603" lon="-1.74581">
        <ele>24</ele>
        <time>2018-01-13T16:08:25Z</time>
      </trkpt>
      <trkpt lat="46.74606" lon="-1.74576">
        <ele>23</ele>
        <time>2018-01-13T16:09:25Z</time>
      </trkpt>
      <trkpt lat="46.74617" lon="-1.74563">
        <ele>22</ele>
        <time>2018-01-13T16:10:25Z</time>
      </trkpt>
      <trkpt lat="46.74631" lon="-1.74544">
        <ele>21</ele>
        <time>2018-01-13T16:11:25Z</time>
      </trkpt>
      <trkpt lat="46.74667" lon="-1.74493">
        <ele>20</ele>
        <time>2018-01-13T16:12:25Z</time>
      </trkpt>
      <trkpt lat="46.74688" lon="-1.74462">
        <ele>19</ele>
        <time>2018-01-13T16:13:25Z</time>
      </trkpt>
      <trkpt lat="46.74699" lon="-1.74442">
        <ele>18</ele>
        <time>2018-01-13T16:14:25Z</time>
      </trkpt>
      <trkpt lat="46.74707" lon="-1.74428">
        <ele>18</ele>
        <time>2018-01-13T16:15:25Z</time>
      </trkpt>
      <trkpt lat="46.74715" lon="-1.74412">
        <ele>17</ele>
        <time>2018-01-13T16:16:25Z</time>
      </trkpt>
      <trkpt lat="46.74719" lon="-1.74402">
        <ele>17</ele>
        <time>2018-01-13T16:17:25Z</time>
      </trkpt>
      <trkpt lat="46.74724" lon="-1.74388">
        <ele>17</ele>
        <time>2018-01-13T16:18:25Z</time>
      </trkpt>
      <trkpt lat="46.74729" lon="-1.74372">
        <ele>16</ele>
        <time>2018-01-13T16:19:25Z</time>
      </trkpt>
      <trkpt lat="46.74732" lon="-1.74359">
        <ele>16</ele>
        <time>2018-01-13T16:20:25Z</time>
      </trkpt>
      <trkpt lat="46.74735" lon="-1.74347">
        <ele>15</ele>
        <time>2018-01-13T16:21:25Z</time>
      </trkpt>
      <trkpt lat="46.74738" lon="-1.74327">
        <ele>14</ele>
        <time>2018-01-13T16:22:25Z</time>
      </trkpt>
      <trkpt lat="46.74739" lon="-1.74314">
        <ele>14</ele>
        <time>2018-01-13T16:23:25Z</time>
      </trkpt>
      <trkpt lat="46.7474" lon="-1.743">
        <ele>14</ele>
        <time>2018-01-13T16:24:25Z</time>
      </trkpt>
      <trkpt lat="46.74741" lon="-1.74282">
        <ele>14</ele>
        <time>2018-01-13T16:25:25Z</time>
      </trkpt>
      <trkpt lat="46.74742" lon="-1.74239">
        <ele>14</ele>
        <time>2018-01-13T16:26:25Z</time>
      </trkpt>
      <trkpt lat="46.74741" lon="-1.74229">
        <ele>14</ele>
        <time>2018-01-13T16:27:25Z</time>
      </trkpt>
      <trkpt lat="46.7474" lon="-1.74216">
        <ele>13</ele>
        <time>2018-01-13T16:28:25Z</time>
      </trkpt>
      <trkpt lat="46.74738" lon="-1.74205">
        <ele>13</ele>
        <time>2018-01-13T16:29:25Z</time>
      </trkpt>
      <trkpt lat="46.74736" lon="-1.74196">
        <ele>13</ele>
        <time>2018-01-13T16:30:25Z</time>
      </trkpt>
      <trkpt lat="46.74734" lon="-1.74192">
        <ele>13</ele>
        <time>2018-01-13T16:31:25Z</time>
      </trkpt>
      <trkpt lat="46.74732" lon="-1.74188">
        <ele>13</ele>
        <time>2018-01-13T16:32:25Z</time>
      </trkpt>
      <trkpt lat="46.74729" lon="-1.74181">
        <ele>13</ele>
        <time>2018-01-13T16:33:25Z</time>
      </trkpt>
      <trkpt lat="46.74733" lon="-1.74169">
        <ele>13</ele>
        <time>2018-01-13T16:34:25Z</time>
      </trkpt>
      <trkpt lat="46.74735" lon="-1.74165">
        <ele>12</ele>
        <time>2018-01-13T16:35:25Z</time>
      </trkpt>
      <trkpt lat="46.74736" lon="-1.74163">
        <ele>12</ele>
        <time>2018-01-13T16:36:25Z</time>
      </trkpt>
      <trkpt lat="46.74756" lon="-1.74143">
        <ele>11</ele>
        <time>2018-01-13T16:37:25Z</time>
      </trkpt>
      <trkpt lat="46.74762" lon="-1.74138">
        <ele>12</ele>
        <time>2018-01-13T16:38:25Z</time>
      </trkpt>
      <trkpt lat="46.7477" lon="-1.74131">
        <ele>12</ele>
        <time>2018-01-13T16:39:25Z</time>
      </trkpt>
      <trkpt lat="46.74778" lon="-1.74124">
        <ele>13</ele>
        <time>2018-01-13T16:40:25Z</time>
      </trkpt>
      <trkpt lat="46.74787" lon="-1.74117">
        <ele>13</ele>
        <time>2018-01-13T16:41:25Z</time>
      </trkpt>
      <trkpt lat="46.748" lon="-1.74108">
        <ele>14</ele>
        <time>2018-01-13T16:42:25Z</time>
      </trkpt>
      <trkpt lat="46.74805" lon="-1.74105">
        <ele>14</ele>
        <time>2018-01-13T16:43:25Z</time>
      </trkpt>
      <trkpt lat="46.74807" lon="-1.74104">
        <ele>15</ele>
        <time>2018-01-13T16:44:25Z</time>
      </trkpt>
      <trkpt lat="46.7481" lon="-1.74103">
        <ele>15</ele>
        <time>2018-01-13T16:45:25Z</time>
      </trkpt>
      <trkpt lat="46.74816" lon="-1.741">
        <ele>15</ele>
        <time>2018-01-13T16:46:25Z</time>
      </trkpt>
      <trkpt lat="46.74838" lon="-1.7409">
        <ele>17</ele>
        <time>2018-01-13T16:47:25Z</time>
      </trkpt>
      <trkpt lat="46.74839" lon="-1.74089">
        <ele>17</ele>
        <time>2018-01-13T16:48:25Z</time>
      </trkpt>
      <trkpt lat="46.74841" lon="-1.74088">
        <ele>17</ele>
        <time>2018-01-13T16:49:25Z</time>
      </trkpt>
      <trkpt lat="46.74851" lon="-1.74084">
        <ele>18</ele>
        <time>2018-01-13T16:50:25Z</time>
      </trkpt>
      <trkpt lat="46.74855" lon="-1.74083">
        <ele>19</ele>
        <time>2018-01-13T16:51:25Z</time>
      </trkpt>
      <trkpt lat="46.74862" lon="-1.7408">
        <ele>19</ele>
        <time>2018-01-13T16:52:25Z</time>
      </trkpt>
      <trkpt lat="46.74934" lon="-1.74049">
        <ele>25</ele>
        <time>2018-01-13T16:53:25Z</time>
      </trkpt>
      <trkpt lat="46.74938" lon="-1.74047">
        <ele>25</ele>
        <time>2018-01-13T16:54:25Z</time>
      </trkpt>
      <trkpt lat="46.74942" lon="-1.74045">
        <ele>25</ele>
        <time>2018-01-13T16:55:25Z</time>
      </trkpt>
      <trkpt lat="46.74963" lon="-1.74029">
        <ele>27</ele>
        <time>2018-01-13T16:56:25Z</time>
      </trkpt>
      <trkpt lat="46.74966" lon="-1.74027">
        <ele>27</ele>
        <time>2018-01-13T16:57:25Z</time>
      </trkpt>
      <trkpt lat="46.74973" lon="-1.7402">
        <ele>27</ele>
        <time>2018-01-13T16:58:25Z</time>
      </trkpt>
      <trkpt lat="46.74973" lon="-1.7402">
        <ele>27</ele>
        <time>2018-01-13T16:59:25Z</time>
      </trkpt>
      <trkpt lat="46.74944" lon="-1.73979">
        <ele>28</ele>
        <time>2018-01-13T17:00:25Z</time>
      </trkpt>
      <trkpt lat="46.74941" lon="-1.73975">
        <ele>28</ele>
        <time>2018-01-13T17:01:25Z</time>
      </trkpt>
      <trkpt lat="46.74937" lon="-1.73972">
        <ele>28</ele>
        <time>2018-01-13T17:02:25Z</time>
      </trkpt>
      <trkpt lat="46.74933" lon="-1.7397">
        <ele>28</ele>
        <time>2018-01-13T17:03:25Z</time>
      </trkpt>
      <trkpt lat="46.7493" lon="-1.73969">
        <ele>27</ele>
        <time>2018-01-13T17:04:25Z</time>
      </trkpt>
      <trkpt lat="46.74925" lon="-1.73968">
        <ele>27</ele>
        <time>2018-01-13T17:05:25Z</time>
      </trkpt>
      <trkpt lat="46.74921" lon="-1.73967">
        <ele>27</ele>
        <time>2018-01-13T17:06:25Z</time>
      </trkpt>
      <trkpt lat="46.74917" lon="-1.73966">
        <ele>27</ele>
        <time>2018-01-13T17:07:25Z</time>
      </trkpt>
      <trkpt lat="46.74912" lon="-1.73965">
        <ele>27</ele>
        <time>2018-01-13T17:08:25Z</time>
      </trkpt>
      <trkpt lat="46.74908" lon="-1.73962">
        <ele>27</ele>
        <time>2018-01-13T17:09:25Z</time>
      </trkpt>
      <trkpt lat="46.74904" lon="-1.73959">
        <ele>27</ele>
        <time>2018-01-13T17:10:25Z</time>
      </trkpt>
      <trkpt lat="46.74897" lon="-1.73949">
        <ele>28</ele>
        <time>2018-01-13T17:11:25Z</time>
      </trkpt>
      <trkpt lat="46.7489" lon="-1.73938">
        <ele>28</ele>
        <time>2018-01-13T17:12:25Z</time>
      </trkpt>
      <trkpt lat="46.74885" lon="-1.73926">
        <ele>29</ele>
        <time>2018-01-13T17:13:25Z</time>
      </trkpt>
      <trkpt lat="46.74882" lon="-1.7392">
        <ele>29</ele>
        <time>2018-01-13T17:14:25Z</time>
      </trkpt>
      <trkpt lat="46.74876" lon="-1.73908">
        <ele>29</ele>
        <time>2018-01-13T17:15:25Z</time>
      </trkpt>
      <trkpt lat="46.74875" lon="-1.73905">
        <ele>29</ele>
        <time>2018-01-13T17:16:25Z</time>
      </trkpt>
      <trkpt lat="46.74872" lon="-1.73903">
        <ele>29</ele>
        <time>2018-01-13T17:17:25Z</time>
      </trkpt>
      <trkpt lat="46.74871" lon="-1.73902">
        <ele>29</ele>
        <time>2018-01-13T17:18:25Z</time>
      </trkpt>
      <trkpt lat="46.74864" lon="-1.73883">
        <ele>30</ele>
        <time>2018-01-13T17:19:25Z</time>
      </trkpt>
      <trkpt lat="46.74864" lon="-1.73883">
        <ele>30</ele>
        <time>2018-01-13T17:20:25Z</time>
      </trkpt>
      <trkpt lat="46.74863" lon="-1.73883">
        <ele>30</ele>
        <time>2018-01-13T17:21:25Z</time>
      </trkpt>
      <trkpt lat="46.74863" lon="-1.73882">
        <ele>30</ele>
        <time>2018-01-13T17:22:25Z</time>
      </trkpt>
      <trkpt lat="46.74862" lon="-1.73882">
        <ele>30</ele>
        <time>2018-01-13T17:23:25Z</time>
      </trkpt>
      <trkpt lat="46.74861" lon="-1.73881">
        <ele>30</ele>
        <time>2018-01-13T17:24:25Z</time>
      </trkpt>
      <trkpt lat="46.7486" lon="-1.73881">
        <ele>30</ele>
        <time>2018-01-13T17:25:25Z</time>
      </trkpt>
      <trkpt lat="46.7486" lon="-1.7388">
        <ele>30</ele>
        <time>2018-01-13T17:26:25Z</time>
      </trkpt>
      <trkpt lat="46.74859" lon="-1.73879">
        <ele>30</ele>
        <time>2018-01-13T17:27:25Z</time>
      </trkpt>
      <trkpt lat="46.74859" lon="-1.73878">
        <ele>30</ele>
        <time>2018-01-13T17:28:25Z</time>
      </trkpt>
      <trkpt lat="46.74858" lon="-1.73878">
        <ele>30</ele>
        <time>2018-01-13T17:29:25Z</time>
      </trkpt>
      <trkpt lat="46.74858" lon="-1.73877">
        <ele>30</ele>
        <time>2018-01-13T17:30:25Z</time>
      </trkpt>
      <trkpt lat="46.74858" lon="-1.73876">
        <ele>30</ele>
        <time>2018-01-13T17:31:25Z</time>
      </trkpt>
      <trkpt lat="46.74858" lon="-1.73875">
        <ele>30</ele>
        <time>2018-01-13T17:32:25Z</time>
      </trkpt>
      <trkpt lat="46.74857" lon="-1.73875">
        <ele>30</ele>
        <time>2018-01-13T17:33:25Z</time>
      </trkpt>
      <trkpt lat="46.74857" lon="-1.73874">
        <ele>30</ele>
        <time>2018-01-13T17:34:25Z</time>
      </trkpt>
      <trkpt lat="46.74857" lon="-1.73873">
        <ele>30</ele>
        <time>2018-01-13T17:35:25Z</time>
      </trkpt>
      <trkpt lat="46.74857" lon="-1.73872">
        <ele>30</ele>
        <time>2018-01-13T17:36:25Z</time>
      </trkpt>
      <trkpt lat="46.74857" lon="-1.73871">
        <ele>30</ele>
        <time>2018-01-13T17:37:25Z</time>
      </trkpt>
      <trkpt lat="46.74857" lon="-1.7387">
        <ele>30</ele>
        <time>2018-01-13T17:38:25Z</time>
      </trkpt>
      <trkpt lat="46.74858" lon="-1.7387">
        <ele>30</ele>
        <time>2018-01-13T17:39:25Z</time>
      </trkpt>
      <trkpt lat="46.74858" lon="-1.73869">
        <ele>30</ele>
        <time>2018-01-13T17:40:25Z</time>
      </trkpt>
      <trkpt lat="46.74858" lon="-1.73868">
        <ele>30</ele>
        <time>2018-01-13T17:41:25Z</time>
      </trkpt>
      <trkpt lat="46.74858" lon="-1.73867">
        <ele>30</ele>
        <time>2018-01-13T17:42:25Z</time>
      </trkpt>
      <trkpt lat="46.74859" lon="-1.73867">
        <ele>30</ele>
        <time>2018-01-13T17:43:25Z</time>
      </trkpt>
      <trkpt lat="46.74859" lon="-1.73866">
        <ele>30</ele>
        <time>2018-01-13T17:44:25Z</time>
      </trkpt>
      <trkpt lat="46.7486" lon="-1.73865">
        <ele>30</ele>
        <time>2018-01-13T17:45:25Z</time>
      </trkpt>
      <trkpt lat="46.74861" lon="-1.73864">
        <ele>30</ele>
        <time>2018-01-13T17:46:25Z</time>
      </trkpt>
      <trkpt lat="46.74862" lon="-1.73864">
        <ele>30</ele>
        <time>2018-01-13T17:47:25Z</time>
      </trkpt>
      <trkpt lat="46.74862" lon="-1.73863">
        <ele>30</ele>
        <time>2018-01-13T17:48:25Z</time>
      </trkpt>
      <trkpt lat="46.74863" lon="-1.73863">
        <ele>30</ele>
        <time>2018-01-13T17:49:25Z</time>
      </trkpt>
      <trkpt lat="46.74864" lon="-1.73863">
        <ele>30</ele>
        <time>2018-01-13T17:50:25Z</time>
      </trkpt>
      <trkpt lat="46.74865" lon="-1.73863">
        <ele>31</ele>
        <time>2018-01-13T17:51:25Z</time>
      </trkpt>
      <trkpt lat="46.74866" lon="-1.73863">
        <ele>31</ele>
        <time>2018-01-13T17:52:25Z</time>
      </trkpt>
      <trkpt lat="46.74867" lon="-1.73863">
        <ele>31</ele>
        <time>2018-01-13T17:53:25Z</time>
      </trkpt>
      <trkpt lat="46.74868" lon="-1.73863">
        <ele>31</ele>
        <time>2018-01-13T17:54:25Z</time>
      </trkpt>
      <trkpt lat="46.74873" lon="-1.7386">
        <ele>31</ele>
        <time>2018-01-13T17:55:25Z</time>
      </trkpt>
      <trkpt lat="46.74877" lon="-1.73856">
        <ele>31</ele>
        <time>2018-01-13T17:56:25Z</time>
      </trkpt>
      <trkpt lat="46.74883" lon="-1.73854">
        <ele>32</ele>
        <time>2018-01-13T17:57:25Z</time>
      </trkpt>
      <trkpt lat="46.74908" lon="-1.73846">
        <ele>33</ele>
        <time>2018-01-13T17:58:25Z</time>
      </trkpt>
      <trkpt lat="46.74991" lon="-1.73849">
        <ele>38</ele>
        <time>2018-01-13T17:59:25Z</time>
      </trkpt>
      <trkpt lat="46.75012" lon="-1.73852">
        <ele>38</ele>
        <time>2018-01-13T18:00:25Z</time>
      </trkpt>
      <trkpt lat="46.75026" lon="-1.73853">
        <ele>39</ele>
        <time>2018-01-13T18:01:25Z</time>
      </trkpt>
      <trkpt lat="46.75035" lon="-1.73853">
        <ele>39</ele>
        <time>2018-01-13T18:02:25Z</time>
      </trkpt>
      <trkpt lat="46.75041" lon="-1.73853">
        <ele>40</ele>
        <time>2018-01-13T18:03:25Z</time>
      </trkpt>
      <trkpt lat="46.75118" lon="-1.73846">
        <ele>43</ele>
        <time>2018-01-13T18:04:25Z</time>
      </trkpt>
      <trkpt lat="46.75133" lon="-1.73845">
        <ele>44</ele>
        <time>2018-01-13T18:05:25Z</time>
      </trkpt>
      <trkpt lat="46.75153" lon="-1.73848">
        <ele>45</ele>
        <time>2018-01-13T18:06:25Z</time>
      </trkpt>
      <trkpt lat="46.75169" lon="-1.73854">
        <ele>46</ele>
        <time>2018-01-13T18:07:25Z</time>
      </trkpt>
      <trkpt lat="46.75183" lon="-1.73862">
        <ele>46</ele>
        <time>2018-01-13T18:08:25Z</time>
      </trkpt>
      <trkpt lat="46.75201" lon="-1.73873">
        <ele>46</ele>
        <time>2018-01-13T18:09:25Z</time>
      </trkpt>
      <trkpt lat="46.75211" lon="-1.73882">
        <ele>46</ele>
        <time>2018-01-13T18:10:25Z</time>
      </trkpt>
      <trkpt lat="46.75211" lon="-1.73882">
        <ele>46</ele>
        <time>2018-01-13T18:11:25Z</time>
      </trkpt>
      <trkpt lat="46.75216" lon="-1.73867">
        <ele>47</ele>
        <time>2018-01-13T18:12:25Z</time>
      </trkpt>
      <trkpt lat="46.75226" lon="-1.73846">
        <ele>47</ele>
        <time>2018-01-13T18:13:25Z</time>
      </trkpt>
      <trkpt lat="46.75243" lon="-1.7381">
        <ele>48</ele>
        <time>2018-01-13T18:14:25Z</time>
      </trkpt>
      <trkpt lat="46.75247" lon="-1.738">
        <ele>49</ele>
        <time>2018-01-13T18:15:25Z</time>
      </trkpt>
      <trkpt lat="46.75259" lon="-1.73776">
        <ele>50</ele>
        <time>2018-01-13T18:16:25Z</time>
      </trkpt>
      <trkpt lat="46.75268" lon="-1.73759">
        <ele>50</ele>
        <time>2018-01-13T18:17:25Z</time>
      </trkpt>
      <trkpt lat="46.75271" lon="-1.73754">
        <ele>50</ele>
        <time>2018-01-13T18:18:25Z</time>
      </trkpt>
      <trkpt lat="46.75276" lon="-1.73746">
        <ele>50</ele>
        <time>2018-01-13T18:19:25Z</time>
      </trkpt>
      <trkpt lat="46.75285" lon="-1.73733">
        <ele>51</ele>
        <time>2018-01-13T18:20:25Z</time>
      </trkpt>
      <trkpt lat="46.75292" lon="-1.73721">
        <ele>51</ele>
        <time>2018-01-13T18:21:25Z</time>
      </trkpt>
      <trkpt lat="46.75301" lon="-1.73709">
        <ele>51</ele>
        <time>2018-01-13T18:22:25Z</time>
      </trkpt>
      <trkpt lat="46.75305" lon="-1.73703">
        <ele>51</ele>
        <time>2018-01-13T18:23:25Z</time>
      </trkpt>
      <trkpt lat="46.75309" lon="-1.73698">
        <ele>51</ele>
        <time>2018-01-13T18:24:25Z</time>
      </trkpt>
      <trkpt lat="46.75319" lon="-1.73686">
        <ele>52</ele>
        <time>2018-01-13T18:25:25Z</time>
      </trkpt>
      <trkpt lat="46.75329" lon="-1.73675">
        <ele>52</ele>
        <time>2018-01-13T18:26:25Z</time>
      </trkpt>
      <trkpt lat="46.75344" lon="-1.73658">
        <ele>52</ele>
        <time>2018-01-13T18:27:25Z</time>
      </trkpt>
      <trkpt lat="46.7539" lon="-1.73612">
        <ele>53</ele>
        <time>2018-01-13T18:28:25Z</time>
      </trkpt>
      <trkpt lat="46.7541" lon="-1.73592">
        <ele>53</ele>
        <time>2018-01-13T18:29:25Z</time>
      </trkpt>
      <trkpt lat="46.75442" lon="-1.73561">
        <ele>54</ele>
        <time>2018-01-13T18:30:25Z</time>
      </trkpt>
      <trkpt lat="46.75452" lon="-1.7355">
        <ele>54</ele>
        <time>2018-01-13T18:31:25Z</time>
      </trkpt>
      <trkpt lat="46.75488" lon="-1.73511">
        <ele>56</ele>
        <time>2018-01-13T18:32:25Z</time>
      </trkpt>
      <trkpt lat="46.75511" lon="-1.73485">
        <ele>56</ele>
        <time>2018-01-13T18:33:25Z</time>
      </trkpt>
      <trkpt lat="46.75518" lon="-1.73476">
        <ele>56</ele>
        <time>2018-01-13T18:34:25Z</time>
      </trkpt>
      <trkpt lat="46.75524" lon="-1.73468">
        <ele>56</ele>
        <time>2018-01-13T18:35:25Z</time>
      </trkpt>
      <trkpt lat="46.75529" lon="-1.73461">
        <ele>56</ele>
        <time>2018-01-13T18:36:25Z</time>
      </trkpt>
      <trkpt lat="46.75534" lon="-1.73455">
        <ele>56</ele>
        <time>2018-01-13T18:37:25Z</time>
      </trkpt>
      <trkpt lat="46.75538" lon="-1.73448">
        <ele>56</ele>
        <time>2018-01-13T18:38:25Z</time>
      </trkpt>
      <trkpt lat="46.75541" lon="-1.73445">
        <ele>56</ele>
        <time>2018-01-13T18:39:25Z</time>
      </trkpt>
      <trkpt lat="46.75544" lon="-1.73439">
        <ele>56</ele>
        <time>2018-01-13T18:40:25Z</time>
      </trkpt>
      <trkpt lat="46.75553" lon="-1.73423">
        <ele>56</ele>
        <time>2018-01-13T18:41:25Z</time>
      </trkpt>
      <trkpt lat="46.75555" lon="-1.73418">
        <ele>56</ele>
        <time>2018-01-13T18:42:25Z</time>
      </trkpt>
      <trkpt lat="46.75557" lon="-1.73412">
        <ele>56</ele>
        <time>2018-01-13T18:43:25Z</time>
      </trkpt>
      <trkpt lat="46.7556" lon="-1.73403">
        <ele>56</ele>
        <time>2018-01-13T18:44:25Z</time>
      </trkpt>
      <trkpt lat="46.75564" lon="-1.7339">
        <ele>56</ele>
        <time>2018-01-13T18:45:25Z</time>
      </trkpt>
      <trkpt lat="46.75567" lon="-1.73377">
        <ele>56</ele>
        <time>2018-01-13T18:46:25Z</time>
      </trkpt>
      <trkpt lat="46.75575" lon="-1.73341">
        <ele>57</ele>
        <time>2018-01-13T18:47:25Z</time>
      </trkpt>
      <trkpt lat="46.75589" lon="-1.73274">
        <ele>56</ele>
        <time>2018-01-13T18:48:25Z</time>
      </trkpt>
      <trkpt lat="46.75598" lon="-1.73226">
        <ele>55</ele>
        <time>2018-01-13T18:49:25Z</time>
      </trkpt>
      <trkpt lat="46.75608" lon="-1.73181">
        <ele>54</ele>
        <time>2018-01-13T18:50:25Z</time>
      </trkpt>
      <trkpt lat="46.75612" lon="-1.73156">
        <ele>54</ele>
        <time>2018-01-13T18:51:25Z</time>
      </trkpt>
      <trkpt lat="46.75617" lon="-1.73128">
        <ele>54</ele>
        <time>2018-01-13T18:52:25Z</time>
      </trkpt>
      <trkpt lat="46.75616" lon="-1.7312">
        <ele>54</ele>
        <time>2018-01-13T18:53:25Z</time>
      </trkpt>
      <trkpt lat="46.75618" lon="-1.73089">
        <ele>53</ele>
        <time>2018-01-13T18:54:25Z</time>
      </trkpt>
      <trkpt lat="46.75616" lon="-1.73087">
        <ele>53</ele>
        <time>2018-01-13T18:55:25Z</time>
      </trkpt>
      <trkpt lat="46.75615" lon="-1.73085">
        <ele>53</ele>
        <time>2018-01-13T18:56:25Z</time>
      </trkpt>
      <trkpt lat="46.75614" lon="-1.73083">
        <ele>53</ele>
        <time>2018-01-13T18:57:25Z</time>
      </trkpt>
      <trkpt lat="46.75614" lon="-1.73082">
        <ele>53</ele>
        <time>2018-01-13T18:58:25Z</time>
      </trkpt>
      <trkpt lat="46.75614" lon="-1.73081">
        <ele>53</ele>
        <time>2018-01-13T18:59:25Z</time>
      </trkpt>
      <trkpt lat="46.75613" lon="-1.73078">
        <ele>53</ele>
        <time>2018-01-13T19:00:25Z</time>
      </trkpt>
      <trkpt lat="46.75613" lon="-1.73075">
        <ele>53</ele>
        <time>2018-01-13T19:01:25Z</time>
      </trkpt>
      <trkpt lat="46.75614" lon="-1.73071">
        <ele>53</ele>
        <time>2018-01-13T19:02:25Z</time>
      </trkpt>
      <trkpt lat="46.75615" lon="-1.73066">
        <ele>53</ele>
        <time>2018-01-13T19:03:25Z</time>
      </trkpt>
      <trkpt lat="46.75619" lon="-1.73049">
        <ele>54</ele>
        <time>2018-01-13T19:04:25Z</time>
      </trkpt>
      <trkpt lat="46.75623" lon="-1.73038">
        <ele>54</ele>
        <time>2018-01-13T19:05:25Z</time>
      </trkpt>
      <trkpt lat="46.75623" lon="-1.72992">
        <ele>55</ele>
        <time>2018-01-13T19:06:25Z</time>
      </trkpt>
      <trkpt lat="46.75623" lon="-1.72916">
        <ele>55</ele>
        <time>2018-01-13T19:07:25Z</time>
      </trkpt>
      <trkpt lat="46.75623" lon="-1.72887">
        <ele>55</ele>
        <time>2018-01-13T19:08:25Z</time>
      </trkpt>
      <trkpt lat="46.75624" lon="-1.7287">
        <ele>56</ele>
        <time>2018-01-13T19:09:25Z</time>
      </trkpt>
      <trkpt lat="46.75624" lon="-1.72845">
        <ele>56</ele>
        <time>2018-01-13T19:10:25Z</time>
      </trkpt>
      <trkpt lat="46.75625" lon="-1.72834">
        <ele>56</ele>
        <time>2018-01-13T19:11:25Z</time>
      </trkpt>
      <trkpt lat="46.75626" lon="-1.7282">
        <ele>57</ele>
        <time>2018-01-13T19:12:25Z</time>
      </trkpt>
      <trkpt lat="46.75626" lon="-1.72809">
        <ele>57</ele>
        <time>2018-01-13T19:13:25Z</time>
      </trkpt>
      <trkpt lat="46.75627" lon="-1.72797">
        <ele>57</ele>
        <time>2018-01-13T19:14:25Z</time>
      </trkpt>
      <trkpt lat="46.75628" lon="-1.72787">
        <ele>57</ele>
        <time>2018-01-13T19:15:25Z</time>
      </trkpt>
      <trkpt lat="46.75633" lon="-1.72721">
        <ele>58</ele>
        <time>2018-01-13T19:16:25Z</time>
      </trkpt>
      <trkpt lat="46.75638" lon="-1.72663">
        <ele>57</ele>
        <time>2018-01-13T19:17:25Z</time>
      </trkpt>
      <trkpt lat="46.75643" lon="-1.72615">
        <ele>56</ele>
        <time>2018-01-13T19:18:25Z</time>
      </trkpt>
      <trkpt lat="46.7565" lon="-1.72542">
        <ele>56</ele>
        <time>2018-01-13T19:19:25Z</time>
      </trkpt>
      <trkpt lat="46.75656" lon="-1.72493">
        <ele>56</ele>
        <time>2018-01-13T19:20:25Z</time>
      </trkpt>
      <trkpt lat="46.75657" lon="-1.72476">
        <ele>56</ele>
        <time>2018-01-13T19:21:25Z</time>
      </trkpt>
      <trkpt lat="46.75662" lon="-1.72434">
        <ele>56</ele>
        <time>2018-01-13T19:22:25Z</time>
      </trkpt>
      <trkpt lat="46.75661" lon="-1.72416">
        <ele>56</ele>
        <time>2018-01-13T19:23:25Z</time>
      </trkpt>
      <trkpt lat="46.75662" lon="-1.72342">
        <ele>56</ele>
        <time>2018-01-13T19:24:25Z</time>
      </trkpt>
      <trkpt lat="46.7566" lon="-1.72271">
        <ele>56</ele>
        <time>2018-01-13T19:25:25Z</time>
      </trkpt>
      <trkpt lat="46.7566" lon="-1.72244">
        <ele>56</ele>
        <time>2018-01-13T19:26:25Z</time>
      </trkpt>
      <trkpt lat="46.75657" lon="-1.72178">
        <ele>58</ele>
        <time>2018-01-13T19:27:25Z</time>
      </trkpt>
      <trkpt lat="46.75657" lon="-1.72169">
        <ele>58</ele>
        <time>2018-01-13T19:28:25Z</time>
      </trkpt>
      <trkpt lat="46.75651" lon="-1.72101">
        <ele>57</ele>
        <time>2018-01-13T19:29:25Z</time>
      </trkpt>
      <trkpt lat="46.75645" lon="-1.7204">
        <ele>57</ele>
        <time>2018-01-13T19:30:25Z</time>
      </trkpt>
      <trkpt lat="46.75646" lon="-1.72036">
        <ele>57</ele>
        <time>2018-01-13T19:31:25Z</time>
      </trkpt>
      <trkpt lat="46.75633" lon="-1.71906">
        <ele>56</ele>
        <time>2018-01-13T19:32:25Z</time>
      </trkpt>
      <trkpt lat="46.75633" lon="-1.71883">
        <ele>56</ele>
        <time>2018-01-13T19:33:25Z</time>
      </trkpt>
      <trkpt lat="46.75632" lon="-1.71874">
        <ele>56</ele>
        <time>2018-01-13T19:34:25Z</time>
      </trkpt>
      <trkpt lat="46.75632" lon="-1.71858">
        <ele>56</ele>
        <time>2018-01-13T19:35:25Z</time>
      </trkpt>
      <trkpt lat="46.75631" lon="-1.71831">
        <ele>56</ele>
        <time>2018-01-13T19:36:25Z</time>
      </trkpt>
      <trkpt lat="46.75631" lon="-1.71802">
        <ele>56</ele>
        <time>2018-01-13T19:37:25Z</time>
      </trkpt>
      <trkpt lat="46.75631" lon="-1.71789">
        <ele>57</ele>
        <time>2018-01-13T19:38:25Z</time>
      </trkpt>
      <trkpt lat="46.75631" lon="-1.7178">
        <ele>57</ele>
        <time>2018-01-13T19:39:25Z</time>
      </trkpt>
      <trkpt lat="46.75631" lon="-1.71767">
        <ele>57</ele>
        <time>2018-01-13T19:40:25Z</time>
      </trkpt>
      <trkpt lat="46.75632" lon="-1.71751">
        <ele>57</ele>
        <time>2018-01-13T19:41:25Z</time>
      </trkpt>
      <trkpt lat="46.75632" lon="-1.71736">
        <ele>57</ele>
        <time>2018-01-13T19:42:25Z</time>
      </trkpt>
      <trkpt lat="46.75632" lon="-1.71721">
        <ele>57</ele>
        <time>2018-01-13T19:43:25Z</time>
      </trkpt>
      <trkpt lat="46.75633" lon="-1.71706">
        <ele>57</ele>
        <time>2018-01-13T19:44:25Z</time>
      </trkpt>
      <trkpt lat="46.75633" lon="-1.71695">
        <ele>57</ele>
        <time>2018-01-13T19:45:25Z</time>
      </trkpt>
      <trkpt lat="46.75634" lon="-1.7168">
        <ele>57</ele>
        <time>2018-01-13T19:46:25Z</time>
      </trkpt>
      <trkpt lat="46.75635" lon="-1.71651">
        <ele>57</ele>
        <time>2018-01-13T19:47:25Z</time>
      </trkpt>
      <trkpt lat="46.75637" lon="-1.71635">
        <ele>57</ele>
        <time>2018-01-13T19:48:25Z</time>
      </trkpt>
      <trkpt lat="46.75639" lon="-1.71584">
        <ele>57</ele>
        <time>2018-01-13T19:49:25Z</time>
      </trkpt>
      <trkpt lat="46.75645" lon="-1.71506">
        <ele>58</ele>
        <time>2018-01-13T19:50:25Z</time>
      </trkpt>
      <trkpt lat="46.75645" lon="-1.71503">
        <ele>58</ele>
        <time>2018-01-13T19:51:25Z</time>
      </trkpt>
      <trkpt lat="46.75649" lon="-1.71449">
        <ele>59</ele>
        <time>2018-01-13T19:52:25Z</time>
      </trkpt>
      <trkpt lat="46.75656" lon="-1.71346">
        <ele>60</ele>
        <time>2018-01-13T19:53:25Z</time>
      </trkpt>
      <trkpt lat="46.75658" lon="-1.71296">
        <ele>60</ele>
        <time>2018-01-13T19:54:25Z</time>
      </trkpt>
      <trkpt lat="46.75659" lon="-1.7126">
        <ele>60</ele>
        <time>2018-01-13T19:55:25Z</time>
      </trkpt>
      <trkpt lat="46.75659" lon="-1.71235">
        <ele>60</ele>
        <time>2018-01-13T19:56:25Z</time>
      </trkpt>
      <trkpt lat="46.7566" lon="-1.71217">
        <ele>60</ele>
        <time>2018-01-13T19:57:25Z</time>
      </trkpt>
      <trkpt lat="46.7566" lon="-1.71199">
        <ele>60</ele>
        <time>2018-01-13T19:58:25Z</time>
      </trkpt>
      <trkpt lat="46.75661" lon="-1.7118">
        <ele>60</ele>
        <time>2018-01-13T19:59:25Z</time>
      </trkpt>
      <trkpt lat="46.75662" lon="-1.71157">
        <ele>60</ele>
        <time>2018-01-13T20:00:25Z</time>
      </trkpt>
      <trkpt lat="46.75662" lon="-1.71132">
        <ele>60</ele>
        <time>2018-01-13T20:01:25Z</time>
      </trkpt>
      <trkpt lat="46.75662" lon="-1.71111">
        <ele>59</ele>
        <time>2018-01-13T20:02:25Z</time>
      </trkpt>
      <trkpt lat="46.75662" lon="-1.71091">
        <ele>59</ele>
        <time>2018-01-13T20:03:25Z</time>
      </trkpt>
      <trkpt lat="46.75662" lon="-1.71047">
        <ele>59</ele>
        <time>2018-01-13T20:04:25Z</time>
      </trkpt>
      <trkpt lat="46.75661" lon="-1.71002">
        <ele>59</ele>
        <time>2018-01-13T20:05:25Z</time>
      </trkpt>
      <trkpt lat="46.7566" lon="-1.7096">
        <ele>60</ele>
        <time>2018-01-13T20:06:25Z</time>
      </trkpt>
      <trkpt lat="46.7566" lon="-1.70953">
        <ele>60</ele>
        <time>2018-01-13T20:07:25Z</time>
      </trkpt>
      <trkpt lat="46.75657" lon="-1.70877">
        <ele>61</ele>
        <time>2018-01-13T20:08:25Z</time>
      </trkpt>
      <trkpt lat="46.75655" lon="-1.70823">
        <ele>62</ele>
        <time>2018-01-13T20:09:25Z</time>
      </trkpt>
      <trkpt lat="46.75655" lon="-1.70806">
        <ele>62</ele>
        <time>2018-01-13T20:10:25Z</time>
      </trkpt>
      <trkpt lat="46.75654" lon="-1.7079">
        <ele>61</ele>
        <time>2018-01-13T20:11:25Z</time>
      </trkpt>
      <trkpt lat="46.75654" lon="-1.70772">
        <ele>61</ele>
        <time>2018-01-13T20:12:25Z</time>
      </trkpt>
      <trkpt lat="46.75654" lon="-1.70751">
        <ele>61</ele>
        <time>2018-01-13T20:13:25Z</time>
      </trkpt>
      <trkpt lat="46.75655" lon="-1.70726">
        <ele>60</ele>
        <time>2018-01-13T20:14:25Z</time>
      </trkpt>
      <trkpt lat="46.75656" lon="-1.70671">
        <ele>59</ele>
        <time>2018-01-13T20:15:25Z</time>
      </trkpt>
      <trkpt lat="46.7566" lon="-1.70572">
        <ele>59</ele>
        <time>2018-01-13T20:16:25Z</time>
      </trkpt>
      <trkpt lat="46.75662" lon="-1.70498">
        <ele>60</ele>
        <time>2018-01-13T20:17:25Z</time>
      </trkpt>
      <trkpt lat="46.75666" lon="-1.70422">
        <ele>61</ele>
        <time>2018-01-13T20:18:25Z</time>
      </trkpt>
      <trkpt lat="46.7567" lon="-1.70352">
        <ele>61</ele>
        <time>2018-01-13T20:19:25Z</time>
      </trkpt>
      <trkpt lat="46.75672" lon="-1.70323">
        <ele>61</ele>
        <time>2018-01-13T20:20:25Z</time>
      </trkpt>
      <trkpt lat="46.75673" lon="-1.70304">
        <ele>61</ele>
        <time>2018-01-13T20:21:25Z</time>
      </trkpt>
      <trkpt lat="46.75673" lon="-1.70286">
        <ele>61</ele>
        <time>2018-01-13T20:22:25Z</time>
      </trkpt>
      <trkpt lat="46.75673" lon="-1.70266">
        <ele>61</ele>
        <time>2018-01-13T20:23:25Z</time>
      </trkpt>
      <trkpt lat="46.75672" lon="-1.70246">
        <ele>61</ele>
        <time>2018-01-13T20:24:25Z</time>
      </trkpt>
      <trkpt lat="46.75671" lon="-1.70227">
        <ele>61</ele>
        <time>2018-01-13T20:25:25Z</time>
      </trkpt>
      <trkpt lat="46.7567" lon="-1.70205">
        <ele>61</ele>
        <time>2018-01-13T20:26:25Z</time>
      </trkpt>
      <trkpt lat="46.75666" lon="-1.70153">
        <ele>62</ele>
        <time>2018-01-13T20:27:25Z</time>
      </trkpt>
      <trkpt lat="46.7566" lon="-1.70095">
        <ele>61</ele>
        <time>2018-01-13T20:28:25Z</time>
      </trkpt>
      <trkpt lat="46.75656" lon="-1.70046">
        <ele>61</ele>
        <time>2018-01-13T20:29:25Z</time>
      </trkpt>
      <trkpt lat="46.75654" lon="-1.70015">
        <ele>62</ele>
        <time>2018-01-13T20:30:25Z</time>
      </trkpt>
      <trkpt lat="46.75653" lon="-1.70008">
        <ele>62</ele>
        <time>2018-01-13T20:31:25Z</time>
      </trkpt>
      <trkpt lat="46.75651" lon="-1.69993">
        <ele>62</ele>
        <time>2018-01-13T20:32:25Z</time>
      </trkpt>
      <trkpt lat="46.75648" lon="-1.69979">
        <ele>61</ele>
        <time>2018-01-13T20:33:25Z</time>
      </trkpt>
      <trkpt lat="46.75645" lon="-1.69967">
        <ele>61</ele>
        <time>2018-01-13T20:34:25Z</time>
      </trkpt>
      <trkpt lat="46.75641" lon="-1.69956">
        <ele>61</ele>
        <time>2018-01-13T20:35:25Z</time>
      </trkpt>
      <trkpt lat="46.75632" lon="-1.69934">
        <ele>61</ele>
        <time>2018-01-13T20:36:25Z</time>
      </trkpt>
      <trkpt lat="46.75627" lon="-1.6992">
        <ele>61</ele>
        <time>2018-01-13T20:37:25Z</time>
      </trkpt>
      <trkpt lat="46.75622" lon="-1.69903">
        <ele>60</ele>
        <time>2018-01-13T20:38:25Z</time>
      </trkpt>
      <trkpt lat="46.75618" lon="-1.69878">
        <ele>60</ele>
        <time>2018-01-13T20:39:25Z</time>
      </trkpt>
      <trkpt lat="46.75611" lon="-1.69841">
        <ele>59</ele>
        <time>2018-01-13T20:40:25Z</time>
      </trkpt>
      <trkpt lat="46.75607" lon="-1.69819">
        <ele>59</ele>
        <time>2018-01-13T20:41:25Z</time>
      </trkpt>
      <trkpt lat="46.75602" lon="-1.69782">
        <ele>59</ele>
        <time>2018-01-13T20:42:25Z</time>
      </trkpt>
      <trkpt lat="46.75596" lon="-1.69746">
        <ele>59</ele>
        <time>2018-01-13T20:43:25Z</time>
      </trkpt>
      <trkpt lat="46.75596" lon="-1.69742">
        <ele>59</ele>
        <time>2018-01-13T20:44:25Z</time>
      </trkpt>
      <trkpt lat="46.7559" lon="-1.69707">
        <ele>59</ele>
        <time>2018-01-13T20:45:25Z</time>
      </trkpt>
      <trkpt lat="46.75579" lon="-1.69642">
        <ele>58</ele>
        <time>2018-01-13T20:46:25Z</time>
      </trkpt>
      <trkpt lat="46.75575" lon="-1.69614">
        <ele>58</ele>
        <time>2018-01-13T20:47:25Z</time>
      </trkpt>
      <trkpt lat="46.75572" lon="-1.69595">
        <ele>58</ele>
        <time>2018-01-13T20:48:25Z</time>
      </trkpt>
      <trkpt lat="46.75568" lon="-1.69577">
        <ele>58</ele>
        <time>2018-01-13T20:49:25Z</time>
      </trkpt>
      <trkpt lat="46.75565" lon="-1.69562">
        <ele>58</ele>
        <time>2018-01-13T20:50:25Z</time>
      </trkpt>
      <trkpt lat="46.7556" lon="-1.69542">
        <ele>57</ele>
        <time>2018-01-13T20:51:25Z</time>
      </trkpt>
      <trkpt lat="46.75556" lon="-1.69526">
        <ele>57</ele>
        <time>2018-01-13T20:52:25Z</time>
      </trkpt>
      <trkpt lat="46.75552" lon="-1.69509">
        <ele>57</ele>
        <time>2018-01-13T20:53:25Z</time>
      </trkpt>
      <trkpt lat="46.75542" lon="-1.69475">
        <ele>56</ele>
        <time>2018-01-13T20:54:25Z</time>
      </trkpt>
      <trkpt lat="46.75542" lon="-1.69475">
        <ele>56</ele>
        <time>2018-01-13T20:55:25Z</time>
      </trkpt>
      <trkpt lat="46.75544" lon="-1.69469">
        <ele>56</ele>
        <time>2018-01-13T20:56:25Z</time>
      </trkpt>
      <trkpt lat="46.75546" lon="-1.69464">
        <ele>56</ele>
        <time>2018-01-13T20:57:25Z</time>
      </trkpt>
      <trkpt lat="46.75548" lon="-1.69452">
        <ele>56</ele>
        <time>2018-01-13T20:58:25Z</time>
      </trkpt>
      <trkpt lat="46.75554" lon="-1.69422">
        <ele>55</ele>
        <time>2018-01-13T20:59:25Z</time>
      </trkpt>
      <trkpt lat="46.75554" lon="-1.69422">
        <ele>55</ele>
        <time>2018-01-13T21:00:25Z</time>
      </trkpt>
      <trkpt lat="46.75565" lon="-1.69371">
        <ele>55</ele>
        <time>2018-01-13T21:01:25Z</time>
      </trkpt>
      <trkpt lat="46.75579" lon="-1.69309">
        <ele>54</ele>
        <time>2018-01-13T21:02:25Z</time>
      </trkpt>
      <trkpt lat="46.75602" lon="-1.69206">
        <ele>51</ele>
        <time>2018-01-13T21:03:25Z</time>
      </trkpt>
      <trkpt lat="46.75606" lon="-1.69184">
        <ele>51</ele>
        <time>2018-01-13T21:04:25Z</time>
      </trkpt>
      <trkpt lat="46.75609" lon="-1.6916">
        <ele>51</ele>
        <time>2018-01-13T21:05:25Z</time>
      </trkpt>
      <trkpt lat="46.75611" lon="-1.69143">
        <ele>51</ele>
        <time>2018-01-13T21:06:25Z</time>
      </trkpt>
      <trkpt lat="46.75612" lon="-1.69125">
        <ele>50</ele>
        <time>2018-01-13T21:07:25Z</time>
      </trkpt>
      <trkpt lat="46.75612" lon="-1.69102">
        <ele>50</ele>
        <time>2018-01-13T21:08:25Z</time>
      </trkpt>
      <trkpt lat="46.75613" lon="-1.6907">
        <ele>50</ele>
        <time>2018-01-13T21:09:25Z</time>
      </trkpt>
      <trkpt lat="46.75613" lon="-1.69035">
        <ele>50</ele>
        <time>2018-01-13T21:10:25Z</time>
      </trkpt>
      <trkpt lat="46.75613" lon="-1.69008">
        <ele>49</ele>
        <time>2018-01-13T21:11:25Z</time>
      </trkpt>
      <trkpt lat="46.75613" lon="-1.68991">
        <ele>49</ele>
        <time>2018-01-13T21:12:25Z</time>
      </trkpt>
      <trkpt lat="46.75614" lon="-1.68975">
        <ele>48</ele>
        <time>2018-01-13T21:13:25Z</time>
      </trkpt>
      <trkpt lat="46.75616" lon="-1.68954">
        <ele>48</ele>
        <time>2018-01-13T21:14:25Z</time>
      </trkpt>
      <trkpt lat="46.75618" lon="-1.68942">
        <ele>47</ele>
        <time>2018-01-13T21:15:25Z</time>
      </trkpt>
      <trkpt lat="46.75622" lon="-1.68925">
        <ele>47</ele>
        <time>2018-01-13T21:16:25Z</time>
      </trkpt>
      <trkpt lat="46.75628" lon="-1.68907">
        <ele>46</ele>
        <time>2018-01-13T21:17:25Z</time>
      </trkpt>
      <trkpt lat="46.7564" lon="-1.68878">
        <ele>45</ele>
        <time>2018-01-13T21:18:25Z</time>
      </trkpt>
      <trkpt lat="46.7565" lon="-1.68856">
        <ele>45</ele>
        <time>2018-01-13T21:19:25Z</time>
      </trkpt>
      <trkpt lat="46.75661" lon="-1.6884">
        <ele>44</ele>
        <time>2018-01-13T21:20:25Z</time>
      </trkpt>
      <trkpt lat="46.75661" lon="-1.6884">
        <ele>44</ele>
        <time>2018-01-13T21:21:25Z</time>
      </trkpt>
      <trkpt lat="46.75679" lon="-1.68854">
        <ele>44</ele>
        <time>2018-01-13T21:22:25Z</time>
      </trkpt>
      <trkpt lat="46.75701" lon="-1.68873">
        <ele>44</ele>
        <time>2018-01-13T21:23:25Z</time>
      </trkpt>
      <trkpt lat="46.75724" lon="-1.68893">
        <ele>44</ele>
        <time>2018-01-13T21:24:25Z</time>
      </trkpt>
      <trkpt lat="46.7574" lon="-1.68909">
        <ele>44</ele>
        <time>2018-01-13T21:25:25Z</time>
      </trkpt>
      <trkpt lat="46.75752" lon="-1.68923">
        <ele>44</ele>
        <time>2018-01-13T21:26:25Z</time>
      </trkpt>
      <trkpt lat="46.7576" lon="-1.68938">
        <ele>44</ele>
        <time>2018-01-13T21:27:25Z</time>
      </trkpt>
      <trkpt lat="46.75765" lon="-1.68944">
        <ele>44</ele>
        <time>2018-01-13T21:28:25Z</time>
      </trkpt>
      <trkpt lat="46.75768" lon="-1.68948">
        <ele>44</ele>
        <time>2018-01-13T21:29:25Z</time>
      </trkpt>
      <trkpt lat="46.75772" lon="-1.68954">
        <ele>44</ele>
        <time>2018-01-13T21:30:25Z</time>
      </trkpt>
      <trkpt lat="46.75778" lon="-1.68957">
        <ele>44</ele>
        <time>2018-01-13T21:31:25Z</time>
      </trkpt>
      <trkpt lat="46.75788" lon="-1.68962">
        <ele>44</ele>
        <time>2018-01-13T21:32:25Z</time>
      </trkpt>
      <trkpt lat="46.75802" lon="-1.68966">
        <ele>44</ele>
        <time>2018-01-13T21:33:25Z</time>
      </trkpt>
      <trkpt lat="46.75809" lon="-1.68969">
        <ele>44</ele>
        <time>2018-01-13T21:34:25Z</time>
      </trkpt>
      <trkpt lat="46.75814" lon="-1.68971">
        <ele>44</ele>
        <time>2018-01-13T21:35:25Z</time>
      </trkpt>
      <trkpt lat="46.75821" lon="-1.68976">
        <ele>44</ele>
        <time>2018-01-13T21:36:25Z</time>
      </trkpt>
      <trkpt lat="46.75833" lon="-1.68986">
        <ele>44</ele>
        <time>2018-01-13T21:37:25Z</time>
      </trkpt>
      <trkpt lat="46.75848" lon="-1.69004">
        <ele>45</ele>
        <time>2018-01-13T21:38:25Z</time>
      </trkpt>
      <trkpt lat="46.75871" lon="-1.69036">
        <ele>46</ele>
        <time>2018-01-13T21:39:25Z</time>
      </trkpt>
      <trkpt lat="46.75891" lon="-1.69061">
        <ele>48</ele>
        <time>2018-01-13T21:40:25Z</time>
      </trkpt>
      <trkpt lat="46.75903" lon="-1.69074">
        <ele>48</ele>
        <time>2018-01-13T21:41:25Z</time>
      </trkpt>
      <trkpt lat="46.75916" lon="-1.69085">
        <ele>48</ele>
        <time>2018-01-13T21:42:25Z</time>
      </trkpt>
      <trkpt lat="46.75927" lon="-1.69091">
        <ele>48</ele>
        <time>2018-01-13T21:43:25Z</time>
      </trkpt>
      <trkpt lat="46.75937" lon="-1.69095">
        <ele>48</ele>
        <time>2018-01-13T21:44:25Z</time>
      </trkpt>
      <trkpt lat="46.75945" lon="-1.69097">
        <ele>48</ele>
        <time>2018-01-13T21:45:25Z</time>
      </trkpt>
      <trkpt lat="46.75958" lon="-1.69101">
        <ele>48</ele>
        <time>2018-01-13T21:46:25Z</time>
      </trkpt>
      <trkpt lat="46.75971" lon="-1.69103">
        <ele>48</ele>
        <time>2018-01-13T21:47:25Z</time>
      </trkpt>
      <trkpt lat="46.76003" lon="-1.69106">
        <ele>49</ele>
        <time>2018-01-13T21:48:25Z</time>
      </trkpt>
      <trkpt lat="46.7601" lon="-1.69106">
        <ele>49</ele>
        <time>2018-01-13T21:49:25Z</time>
      </trkpt>
      <trkpt lat="46.76033" lon="-1.69109">
        <ele>49</ele>
        <time>2018-01-13T21:50:25Z</time>
      </trkpt>
      <trkpt lat="46.76063" lon="-1.69111">
        <ele>49</ele>
        <time>2018-01-13T21:51:25Z</time>
      </trkpt>
      <trkpt lat="46.76094" lon="-1.69113">
        <ele>49</ele>
        <time>2018-01-13T21:52:25Z</time>
      </trkpt>
      <trkpt lat="46.76117" lon="-1.69115">
        <ele>49</ele>
        <time>2018-01-13T21:53:25Z</time>
      </trkpt>
      <trkpt lat="46.76134" lon="-1.69117">
        <ele>49</ele>
        <time>2018-01-13T21:54:25Z</time>
      </trkpt>
      <trkpt lat="46.76141" lon="-1.69119">
        <ele>49</ele>
        <time>2018-01-13T21:55:25Z</time>
      </trkpt>
      <trkpt lat="46.76158" lon="-1.69125">
        <ele>49</ele>
        <time>2018-01-13T21:56:25Z</time>
      </trkpt>
      <trkpt lat="46.76176" lon="-1.69133">
        <ele>49</ele>
        <time>2018-01-13T21:57:25Z</time>
      </trkpt>
      <trkpt lat="46.76201" lon="-1.69145">
        <ele>49</ele>
        <time>2018-01-13T21:58:25Z</time>
      </trkpt>
      <trkpt lat="46.7622" lon="-1.69156">
        <ele>48</ele>
        <time>2018-01-13T21:59:25Z</time>
      </trkpt>
      <trkpt lat="46.76237" lon="-1.69167">
        <ele>47</ele>
        <time>2018-01-13T22:00:25Z</time>
      </trkpt>
      <trkpt lat="46.76259" lon="-1.69184">
        <ele>47</ele>
        <time>2018-01-13T22:01:25Z</time>
      </trkpt>
      <trkpt lat="46.76276" lon="-1.69196">
        <ele>47</ele>
        <time>2018-01-13T22:02:25Z</time>
      </trkpt>
      <trkpt lat="46.76292" lon="-1.69206">
        <ele>47</ele>
        <time>2018-01-13T22:03:25Z</time>
      </trkpt>
      <trkpt lat="46.76302" lon="-1.69211">
        <ele>47</ele>
        <time>2018-01-13T22:04:25Z</time>
      </trkpt>
      <trkpt lat="46.76312" lon="-1.69216">
        <ele>47</ele>
        <time>2018-01-13T22:05:25Z</time>
      </trkpt>
      <trkpt lat="46.76336" lon="-1.69224">
        <ele>47</ele>
        <time>2018-01-13T22:06:25Z</time>
      </trkpt>
      <trkpt lat="46.76361" lon="-1.69233">
        <ele>48</ele>
        <time>2018-01-13T22:07:25Z</time>
      </trkpt>
      <trkpt lat="46.76361" lon="-1.69233">
        <ele>48</ele>
        <time>2018-01-13T22:08:25Z</time>
      </trkpt>
      <trkpt lat="46.76376" lon="-1.69241">
        <ele>48</ele>
        <time>2018-01-13T22:09:25Z</time>
      </trkpt>
      <trkpt lat="46.76387" lon="-1.69251">
        <ele>48</ele>
        <time>2018-01-13T22:10:25Z</time>
      </trkpt>
      <trkpt lat="46.76399" lon="-1.69265">
        <ele>49</ele>
        <time>2018-01-13T22:11:25Z</time>
      </trkpt>
      <trkpt lat="46.76405" lon="-1.69277">
        <ele>49</ele>
        <time>2018-01-13T22:12:25Z</time>
      </trkpt>
      <trkpt lat="46.76414" lon="-1.69294">
        <ele>49</ele>
        <time>2018-01-13T22:13:25Z</time>
      </trkpt>
      <trkpt lat="46.7644" lon="-1.69357">
        <ele>49</ele>
        <time>2018-01-13T22:14:25Z</time>
      </trkpt>
      <trkpt lat="46.7645" lon="-1.69384">
        <ele>49</ele>
        <time>2018-01-13T22:15:25Z</time>
      </trkpt>
      <trkpt lat="46.76473" lon="-1.69442">
        <ele>49</ele>
        <time>2018-01-13T22:16:25Z</time>
      </trkpt>
      <trkpt lat="46.76494" lon="-1.69491">
        <ele>49</ele>
        <time>2018-01-13T22:17:25Z</time>
      </trkpt>
      <trkpt lat="46.76509" lon="-1.69531">
        <ele>49</ele>
        <time>2018-01-13T22:18:25Z</time>
      </trkpt>
      <trkpt lat="46.76523" lon="-1.69574">
        <ele>50</ele>
        <time>2018-01-13T22:19:25Z</time>
      </trkpt>
      <trkpt lat="46.76541" lon="-1.69615">
        <ele>50</ele>
        <time>2018-01-13T22:20:25Z</time>
      </trkpt>
      <trkpt lat="46.76556" lon="-1.6965">
        <ele>50</ele>
        <time>2018-01-13T22:21:25Z</time>
      </trkpt>
      <trkpt lat="46.76568" lon="-1.69675">
        <ele>50</ele>
        <time>2018-01-13T22:22:25Z</time>
      </trkpt>
      <trkpt lat="46.76568" lon="-1.69675">
        <ele>50</ele>
        <time>2018-01-13T22:23:25Z</time>
      </trkpt>
      <trkpt lat="46.76575" lon="-1.69689">
        <ele>50</ele>
        <time>2018-01-13T22:24:25Z</time>
      </trkpt>
      <trkpt lat="46.76586" lon="-1.69706">
        <ele>50</ele>
        <time>2018-01-13T22:25:25Z</time>
      </trkpt>
      <trkpt lat="46.76606" lon="-1.6973">
        <ele>49</ele>
        <time>2018-01-13T22:26:25Z</time>
      </trkpt>
      <trkpt lat="46.76631" lon="-1.6976">
        <ele>49</ele>
        <time>2018-01-13T22:27:25Z</time>
      </trkpt>
      <trkpt lat="46.76652" lon="-1.69783">
        <ele>49</ele>
        <time>2018-01-13T22:28:25Z</time>
      </trkpt>
      <trkpt lat="46.76673" lon="-1.69808">
        <ele>48</ele>
        <time>2018-01-13T22:29:25Z</time>
      </trkpt>
      <trkpt lat="46.76686" lon="-1.69826">
        <ele>48</ele>
        <time>2018-01-13T22:30:25Z</time>
      </trkpt>
      <trkpt lat="46.76699" lon="-1.69853">
        <ele>47</ele>
        <time>2018-01-13T22:31:25Z</time>
      </trkpt>
      <trkpt lat="46.76709" lon="-1.69874">
        <ele>46</ele>
        <time>2018-01-13T22:32:25Z</time>
      </trkpt>
      <trkpt lat="46.76721" lon="-1.69888">
        <ele>46</ele>
        <time>2018-01-13T22:33:25Z</time>
      </trkpt>
      <trkpt lat="46.76742" lon="-1.69906">
        <ele>45</ele>
        <time>2018-01-13T22:34:25Z</time>
      </trkpt>
      <trkpt lat="46.76767" lon="-1.69923">
        <ele>43</ele>
        <time>2018-01-13T22:35:25Z</time>
      </trkpt>
      <trkpt lat="46.76791" lon="-1.69943">
        <ele>41</ele>
        <time>2018-01-13T22:36:25Z</time>
      </trkpt>
      <trkpt lat="46.76813" lon="-1.69964">
        <ele>40</ele>
        <time>2018-01-13T22:37:25Z</time>
      </trkpt>
      <trkpt lat="46.76826" lon="-1.69979">
        <ele>39</ele>
        <time>2018-01-13T22:38:25Z</time>
      </trkpt>
      <trkpt lat="46.76837" lon="-1.69998">
        <ele>38</ele>
        <time>2018-01-13T22:39:25Z</time>
      </trkpt>
      <trkpt lat="46.76844" lon="-1.70011">
        <ele>37</ele>
        <time>2018-01-13T22:40:25Z</time>
      </trkpt>
      <trkpt lat="46.76852" lon="-1.7003">
        <ele>37</ele>
        <time>2018-01-13T22:41:25Z</time>
      </trkpt>
      <trkpt lat="46.76852" lon="-1.70032">
        <ele>37</ele>
        <time>2018-01-13T22:42:25Z</time>
      </trkpt>
      <trkpt lat="46.76865" lon="-1.70059">
        <ele>36</ele>
        <time>2018-01-13T22:43:25Z</time>
      </trkpt>
      <trkpt lat="46.76881" lon="-1.70101">
        <ele>34</ele>
        <time>2018-01-13T22:44:25Z</time>
      </trkpt>
      <trkpt lat="46.76889" lon="-1.7012">
        <ele>34</ele>
        <time>2018-01-13T22:45:25Z</time>
      </trkpt>
      <trkpt lat="46.76898" lon="-1.70139">
        <ele>33</ele>
        <time>2018-01-13T22:46:25Z</time>
      </trkpt>
      <trkpt lat="46.76907" lon="-1.70157">
        <ele>32</ele>
        <time>2018-01-13T22:47:25Z</time>
      </trkpt>
      <trkpt lat="46.76917" lon="-1.70174">
        <ele>32</ele>
        <time>2018-01-13T22:48:25Z</time>
      </trkpt>
      <trkpt lat="46.76928" lon="-1.7019">
        <ele>33</ele>
        <time>2018-01-13T22:49:25Z</time>
      </trkpt>
      <trkpt lat="46.76946" lon="-1.70215">
        <ele>34</ele>
        <time>2018-01-13T22:50:25Z</time>
      </trkpt>
      <trkpt lat="46.76959" lon="-1.70235">
        <ele>34</ele>
        <time>2018-01-13T22:51:25Z</time>
      </trkpt>
      <trkpt lat="46.76976" lon="-1.70258">
        <ele>34</ele>
        <time>2018-01-13T22:52:25Z</time>
      </trkpt>
      <trkpt lat="46.76998" lon="-1.7029">
        <ele>33</ele>
        <time>2018-01-13T22:53:25Z</time>
      </trkpt>
      <trkpt lat="46.77025" lon="-1.70328">
        <ele>33</ele>
        <time>2018-01-13T22:54:25Z</time>
      </trkpt>
      <trkpt lat="46.77029" lon="-1.70336">
        <ele>33</ele>
        <time>2018-01-13T22:55:25Z</time>
      </trkpt>
      <trkpt lat="46.77048" lon="-1.70363">
        <ele>33</ele>
        <time>2018-01-13T22:56:25Z</time>
      </trkpt>
      <trkpt lat="46.77066" lon="-1.70392">
        <ele>33</ele>
        <time>2018-01-13T22:57:25Z</time>
      </trkpt>
      <trkpt lat="46.77095" lon="-1.70436">
        <ele>34</ele>
        <time>2018-01-13T22:58:25Z</time>
      </trkpt>
      <trkpt lat="46.77128" lon="-1.70486">
        <ele>36</ele>
        <time>2018-01-13T22:59:25Z</time>
      </trkpt>
      <trkpt lat="46.77143" lon="-1.70511">
        <ele>37</ele>
        <time>2018-01-13T23:00:25Z</time>
      </trkpt>
      <trkpt lat="46.77155" lon="-1.70536">
        <ele>39</ele>
        <time>2018-01-13T23:01:25Z</time>
      </trkpt>
      <trkpt lat="46.77168" lon="-1.70566">
        <ele>40</ele>
        <time>2018-01-13T23:02:25Z</time>
      </trkpt>
      <trkpt lat="46.77176" lon="-1.70585">
        <ele>40</ele>
        <time>2018-01-13T23:03:25Z</time>
      </trkpt>
      <trkpt lat="46.77176" lon="-1.70585">
        <ele>40</ele>
        <time>2018-01-13T23:04:25Z</time>
      </trkpt>
      <trkpt lat="46.77182" lon="-1.70603">
        <ele>41</ele>
        <time>2018-01-13T23:05:25Z</time>
      </trkpt>
      <trkpt lat="46.77198" lon="-1.70647">
        <ele>42</ele>
        <time>2018-01-13T23:06:25Z</time>
      </trkpt>
      <trkpt lat="46.77209" lon="-1.7068">
        <ele>43</ele>
        <time>2018-01-13T23:07:25Z</time>
      </trkpt>
      <trkpt lat="46.77214" lon="-1.70697">
        <ele>44</ele>
        <time>2018-01-13T23:08:25Z</time>
      </trkpt>
      <trkpt lat="46.77219" lon="-1.70708">
        <ele>44</ele>
        <time>2018-01-13T23:09:25Z</time>
      </trkpt>
      <trkpt lat="46.77226" lon="-1.70725">
        <ele>44</ele>
        <time>2018-01-13T23:10:25Z</time>
      </trkpt>
      <trkpt lat="46.77237" lon="-1.70741">
        <ele>45</ele>
        <time>2018-01-13T23:11:25Z</time>
      </trkpt>
      <trkpt lat="46.77259" lon="-1.70774">
        <ele>46</ele>
        <time>2018-01-13T23:12:25Z</time>
      </trkpt>
      <trkpt lat="46.77312" lon="-1.70853">
        <ele>49</ele>
        <time>2018-01-13T23:13:25Z</time>
      </trkpt>
      <trkpt lat="46.77332" lon="-1.70884">
        <ele>50</ele>
        <time>2018-01-13T23:14:25Z</time>
      </trkpt>
      <trkpt lat="46.77345" lon="-1.70904">
        <ele>50</ele>
        <time>2018-01-13T23:15:25Z</time>
      </trkpt>
      <trkpt lat="46.77357" lon="-1.70925">
        <ele>50</ele>
        <time>2018-01-13T23:16:25Z</time>
      </trkpt>
      <trkpt lat="46.77374" lon="-1.70959">
        <ele>50</ele>
        <time>2018-01-13T23:17:25Z</time>
      </trkpt>
      <trkpt lat="46.77398" lon="-1.7102">
        <ele>51</ele>
        <time>2018-01-13T23:18:25Z</time>
      </trkpt>
      <trkpt lat="46.77422" lon="-1.71077">
        <ele>52</ele>
        <time>2018-01-13T23:19:25Z</time>
      </trkpt>
      <trkpt lat="46.77431" lon="-1.71098">
        <ele>52</ele>
        <time>2018-01-13T23:20:25Z</time>
      </trkpt>
      <trkpt lat="46.77439" lon="-1.71114">
        <ele>53</ele>
        <time>2018-01-13T23:21:25Z</time>
      </trkpt>
      <trkpt lat="46.77444" lon="-1.71126">
        <ele>53</ele>
        <time>2018-01-13T23:22:25Z</time>
      </trkpt>
      <trkpt lat="46.77458" lon="-1.71149">
        <ele>54</ele>
        <time>2018-01-13T23:23:25Z</time>
      </trkpt>
      <trkpt lat="46.77467" lon="-1.71165">
        <ele>54</ele>
        <time>2018-01-13T23:24:25Z</time>
      </trkpt>
      <trkpt lat="46.77467" lon="-1.71165">
        <ele>54</ele>
        <time>2018-01-13T23:25:25Z</time>
      </trkpt>
      <trkpt lat="46.7748" lon="-1.71185">
        <ele>54</ele>
        <time>2018-01-13T23:26:25Z</time>
      </trkpt>
      <trkpt lat="46.77487" lon="-1.71194">
        <ele>54</ele>
        <time>2018-01-13T23:27:25Z</time>
      </trkpt>
      <trkpt lat="46.77494" lon="-1.71204">
        <ele>54</ele>
        <time>2018-01-13T23:28:25Z</time>
      </trkpt>
      <trkpt lat="46.775" lon="-1.71213">
        <ele>55</ele>
        <time>2018-01-13T23:29:25Z</time>
      </trkpt>
      <trkpt lat="46.77514" lon="-1.7123">
        <ele>55</ele>
        <time>2018-01-13T23:30:25Z</time>
      </trkpt>
      <trkpt lat="46.77535" lon="-1.71255">
        <ele>54</ele>
        <time>2018-01-13T23:31:25Z</time>
      </trkpt>
      <trkpt lat="46.77563" lon="-1.71289">
        <ele>53</ele>
        <time>2018-01-13T23:32:25Z</time>
      </trkpt>
      <trkpt lat="46.7759" lon="-1.71321">
        <ele>52</ele>
        <time>2018-01-13T23:33:25Z</time>
      </trkpt>
      <trkpt lat="46.77606" lon="-1.7134">
        <ele>52</ele>
        <time>2018-01-13T23:34:25Z</time>
      </trkpt>
      <trkpt lat="46.77627" lon="-1.71365">
        <ele>52</ele>
        <time>2018-01-13T23:35:25Z</time>
      </trkpt>
      <trkpt lat="46.77646" lon="-1.71391">
        <ele>52</ele>
        <time>2018-01-13T23:36:25Z</time>
      </trkpt>
      <trkpt lat="46.77658" lon="-1.71408">
        <ele>52</ele>
        <time>2018-01-13T23:37:25Z</time>
      </trkpt>
      <trkpt lat="46.77675" lon="-1.71434">
        <ele>52</ele>
        <time>2018-01-13T23:38:25Z</time>
      </trkpt>
      <trkpt lat="46.77685" lon="-1.71452">
        <ele>52</ele>
        <time>2018-01-13T23:39:25Z</time>
      </trkpt>
      <trkpt lat="46.77695" lon="-1.71471">
        <ele>52</ele>
        <time>2018-01-13T23:40:25Z</time>
      </trkpt>
      <trkpt lat="46.77707" lon="-1.71499">
        <ele>52</ele>
        <time>2018-01-13T23:41:25Z</time>
      </trkpt>
      <trkpt lat="46.77707" lon="-1.71499">
        <ele>52</ele>
        <time>2018-01-13T23:42:25Z</time>
      </trkpt>
      <trkpt lat="46.77715" lon="-1.71518">
        <ele>52</ele>
        <time>2018-01-13T23:43:25Z</time>
      </trkpt>
      <trkpt lat="46.77735" lon="-1.71574">
        <ele>52</ele>
        <time>2018-01-13T23:44:25Z</time>
      </trkpt>
      <trkpt lat="46.77747" lon="-1.716">
        <ele>52</ele>
        <time>2018-01-13T23:45:25Z</time>
      </trkpt>
      <trkpt lat="46.77755" lon="-1.71617">
        <ele>51</ele>
        <time>2018-01-13T23:46:25Z</time>
      </trkpt>
      <trkpt lat="46.77769" lon="-1.71642">
        <ele>50</ele>
        <time>2018-01-13T23:47:25Z</time>
      </trkpt>
      <trkpt lat="46.77793" lon="-1.71682">
        <ele>48</ele>
        <time>2018-01-13T23:48:25Z</time>
      </trkpt>
      <trkpt lat="46.77813" lon="-1.71715">
        <ele>47</ele>
        <time>2018-01-13T23:49:25Z</time>
      </trkpt>
      <trkpt lat="46.77829" lon="-1.71739">
        <ele>46</ele>
        <time>2018-01-13T23:50:25Z</time>
      </trkpt>
      <trkpt lat="46.77842" lon="-1.71759">
        <ele>46</ele>
        <time>2018-01-13T23:51:25Z</time>
      </trkpt>
      <trkpt lat="46.77848" lon="-1.71768">
        <ele>45</ele>
        <time>2018-01-13T23:52:25Z</time>
      </trkpt>
      <trkpt lat="46.77855" lon="-1.7178">
        <ele>45</ele>
        <time>2018-01-13T23:53:25Z</time>
      </trkpt>
      <trkpt lat="46.77902" lon="-1.71851">
        <ele>45</ele>
        <time>2018-01-13T23:54:25Z</time>
      </trkpt>
      <trkpt lat="46.7791" lon="-1.71862">
        <ele>45</ele>
        <time>2018-01-13T23:55:25Z</time>
      </trkpt>
      <trkpt lat="46.77916" lon="-1.7187">
        <ele>45</ele>
        <time>2018-01-13T23:56:25Z</time>
      </trkpt>
      <trkpt lat="46.77919" lon="-1.71874">
        <ele>45</ele>
        <time>2018-01-13T23:57:25Z</time>
      </trkpt>
      <trkpt lat="46.77922" lon="-1.71877">
        <ele>46</ele>
        <time>2018-01-13T23:58:25Z</time>
      </trkpt>
      <trkpt lat="46.77926" lon="-1.71878">
        <ele>46</ele>
        <time>2018-01-13T23:59:25Z</time>
      </trkpt>
      <trkpt lat="46.7793" lon="-1.71879">
        <ele>46</ele>
        <time>2018-01-14T00:00:25Z</time>
      </trkpt>
      <trkpt lat="46.77932" lon="-1.71879">
        <ele>46</ele>
        <time>2018-01-14T00:01:25Z</time>
      </trkpt>
      <trkpt lat="46.77936" lon="-1.71878">
        <ele>46</ele>
        <time>2018-01-14T00:02:25Z</time>
      </trkpt>
      <trkpt lat="46.7794" lon="-1.71876">
        <ele>46</ele>
        <time>2018-01-14T00:03:25Z</time>
      </trkpt>
      <trkpt lat="46.77956" lon="-1.71862">
        <ele>46</ele>
        <time>2018-01-14T00:04:25Z</time>
      </trkpt>
      <trkpt lat="46.77966" lon="-1.71851">
        <ele>45</ele>
        <time>2018-01-14T00:05:25Z</time>
      </trkpt>
      <trkpt lat="46.77979" lon="-1.71836">
        <ele>45</ele>
        <time>2018-01-14T00:06:25Z</time>
      </trkpt>
      <trkpt lat="46.77989" lon="-1.71824">
        <ele>45</ele>
        <time>2018-01-14T00:07:25Z</time>
      </trkpt>
      <trkpt lat="46.78002" lon="-1.71803">
        <ele>44</ele>
        <time>2018-01-14T00:08:25Z</time>
      </trkpt>
      <trkpt lat="46.78014" lon="-1.71779">
        <ele>44</ele>
        <time>2018-01-14T00:09:25Z</time>
      </trkpt>
      <trkpt lat="46.78014" lon="-1.71779">
        <ele>44</ele>
        <time>2018-01-14T00:10:25Z</time>
      </trkpt>
      <trkpt lat="46.78032" lon="-1.71743">
        <ele>43</ele>
        <time>2018-01-14T00:11:25Z</time>
      </trkpt>
      <trkpt lat="46.7804" lon="-1.7173">
        <ele>43</ele>
        <time>2018-01-14T00:12:25Z</time>
      </trkpt>
      <trkpt lat="46.78048" lon="-1.71716">
        <ele>43</ele>
        <time>2018-01-14T00:13:25Z</time>
      </trkpt>
      <trkpt lat="46.78058" lon="-1.71705">
        <ele>42</ele>
        <time>2018-01-14T00:14:25Z</time>
      </trkpt>
      <trkpt lat="46.78069" lon="-1.71695">
        <ele>42</ele>
        <time>2018-01-14T00:15:25Z</time>
      </trkpt>
      <trkpt lat="46.7808" lon="-1.71686">
        <ele>42</ele>
        <time>2018-01-14T00:16:25Z</time>
      </trkpt>
      <trkpt lat="46.78099" lon="-1.71673">
        <ele>41</ele>
        <time>2018-01-14T00:17:25Z</time>
      </trkpt>
      <trkpt lat="46.78124" lon="-1.71656">
        <ele>41</ele>
        <time>2018-01-14T00:18:25Z</time>
      </trkpt>
      <trkpt lat="46.78137" lon="-1.71646">
        <ele>41</ele>
        <time>2018-01-14T00:19:25Z</time>
      </trkpt>
      <trkpt lat="46.78142" lon="-1.7164">
        <ele>41</ele>
        <time>2018-01-14T00:20:25Z</time>
      </trkpt>
      <trkpt lat="46.78148" lon="-1.71634">
        <ele>41</ele>
        <time>2018-01-14T00:21:25Z</time>
      </trkpt>
      <trkpt lat="46.78153" lon="-1.71628">
        <ele>41</ele>
        <time>2018-01-14T00:22:25Z</time>
      </trkpt>
      <trkpt lat="46.78166" lon="-1.71606">
        <ele>40</ele>
        <time>2018-01-14T00:23:25Z</time>
      </trkpt>
      <trkpt lat="46.78171" lon="-1.71599">
        <ele>40</ele>
        <time>2018-01-14T00:24:25Z</time>
      </trkpt>
      <trkpt lat="46.78177" lon="-1.71592">
        <ele>40</ele>
        <time>2018-01-14T00:25:25Z</time>
      </trkpt>
      <trkpt lat="46.78182" lon="-1.71585">
        <ele>40</ele>
        <time>2018-01-14T00:26:25Z</time>
      </trkpt>
      <trkpt lat="46.78188" lon="-1.7158">
        <ele>40</ele>
        <time>2018-01-14T00:27:25Z</time>
      </trkpt>
      <trkpt lat="46.78195" lon="-1.71574">
        <ele>40</ele>
        <time>2018-01-14T00:28:25Z</time>
      </trkpt>
      <trkpt lat="46.78207" lon="-1.71565">
        <ele>39</ele>
        <time>2018-01-14T00:29:25Z</time>
      </trkpt>
      <trkpt lat="46.78214" lon="-1.71561">
        <ele>39</ele>
        <time>2018-01-14T00:30:25Z</time>
      </trkpt>
      <trkpt lat="46.78226" lon="-1.71556">
        <ele>39</ele>
        <time>2018-01-14T00:31:25Z</time>
      </trkpt>
      <trkpt lat="46.78235" lon="-1.71555">
        <ele>39</ele>
        <time>2018-01-14T00:32:25Z</time>
      </trkpt>
      <trkpt lat="46.78242" lon="-1.71554">
        <ele>39</ele>
        <time>2018-01-14T00:33:25Z</time>
      </trkpt>
      <trkpt lat="46.7825" lon="-1.71555">
        <ele>39</ele>
        <time>2018-01-14T00:34:25Z</time>
      </trkpt>
      <trkpt lat="46.78264" lon="-1.71558">
        <ele>39</ele>
        <time>2018-01-14T00:35:25Z</time>
      </trkpt>
      <trkpt lat="46.78286" lon="-1.71569">
        <ele>40</ele>
        <time>2018-01-14T00:36:25Z</time>
      </trkpt>
      <trkpt lat="46.78329" lon="-1.71596">
        <ele>43</ele>
        <time>2018-01-14T00:37:25Z</time>
      </trkpt>
      <trkpt lat="46.78343" lon="-1.71604">
        <ele>43</ele>
        <time>2018-01-14T00:38:25Z</time>
      </trkpt>
      <trkpt lat="46.78394" lon="-1.71635">
        <ele>44</ele>
        <time>2018-01-14T00:39:25Z</time>
      </trkpt>
      <trkpt lat="46.78417" lon="-1.71651">
        <ele>45</ele>
        <time>2018-01-14T00:40:25Z</time>
      </trkpt>
      <trkpt lat="46.78461" lon="-1.71683">
        <ele>46</ele>
        <time>2018-01-14T00:41:25Z</time>
      </trkpt>
      <trkpt lat="46.78496" lon="-1.71709">
        <ele>47</ele>
        <time>2018-01-14T00:42:25Z</time>
      </trkpt>
      <trkpt lat="46.78506" lon="-1.71714">
        <ele>47</ele>
        <time>2018-01-14T00:43:25Z</time>
      </trkpt>
      <trkpt lat="46.78524" lon="-1.71722">
        <ele>47</ele>
        <time>2018-01-14T00:44:25Z</time>
      </trkpt>
      <trkpt lat="46.78548" lon="-1.7173">
        <ele>48</ele>
        <time>2018-01-14T00:45:25Z</time>
      </trkpt>
      <trkpt lat="46.78589" lon="-1.71744">
        <ele>48</ele>
        <time>2018-01-14T00:46:25Z</time>
      </trkpt>
      <trkpt lat="46.78646" lon="-1.71762">
        <ele>47</ele>
        <time>2018-01-14T00:47:25Z</time>
      </trkpt>
      <trkpt lat="46.78646" lon="-1.71762">
        <ele>47</ele>
        <time>2018-01-14T00:48:25Z</time>
      </trkpt>
      <trkpt lat="46.78631" lon="-1.71864">
        <ele>48</ele>
        <time>2018-01-14T00:49:25Z</time>
      </trkpt>
      <trkpt lat="46.78613" lon="-1.71983">
        <ele>49</ele>
        <time>2018-01-14T00:50:25Z</time>
      </trkpt>
      <trkpt lat="46.78608" lon="-1.7203">
        <ele>49</ele>
        <time>2018-01-14T00:51:25Z</time>
      </trkpt>
      <trkpt lat="46.78605" lon="-1.72056">
        <ele>49</ele>
        <time>2018-01-14T00:52:25Z</time>
      </trkpt>
      <trkpt lat="46.78603" lon="-1.72087">
        <ele>50</ele>
        <time>2018-01-14T00:53:25Z</time>
      </trkpt>
      <trkpt lat="46.78599" lon="-1.72138">
        <ele>49</ele>
        <time>2018-01-14T00:54:25Z</time>
      </trkpt>
      <trkpt lat="46.78597" lon="-1.72175">
        <ele>49</ele>
        <time>2018-01-14T00:55:25Z</time>
      </trkpt>
      <trkpt lat="46.78591" lon="-1.72291">
        <ele>49</ele>
        <time>2018-01-14T00:56:25Z</time>
      </trkpt>
      <trkpt lat="46.78586" lon="-1.72381">
        <ele>49</ele>
        <time>2018-01-14T00:57:25Z</time>
      </trkpt>
      <trkpt lat="46.7858" lon="-1.72481">
        <ele>49</ele>
        <time>2018-01-14T00:58:25Z</time>
      </trkpt>
      <trkpt lat="46.78576" lon="-1.72562">
        <ele>49</ele>
        <time>2018-01-14T00:59:25Z</time>
      </trkpt>
      <trkpt lat="46.78571" lon="-1.72641">
        <ele>49</ele>
        <time>2018-01-14T01:00:25Z</time>
      </trkpt>
      <trkpt lat="46.7857" lon="-1.72658">
        <ele>49</ele>
        <time>2018-01-14T01:01:25Z</time>
      </trkpt>
      <trkpt lat="46.78569" lon="-1.72677">
        <ele>49</ele>
        <time>2018-01-14T01:02:25Z</time>
      </trkpt>
      <trkpt lat="46.78569" lon="-1.7268">
        <ele>49</ele>
        <time>2018-01-14T01:03:25Z</time>
      </trkpt>
      <trkpt lat="46.78567" lon="-1.72701">
        <ele>49</ele>
        <time>2018-01-14T01:04:25Z</time>
      </trkpt>
      <trkpt lat="46.78566" lon="-1.72721">
        <ele>49</ele>
        <time>2018-01-14T01:05:25Z</time>
      </trkpt>
      <trkpt lat="46.78564" lon="-1.72735">
        <ele>49</ele>
        <time>2018-01-14T01:06:25Z</time>
      </trkpt>
      <trkpt lat="46.78563" lon="-1.72748">
        <ele>49</ele>
        <time>2018-01-14T01:07:25Z</time>
      </trkpt>
      <trkpt lat="46.78561" lon="-1.72761">
        <ele>49</ele>
        <time>2018-01-14T01:08:25Z</time>
      </trkpt>
      <trkpt lat="46.78559" lon="-1.72776">
        <ele>49</ele>
        <time>2018-01-14T01:09:25Z</time>
      </trkpt>
      <trkpt lat="46.78556" lon="-1.72797">
        <ele>49</ele>
        <time>2018-01-14T01:10:25Z</time>
      </trkpt>
      <trkpt lat="46.78551" lon="-1.72824">
        <ele>49</ele>
        <time>2018-01-14T01:11:25Z</time>
      </trkpt>
      <trkpt lat="46.78548" lon="-1.72842">
        <ele>49</ele>
        <time>2018-01-14T01:12:25Z</time>
      </trkpt>
      <trkpt lat="46.78545" lon="-1.72862">
        <ele>50</ele>
        <time>2018-01-14T01:13:25Z</time>
      </trkpt>
      <trkpt lat="46.78526" lon="-1.7299">
        <ele>51</ele>
        <time>2018-01-14T01:14:25Z</time>
      </trkpt>
      <trkpt lat="46.78509" lon="-1.73095">
        <ele>51</ele>
        <time>2018-01-14T01:15:25Z</time>
      </trkpt>
      <trkpt lat="46.78498" lon="-1.73169">
        <ele>51</ele>
        <time>2018-01-14T01:16:25Z</time>
      </trkpt>
      <trkpt lat="46.78494" lon="-1.73195">
        <ele>51</ele>
        <time>2018-01-14T01:17:25Z</time>
      </trkpt>
      <trkpt lat="46.78494" lon="-1.73195">
        <ele>51</ele>
        <time>2018-01-14T01:18:25Z</time>
      </trkpt>
      <trkpt lat="46.78488" lon="-1.73237">
        <ele>50</ele>
        <time>2018-01-14T01:19:25Z</time>
      </trkpt>
      <trkpt lat="46.78485" lon="-1.73259">
        <ele>50</ele>
        <time>2018-01-14T01:20:25Z</time>
      </trkpt>
      <trkpt lat="46.78484" lon="-1.73268">
        <ele>51</ele>
        <time>2018-01-14T01:21:25Z</time>
      </trkpt>
      <trkpt lat="46.78482" lon="-1.73279">
        <ele>51</ele>
        <time>2018-01-14T01:22:25Z</time>
      </trkpt>
      <trkpt lat="46.78482" lon="-1.73291">
        <ele>51</ele>
        <time>2018-01-14T01:23:25Z</time>
      </trkpt>
      <trkpt lat="46.78481" lon="-1.73304">
        <ele>51</ele>
        <time>2018-01-14T01:24:25Z</time>
      </trkpt>
      <trkpt lat="46.78479" lon="-1.73343">
        <ele>52</ele>
        <time>2018-01-14T01:25:25Z</time>
      </trkpt>
      <trkpt lat="46.78477" lon="-1.73414">
        <ele>52</ele>
        <time>2018-01-14T01:26:25Z</time>
      </trkpt>
      <trkpt lat="46.78476" lon="-1.73484">
        <ele>52</ele>
        <time>2018-01-14T01:27:25Z</time>
      </trkpt>
      <trkpt lat="46.78475" lon="-1.7354">
        <ele>52</ele>
        <time>2018-01-14T01:28:25Z</time>
      </trkpt>
      <trkpt lat="46.78475" lon="-1.73641">
        <ele>52</ele>
        <time>2018-01-14T01:29:25Z</time>
      </trkpt>
      <trkpt lat="46.78475" lon="-1.73703">
        <ele>52</ele>
        <time>2018-01-14T01:30:25Z</time>
      </trkpt>
      <trkpt lat="46.78474" lon="-1.73757">
        <ele>52</ele>
        <time>2018-01-14T01:31:25Z</time>
      </trkpt>
      <trkpt lat="46.78474" lon="-1.73793">
        <ele>52</ele>
        <time>2018-01-14T01:32:25Z</time>
      </trkpt>
      <trkpt lat="46.78475" lon="-1.73816">
        <ele>52</ele>
        <time>2018-01-14T01:33:25Z</time>
      </trkpt>
      <trkpt lat="46.78477" lon="-1.73831">
        <ele>52</ele>
        <time>2018-01-14T01:34:25Z</time>
      </trkpt>
      <trkpt lat="46.78481" lon="-1.73888">
        <ele>52</ele>
        <time>2018-01-14T01:35:25Z</time>
      </trkpt>
      <trkpt lat="46.78489" lon="-1.73967">
        <ele>51</ele>
        <time>2018-01-14T01:36:25Z</time>
      </trkpt>
      <trkpt lat="46.78504" lon="-1.74108">
        <ele>52</ele>
        <time>2018-01-14T01:37:25Z</time>
      </trkpt>
      <trkpt lat="46.78516" lon="-1.74225">
        <ele>52</ele>
        <time>2018-01-14T01:38:25Z</time>
      </trkpt>
      <trkpt lat="46.78528" lon="-1.74334">
        <ele>53</ele>
        <time>2018-01-14T01:39:25Z</time>
      </trkpt>
      <trkpt lat="46.78532" lon="-1.74373">
        <ele>53</ele>
        <time>2018-01-14T01:40:25Z</time>
      </trkpt>
      <trkpt lat="46.78547" lon="-1.74518">
        <ele>53</ele>
        <time>2018-01-14T01:41:25Z</time>
      </trkpt>
      <trkpt lat="46.78554" lon="-1.7458">
        <ele>51</ele>
        <time>2018-01-14T01:42:25Z</time>
      </trkpt>
      <trkpt lat="46.7856" lon="-1.74634">
        <ele>51</ele>
        <time>2018-01-14T01:43:25Z</time>
      </trkpt>
      <trkpt lat="46.78568" lon="-1.74709">
        <ele>51</ele>
        <time>2018-01-14T01:44:25Z</time>
      </trkpt>
      <trkpt lat="46.78574" lon="-1.7477">
        <ele>51</ele>
        <time>2018-01-14T01:45:25Z</time>
      </trkpt>
      <trkpt lat="46.78576" lon="-1.74794">
        <ele>51</ele>
        <time>2018-01-14T01:46:25Z</time>
      </trkpt>
      <trkpt lat="46.78577" lon="-1.74814">
        <ele>50</ele>
        <time>2018-01-14T01:47:25Z</time>
      </trkpt>
      <trkpt lat="46.78577" lon="-1.74832">
        <ele>50</ele>
        <time>2018-01-14T01:48:25Z</time>
      </trkpt>
      <trkpt lat="46.78578" lon="-1.74838">
        <ele>50</ele>
        <time>2018-01-14T01:49:25Z</time>
      </trkpt>
      <trkpt lat="46.78577" lon="-1.74847">
        <ele>50</ele>
        <time>2018-01-14T01:50:25Z</time>
      </trkpt>
      <trkpt lat="46.78577" lon="-1.74855">
        <ele>50</ele>
        <time>2018-01-14T01:51:25Z</time>
      </trkpt>
      <trkpt lat="46.78576" lon="-1.74865">
        <ele>50</ele>
        <time>2018-01-14T01:52:25Z</time>
      </trkpt>
      <trkpt lat="46.78575" lon="-1.74872">
        <ele>50</ele>
        <time>2018-01-14T01:53:25Z</time>
      </trkpt>
      <trkpt lat="46.78573" lon="-1.74882">
        <ele>50</ele>
        <time>2018-01-14T01:54:25Z</time>
      </trkpt>
      <trkpt lat="46.78566" lon="-1.74925">
        <ele>50</ele>
        <time>2018-01-14T01:55:25Z</time>
      </trkpt>
      <trkpt lat="46.7855" lon="-1.75001">
        <ele>49</ele>
        <time>2018-01-14T01:56:25Z</time>
      </trkpt>
      <trkpt lat="46.78547" lon="-1.7502">
        <ele>49</ele>
        <time>2018-01-14T01:57:25Z</time>
      </trkpt>
      <trkpt lat="46.78532" lon="-1.7509">
        <ele>49</ele>
        <time>2018-01-14T01:58:25Z</time>
      </trkpt>
      <trkpt lat="46.78528" lon="-1.75115">
        <ele>48</ele>
        <time>2018-01-14T01:59:25Z</time>
      </trkpt>
      <trkpt lat="46.78511" lon="-1.75198">
        <ele>48</ele>
        <time>2018-01-14T02:00:25Z</time>
      </trkpt>
      <trkpt lat="46.78505" lon="-1.7523">
        <ele>49</ele>
        <time>2018-01-14T02:01:25Z</time>
      </trkpt>
      <trkpt lat="46.7848" lon="-1.75352">
        <ele>49</ele>
        <time>2018-01-14T02:02:25Z</time>
      </trkpt>
      <trkpt lat="46.78473" lon="-1.75387">
        <ele>49</ele>
        <time>2018-01-14T02:03:25Z</time>
      </trkpt>
      <trkpt lat="46.78459" lon="-1.75455">
        <ele>48</ele>
        <time>2018-01-14T02:04:25Z</time>
      </trkpt>
      <trkpt lat="46.78448" lon="-1.75511">
        <ele>48</ele>
        <time>2018-01-14T02:05:25Z</time>
      </trkpt>
      <trkpt lat="46.7844" lon="-1.75543">
        <ele>47</ele>
        <time>2018-01-14T02:06:25Z</time>
      </trkpt>
      <trkpt lat="46.78435" lon="-1.7556">
        <ele>47</ele>
        <time>2018-01-14T02:07:25Z</time>
      </trkpt>
      <trkpt lat="46.78429" lon="-1.75576">
        <ele>46</ele>
        <time>2018-01-14T02:08:25Z</time>
      </trkpt>
      <trkpt lat="46.78416" lon="-1.75611">
        <ele>46</ele>
        <time>2018-01-14T02:09:25Z</time>
      </trkpt>
      <trkpt lat="46.78404" lon="-1.75639">
        <ele>45</ele>
        <time>2018-01-14T02:10:25Z</time>
      </trkpt>
      <trkpt lat="46.7839" lon="-1.75668">
        <ele>45</ele>
        <time>2018-01-14T02:11:25Z</time>
      </trkpt>
      <trkpt lat="46.78386" lon="-1.75677">
        <ele>45</ele>
        <time>2018-01-14T02:12:25Z</time>
      </trkpt>
      <trkpt lat="46.78375" lon="-1.757">
        <ele>46</ele>
        <time>2018-01-14T02:13:25Z</time>
      </trkpt>
      <trkpt lat="46.78364" lon="-1.75725">
        <ele>46</ele>
        <time>2018-01-14T02:14:25Z</time>
      </trkpt>
      <trkpt lat="46.78345" lon="-1.75763">
        <ele>47</ele>
        <time>2018-01-14T02:15:25Z</time>
      </trkpt>
      <trkpt lat="46.78322" lon="-1.75813">
        <ele>47</ele>
        <time>2018-01-14T02:16:25Z</time>
      </trkpt>
      <trkpt lat="46.78305" lon="-1.75849">
        <ele>46</ele>
        <time>2018-01-14T02:17:25Z</time>
      </trkpt>
      <trkpt lat="46.78287" lon="-1.75884">
        <ele>46</ele>
        <time>2018-01-14T02:18:25Z</time>
      </trkpt>
      <trkpt lat="46.78266" lon="-1.7593">
        <ele>45</ele>
        <time>2018-01-14T02:19:25Z</time>
      </trkpt>
      <trkpt lat="46.7825" lon="-1.75964">
        <ele>45</ele>
        <time>2018-01-14T02:20:25Z</time>
      </trkpt>
      <trkpt lat="46.78249" lon="-1.75965">
        <ele>45</ele>
        <time>2018-01-14T02:21:25Z</time>
      </trkpt>
      <trkpt lat="46.78239" lon="-1.75987">
        <ele>45</ele>
        <time>2018-01-14T02:22:25Z</time>
      </trkpt>
      <trkpt lat="46.78228" lon="-1.7601">
        <ele>45</ele>
        <time>2018-01-14T02:23:25Z</time>
      </trkpt>
      <trkpt lat="46.7821" lon="-1.76048">
        <ele>46</ele>
        <time>2018-01-14T02:24:25Z</time>
      </trkpt>
      <trkpt lat="46.782" lon="-1.76071">
        <ele>47</ele>
        <time>2018-01-14T02:25:25Z</time>
      </trkpt>
      <trkpt lat="46.78187" lon="-1.76098">
        <ele>47</ele>
        <time>2018-01-14T02:26:25Z</time>
      </trkpt>
      <trkpt lat="46.7816" lon="-1.76152">
        <ele>47</ele>
        <time>2018-01-14T02:27:25Z</time>
      </trkpt>
      <trkpt lat="46.78153" lon="-1.76167">
        <ele>47</ele>
        <time>2018-01-14T02:28:25Z</time>
      </trkpt>
      <trkpt lat="46.78144" lon="-1.76183">
        <ele>47</ele>
        <time>2018-01-14T02:29:25Z</time>
      </trkpt>
      <trkpt lat="46.78128" lon="-1.76204">
        <ele>47</ele>
        <time>2018-01-14T02:30:25Z</time>
      </trkpt>
      <trkpt lat="46.78109" lon="-1.76231">
        <ele>47</ele>
        <time>2018-01-14T02:31:25Z</time>
      </trkpt>
      <trkpt lat="46.7809" lon="-1.76255">
        <ele>47</ele>
        <time>2018-01-14T02:32:25Z</time>
      </trkpt>
      <trkpt lat="46.78078" lon="-1.76268">
        <ele>47</ele>
        <time>2018-01-14T02:33:25Z</time>
      </trkpt>
      <trkpt lat="46.78055" lon="-1.76297">
        <ele>48</ele>
        <time>2018-01-14T02:34:25Z</time>
      </trkpt>
      <trkpt lat="46.78027" lon="-1.76332">
        <ele>50</ele>
        <time>2018-01-14T02:35:25Z</time>
      </trkpt>
      <trkpt lat="46.78008" lon="-1.76355">
        <ele>50</ele>
        <time>2018-01-14T02:36:25Z</time>
      </trkpt>
      <trkpt lat="46.77988" lon="-1.7638">
        <ele>50</ele>
        <time>2018-01-14T02:37:25Z</time>
      </trkpt>
      <trkpt lat="46.77967" lon="-1.76407">
        <ele>50</ele>
        <time>2018-01-14T02:38:25Z</time>
      </trkpt>
      <trkpt lat="46.77951" lon="-1.76427">
        <ele>50</ele>
        <time>2018-01-14T02:39:25Z</time>
      </trkpt>
      <trkpt lat="46.77928" lon="-1.76455">
        <ele>50</ele>
        <time>2018-01-14T02:40:25Z</time>
      </trkpt>
      <trkpt lat="46.77913" lon="-1.76474">
        <ele>50</ele>
        <time>2018-01-14T02:41:25Z</time>
      </trkpt>
      <trkpt lat="46.77883" lon="-1.76512">
        <ele>51</ele>
        <time>2018-01-14T02:42:25Z</time>
      </trkpt>
      <trkpt lat="46.77854" lon="-1.76548">
        <ele>52</ele>
        <time>2018-01-14T02:43:25Z</time>
      </trkpt>
      <trkpt lat="46.77845" lon="-1.76559">
        <ele>52</ele>
        <time>2018-01-14T02:44:25Z</time>
      </trkpt>
      <trkpt lat="46.77826" lon="-1.76584">
        <ele>52</ele>
        <time>2018-01-14T02:45:25Z</time>
      </trkpt>
      <trkpt lat="46.77822" lon="-1.76589">
        <ele>52</ele>
        <time>2018-01-14T02:46:25Z</time>
      </trkpt>
      <trkpt lat="46.7779" lon="-1.76628">
        <ele>52</ele>
        <time>2018-01-14T02:47:25Z</time>
      </trkpt>
      <trkpt lat="46.77786" lon="-1.76634">
        <ele>52</ele>
        <time>2018-01-14T02:48:25Z</time>
      </trkpt>
      <trkpt lat="46.77743" lon="-1.76686">
        <ele>53</ele>
        <time>2018-01-14T02:49:25Z</time>
      </trkpt>
      <trkpt lat="46.7773" lon="-1.76703">
        <ele>52</ele>
        <time>2018-01-14T02:50:25Z</time>
      </trkpt>
      <trkpt lat="46.77721" lon="-1.76715">
        <ele>52</ele>
        <time>2018-01-14T02:51:25Z</time>
      </trkpt>
      <trkpt lat="46.77712" lon="-1.7673">
        <ele>52</ele>
        <time>2018-01-14T02:52:25Z</time>
      </trkpt>
      <trkpt lat="46.77712" lon="-1.7673">
        <ele>52</ele>
        <time>2018-01-14T02:53:25Z</time>
      </trkpt>
      <trkpt lat="46.77665" lon="-1.76719">
        <ele>53</ele>
        <time>2018-01-14T02:54:25Z</time>
      </trkpt>
      <trkpt lat="46.77665" lon="-1.76719">
        <ele>53</ele>
        <time>2018-01-14T02:55:25Z</time>
      </trkpt>
      <trkpt lat="46.77662" lon="-1.76729">
        <ele>53</ele>
        <time>2018-01-14T02:56:25Z</time>
      </trkpt>
      <trkpt lat="46.77659" lon="-1.76736">
        <ele>53</ele>
        <time>2018-01-14T02:57:25Z</time>
      </trkpt>
      <trkpt lat="46.77658" lon="-1.76739">
        <ele>53</ele>
        <time>2018-01-14T02:58:25Z</time>
      </trkpt>
      <trkpt lat="46.77656" lon="-1.76741">
        <ele>53</ele>
        <time>2018-01-14T02:59:25Z</time>
      </trkpt>
      <trkpt lat="46.77652" lon="-1.76746">
        <ele>53</ele>
        <time>2018-01-14T03:00:25Z</time>
      </trkpt>
      <trkpt lat="46.77646" lon="-1.76753">
        <ele>53</ele>
        <time>2018-01-14T03:01:25Z</time>
      </trkpt>
      <trkpt lat="46.77642" lon="-1.7676">
        <ele>53</ele>
        <time>2018-01-14T03:02:25Z</time>
      </trkpt>
      <trkpt lat="46.77617" lon="-1.76807">
        <ele>53</ele>
        <time>2018-01-14T03:03:25Z</time>
      </trkpt>
      <trkpt lat="46.77597" lon="-1.76842">
        <ele>53</ele>
        <time>2018-01-14T03:04:25Z</time>
      </trkpt>
      <trkpt lat="46.77592" lon="-1.76851">
        <ele>53</ele>
        <time>2018-01-14T03:05:25Z</time>
      </trkpt>
      <trkpt lat="46.77554" lon="-1.76921">
        <ele>53</ele>
        <time>2018-01-14T03:06:25Z</time>
      </trkpt>
      <trkpt lat="46.77511" lon="-1.77001">
        <ele>53</ele>
        <time>2018-01-14T03:07:25Z</time>
      </trkpt>
      <trkpt lat="46.77469" lon="-1.77081">
        <ele>52</ele>
        <time>2018-01-14T03:08:25Z</time>
      </trkpt>
      <trkpt lat="46.77427" lon="-1.77158">
        <ele>51</ele>
        <time>2018-01-14T03:09:25Z</time>
      </trkpt>
      <trkpt lat="46.77389" lon="-1.77229">
        <ele>51</ele>
        <time>2018-01-14T03:10:25Z</time>
      </trkpt>
      <trkpt lat="46.7736" lon="-1.77283">
        <ele>51</ele>
        <time>2018-01-14T03:11:25Z</time>
      </trkpt>
      <trkpt lat="46.77331" lon="-1.77337">
        <ele>50</ele>
        <time>2018-01-14T03:12:25Z</time>
      </trkpt>
      <trkpt lat="46.77301" lon="-1.77393">
        <ele>50</ele>
        <time>2018-01-14T03:13:25Z</time>
      </trkpt>
      <trkpt lat="46.77282" lon="-1.77428">
        <ele>50</ele>
        <time>2018-01-14T03:14:25Z</time>
      </trkpt>
      <trkpt lat="46.77263" lon="-1.77462">
        <ele>51</ele>
        <time>2018-01-14T03:15:25Z</time>
      </trkpt>
      <trkpt lat="46.77259" lon="-1.77471">
        <ele>51</ele>
        <time>2018-01-14T03:16:25Z</time>
      </trkpt>
      <trkpt lat="46.77255" lon="-1.7748">
        <ele>51</ele>
        <time>2018-01-14T03:17:25Z</time>
      </trkpt>
      <trkpt lat="46.7725" lon="-1.77491">
        <ele>51</ele>
        <time>2018-01-14T03:18:25Z</time>
      </trkpt>
      <trkpt lat="46.77246" lon="-1.77501">
        <ele>51</ele>
        <time>2018-01-14T03:19:25Z</time>
      </trkpt>
      <trkpt lat="46.77243" lon="-1.77511">
        <ele>51</ele>
        <time>2018-01-14T03:20:25Z</time>
      </trkpt>
      <trkpt lat="46.7724" lon="-1.77522">
        <ele>51</ele>
        <time>2018-01-14T03:21:25Z</time>
      </trkpt>
      <trkpt lat="46.77237" lon="-1.77534">
        <ele>52</ele>
        <time>2018-01-14T03:22:25Z</time>
      </trkpt>
      <trkpt lat="46.77233" lon="-1.77556">
        <ele>52</ele>
        <time>2018-01-14T03:23:25Z</time>
      </trkpt>
      <trkpt lat="46.77229" lon="-1.7758">
        <ele>52</ele>
        <time>2018-01-14T03:24:25Z</time>
      </trkpt>
      <trkpt lat="46.77225" lon="-1.77615">
        <ele>51</ele>
        <time>2018-01-14T03:25:25Z</time>
      </trkpt>
      <trkpt lat="46.77219" lon="-1.77662">
        <ele>50</ele>
        <time>2018-01-14T03:26:25Z</time>
      </trkpt>
      <trkpt lat="46.77218" lon="-1.77677">
        <ele>50</ele>
        <time>2018-01-14T03:27:25Z</time>
      </trkpt>
      <trkpt lat="46.77213" lon="-1.77717">
        <ele>51</ele>
        <time>2018-01-14T03:28:25Z</time>
      </trkpt>
      <trkpt lat="46.77213" lon="-1.7772">
        <ele>51</ele>
        <time>2018-01-14T03:29:25Z</time>
      </trkpt>
      <trkpt lat="46.77207" lon="-1.77775">
        <ele>51</ele>
        <time>2018-01-14T03:30:25Z</time>
      </trkpt>
      <trkpt lat="46.77204" lon="-1.77804">
        <ele>52</ele>
        <time>2018-01-14T03:31:25Z</time>
      </trkpt>
      <trkpt lat="46.772" lon="-1.77827">
        <ele>52</ele>
        <time>2018-01-14T03:32:25Z</time>
      </trkpt>
      <trkpt lat="46.77195" lon="-1.77866">
        <ele>52</ele>
        <time>2018-01-14T03:33:25Z</time>
      </trkpt>
      <trkpt lat="46.77189" lon="-1.779">
        <ele>52</ele>
        <time>2018-01-14T03:34:25Z</time>
      </trkpt>
      <trkpt lat="46.77184" lon="-1.77931">
        <ele>52</ele>
        <time>2018-01-14T03:35:25Z</time>
      </trkpt>
      <trkpt lat="46.77175" lon="-1.77979">
        <ele>52</ele>
        <time>2018-01-14T03:36:25Z</time>
      </trkpt>
      <trkpt lat="46.77163" lon="-1.78044">
        <ele>52</ele>
        <time>2018-01-14T03:37:25Z</time>
      </trkpt>
      <trkpt lat="46.77153" lon="-1.781">
        <ele>53</ele>
        <time>2018-01-14T03:38:25Z</time>
      </trkpt>
      <trkpt lat="46.77145" lon="-1.78146">
        <ele>52</ele>
        <time>2018-01-14T03:39:25Z</time>
      </trkpt>
      <trkpt lat="46.77139" lon="-1.7818">
        <ele>52</ele>
        <time>2018-01-14T03:40:25Z</time>
      </trkpt>
      <trkpt lat="46.77136" lon="-1.78202">
        <ele>52</ele>
        <time>2018-01-14T03:41:25Z</time>
      </trkpt>
      <trkpt lat="46.77132" lon="-1.78246">
        <ele>51</ele>
        <time>2018-01-14T03:42:25Z</time>
      </trkpt>
      <trkpt lat="46.77127" lon="-1.78292">
        <ele>52</ele>
        <time>2018-01-14T03:43:25Z</time>
      </trkpt>
      <trkpt lat="46.77121" lon="-1.78352">
        <ele>52</ele>
        <time>2018-01-14T03:44:25Z</time>
      </trkpt>
      <trkpt lat="46.77117" lon="-1.78396">
        <ele>53</ele>
        <time>2018-01-14T03:45:25Z</time>
      </trkpt>
      <trkpt lat="46.77115" lon="-1.7842">
        <ele>54</ele>
        <time>2018-01-14T03:46:25Z</time>
      </trkpt>
      <trkpt lat="46.77114" lon="-1.78433">
        <ele>54</ele>
        <time>2018-01-14T03:47:25Z</time>
      </trkpt>
      <trkpt lat="46.77111" lon="-1.78462">
        <ele>53</ele>
        <time>2018-01-14T03:48:25Z</time>
      </trkpt>
      <trkpt lat="46.77109" lon="-1.78483">
        <ele>53</ele>
        <time>2018-01-14T03:49:25Z</time>
      </trkpt>
      <trkpt lat="46.77106" lon="-1.785">
        <ele>53</ele>
        <time>2018-01-14T03:50:25Z</time>
      </trkpt>
      <trkpt lat="46.771" lon="-1.78527">
        <ele>53</ele>
        <time>2018-01-14T03:51:25Z</time>
      </trkpt>
      <trkpt lat="46.77093" lon="-1.78567">
        <ele>52</ele>
        <time>2018-01-14T03:52:25Z</time>
      </trkpt>
      <trkpt lat="46.77081" lon="-1.78624">
        <ele>52</ele>
        <time>2018-01-14T03:53:25Z</time>
      </trkpt>
      <trkpt lat="46.7707" lon="-1.78684">
        <ele>52</ele>
        <time>2018-01-14T03:54:25Z</time>
      </trkpt>
      <trkpt lat="46.77059" lon="-1.78738">
        <ele>52</ele>
        <time>2018-01-14T03:55:25Z</time>
      </trkpt>
      <trkpt lat="46.77043" lon="-1.7882">
        <ele>51</ele>
        <time>2018-01-14T03:56:25Z</time>
      </trkpt>
      <trkpt lat="46.77033" lon="-1.78869">
        <ele>51</ele>
        <time>2018-01-14T03:57:25Z</time>
      </trkpt>
      <trkpt lat="46.77026" lon="-1.78906">
        <ele>52</ele>
        <time>2018-01-14T03:58:25Z</time>
      </trkpt>
      <trkpt lat="46.77019" lon="-1.78939">
        <ele>52</ele>
        <time>2018-01-14T03:59:25Z</time>
      </trkpt>
      <trkpt lat="46.77009" lon="-1.78988">
        <ele>53</ele>
        <time>2018-01-14T04:00:25Z</time>
      </trkpt>
      <trkpt lat="46.77009" lon="-1.78991">
        <ele>53</ele>
        <time>2018-01-14T04:01:25Z</time>
      </trkpt>
      <trkpt lat="46.77002" lon="-1.79024">
        <ele>53</ele>
        <time>2018-01-14T04:02:25Z</time>
      </trkpt>
      <trkpt lat="46.76996" lon="-1.79055">
        <ele>52</ele>
        <time>2018-01-14T04:03:25Z</time>
      </trkpt>
      <trkpt lat="46.7699" lon="-1.79087">
        <ele>52</ele>
        <time>2018-01-14T04:04:25Z</time>
      </trkpt>
      <trkpt lat="46.76986" lon="-1.79106">
        <ele>52</ele>
        <time>2018-01-14T04:05:25Z</time>
      </trkpt>
      <trkpt lat="46.76981" lon="-1.79129">
        <ele>52</ele>
        <time>2018-01-14T04:06:25Z</time>
      </trkpt>
      <trkpt lat="46.76978" lon="-1.79146">
        <ele>52</ele>
        <time>2018-01-14T04:07:25Z</time>
      </trkpt>
      <trkpt lat="46.76972" lon="-1.79166">
        <ele>52</ele>
        <time>2018-01-14T04:08:25Z</time>
      </trkpt>
      <trkpt lat="46.76968" lon="-1.79183">
        <ele>52</ele>
        <time>2018-01-14T04:09:25Z</time>
      </trkpt>
      <trkpt lat="46.76965" lon="-1.79196">
        <ele>52</ele>
        <time>2018-01-14T04:10:25Z</time>
      </trkpt>
      <trkpt lat="46.76962" lon="-1.79204">
        <ele>52</ele>
        <time>2018-01-14T04:11:25Z</time>
      </trkpt>
      <trkpt lat="46.76946" lon="-1.79245">
        <ele>53</ele>
        <time>2018-01-14T04:12:25Z</time>
      </trkpt>
      <trkpt lat="46.7692" lon="-1.79305">
        <ele>52</ele>
        <time>2018-01-14T04:13:25Z</time>
      </trkpt>
      <trkpt lat="46.76896" lon="-1.79363">
        <ele>50</ele>
        <time>2018-01-14T04:14:25Z</time>
      </trkpt>
      <trkpt lat="46.7688" lon="-1.794">
        <ele>50</ele>
        <time>2018-01-14T04:15:25Z</time>
      </trkpt>
      <trkpt lat="46.76868" lon="-1.79427">
        <ele>49</ele>
        <time>2018-01-14T04:16:25Z</time>
      </trkpt>
      <trkpt lat="46.76857" lon="-1.79454">
        <ele>49</ele>
        <time>2018-01-14T04:17:25Z</time>
      </trkpt>
      <trkpt lat="46.76823" lon="-1.79529">
        <ele>49</ele>
        <time>2018-01-14T04:18:25Z</time>
      </trkpt>
      <trkpt lat="46.76818" lon="-1.79542">
        <ele>49</ele>
        <time>2018-01-14T04:19:25Z</time>
      </trkpt>
      <trkpt lat="46.76813" lon="-1.79556">
        <ele>48</ele>
        <time>2018-01-14T04:20:25Z</time>
      </trkpt>
      <trkpt lat="46.76809" lon="-1.79569">
        <ele>48</ele>
        <time>2018-01-14T04:21:25Z</time>
      </trkpt>
      <trkpt lat="46.76806" lon="-1.79583">
        <ele>48</ele>
        <time>2018-01-14T04:22:25Z</time>
      </trkpt>
      <trkpt lat="46.76803" lon="-1.79599">
        <ele>48</ele>
        <time>2018-01-14T04:23:25Z</time>
      </trkpt>
      <trkpt lat="46.76801" lon="-1.79619">
        <ele>48</ele>
        <time>2018-01-14T04:24:25Z</time>
      </trkpt>
      <trkpt lat="46.76796" lon="-1.79658">
        <ele>47</ele>
        <time>2018-01-14T04:25:25Z</time>
      </trkpt>
      <trkpt lat="46.7679" lon="-1.79712">
        <ele>47</ele>
        <time>2018-01-14T04:26:25Z</time>
      </trkpt>
      <trkpt lat="46.76784" lon="-1.79768">
        <ele>46</ele>
        <time>2018-01-14T04:27:25Z</time>
      </trkpt>
      <trkpt lat="46.76782" lon="-1.79789">
        <ele>46</ele>
        <time>2018-01-14T04:28:25Z</time>
      </trkpt>
      <trkpt lat="46.76772" lon="-1.79876">
        <ele>45</ele>
        <time>2018-01-14T04:29:25Z</time>
      </trkpt>
      <trkpt lat="46.76767" lon="-1.7992">
        <ele>44</ele>
        <time>2018-01-14T04:30:25Z</time>
      </trkpt>
      <trkpt lat="46.76766" lon="-1.79937">
        <ele>44</ele>
        <time>2018-01-14T04:31:25Z</time>
      </trkpt>
      <trkpt lat="46.76765" lon="-1.79951">
        <ele>45</ele>
        <time>2018-01-14T04:32:25Z</time>
      </trkpt>
      <trkpt lat="46.76764" lon="-1.79968">
        <ele>45</ele>
        <time>2018-01-14T04:33:25Z</time>
      </trkpt>
      <trkpt lat="46.76763" lon="-1.79983">
        <ele>45</ele>
        <time>2018-01-14T04:34:25Z</time>
      </trkpt>
      <trkpt lat="46.76763" lon="-1.80004">
        <ele>45</ele>
        <time>2018-01-14T04:35:25Z</time>
      </trkpt>
      <trkpt lat="46.76762" lon="-1.80082">
        <ele>46</ele>
        <time>2018-01-14T04:36:25Z</time>
      </trkpt>
      <trkpt lat="46.76762" lon="-1.80113">
        <ele>46</ele>
        <time>2018-01-14T04:37:25Z</time>
      </trkpt>
      <trkpt lat="46.7676" lon="-1.80199">
        <ele>46</ele>
        <time>2018-01-14T04:38:25Z</time>
      </trkpt>
      <trkpt lat="46.7676" lon="-1.80236">
        <ele>46</ele>
        <time>2018-01-14T04:39:25Z</time>
      </trkpt>
      <trkpt lat="46.76762" lon="-1.80251">
        <ele>46</ele>
        <time>2018-01-14T04:40:25Z</time>
      </trkpt>
      <trkpt lat="46.76763" lon="-1.80264">
        <ele>45</ele>
        <time>2018-01-14T04:41:25Z</time>
      </trkpt>
      <trkpt lat="46.76765" lon="-1.80274">
        <ele>45</ele>
        <time>2018-01-14T04:42:25Z</time>
      </trkpt>
      <trkpt lat="46.76769" lon="-1.80289">
        <ele>45</ele>
        <time>2018-01-14T04:43:25Z</time>
      </trkpt>
      <trkpt lat="46.76775" lon="-1.80307">
        <ele>44</ele>
        <time>2018-01-14T04:44:25Z</time>
      </trkpt>
      <trkpt lat="46.7678" lon="-1.80318">
        <ele>44</ele>
        <time>2018-01-14T04:45:25Z</time>
      </trkpt>
      <trkpt lat="46.76791" lon="-1.8034">
        <ele>44</ele>
        <time>2018-01-14T04:46:25Z</time>
      </trkpt>
      <trkpt lat="46.76809" lon="-1.80371">
        <ele>44</ele>
        <time>2018-01-14T04:47:25Z</time>
      </trkpt>
      <trkpt lat="46.76836" lon="-1.80414">
        <ele>45</ele>
        <time>2018-01-14T04:48:25Z</time>
      </trkpt>
      <trkpt lat="46.76846" lon="-1.80429">
        <ele>44</ele>
        <time>2018-01-14T04:49:25Z</time>
      </trkpt>
      <trkpt lat="46.76876" lon="-1.80476">
        <ele>43</ele>
        <time>2018-01-14T04:50:25Z</time>
      </trkpt>
      <trkpt lat="46.76895" lon="-1.80508">
        <ele>42</ele>
        <time>2018-01-14T04:51:25Z</time>
      </trkpt>
      <trkpt lat="46.76899" lon="-1.80517">
        <ele>42</ele>
        <time>2018-01-14T04:52:25Z</time>
      </trkpt>
      <trkpt lat="46.76903" lon="-1.80527">
        <ele>42</ele>
        <time>2018-01-14T04:53:25Z</time>
      </trkpt>
      <trkpt lat="46.76908" lon="-1.8054">
        <ele>41</ele>
        <time>2018-01-14T04:54:25Z</time>
      </trkpt>
      <trkpt lat="46.76912" lon="-1.80556">
        <ele>41</ele>
        <time>2018-01-14T04:55:25Z</time>
      </trkpt>
      <trkpt lat="46.76915" lon="-1.80568">
        <ele>40</ele>
        <time>2018-01-14T04:56:25Z</time>
      </trkpt>
      <trkpt lat="46.7692" lon="-1.80593">
        <ele>40</ele>
        <time>2018-01-14T04:57:25Z</time>
      </trkpt>
      <trkpt lat="46.76925" lon="-1.80619">
        <ele>40</ele>
        <time>2018-01-14T04:58:25Z</time>
      </trkpt>
      <trkpt lat="46.76928" lon="-1.80639">
        <ele>41</ele>
        <time>2018-01-14T04:59:25Z</time>
      </trkpt>
      <trkpt lat="46.76939" lon="-1.80697">
        <ele>41</ele>
        <time>2018-01-14T05:00:25Z</time>
      </trkpt>
      <trkpt lat="46.76944" lon="-1.80723">
        <ele>42</ele>
        <time>2018-01-14T05:01:25Z</time>
      </trkpt>
      <trkpt lat="46.76948" lon="-1.80753">
        <ele>42</ele>
        <time>2018-01-14T05:02:25Z</time>
      </trkpt>
      <trkpt lat="46.7695" lon="-1.80771">
        <ele>42</ele>
        <time>2018-01-14T05:03:25Z</time>
      </trkpt>
      <trkpt lat="46.76951" lon="-1.8078">
        <ele>42</ele>
        <time>2018-01-14T05:04:25Z</time>
      </trkpt>
      <trkpt lat="46.76952" lon="-1.80797">
        <ele>42</ele>
        <time>2018-01-14T05:05:25Z</time>
      </trkpt>
      <trkpt lat="46.76952" lon="-1.80816">
        <ele>42</ele>
        <time>2018-01-14T05:06:25Z</time>
      </trkpt>
      <trkpt lat="46.76952" lon="-1.80838">
        <ele>42</ele>
        <time>2018-01-14T05:07:25Z</time>
      </trkpt>
      <trkpt lat="46.76952" lon="-1.80868">
        <ele>41</ele>
        <time>2018-01-14T05:08:25Z</time>
      </trkpt>
      <trkpt lat="46.7695" lon="-1.80898">
        <ele>41</ele>
        <time>2018-01-14T05:09:25Z</time>
      </trkpt>
      <trkpt lat="46.76949" lon="-1.80917">
        <ele>41</ele>
        <time>2018-01-14T05:10:25Z</time>
      </trkpt>
      <trkpt lat="46.76947" lon="-1.80957">
        <ele>41</ele>
        <time>2018-01-14T05:11:25Z</time>
      </trkpt>
      <trkpt lat="46.76944" lon="-1.81016">
        <ele>42</ele>
        <time>2018-01-14T05:12:25Z</time>
      </trkpt>
      <trkpt lat="46.76941" lon="-1.81066">
        <ele>42</ele>
        <time>2018-01-14T05:13:25Z</time>
      </trkpt>
      <trkpt lat="46.76939" lon="-1.81095">
        <ele>42</ele>
        <time>2018-01-14T05:14:25Z</time>
      </trkpt>
      <trkpt lat="46.76938" lon="-1.81121">
        <ele>43</ele>
        <time>2018-01-14T05:15:25Z</time>
      </trkpt>
      <trkpt lat="46.76936" lon="-1.81139">
        <ele>43</ele>
        <time>2018-01-14T05:16:25Z</time>
      </trkpt>
      <trkpt lat="46.76933" lon="-1.81162">
        <ele>43</ele>
        <time>2018-01-14T05:17:25Z</time>
      </trkpt>
      <trkpt lat="46.76932" lon="-1.81175">
        <ele>43</ele>
        <time>2018-01-14T05:18:25Z</time>
      </trkpt>
      <trkpt lat="46.76928" lon="-1.81204">
        <ele>43</ele>
        <time>2018-01-14T05:19:25Z</time>
      </trkpt>
      <trkpt lat="46.76924" lon="-1.81233">
        <ele>42</ele>
        <time>2018-01-14T05:20:25Z</time>
      </trkpt>
      <trkpt lat="46.76917" lon="-1.81283">
        <ele>41</ele>
        <time>2018-01-14T05:21:25Z</time>
      </trkpt>
      <trkpt lat="46.76908" lon="-1.8134">
        <ele>40</ele>
        <time>2018-01-14T05:22:25Z</time>
      </trkpt>
      <trkpt lat="46.76899" lon="-1.81398">
        <ele>39</ele>
        <time>2018-01-14T05:23:25Z</time>
      </trkpt>
      <trkpt lat="46.76894" lon="-1.81436">
        <ele>38</ele>
        <time>2018-01-14T05:24:25Z</time>
      </trkpt>
      <trkpt lat="46.76887" lon="-1.81484">
        <ele>38</ele>
        <time>2018-01-14T05:25:25Z</time>
      </trkpt>
      <trkpt lat="46.76881" lon="-1.81521">
        <ele>38</ele>
        <time>2018-01-14T05:26:25Z</time>
      </trkpt>
      <trkpt lat="46.76873" lon="-1.81549">
        <ele>37</ele>
        <time>2018-01-14T05:27:25Z</time>
      </trkpt>
      <trkpt lat="46.76864" lon="-1.81578">
        <ele>36</ele>
        <time>2018-01-14T05:28:25Z</time>
      </trkpt>
      <trkpt lat="46.76854" lon="-1.816">
        <ele>35</ele>
        <time>2018-01-14T05:29:25Z</time>
      </trkpt>
      <trkpt lat="46.76846" lon="-1.81617">
        <ele>35</ele>
        <time>2018-01-14T05:30:25Z</time>
      </trkpt>
      <trkpt lat="46.76837" lon="-1.81636">
        <ele>34</ele>
        <time>2018-01-14T05:31:25Z</time>
      </trkpt>
      <trkpt lat="46.76826" lon="-1.81652">
        <ele>34</ele>
        <time>2018-01-14T05:32:25Z</time>
      </trkpt>
      <trkpt lat="46.76805" lon="-1.81679">
        <ele>33</ele>
        <time>2018-01-14T05:33:25Z</time>
      </trkpt>
      <trkpt lat="46.76768" lon="-1.81726">
        <ele>30</ele>
        <time>2018-01-14T05:34:25Z</time>
      </trkpt>
      <trkpt lat="46.7673" lon="-1.81773">
        <ele>28</ele>
        <time>2018-01-14T05:35:25Z</time>
      </trkpt>
      <trkpt lat="46.76685" lon="-1.8183">
        <ele>25</ele>
        <time>2018-01-14T05:36:25Z</time>
      </trkpt>
      <trkpt lat="46.76638" lon="-1.8189">
        <ele>22</ele>
        <time>2018-01-14T05:37:25Z</time>
      </trkpt>
      <trkpt lat="46.76596" lon="-1.81943">
        <ele>19</ele>
        <time>2018-01-14T05:38:25Z</time>
      </trkpt>
      <trkpt lat="46.76572" lon="-1.81972">
        <ele>18</ele>
        <time>2018-01-14T05:39:25Z</time>
      </trkpt>
      <trkpt lat="46.76563" lon="-1.81987">
        <ele>17</ele>
        <time>2018-01-14T05:40:25Z</time>
      </trkpt>
      <trkpt lat="46.76557" lon="-1.81999">
        <ele>17</ele>
        <time>2018-01-14T05:41:25Z</time>
      </trkpt>
      <trkpt lat="46.76553" lon="-1.8201">
        <ele>17</ele>
        <time>2018-01-14T05:42:25Z</time>
      </trkpt>
      <trkpt lat="46.76549" lon="-1.82023">
        <ele>17</ele>
        <time>2018-01-14T05:43:25Z</time>
      </trkpt>
      <trkpt lat="46.76545" lon="-1.82037">
        <ele>17</ele>
        <time>2018-01-14T05:44:25Z</time>
      </trkpt>
      <trkpt lat="46.76543" lon="-1.82051">
        <ele>18</ele>
        <time>2018-01-14T05:45:25Z</time>
      </trkpt>
      <trkpt lat="46.76541" lon="-1.82067">
        <ele>18</ele>
        <time>2018-01-14T05:46:25Z</time>
      </trkpt>
      <trkpt lat="46.76541" lon="-1.82087">
        <ele>18</ele>
        <time>2018-01-14T05:47:25Z</time>
      </trkpt>
      <trkpt lat="46.76544" lon="-1.82133">
        <ele>18</ele>
        <time>2018-01-14T05:48:25Z</time>
      </trkpt>
      <trkpt lat="46.76546" lon="-1.82166">
        <ele>18</ele>
        <time>2018-01-14T05:49:25Z</time>
      </trkpt>
      <trkpt lat="46.76551" lon="-1.82255">
        <ele>17</ele>
        <time>2018-01-14T05:50:25Z</time>
      </trkpt>
      <trkpt lat="46.76553" lon="-1.82282">
        <ele>17</ele>
        <time>2018-01-14T05:51:25Z</time>
      </trkpt>
      <trkpt lat="46.76555" lon="-1.82311">
        <ele>17</ele>
        <time>2018-01-14T05:52:25Z</time>
      </trkpt>
      <trkpt lat="46.76556" lon="-1.82325">
        <ele>17</ele>
        <time>2018-01-14T05:53:25Z</time>
      </trkpt>
      <trkpt lat="46.76558" lon="-1.82338">
        <ele>17</ele>
        <time>2018-01-14T05:54:25Z</time>
      </trkpt>
      <trkpt lat="46.76561" lon="-1.82349">
        <ele>17</ele>
        <time>2018-01-14T05:55:25Z</time>
      </trkpt>
      <trkpt lat="46.76561" lon="-1.8235">
        <ele>17</ele>
        <time>2018-01-14T05:56:25Z</time>
      </trkpt>
      <trkpt lat="46.76565" lon="-1.82358">
        <ele>17</ele>
        <time>2018-01-14T05:57:25Z</time>
      </trkpt>
      <trkpt lat="46.7657" lon="-1.82369">
        <ele>17</ele>
        <time>2018-01-14T05:58:25Z</time>
      </trkpt>
      <trkpt lat="46.76579" lon="-1.82388">
        <ele>17</ele>
        <time>2018-01-14T05:59:25Z</time>
      </trkpt>
      <trkpt lat="46.76596" lon="-1.82418">
        <ele>17</ele>
        <time>2018-01-14T06:00:25Z</time>
      </trkpt>
      <trkpt lat="46.76621" lon="-1.82458">
        <ele>17</ele>
        <time>2018-01-14T06:01:25Z</time>
      </trkpt>
      <trkpt lat="46.76638" lon="-1.82487">
        <ele>17</ele>
        <time>2018-01-14T06:02:25Z</time>
      </trkpt>
      <trkpt lat="46.76645" lon="-1.82502">
        <ele>16</ele>
        <time>2018-01-14T06:03:25Z</time>
      </trkpt>
      <trkpt lat="46.76652" lon="-1.82516">
        <ele>17</ele>
        <time>2018-01-14T06:04:25Z</time>
      </trkpt>
      <trkpt lat="46.76656" lon="-1.8253">
        <ele>17</ele>
        <time>2018-01-14T06:05:25Z</time>
      </trkpt>
      <trkpt lat="46.76661" lon="-1.82545">
        <ele>17</ele>
        <time>2018-01-14T06:06:25Z</time>
      </trkpt>
      <trkpt lat="46.76666" lon="-1.82566">
        <ele>17</ele>
        <time>2018-01-14T06:07:25Z</time>
      </trkpt>
      <trkpt lat="46.76669" lon="-1.82585">
        <ele>17</ele>
        <time>2018-01-14T06:08:25Z</time>
      </trkpt>
      <trkpt lat="46.76673" lon="-1.82609">
        <ele>17</ele>
        <time>2018-01-14T06:09:25Z</time>
      </trkpt>
      <trkpt lat="46.76679" lon="-1.82648">
        <ele>17</ele>
        <time>2018-01-14T06:10:25Z</time>
      </trkpt>
      <trkpt lat="46.76683" lon="-1.82666">
        <ele>17</ele>
        <time>2018-01-14T06:11:25Z</time>
      </trkpt>
      <trkpt lat="46.76688" lon="-1.82689">
        <ele>17</ele>
        <time>2018-01-14T06:12:25Z</time>
      </trkpt>
      <trkpt lat="46.76692" lon="-1.82703">
        <ele>17</ele>
        <time>2018-01-14T06:13:25Z</time>
      </trkpt>
      <trkpt lat="46.76694" lon="-1.82713">
        <ele>17</ele>
        <time>2018-01-14T06:14:25Z</time>
      </trkpt>
      <trkpt lat="46.76699" lon="-1.82724">
        <ele>17</ele>
        <time>2018-01-14T06:15:25Z</time>
      </trkpt>
      <trkpt lat="46.76704" lon="-1.82738">
        <ele>17</ele>
        <time>2018-01-14T06:16:25Z</time>
      </trkpt>
      <trkpt lat="46.76714" lon="-1.8276">
        <ele>18</ele>
        <time>2018-01-14T06:17:25Z</time>
      </trkpt>
      <trkpt lat="46.76727" lon="-1.8279">
        <ele>18</ele>
        <time>2018-01-14T06:18:25Z</time>
      </trkpt>
      <trkpt lat="46.76741" lon="-1.82822">
        <ele>19</ele>
        <time>2018-01-14T06:19:25Z</time>
      </trkpt>
      <trkpt lat="46.76751" lon="-1.82845">
        <ele>19</ele>
        <time>2018-01-14T06:20:25Z</time>
      </trkpt>
      <trkpt lat="46.76758" lon="-1.82858">
        <ele>19</ele>
        <time>2018-01-14T06:21:25Z</time>
      </trkpt>
      <trkpt lat="46.76763" lon="-1.82868">
        <ele>19</ele>
        <time>2018-01-14T06:22:25Z</time>
      </trkpt>
      <trkpt lat="46.76769" lon="-1.82877">
        <ele>19</ele>
        <time>2018-01-14T06:23:25Z</time>
      </trkpt>
      <trkpt lat="46.76776" lon="-1.82887">
        <ele>18</ele>
        <time>2018-01-14T06:24:25Z</time>
      </trkpt>
      <trkpt lat="46.76784" lon="-1.82898">
        <ele>18</ele>
        <time>2018-01-14T06:25:25Z</time>
      </trkpt>
      <trkpt lat="46.76791" lon="-1.82906">
        <ele>18</ele>
        <time>2018-01-14T06:26:25Z</time>
      </trkpt>
      <trkpt lat="46.76799" lon="-1.82915">
        <ele>18</ele>
        <time>2018-01-14T06:27:25Z</time>
      </trkpt>
      <trkpt lat="46.76807" lon="-1.82924">
        <ele>18</ele>
        <time>2018-01-14T06:28:25Z</time>
      </trkpt>
      <trkpt lat="46.76814" lon="-1.82932">
        <ele>18</ele>
        <time>2018-01-14T06:29:25Z</time>
      </trkpt>
      <trkpt lat="46.76821" lon="-1.82937">
        <ele>18</ele>
        <time>2018-01-14T06:30:25Z</time>
      </trkpt>
      <trkpt lat="46.76824" lon="-1.8294">
        <ele>18</ele>
        <time>2018-01-14T06:31:25Z</time>
      </trkpt>
      <trkpt lat="46.76831" lon="-1.82946">
        <ele>18</ele>
        <time>2018-01-14T06:32:25Z</time>
      </trkpt>
      <trkpt lat="46.76856" lon="-1.82965">
        <ele>19</ele>
        <time>2018-01-14T06:33:25Z</time>
      </trkpt>
      <trkpt lat="46.7688" lon="-1.82984">
        <ele>20</ele>
        <time>2018-01-14T06:34:25Z</time>
      </trkpt>
      <trkpt lat="46.7688" lon="-1.82984">
        <ele>20</ele>
        <time>2018-01-14T06:35:25Z</time>
      </trkpt>
      <trkpt lat="46.76867" lon="-1.83007">
        <ele>19</ele>
        <time>2018-01-14T06:36:25Z</time>
      </trkpt>
      <trkpt lat="46.76857" lon="-1.83027">
        <ele>18</ele>
        <time>2018-01-14T06:37:25Z</time>
      </trkpt>
      <trkpt lat="46.76846" lon="-1.83047">
        <ele>18</ele>
        <time>2018-01-14T06:38:25Z</time>
      </trkpt>
      <trkpt lat="46.76838" lon="-1.83065">
        <ele>17</ele>
        <time>2018-01-14T06:39:25Z</time>
      </trkpt>
      <trkpt lat="46.76831" lon="-1.83082">
        <ele>17</ele>
        <time>2018-01-14T06:40:25Z</time>
      </trkpt>
      <trkpt lat="46.76824" lon="-1.83101">
        <ele>17</ele>
        <time>2018-01-14T06:41:25Z</time>
      </trkpt>
      <trkpt lat="46.76818" lon="-1.83118">
        <ele>18</ele>
        <time>2018-01-14T06:42:25Z</time>
      </trkpt>
      <trkpt lat="46.76813" lon="-1.83135">
        <ele>18</ele>
        <time>2018-01-14T06:43:25Z</time>
      </trkpt>
      <trkpt lat="46.76802" lon="-1.83166">
        <ele>19</ele>
        <time>2018-01-14T06:44:25Z</time>
      </trkpt>
      <trkpt lat="46.76797" lon="-1.83181">
        <ele>19</ele>
        <time>2018-01-14T06:45:25Z</time>
      </trkpt>
      <trkpt lat="46.76792" lon="-1.83201">
        <ele>19</ele>
        <time>2018-01-14T06:46:25Z</time>
      </trkpt>
      <trkpt lat="46.76787" lon="-1.83216">
        <ele>19</ele>
        <time>2018-01-14T06:47:25Z</time>
      </trkpt>
      <trkpt lat="46.76784" lon="-1.83221">
        <ele>19</ele>
        <time>2018-01-14T06:48:25Z</time>
      </trkpt>
      <trkpt lat="46.76777" lon="-1.83239">
        <ele>19</ele>
        <time>2018-01-14T06:49:25Z</time>
      </trkpt>
      <trkpt lat="46.76766" lon="-1.8326">
        <ele>19</ele>
        <time>2018-01-14T06:50:25Z</time>
      </trkpt>
      <trkpt lat="46.76761" lon="-1.83269">
        <ele>19</ele>
        <time>2018-01-14T06:51:25Z</time>
      </trkpt>
      <trkpt lat="46.76753" lon="-1.83287">
        <ele>19</ele>
        <time>2018-01-14T06:52:25Z</time>
      </trkpt>
      <trkpt lat="46.76738" lon="-1.83315">
        <ele>19</ele>
        <time>2018-01-14T06:53:25Z</time>
      </trkpt>
      <trkpt lat="46.76723" lon="-1.83342">
        <ele>19</ele>
        <time>2018-01-14T06:54:25Z</time>
      </trkpt>
      <trkpt lat="46.76715" lon="-1.83354">
        <ele>19</ele>
        <time>2018-01-14T06:55:25Z</time>
      </trkpt>
      <trkpt lat="46.76707" lon="-1.83368">
        <ele>19</ele>
        <time>2018-01-14T06:56:25Z</time>
      </trkpt>
      <trkpt lat="46.76707" lon="-1.83368">
        <ele>19</ele>
        <time>2018-01-14T06:57:25Z</time>
      </trkpt>
      <trkpt lat="46.76731" lon="-1.83384">
        <ele>19</ele>
        <time>2018-01-14T06:58:25Z</time>
      </trkpt>
      <trkpt lat="46.76755" lon="-1.83402">
        <ele>19</ele>
        <time>2018-01-14T06:59:25Z</time>
      </trkpt>
      <trkpt lat="46.76774" lon="-1.83414">
        <ele>19</ele>
        <time>2018-01-14T07:00:25Z</time>
      </trkpt>
      <trkpt lat="46.76785" lon="-1.83423">
        <ele>19</ele>
        <time>2018-01-14T07:01:25Z</time>
      </trkpt>
      <trkpt lat="46.76797" lon="-1.83429">
        <ele>20</ele>
        <time>2018-01-14T07:02:25Z</time>
      </trkpt>
      <trkpt lat="46.76808" lon="-1.83434">
        <ele>20</ele>
        <time>2018-01-14T07:03:25Z</time>
      </trkpt>
      <trkpt lat="46.76818" lon="-1.83438">
        <ele>20</ele>
        <time>2018-01-14T07:04:25Z</time>
      </trkpt>
      <trkpt lat="46.76836" lon="-1.83445">
        <ele>20</ele>
        <time>2018-01-14T07:05:25Z</time>
      </trkpt>
      <trkpt lat="46.7685" lon="-1.8345">
        <ele>20</ele>
        <time>2018-01-14T07:06:25Z</time>
      </trkpt>
      <trkpt lat="46.76861" lon="-1.83454">
        <ele>20</ele>
        <time>2018-01-14T07:07:25Z</time>
      </trkpt>
      <trkpt lat="46.76862" lon="-1.83454">
        <ele>20</ele>
        <time>2018-01-14T07:08:25Z</time>
      </trkpt>
      <trkpt lat="46.76866" lon="-1.83455">
        <ele>20</ele>
        <time>2018-01-14T07:09:25Z</time>
      </trkpt>
      <trkpt lat="46.76875" lon="-1.83455">
        <ele>20</ele>
        <time>2018-01-14T07:10:25Z</time>
      </trkpt>
      <trkpt lat="46.76884" lon="-1.83455">
        <ele>20</ele>
        <time>2018-01-14T07:11:25Z</time>
      </trkpt>
      <trkpt lat="46.76893" lon="-1.83452">
        <ele>20</ele>
        <time>2018-01-14T07:12:25Z</time>
      </trkpt>
      <trkpt lat="46.76903" lon="-1.83447">
        <ele>20</ele>
        <time>2018-01-14T07:13:25Z</time>
      </trkpt>
      <trkpt lat="46.76926" lon="-1.83434">
        <ele>20</ele>
        <time>2018-01-14T07:14:25Z</time>
      </trkpt>
      <trkpt lat="46.76961" lon="-1.83413">
        <ele>22</ele>
        <time>2018-01-14T07:15:25Z</time>
      </trkpt>
      <trkpt lat="46.76979" lon="-1.83403">
        <ele>22</ele>
        <time>2018-01-14T07:16:25Z</time>
      </trkpt>
      <trkpt lat="46.76986" lon="-1.83398">
        <ele>22</ele>
        <time>2018-01-14T07:17:25Z</time>
      </trkpt>
      <trkpt lat="46.77" lon="-1.83389">
        <ele>23</ele>
        <time>2018-01-14T07:18:25Z</time>
      </trkpt>
      <trkpt lat="46.7701" lon="-1.83382">
        <ele>23</ele>
        <time>2018-01-14T07:19:25Z</time>
      </trkpt>
      <trkpt lat="46.77018" lon="-1.83375">
        <ele>24</ele>
        <time>2018-01-14T07:20:25Z</time>
      </trkpt>
      <trkpt lat="46.77025" lon="-1.83367">
        <ele>24</ele>
        <time>2018-01-14T07:21:25Z</time>
      </trkpt>
      <trkpt lat="46.77039" lon="-1.83351">
        <ele>24</ele>
        <time>2018-01-14T07:22:25Z</time>
      </trkpt>
      <trkpt lat="46.77039" lon="-1.83351">
        <ele>24</ele>
        <time>2018-01-14T07:23:25Z</time>
      </trkpt>
      <trkpt lat="46.77054" lon="-1.83332">
        <ele>24</ele>
        <time>2018-01-14T07:24:25Z</time>
      </trkpt>
      <trkpt lat="46.77072" lon="-1.83311">
        <ele>25</ele>
        <time>2018-01-14T07:25:25Z</time>
      </trkpt>
      <trkpt lat="46.77078" lon="-1.83306">
        <ele>25</ele>
        <time>2018-01-14T07:26:25Z</time>
      </trkpt>
      <trkpt lat="46.77083" lon="-1.83301">
        <ele>25</ele>
        <time>2018-01-14T07:27:25Z</time>
      </trkpt>
      <trkpt lat="46.7709" lon="-1.83294">
        <ele>25</ele>
        <time>2018-01-14T07:28:25Z</time>
      </trkpt>
      <trkpt lat="46.77098" lon="-1.83289">
        <ele>25</ele>
        <time>2018-01-14T07:29:25Z</time>
      </trkpt>
      <trkpt lat="46.77105" lon="-1.83285">
        <ele>26</ele>
        <time>2018-01-14T07:30:25Z</time>
      </trkpt>
      <trkpt lat="46.77114" lon="-1.83281">
        <ele>26</ele>
        <time>2018-01-14T07:31:25Z</time>
      </trkpt>
      <trkpt lat="46.77125" lon="-1.83277">
        <ele>26</ele>
        <time>2018-01-14T07:32:25Z</time>
      </trkpt>
      <trkpt lat="46.77139" lon="-1.83272">
        <ele>27</ele>
        <time>2018-01-14T07:33:25Z</time>
      </trkpt>
      <trkpt lat="46.77168" lon="-1.83261">
        <ele>27</ele>
        <time>2018-01-14T07:34:25Z</time>
      </trkpt>
      <trkpt lat="46.77193" lon="-1.83253">
        <ele>27</ele>
        <time>2018-01-14T07:35:25Z</time>
      </trkpt>
      <trkpt lat="46.77211" lon="-1.83248">
        <ele>27</ele>
        <time>2018-01-14T07:36:25Z</time>
      </trkpt>
      <trkpt lat="46.77223" lon="-1.83247">
        <ele>27</ele>
        <time>2018-01-14T07:37:25Z</time>
      </trkpt>
      <trkpt lat="46.77236" lon="-1.83247">
        <ele>27</ele>
        <time>2018-01-14T07:38:25Z</time>
      </trkpt>
      <trkpt lat="46.77252" lon="-1.83248">
        <ele>27</ele>
        <time>2018-01-14T07:39:25Z</time>
      </trkpt>
      <trkpt lat="46.77271" lon="-1.83249">
        <ele>27</ele>
        <time>2018-01-14T07:40:25Z</time>
      </trkpt>
      <trkpt lat="46.77285" lon="-1.83248">
        <ele>27</ele>
        <time>2018-01-14T07:41:25Z</time>
      </trkpt>
      <trkpt lat="46.77304" lon="-1.83244">
        <ele>28</ele>
        <time>2018-01-14T07:42:25Z</time>
      </trkpt>
      <trkpt lat="46.77321" lon="-1.83242">
        <ele>28</ele>
        <time>2018-01-14T07:43:25Z</time>
      </trkpt>
      <trkpt lat="46.77339" lon="-1.83241">
        <ele>28</ele>
        <time>2018-01-14T07:44:25Z</time>
      </trkpt>
      <trkpt lat="46.77348" lon="-1.8324">
        <ele>28</ele>
        <time>2018-01-14T07:45:25Z</time>
      </trkpt>
      <trkpt lat="46.77358" lon="-1.83241">
        <ele>28</ele>
        <time>2018-01-14T07:46:25Z</time>
      </trkpt>
      <trkpt lat="46.77359" lon="-1.83241">
        <ele>28</ele>
        <time>2018-01-14T07:47:25Z</time>
      </trkpt>
      <trkpt lat="46.77371" lon="-1.83243">
        <ele>28</ele>
        <time>2018-01-14T07:48:25Z</time>
      </trkpt>
      <trkpt lat="46.77383" lon="-1.83247">
        <ele>27</ele>
        <time>2018-01-14T07:49:25Z</time>
      </trkpt>
      <trkpt lat="46.77395" lon="-1.83249">
        <ele>27</ele>
        <time>2018-01-14T07:50:25Z</time>
      </trkpt>
      <trkpt lat="46.77404" lon="-1.8325">
        <ele>27</ele>
        <time>2018-01-14T07:51:25Z</time>
      </trkpt>
      <trkpt lat="46.77416" lon="-1.83247">
        <ele>27</ele>
        <time>2018-01-14T07:52:25Z</time>
      </trkpt>
      <trkpt lat="46.7744" lon="-1.83239">
        <ele>27</ele>
        <time>2018-01-14T07:53:25Z</time>
      </trkpt>
      <trkpt lat="46.77468" lon="-1.83229">
        <ele>27</ele>
        <time>2018-01-14T07:54:25Z</time>
      </trkpt>
      <trkpt lat="46.77496" lon="-1.83219">
        <ele>28</ele>
        <time>2018-01-14T07:55:25Z</time>
      </trkpt>
      <trkpt lat="46.77523" lon="-1.83209">
        <ele>28</ele>
        <time>2018-01-14T07:56:25Z</time>
      </trkpt>
      <trkpt lat="46.77544" lon="-1.83202">
        <ele>27</ele>
        <time>2018-01-14T07:57:25Z</time>
      </trkpt>
      <trkpt lat="46.77556" lon="-1.83196">
        <ele>27</ele>
        <time>2018-01-14T07:58:25Z</time>
      </trkpt>
      <trkpt lat="46.77565" lon="-1.83191">
        <ele>27</ele>
        <time>2018-01-14T07:59:25Z</time>
      </trkpt>
      <trkpt lat="46.77573" lon="-1.83185">
        <ele>27</ele>
        <time>2018-01-14T08:00:25Z</time>
      </trkpt>
      <trkpt lat="46.77592" lon="-1.83169">
        <ele>27</ele>
        <time>2018-01-14T08:01:25Z</time>
      </trkpt>
      <trkpt lat="46.776" lon="-1.83162">
        <ele>27</ele>
        <time>2018-01-14T08:02:25Z</time>
      </trkpt>
      <trkpt lat="46.77608" lon="-1.83157">
        <ele>27</ele>
        <time>2018-01-14T08:03:25Z</time>
      </trkpt>
      <trkpt lat="46.77615" lon="-1.83153">
        <ele>27</ele>
        <time>2018-01-14T08:04:25Z</time>
      </trkpt>
      <trkpt lat="46.77624" lon="-1.8315">
        <ele>27</ele>
        <time>2018-01-14T08:05:25Z</time>
      </trkpt>
      <trkpt lat="46.77633" lon="-1.83148">
        <ele>26</ele>
        <time>2018-01-14T08:06:25Z</time>
      </trkpt>
      <trkpt lat="46.77644" lon="-1.83146">
        <ele>26</ele>
        <time>2018-01-14T08:07:25Z</time>
      </trkpt>
      <trkpt lat="46.77665" lon="-1.83144">
        <ele>26</ele>
        <time>2018-01-14T08:08:25Z</time>
      </trkpt>
      <trkpt lat="46.77698" lon="-1.83141">
        <ele>25</ele>
        <time>2018-01-14T08:09:25Z</time>
      </trkpt>
      <trkpt lat="46.77729" lon="-1.83137">
        <ele>24</ele>
        <time>2018-01-14T08:10:25Z</time>
      </trkpt>
      <trkpt lat="46.77764" lon="-1.83133">
        <ele>23</ele>
        <time>2018-01-14T08:11:25Z</time>
      </trkpt>
      <trkpt lat="46.77811" lon="-1.83128">
        <ele>22</ele>
        <time>2018-01-14T08:12:25Z</time>
      </trkpt>
      <trkpt lat="46.77869" lon="-1.83123">
        <ele>21</ele>
        <time>2018-01-14T08:13:25Z</time>
      </trkpt>
      <trkpt lat="46.77869" lon="-1.83123">
        <ele>21</ele>
        <time>2018-01-14T08:14:25Z</time>
      </trkpt>
      <trkpt lat="46.779" lon="-1.8312">
        <ele>21</ele>
        <time>2018-01-14T08:15:25Z</time>
      </trkpt>
      <trkpt lat="46.77925" lon="-1.83117">
        <ele>21</ele>
        <time>2018-01-14T08:16:25Z</time>
      </trkpt>
      <trkpt lat="46.77944" lon="-1.83114">
        <ele>21</ele>
        <time>2018-01-14T08:17:25Z</time>
      </trkpt>
      <trkpt lat="46.77958" lon="-1.8311">
        <ele>21</ele>
        <time>2018-01-14T08:18:25Z</time>
      </trkpt>
      <trkpt lat="46.77968" lon="-1.83105">
        <ele>21</ele>
        <time>2018-01-14T08:19:25Z</time>
      </trkpt>
      <trkpt lat="46.77978" lon="-1.83099">
        <ele>21</ele>
        <time>2018-01-14T08:20:25Z</time>
      </trkpt>
      <trkpt lat="46.77994" lon="-1.83087">
        <ele>22</ele>
        <time>2018-01-14T08:21:25Z</time>
      </trkpt>
      <trkpt lat="46.78045" lon="-1.83048">
        <ele>24</ele>
        <time>2018-01-14T08:22:25Z</time>
      </trkpt>
      <trkpt lat="46.78072" lon="-1.83027">
        <ele>25</ele>
        <time>2018-01-14T08:23:25Z</time>
      </trkpt>
      <trkpt lat="46.78094" lon="-1.83011">
        <ele>26</ele>
        <time>2018-01-14T08:24:25Z</time>
      </trkpt>
      <trkpt lat="46.78095" lon="-1.83009">
        <ele>26</ele>
        <time>2018-01-14T08:25:25Z</time>
      </trkpt>
      <trkpt lat="46.7811" lon="-1.82998">
        <ele>26</ele>
        <time>2018-01-14T08:26:25Z</time>
      </trkpt>
      <trkpt lat="46.78113" lon="-1.82996">
        <ele>26</ele>
        <time>2018-01-14T08:27:25Z</time>
      </trkpt>
      <trkpt lat="46.78133" lon="-1.82984">
        <ele>27</ele>
        <time>2018-01-14T08:28:25Z</time>
      </trkpt>
      <trkpt lat="46.78142" lon="-1.82979">
        <ele>27</ele>
        <time>2018-01-14T08:29:25Z</time>
      </trkpt>
      <trkpt lat="46.78142" lon="-1.82979">
        <ele>27</ele>
        <time>2018-01-14T08:30:25Z</time>
      </trkpt>
      <trkpt lat="46.78152" lon="-1.82991">
        <ele>27</ele>
        <time>2018-01-14T08:31:25Z</time>
      </trkpt>
      <trkpt lat="46.78168" lon="-1.83018">
        <ele>27</ele>
        <time>2018-01-14T08:32:25Z</time>
      </trkpt>
      <trkpt lat="46.78203" lon="-1.83077">
        <ele>27</ele>
        <time>2018-01-14T08:33:25Z</time>
      </trkpt>
      <trkpt lat="46.78211" lon="-1.83089">
        <ele>26</ele>
        <time>2018-01-14T08:34:25Z</time>
      </trkpt>
      <trkpt lat="46.78219" lon="-1.83096">
        <ele>27</ele>
        <time>2018-01-14T08:35:25Z</time>
      </trkpt>
      <trkpt lat="46.78226" lon="-1.83101">
        <ele>27</ele>
        <time>2018-01-14T08:36:25Z</time>
      </trkpt>
      <trkpt lat="46.78236" lon="-1.83104">
        <ele>27</ele>
        <time>2018-01-14T08:37:25Z</time>
      </trkpt>
      <trkpt lat="46.78251" lon="-1.83105">
        <ele>27</ele>
        <time>2018-01-14T08:38:25Z</time>
      </trkpt>
      <trkpt lat="46.78284" lon="-1.83106">
        <ele>27</ele>
        <time>2018-01-14T08:39:25Z</time>
      </trkpt>
      <trkpt lat="46.78314" lon="-1.83106">
        <ele>27</ele>
        <time>2018-01-14T08:40:25Z</time>
      </trkpt>
      <trkpt lat="46.78331" lon="-1.83107">
        <ele>27</ele>
        <time>2018-01-14T08:41:25Z</time>
      </trkpt>
      <trkpt lat="46.7834" lon="-1.83107">
        <ele>27</ele>
        <time>2018-01-14T08:42:25Z</time>
      </trkpt>
      <trkpt lat="46.78348" lon="-1.83108">
        <ele>27</ele>
        <time>2018-01-14T08:43:25Z</time>
      </trkpt>
      <trkpt lat="46.7836" lon="-1.83111">
        <ele>27</ele>
        <time>2018-01-14T08:44:25Z</time>
      </trkpt>
      <trkpt lat="46.7836" lon="-1.83111">
        <ele>27</ele>
        <time>2018-01-14T08:45:25Z</time>
      </trkpt>
      <trkpt lat="46.78381" lon="-1.83116">
        <ele>27</ele>
        <time>2018-01-14T08:46:25Z</time>
      </trkpt>
      <trkpt lat="46.78418" lon="-1.83126">
        <ele>27</ele>
        <time>2018-01-14T08:47:25Z</time>
      </trkpt>
      <trkpt lat="46.78487" lon="-1.83144">
        <ele>26</ele>
        <time>2018-01-14T08:48:25Z</time>
      </trkpt>
      <trkpt lat="46.78558" lon="-1.83163">
        <ele>24</ele>
        <time>2018-01-14T08:49:25Z</time>
      </trkpt>
      <trkpt lat="46.78585" lon="-1.83171">
        <ele>23</ele>
        <time>2018-01-14T08:50:25Z</time>
      </trkpt>
      <trkpt lat="46.78596" lon="-1.83174">
        <ele>23</ele>
        <time>2018-01-14T08:51:25Z</time>
      </trkpt>
      <trkpt lat="46.78607" lon="-1.83177">
        <ele>23</ele>
        <time>2018-01-14T08:52:25Z</time>
      </trkpt>
      <trkpt lat="46.78618" lon="-1.83181">
        <ele>23</ele>
        <time>2018-01-14T08:53:25Z</time>
      </trkpt>
      <trkpt lat="46.78632" lon="-1.83188">
        <ele>23</ele>
        <time>2018-01-14T08:54:25Z</time>
      </trkpt>
      <trkpt lat="46.78642" lon="-1.83193">
        <ele>23</ele>
        <time>2018-01-14T08:55:25Z</time>
      </trkpt>
      <trkpt lat="46.78643" lon="-1.83193">
        <ele>23</ele>
        <time>2018-01-14T08:56:25Z</time>
      </trkpt>
      <trkpt lat="46.78655" lon="-1.83199">
        <ele>23</ele>
        <time>2018-01-14T08:57:25Z</time>
      </trkpt>
      <trkpt lat="46.78681" lon="-1.83213">
        <ele>23</ele>
        <time>2018-01-14T08:58:25Z</time>
      </trkpt>
      <trkpt lat="46.78742" lon="-1.83245">
        <ele>22</ele>
        <time>2018-01-14T08:59:25Z</time>
      </trkpt>
      <trkpt lat="46.78783" lon="-1.83265">
        <ele>22</ele>
        <time>2018-01-14T09:00:25Z</time>
      </trkpt>
      <trkpt lat="46.78794" lon="-1.8327">
        <ele>22</ele>
        <time>2018-01-14T09:01:25Z</time>
      </trkpt>
      <trkpt lat="46.78796" lon="-1.83271">
        <ele>22</ele>
        <time>2018-01-14T09:02:25Z</time>
      </trkpt>
      <trkpt lat="46.78804" lon="-1.83272">
        <ele>21</ele>
        <time>2018-01-14T09:03:25Z</time>
      </trkpt>
      <trkpt lat="46.7882" lon="-1.83273">
        <ele>21</ele>
        <time>2018-01-14T09:04:25Z</time>
      </trkpt>
      <trkpt lat="46.78834" lon="-1.83274">
        <ele>21</ele>
        <time>2018-01-14T09:05:25Z</time>
      </trkpt>
      <trkpt lat="46.78841" lon="-1.83276">
        <ele>21</ele>
        <time>2018-01-14T09:06:25Z</time>
      </trkpt>
      <trkpt lat="46.78849" lon="-1.83279">
        <ele>21</ele>
        <time>2018-01-14T09:07:25Z</time>
      </trkpt>
      <trkpt lat="46.78856" lon="-1.83285">
        <ele>21</ele>
        <time>2018-01-14T09:08:25Z</time>
      </trkpt>
      <trkpt lat="46.78866" lon="-1.83293">
        <ele>21</ele>
        <time>2018-01-14T09:09:25Z</time>
      </trkpt>
      <trkpt lat="46.78888" lon="-1.83311">
        <ele>20</ele>
        <time>2018-01-14T09:10:25Z</time>
      </trkpt>
      <trkpt lat="46.789" lon="-1.8332">
        <ele>20</ele>
        <time>2018-01-14T09:11:25Z</time>
      </trkpt>
      <trkpt lat="46.78913" lon="-1.83328">
        <ele>20</ele>
        <time>2018-01-14T09:12:25Z</time>
      </trkpt>
      <trkpt lat="46.78936" lon="-1.83339">
        <ele>19</ele>
        <time>2018-01-14T09:13:25Z</time>
      </trkpt>
      <trkpt lat="46.7896" lon="-1.83347">
        <ele>19</ele>
        <time>2018-01-14T09:14:25Z</time>
      </trkpt>
      <trkpt lat="46.78977" lon="-1.83352">
        <ele>18</ele>
        <time>2018-01-14T09:15:25Z</time>
      </trkpt>
      <trkpt lat="46.79005" lon="-1.83359">
        <ele>17</ele>
        <time>2018-01-14T09:16:25Z</time>
      </trkpt>
      <trkpt lat="46.7906" lon="-1.8337">
        <ele>14</ele>
        <time>2018-01-14T09:17:25Z</time>
      </trkpt>
      <trkpt lat="46.79089" lon="-1.83376">
        <ele>13</ele>
        <time>2018-01-14T09:18:25Z</time>
      </trkpt>
      <trkpt lat="46.7909" lon="-1.83376">
        <ele>13</ele>
        <time>2018-01-14T09:19:25Z</time>
      </trkpt>
      <trkpt lat="46.79112" lon="-1.83379">
        <ele>14</ele>
        <time>2018-01-14T09:20:25Z</time>
      </trkpt>
      <trkpt lat="46.79141" lon="-1.83385">
        <ele>16</ele>
        <time>2018-01-14T09:21:25Z</time>
      </trkpt>
      <trkpt lat="46.7919" lon="-1.83392">
        <ele>19</ele>
        <time>2018-01-14T09:22:25Z</time>
      </trkpt>
      <trkpt lat="46.79203" lon="-1.83394">
        <ele>19</ele>
        <time>2018-01-14T09:23:25Z</time>
      </trkpt>
      <trkpt lat="46.79214" lon="-1.83397">
        <ele>20</ele>
        <time>2018-01-14T09:24:25Z</time>
      </trkpt>
      <trkpt lat="46.79225" lon="-1.83399">
        <ele>21</ele>
        <time>2018-01-14T09:25:25Z</time>
      </trkpt>
      <trkpt lat="46.79237" lon="-1.83405">
        <ele>21</ele>
        <time>2018-01-14T09:26:25Z</time>
      </trkpt>
      <trkpt lat="46.79244" lon="-1.8341">
        <ele>22</ele>
        <time>2018-01-14T09:27:25Z</time>
      </trkpt>
      <trkpt lat="46.79249" lon="-1.83416">
        <ele>22</ele>
        <time>2018-01-14T09:28:25Z</time>
      </trkpt>
      <trkpt lat="46.79254" lon="-1.83422">
        <ele>22</ele>
        <time>2018-01-14T09:29:25Z</time>
      </trkpt>
      <trkpt lat="46.79257" lon="-1.83426">
        <ele>22</ele>
        <time>2018-01-14T09:30:25Z</time>
      </trkpt>
      <trkpt lat="46.79259" lon="-1.83429">
        <ele>22</ele>
        <time>2018-01-14T09:31:25Z</time>
      </trkpt>
      <trkpt lat="46.79262" lon="-1.83434">
        <ele>21</ele>
        <time>2018-01-14T09:32:25Z</time>
      </trkpt>
      <trkpt lat="46.79269" lon="-1.83442">
        <ele>21</ele>
        <time>2018-01-14T09:33:25Z</time>
      </trkpt>
      <trkpt lat="46.79273" lon="-1.83448">
        <ele>21</ele>
        <time>2018-01-14T09:34:25Z</time>
      </trkpt>
      <trkpt lat="46.7928" lon="-1.83455">
        <ele>21</ele>
        <time>2018-01-14T09:35:25Z</time>
      </trkpt>
      <trkpt lat="46.79291" lon="-1.83465">
        <ele>21</ele>
        <time>2018-01-14T09:36:25Z</time>
      </trkpt>
      <trkpt lat="46.79303" lon="-1.83473">
        <ele>21</ele>
        <time>2018-01-14T09:37:25Z</time>
      </trkpt>
      <trkpt lat="46.79323" lon="-1.83485">
        <ele>21</ele>
        <time>2018-01-14T09:38:25Z</time>
      </trkpt>
      <trkpt lat="46.79341" lon="-1.83501">
        <ele>21</ele>
        <time>2018-01-14T09:39:25Z</time>
      </trkpt>
      <trkpt lat="46.79347" lon="-1.83506">
        <ele>21</ele>
        <time>2018-01-14T09:40:25Z</time>
      </trkpt>
      <trkpt lat="46.7936" lon="-1.83517">
        <ele>21</ele>
        <time>2018-01-14T09:41:25Z</time>
      </trkpt>
      <trkpt lat="46.79366" lon="-1.83521">
        <ele>21</ele>
        <time>2018-01-14T09:42:25Z</time>
      </trkpt>
      <trkpt lat="46.79375" lon="-1.83526">
        <ele>21</ele>
        <time>2018-01-14T09:43:25Z</time>
      </trkpt>
      <trkpt lat="46.79384" lon="-1.8353">
        <ele>21</ele>
        <time>2018-01-14T09:44:25Z</time>
      </trkpt>
      <trkpt lat="46.79396" lon="-1.83535">
        <ele>21</ele>
        <time>2018-01-14T09:45:25Z</time>
      </trkpt>
      <trkpt lat="46.79415" lon="-1.83541">
        <ele>21</ele>
        <time>2018-01-14T09:46:25Z</time>
      </trkpt>
      <trkpt lat="46.79445" lon="-1.8355">
        <ele>21</ele>
        <time>2018-01-14T09:47:25Z</time>
      </trkpt>
      <trkpt lat="46.79469" lon="-1.83557">
        <ele>21</ele>
        <time>2018-01-14T09:48:25Z</time>
      </trkpt>
      <trkpt lat="46.79469" lon="-1.83557">
        <ele>21</ele>
        <time>2018-01-14T09:49:25Z</time>
      </trkpt>
      <trkpt lat="46.79481" lon="-1.83561">
        <ele>21</ele>
        <time>2018-01-14T09:50:25Z</time>
      </trkpt>
      <trkpt lat="46.7954" lon="-1.83578">
        <ele>21</ele>
        <time>2018-01-14T09:51:25Z</time>
      </trkpt>
      <trkpt lat="46.79586" lon="-1.83593">
        <ele>21</ele>
        <time>2018-01-14T09:52:25Z</time>
      </trkpt>
      <trkpt lat="46.79624" lon="-1.83604">
        <ele>21</ele>
        <time>2018-01-14T09:53:25Z</time>
      </trkpt>
      <trkpt lat="46.7968" lon="-1.8362">
        <ele>21</ele>
        <time>2018-01-14T09:54:25Z</time>
      </trkpt>
      <trkpt lat="46.7974" lon="-1.83639">
        <ele>21</ele>
        <time>2018-01-14T09:55:25Z</time>
      </trkpt>
      <trkpt lat="46.79786" lon="-1.83653">
        <ele>21</ele>
        <time>2018-01-14T09:56:25Z</time>
      </trkpt>
      <trkpt lat="46.79806" lon="-1.83658">
        <ele>21</ele>
        <time>2018-01-14T09:57:25Z</time>
      </trkpt>
      <trkpt lat="46.79824" lon="-1.83664">
        <ele>21</ele>
        <time>2018-01-14T09:58:25Z</time>
      </trkpt>
      <trkpt lat="46.7986" lon="-1.83675">
        <ele>22</ele>
        <time>2018-01-14T09:59:25Z</time>
      </trkpt>
      <trkpt lat="46.79897" lon="-1.83686">
        <ele>22</ele>
        <time>2018-01-14T10:00:25Z</time>
      </trkpt>
      <trkpt lat="46.79934" lon="-1.83697">
        <ele>22</ele>
        <time>2018-01-14T10:01:25Z</time>
      </trkpt>
      <trkpt lat="46.79973" lon="-1.83709">
        <ele>21</ele>
        <time>2018-01-14T10:02:25Z</time>
      </trkpt>
      <trkpt lat="46.79995" lon="-1.83716">
        <ele>20</ele>
        <time>2018-01-14T10:03:25Z</time>
      </trkpt>
      <trkpt lat="46.80032" lon="-1.83727">
        <ele>20</ele>
        <time>2018-01-14T10:04:25Z</time>
      </trkpt>
      <trkpt lat="46.80049" lon="-1.83731">
        <ele>20</ele>
        <time>2018-01-14T10:05:25Z</time>
      </trkpt>
      <trkpt lat="46.8008" lon="-1.83741">
        <ele>19</ele>
        <time>2018-01-14T10:06:25Z</time>
      </trkpt>
      <trkpt lat="46.80134" lon="-1.83757">
        <ele>20</ele>
        <time>2018-01-14T10:07:25Z</time>
      </trkpt>
      <trkpt lat="46.80161" lon="-1.83765">
        <ele>20</ele>
        <time>2018-01-14T10:08:25Z</time>
      </trkpt>
      <trkpt lat="46.80221" lon="-1.83783">
        <ele>20</ele>
        <time>2018-01-14T10:09:25Z</time>
      </trkpt>
      <trkpt lat="46.80233" lon="-1.83788">
        <ele>20</ele>
        <time>2018-01-14T10:10:25Z</time>
      </trkpt>
      <trkpt lat="46.8028" lon="-1.838">
        <ele>19</ele>
        <time>2018-01-14T10:11:25Z</time>
      </trkpt>
      <trkpt lat="46.8033" lon="-1.83817">
        <ele>17</ele>
        <time>2018-01-14T10:12:25Z</time>
      </trkpt>
      <trkpt lat="46.80366" lon="-1.83829">
        <ele>17</ele>
        <time>2018-01-14T10:13:25Z</time>
      </trkpt>
      <trkpt lat="46.80378" lon="-1.83831">
        <ele>18</ele>
        <time>2018-01-14T10:14:25Z</time>
      </trkpt>
      <trkpt lat="46.80419" lon="-1.83844">
        <ele>18</ele>
        <time>2018-01-14T10:15:25Z</time>
      </trkpt>
      <trkpt lat="46.80435" lon="-1.83849">
        <ele>18</ele>
        <time>2018-01-14T10:16:25Z</time>
      </trkpt>
      <trkpt lat="46.8048" lon="-1.8386">
        <ele>19</ele>
        <time>2018-01-14T10:17:25Z</time>
      </trkpt>
      <trkpt lat="46.80535" lon="-1.83879">
        <ele>20</ele>
        <time>2018-01-14T10:18:25Z</time>
      </trkpt>
      <trkpt lat="46.80563" lon="-1.83887">
        <ele>19</ele>
        <time>2018-01-14T10:19:25Z</time>
      </trkpt>
      <trkpt lat="46.80583" lon="-1.83893">
        <ele>19</ele>
        <time>2018-01-14T10:20:25Z</time>
      </trkpt>
      <trkpt lat="46.80603" lon="-1.83901">
        <ele>19</ele>
        <time>2018-01-14T10:21:25Z</time>
      </trkpt>
      <trkpt lat="46.80628" lon="-1.83915">
        <ele>19</ele>
        <time>2018-01-14T10:22:25Z</time>
      </trkpt>
      <trkpt lat="46.80639" lon="-1.83922">
        <ele>19</ele>
        <time>2018-01-14T10:23:25Z</time>
      </trkpt>
      <trkpt lat="46.80661" lon="-1.83938">
        <ele>19</ele>
        <time>2018-01-14T10:24:25Z</time>
      </trkpt>
      <trkpt lat="46.80695" lon="-1.83961">
        <ele>19</ele>
        <time>2018-01-14T10:25:25Z</time>
      </trkpt>
      <trkpt lat="46.80769" lon="-1.84018">
        <ele>19</ele>
        <time>2018-01-14T10:26:25Z</time>
      </trkpt>
      <trkpt lat="46.80833" lon="-1.84066">
        <ele>19</ele>
        <time>2018-01-14T10:27:25Z</time>
      </trkpt>
      <trkpt lat="46.80869" lon="-1.84092">
        <ele>19</ele>
        <time>2018-01-14T10:28:25Z</time>
      </trkpt>
      <trkpt lat="46.8087" lon="-1.84093">
        <ele>19</ele>
        <time>2018-01-14T10:29:25Z</time>
      </trkpt>
      <trkpt lat="46.80928" lon="-1.84136">
        <ele>18</ele>
        <time>2018-01-14T10:30:25Z</time>
      </trkpt>
      <trkpt lat="46.80928" lon="-1.84136">
        <ele>18</ele>
        <time>2018-01-14T10:31:25Z</time>
      </trkpt>
      <trkpt lat="46.80923" lon="-1.84158">
        <ele>18</ele>
        <time>2018-01-14T10:32:25Z</time>
      </trkpt>
      <trkpt lat="46.80918" lon="-1.84181">
        <ele>18</ele>
        <time>2018-01-14T10:33:25Z</time>
      </trkpt>
      <trkpt lat="46.80914" lon="-1.84196">
        <ele>18</ele>
        <time>2018-01-14T10:34:25Z</time>
      </trkpt>
      <trkpt lat="46.8091" lon="-1.84211">
        <ele>18</ele>
        <time>2018-01-14T10:35:25Z</time>
      </trkpt>
      <trkpt lat="46.80904" lon="-1.84227">
        <ele>18</ele>
        <time>2018-01-14T10:36:25Z</time>
      </trkpt>
      <trkpt lat="46.80893" lon="-1.84256">
        <ele>17</ele>
        <time>2018-01-14T10:37:25Z</time>
      </trkpt>
      <trkpt lat="46.80891" lon="-1.84263">
        <ele>18</ele>
        <time>2018-01-14T10:38:25Z</time>
      </trkpt>
      <trkpt lat="46.80879" lon="-1.84292">
        <ele>18</ele>
        <time>2018-01-14T10:39:25Z</time>
      </trkpt>
      <trkpt lat="46.80866" lon="-1.84325">
        <ele>18</ele>
        <time>2018-01-14T10:40:25Z</time>
      </trkpt>
      <trkpt lat="46.80841" lon="-1.84385">
        <ele>19</ele>
        <time>2018-01-14T10:41:25Z</time>
      </trkpt>
      <trkpt lat="46.80819" lon="-1.84439">
        <ele>18</ele>
        <time>2018-01-14T10:42:25Z</time>
      </trkpt>
      <trkpt lat="46.80804" lon="-1.8448">
        <ele>18</ele>
        <time>2018-01-14T10:43:25Z</time>
      </trkpt>
      <trkpt lat="46.80795" lon="-1.84503">
        <ele>18</ele>
        <time>2018-01-14T10:44:25Z</time>
      </trkpt>
      <trkpt lat="46.80788" lon="-1.84519">
        <ele>17</ele>
        <time>2018-01-14T10:45:25Z</time>
      </trkpt>
      <trkpt lat="46.80783" lon="-1.84535">
        <ele>17</ele>
        <time>2018-01-14T10:46:25Z</time>
      </trkpt>
      <trkpt lat="46.8078" lon="-1.84546">
        <ele>17</ele>
        <time>2018-01-14T10:47:25Z</time>
      </trkpt>
      <trkpt lat="46.8078" lon="-1.84546">
        <ele>17</ele>
        <time>2018-01-14T10:48:25Z</time>
      </trkpt>
      <trkpt lat="46.80776" lon="-1.84565">
        <ele>17</ele>
        <time>2018-01-14T10:49:25Z</time>
      </trkpt>
      <trkpt lat="46.80775" lon="-1.84574">
        <ele>16</ele>
        <time>2018-01-14T10:50:25Z</time>
      </trkpt>
      <trkpt lat="46.80773" lon="-1.84589">
        <ele>16</ele>
        <time>2018-01-14T10:51:25Z</time>
      </trkpt>
      <trkpt lat="46.8077" lon="-1.84641">
        <ele>15</ele>
        <time>2018-01-14T10:52:25Z</time>
      </trkpt>
      <trkpt lat="46.80765" lon="-1.84701">
        <ele>16</ele>
        <time>2018-01-14T10:53:25Z</time>
      </trkpt>
      <trkpt lat="46.80762" lon="-1.84757">
        <ele>19</ele>
        <time>2018-01-14T10:54:25Z</time>
      </trkpt>
      <trkpt lat="46.80759" lon="-1.84802">
        <ele>19</ele>
        <time>2018-01-14T10:55:25Z</time>
      </trkpt>
      <trkpt lat="46.80757" lon="-1.84842">
        <ele>19</ele>
        <time>2018-01-14T10:56:25Z</time>
      </trkpt>
      <trkpt lat="46.80755" lon="-1.84876">
        <ele>17</ele>
        <time>2018-01-14T10:57:25Z</time>
      </trkpt>
      <trkpt lat="46.80754" lon="-1.84913">
        <ele>15</ele>
        <time>2018-01-14T10:58:25Z</time>
      </trkpt>
      <trkpt lat="46.80754" lon="-1.84928">
        <ele>15</ele>
        <time>2018-01-14T10:59:25Z</time>
      </trkpt>
      <trkpt lat="46.80753" lon="-1.85008">
        <ele>14</ele>
        <time>2018-01-14T11:00:25Z</time>
      </trkpt>
      <trkpt lat="46.80754" lon="-1.85082">
        <ele>14</ele>
        <time>2018-01-14T11:01:25Z</time>
      </trkpt>
      <trkpt lat="46.80755" lon="-1.85145">
        <ele>15</ele>
        <time>2018-01-14T11:02:25Z</time>
      </trkpt>
      <trkpt lat="46.80756" lon="-1.8517">
        <ele>16</ele>
        <time>2018-01-14T11:03:25Z</time>
      </trkpt>
      <trkpt lat="46.80756" lon="-1.85185">
        <ele>15</ele>
        <time>2018-01-14T11:04:25Z</time>
      </trkpt>
      <trkpt lat="46.80758" lon="-1.85198">
        <ele>15</ele>
        <time>2018-01-14T11:05:25Z</time>
      </trkpt>
      <trkpt lat="46.80759" lon="-1.85203">
        <ele>15</ele>
        <time>2018-01-14T11:06:25Z</time>
      </trkpt>
      <trkpt lat="46.80765" lon="-1.8524">
        <ele>14</ele>
        <time>2018-01-14T11:07:25Z</time>
      </trkpt>
      <trkpt lat="46.80767" lon="-1.85256">
        <ele>14</ele>
        <time>2018-01-14T11:08:25Z</time>
      </trkpt>
      <trkpt lat="46.80769" lon="-1.85273">
        <ele>13</ele>
        <time>2018-01-14T11:09:25Z</time>
      </trkpt>
      <trkpt lat="46.8077" lon="-1.85293">
        <ele>13</ele>
        <time>2018-01-14T11:10:25Z</time>
      </trkpt>
      <trkpt lat="46.8077" lon="-1.85318">
        <ele>13</ele>
        <time>2018-01-14T11:11:25Z</time>
      </trkpt>
      <trkpt lat="46.80771" lon="-1.85352">
        <ele>12</ele>
        <time>2018-01-14T11:12:25Z</time>
      </trkpt>
      <trkpt lat="46.80771" lon="-1.85411">
        <ele>13</ele>
        <time>2018-01-14T11:13:25Z</time>
      </trkpt>
      <trkpt lat="46.8077" lon="-1.85451">
        <ele>12</ele>
        <time>2018-01-14T11:14:25Z</time>
      </trkpt>
      <trkpt lat="46.80769" lon="-1.85483">
        <ele>12</ele>
        <time>2018-01-14T11:15:25Z</time>
      </trkpt>
      <trkpt lat="46.80768" lon="-1.85498">
        <ele>12</ele>
        <time>2018-01-14T11:16:25Z</time>
      </trkpt>
      <trkpt lat="46.80767" lon="-1.85559">
        <ele>12</ele>
        <time>2018-01-14T11:17:25Z</time>
      </trkpt>
      <trkpt lat="46.80767" lon="-1.85573">
        <ele>12</ele>
        <time>2018-01-14T11:18:25Z</time>
      </trkpt>
      <trkpt lat="46.80769" lon="-1.85648">
        <ele>12</ele>
        <time>2018-01-14T11:19:25Z</time>
      </trkpt>
      <trkpt lat="46.80769" lon="-1.85677">
        <ele>13</ele>
        <time>2018-01-14T11:20:25Z</time>
      </trkpt>
      <trkpt lat="46.80771" lon="-1.85755">
        <ele>14</ele>
        <time>2018-01-14T11:21:25Z</time>
      </trkpt>
      <trkpt lat="46.80773" lon="-1.85819">
        <ele>12</ele>
        <time>2018-01-14T11:22:25Z</time>
      </trkpt>
      <trkpt lat="46.80774" lon="-1.85885">
        <ele>12</ele>
        <time>2018-01-14T11:23:25Z</time>
      </trkpt>
      <trkpt lat="46.80774" lon="-1.85898">
        <ele>12</ele>
        <time>2018-01-14T11:24:25Z</time>
      </trkpt>
      <trkpt lat="46.80771" lon="-1.85971">
        <ele>12</ele>
        <time>2018-01-14T11:25:25Z</time>
      </trkpt>
      <trkpt lat="46.8077" lon="-1.86049">
        <ele>13</ele>
        <time>2018-01-14T11:26:25Z</time>
      </trkpt>
      <trkpt lat="46.8077" lon="-1.86113">
        <ele>14</ele>
        <time>2018-01-14T11:27:25Z</time>
      </trkpt>
      <trkpt lat="46.8077" lon="-1.86118">
        <ele>14</ele>
        <time>2018-01-14T11:28:25Z</time>
      </trkpt>
      <trkpt lat="46.8077" lon="-1.86181">
        <ele>14</ele>
        <time>2018-01-14T11:29:25Z</time>
      </trkpt>
      <trkpt lat="46.80769" lon="-1.86196">
        <ele>14</ele>
        <time>2018-01-14T11:30:25Z</time>
      </trkpt>
      <trkpt lat="46.80765" lon="-1.8624">
        <ele>14</ele>
        <time>2018-01-14T11:31:25Z</time>
      </trkpt>
      <trkpt lat="46.8076" lon="-1.8629">
        <ele>14</ele>
        <time>2018-01-14T11:32:25Z</time>
      </trkpt>
      <trkpt lat="46.80749" lon="-1.86381">
        <ele>16</ele>
        <time>2018-01-14T11:33:25Z</time>
      </trkpt>
      <trkpt lat="46.8074" lon="-1.86464">
        <ele>19</ele>
        <time>2018-01-14T11:34:25Z</time>
      </trkpt>
      <trkpt lat="46.80735" lon="-1.86488">
        <ele>20</ele>
        <time>2018-01-14T11:35:25Z</time>
      </trkpt>
      <trkpt lat="46.80728" lon="-1.86508">
        <ele>20</ele>
        <time>2018-01-14T11:36:25Z</time>
      </trkpt>
      <trkpt lat="46.80714" lon="-1.8654">
        <ele>21</ele>
        <time>2018-01-14T11:37:25Z</time>
      </trkpt>
      <trkpt lat="46.80661" lon="-1.8666">
        <ele>23</ele>
        <time>2018-01-14T11:38:25Z</time>
      </trkpt>
      <trkpt lat="46.80655" lon="-1.86673">
        <ele>23</ele>
        <time>2018-01-14T11:39:25Z</time>
      </trkpt>
      <trkpt lat="46.80639" lon="-1.8671">
        <ele>23</ele>
        <time>2018-01-14T11:40:25Z</time>
      </trkpt>
      <trkpt lat="46.80625" lon="-1.8674">
        <ele>23</ele>
        <time>2018-01-14T11:41:25Z</time>
      </trkpt>
      <trkpt lat="46.80611" lon="-1.8677">
        <ele>23</ele>
        <time>2018-01-14T11:42:25Z</time>
      </trkpt>
      <trkpt lat="46.80609" lon="-1.86775">
        <ele>23</ele>
        <time>2018-01-14T11:43:25Z</time>
      </trkpt>
      <trkpt lat="46.80599" lon="-1.86798">
        <ele>24</ele>
        <time>2018-01-14T11:44:25Z</time>
      </trkpt>
      <trkpt lat="46.8059" lon="-1.86824">
        <ele>24</ele>
        <time>2018-01-14T11:45:25Z</time>
      </trkpt>
      <trkpt lat="46.80587" lon="-1.86837">
        <ele>24</ele>
        <time>2018-01-14T11:46:25Z</time>
      </trkpt>
      <trkpt lat="46.80579" lon="-1.86865">
        <ele>23</ele>
        <time>2018-01-14T11:47:25Z</time>
      </trkpt>
      <trkpt lat="46.80572" lon="-1.86897">
        <ele>22</ele>
        <time>2018-01-14T11:48:25Z</time>
      </trkpt>
      <trkpt lat="46.80569" lon="-1.8691">
        <ele>22</ele>
        <time>2018-01-14T11:49:25Z</time>
      </trkpt>
      <trkpt lat="46.80562" lon="-1.86941">
        <ele>22</ele>
        <time>2018-01-14T11:50:25Z</time>
      </trkpt>
      <trkpt lat="46.8056" lon="-1.86952">
        <ele>22</ele>
        <time>2018-01-14T11:51:25Z</time>
      </trkpt>
      <trkpt lat="46.80553" lon="-1.8698">
        <ele>22</ele>
        <time>2018-01-14T11:52:25Z</time>
      </trkpt>
      <trkpt lat="46.80542" lon="-1.87032">
        <ele>21</ele>
        <time>2018-01-14T11:53:25Z</time>
      </trkpt>
      <trkpt lat="46.80531" lon="-1.87088">
        <ele>21</ele>
        <time>2018-01-14T11:54:25Z</time>
      </trkpt>
      <trkpt lat="46.80519" lon="-1.87141">
        <ele>21</ele>
        <time>2018-01-14T11:55:25Z</time>
      </trkpt>
      <trkpt lat="46.8051" lon="-1.87178">
        <ele>21</ele>
        <time>2018-01-14T11:56:25Z</time>
      </trkpt>
      <trkpt lat="46.80494" lon="-1.87239">
        <ele>20</ele>
        <time>2018-01-14T11:57:25Z</time>
      </trkpt>
      <trkpt lat="46.80481" lon="-1.87279">
        <ele>20</ele>
        <time>2018-01-14T11:58:25Z</time>
      </trkpt>
      <trkpt lat="46.8046" lon="-1.87344">
        <ele>20</ele>
        <time>2018-01-14T11:59:25Z</time>
      </trkpt>
      <trkpt lat="46.80451" lon="-1.87368">
        <ele>19</ele>
        <time>2018-01-14T12:00:25Z</time>
      </trkpt>
      <trkpt lat="46.80445" lon="-1.87383">
        <ele>20</ele>
        <time>2018-01-14T12:01:25Z</time>
      </trkpt>
      <trkpt lat="46.80425" lon="-1.87444">
        <ele>20</ele>
        <time>2018-01-14T12:02:25Z</time>
      </trkpt>
      <trkpt lat="46.80402" lon="-1.87511">
        <ele>21</ele>
        <time>2018-01-14T12:03:25Z</time>
      </trkpt>
      <trkpt lat="46.80388" lon="-1.8755">
        <ele>21</ele>
        <time>2018-01-14T12:04:25Z</time>
      </trkpt>
      <trkpt lat="46.80388" lon="-1.8755">
        <ele>21</ele>
        <time>2018-01-14T12:05:25Z</time>
      </trkpt>
      <trkpt lat="46.80401" lon="-1.87575">
        <ele>20</ele>
        <time>2018-01-14T12:06:25Z</time>
      </trkpt>
      <trkpt lat="46.80408" lon="-1.87588">
        <ele>20</ele>
        <time>2018-01-14T12:07:25Z</time>
      </trkpt>
      <trkpt lat="46.80415" lon="-1.87602">
        <ele>20</ele>
        <time>2018-01-14T12:08:25Z</time>
      </trkpt>
      <trkpt lat="46.80423" lon="-1.87618">
        <ele>20</ele>
        <time>2018-01-14T12:09:25Z</time>
      </trkpt>
      <trkpt lat="46.8043" lon="-1.87635">
        <ele>20</ele>
        <time>2018-01-14T12:10:25Z</time>
      </trkpt>
      <trkpt lat="46.80435" lon="-1.87652">
        <ele>21</ele>
        <time>2018-01-14T12:11:25Z</time>
      </trkpt>
      <trkpt lat="46.80446" lon="-1.87685">
        <ele>21</ele>
        <time>2018-01-14T12:12:25Z</time>
      </trkpt>
      <trkpt lat="46.8046" lon="-1.8773">
        <ele>21</ele>
        <time>2018-01-14T12:13:25Z</time>
      </trkpt>
      <trkpt lat="46.80483" lon="-1.87808">
        <ele>20</ele>
        <time>2018-01-14T12:14:25Z</time>
      </trkpt>
      <trkpt lat="46.80495" lon="-1.87845">
        <ele>20</ele>
        <time>2018-01-14T12:15:25Z</time>
      </trkpt>
      <trkpt lat="46.80501" lon="-1.87862">
        <ele>20</ele>
        <time>2018-01-14T12:16:25Z</time>
      </trkpt>
      <trkpt lat="46.80509" lon="-1.87883">
        <ele>20</ele>
        <time>2018-01-14T12:17:25Z</time>
      </trkpt>
      <trkpt lat="46.80517" lon="-1.87901">
        <ele>20</ele>
        <time>2018-01-14T12:18:25Z</time>
      </trkpt>
      <trkpt lat="46.80524" lon="-1.87916">
        <ele>20</ele>
        <time>2018-01-14T12:19:25Z</time>
      </trkpt>
      <trkpt lat="46.80538" lon="-1.87944">
        <ele>20</ele>
        <time>2018-01-14T12:20:25Z</time>
      </trkpt>
      <trkpt lat="46.80561" lon="-1.87991">
        <ele>19</ele>
        <time>2018-01-14T12:21:25Z</time>
      </trkpt>
      <trkpt lat="46.80568" lon="-1.87999">
        <ele>18</ele>
        <time>2018-01-14T12:22:25Z</time>
      </trkpt>
      <trkpt lat="46.80581" lon="-1.8801">
        <ele>18</ele>
        <time>2018-01-14T12:23:25Z</time>
      </trkpt>
      <trkpt lat="46.8059" lon="-1.88016">
        <ele>17</ele>
        <time>2018-01-14T12:24:25Z</time>
      </trkpt>
      <trkpt lat="46.80597" lon="-1.88023">
        <ele>17</ele>
        <time>2018-01-14T12:25:25Z</time>
      </trkpt>
      <trkpt lat="46.806" lon="-1.88029">
        <ele>17</ele>
        <time>2018-01-14T12:26:25Z</time>
      </trkpt>
      <trkpt lat="46.80601" lon="-1.88032">
        <ele>16</ele>
        <time>2018-01-14T12:27:25Z</time>
      </trkpt>
      <trkpt lat="46.80603" lon="-1.88036">
        <ele>16</ele>
        <time>2018-01-14T12:28:25Z</time>
      </trkpt>
      <trkpt lat="46.80603" lon="-1.88036">
        <ele>16</ele>
        <time>2018-01-14T12:29:25Z</time>
      </trkpt>
      <trkpt lat="46.80605" lon="-1.88043">
        <ele>16</ele>
        <time>2018-01-14T12:30:25Z</time>
      </trkpt>
      <trkpt lat="46.80604" lon="-1.88052">
        <ele>16</ele>
        <time>2018-01-14T12:31:25Z</time>
      </trkpt>
      <trkpt lat="46.80604" lon="-1.88059">
        <ele>16</ele>
        <time>2018-01-14T12:32:25Z</time>
      </trkpt>
      <trkpt lat="46.80602" lon="-1.88066">
        <ele>16</ele>
        <time>2018-01-14T12:33:25Z</time>
      </trkpt>
      <trkpt lat="46.806" lon="-1.88076">
        <ele>16</ele>
        <time>2018-01-14T12:34:25Z</time>
      </trkpt>
      <trkpt lat="46.80595" lon="-1.88101">
        <ele>16</ele>
        <time>2018-01-14T12:35:25Z</time>
      </trkpt>
      <trkpt lat="46.8059" lon="-1.88125">
        <ele>15</ele>
        <time>2018-01-14T12:36:25Z</time>
      </trkpt>
      <trkpt lat="46.80575" lon="-1.88198">
        <ele>13</ele>
        <time>2018-01-14T12:37:25Z</time>
      </trkpt>
      <trkpt lat="46.80568" lon="-1.88229">
        <ele>13</ele>
        <time>2018-01-14T12:38:25Z</time>
      </trkpt>
      <trkpt lat="46.80565" lon="-1.8825">
        <ele>12</ele>
        <time>2018-01-14T12:39:25Z</time>
      </trkpt>
      <trkpt lat="46.80562" lon="-1.88271">
        <ele>12</ele>
        <time>2018-01-14T12:40:25Z</time>
      </trkpt>
      <trkpt lat="46.80561" lon="-1.88299">
        <ele>11</ele>
        <time>2018-01-14T12:41:25Z</time>
      </trkpt>
      <trkpt lat="46.8056" lon="-1.88356">
        <ele>11</ele>
        <time>2018-01-14T12:42:25Z</time>
      </trkpt>
      <trkpt lat="46.80561" lon="-1.88435">
        <ele>12</ele>
        <time>2018-01-14T12:43:25Z</time>
      </trkpt>
      <trkpt lat="46.80564" lon="-1.88536">
        <ele>14</ele>
        <time>2018-01-14T12:44:25Z</time>
      </trkpt>
      <trkpt lat="46.80565" lon="-1.8859">
        <ele>14</ele>
        <time>2018-01-14T12:45:25Z</time>
      </trkpt>
      <trkpt lat="46.80565" lon="-1.88597">
        <ele>14</ele>
        <time>2018-01-14T12:46:25Z</time>
      </trkpt>
      <trkpt lat="46.80568" lon="-1.88688">
        <ele>15</ele>
        <time>2018-01-14T12:47:25Z</time>
      </trkpt>
      <trkpt lat="46.80569" lon="-1.88763">
        <ele>16</ele>
        <time>2018-01-14T12:48:25Z</time>
      </trkpt>
      <trkpt lat="46.80569" lon="-1.88794">
        <ele>17</ele>
        <time>2018-01-14T12:49:25Z</time>
      </trkpt>
      <trkpt lat="46.80568" lon="-1.88808">
        <ele>18</ele>
        <time>2018-01-14T12:50:25Z</time>
      </trkpt>
      <trkpt lat="46.80566" lon="-1.88821">
        <ele>18</ele>
        <time>2018-01-14T12:51:25Z</time>
      </trkpt>
      <trkpt lat="46.80562" lon="-1.88839">
        <ele>19</ele>
        <time>2018-01-14T12:52:25Z</time>
      </trkpt>
      <trkpt lat="46.80557" lon="-1.88852">
        <ele>19</ele>
        <time>2018-01-14T12:53:25Z</time>
      </trkpt>
      <trkpt lat="46.80552" lon="-1.88862">
        <ele>19</ele>
        <time>2018-01-14T12:54:25Z</time>
      </trkpt>
      <trkpt lat="46.80543" lon="-1.88874">
        <ele>19</ele>
        <time>2018-01-14T12:55:25Z</time>
      </trkpt>
      <trkpt lat="46.80533" lon="-1.88887">
        <ele>19</ele>
        <time>2018-01-14T12:56:25Z</time>
      </trkpt>
      <trkpt lat="46.80533" lon="-1.88887">
        <ele>19</ele>
        <time>2018-01-14T12:57:25Z</time>
      </trkpt>
      <trkpt lat="46.80541" lon="-1.88904">
        <ele>19</ele>
        <time>2018-01-14T12:58:25Z</time>
      </trkpt>
      <trkpt lat="46.80556" lon="-1.88938">
        <ele>20</ele>
        <time>2018-01-14T12:59:25Z</time>
      </trkpt>
      <trkpt lat="46.80561" lon="-1.88953">
        <ele>20</ele>
        <time>2018-01-14T13:00:25Z</time>
      </trkpt>
      <trkpt lat="46.80564" lon="-1.88963">
        <ele>20</ele>
        <time>2018-01-14T13:01:25Z</time>
      </trkpt>
      <trkpt lat="46.80566" lon="-1.88977">
        <ele>20</ele>
        <time>2018-01-14T13:02:25Z</time>
      </trkpt>
      <trkpt lat="46.80567" lon="-1.88992">
        <ele>20</ele>
        <time>2018-01-14T13:03:25Z</time>
      </trkpt>
      <trkpt lat="46.80566" lon="-1.89011">
        <ele>20</ele>
        <time>2018-01-14T13:04:25Z</time>
      </trkpt>
      <trkpt lat="46.80563" lon="-1.89045">
        <ele>20</ele>
        <time>2018-01-14T13:05:25Z</time>
      </trkpt>
      <trkpt lat="46.80557" lon="-1.89097">
        <ele>21</ele>
        <time>2018-01-14T13:06:25Z</time>
      </trkpt>
      <trkpt lat="46.80551" lon="-1.89144">
        <ele>21</ele>
        <time>2018-01-14T13:07:25Z</time>
      </trkpt>
      <trkpt lat="46.80545" lon="-1.89196">
        <ele>22</ele>
        <time>2018-01-14T13:08:25Z</time>
      </trkpt>
      <trkpt lat="46.80542" lon="-1.89221">
        <ele>22</ele>
        <time>2018-01-14T13:09:25Z</time>
      </trkpt>
      <trkpt lat="46.8054" lon="-1.89227">
        <ele>22</ele>
        <time>2018-01-14T13:10:25Z</time>
      </trkpt>
      <trkpt lat="46.80537" lon="-1.89245">
        <ele>22</ele>
        <time>2018-01-14T13:11:25Z</time>
      </trkpt>
      <trkpt lat="46.80532" lon="-1.89265">
        <ele>22</ele>
        <time>2018-01-14T13:12:25Z</time>
      </trkpt>
      <trkpt lat="46.80527" lon="-1.89283">
        <ele>22</ele>
        <time>2018-01-14T13:13:25Z</time>
      </trkpt>
      <trkpt lat="46.80519" lon="-1.89312">
        <ele>22</ele>
        <time>2018-01-14T13:14:25Z</time>
      </trkpt>
      <trkpt lat="46.80511" lon="-1.89342">
        <ele>22</ele>
        <time>2018-01-14T13:15:25Z</time>
      </trkpt>
      <trkpt lat="46.80506" lon="-1.89356">
        <ele>22</ele>
        <time>2018-01-14T13:16:25Z</time>
      </trkpt>
      <trkpt lat="46.805" lon="-1.89376">
        <ele>21</ele>
        <time>2018-01-14T13:17:25Z</time>
      </trkpt>
      <trkpt lat="46.80492" lon="-1.89397">
        <ele>21</ele>
        <time>2018-01-14T13:18:25Z</time>
      </trkpt>
      <trkpt lat="46.80483" lon="-1.89418">
        <ele>21</ele>
        <time>2018-01-14T13:19:25Z</time>
      </trkpt>
      <trkpt lat="46.80475" lon="-1.89438">
        <ele>21</ele>
        <time>2018-01-14T13:20:25Z</time>
      </trkpt>
      <trkpt lat="46.80475" lon="-1.8944">
        <ele>21</ele>
        <time>2018-01-14T13:21:25Z</time>
      </trkpt>
      <trkpt lat="46.80467" lon="-1.89457">
        <ele>20</ele>
        <time>2018-01-14T13:22:25Z</time>
      </trkpt>
      <trkpt lat="46.80467" lon="-1.89459">
        <ele>20</ele>
        <time>2018-01-14T13:23:25Z</time>
      </trkpt>
      <trkpt lat="46.80454" lon="-1.89484">
        <ele>20</ele>
        <time>2018-01-14T13:24:25Z</time>
      </trkpt>
      <trkpt lat="46.80437" lon="-1.8952">
        <ele>20</ele>
        <time>2018-01-14T13:25:25Z</time>
      </trkpt>
      <trkpt lat="46.80428" lon="-1.8954">
        <ele>21</ele>
        <time>2018-01-14T13:26:25Z</time>
      </trkpt>
      <trkpt lat="46.80416" lon="-1.89563">
        <ele>21</ele>
        <time>2018-01-14T13:27:25Z</time>
      </trkpt>
      <trkpt lat="46.80392" lon="-1.89614">
        <ele>20</ele>
        <time>2018-01-14T13:28:25Z</time>
      </trkpt>
      <trkpt lat="46.80386" lon="-1.89639">
        <ele>19</ele>
        <time>2018-01-14T13:29:25Z</time>
      </trkpt>
      <trkpt lat="46.80386" lon="-1.89639">
        <ele>19</ele>
        <time>2018-01-14T13:30:25Z</time>
      </trkpt>
      <trkpt lat="46.80387" lon="-1.89641">
        <ele>19</ele>
        <time>2018-01-14T13:31:25Z</time>
      </trkpt>
      <trkpt lat="46.80387" lon="-1.89643">
        <ele>19</ele>
        <time>2018-01-14T13:32:25Z</time>
      </trkpt>
      <trkpt lat="46.80387" lon="-1.89646">
        <ele>19</ele>
        <time>2018-01-14T13:33:25Z</time>
      </trkpt>
      <trkpt lat="46.80387" lon="-1.89649">
        <ele>19</ele>
        <time>2018-01-14T13:34:25Z</time>
      </trkpt>
      <trkpt lat="46.80387" lon="-1.89652">
        <ele>19</ele>
        <time>2018-01-14T13:35:25Z</time>
      </trkpt>
      <trkpt lat="46.80387" lon="-1.89654">
        <ele>19</ele>
        <time>2018-01-14T13:36:25Z</time>
      </trkpt>
      <trkpt lat="46.80385" lon="-1.89657">
        <ele>19</ele>
        <time>2018-01-14T13:37:25Z</time>
      </trkpt>
      <trkpt lat="46.80383" lon="-1.8966">
        <ele>19</ele>
        <time>2018-01-14T13:38:25Z</time>
      </trkpt>
      <trkpt lat="46.80381" lon="-1.89661">
        <ele>19</ele>
        <time>2018-01-14T13:39:25Z</time>
      </trkpt>
      <trkpt lat="46.80372" lon="-1.89679">
        <ele>19</ele>
        <time>2018-01-14T13:40:25Z</time>
      </trkpt>
      <trkpt lat="46.80363" lon="-1.89715">
        <ele>19</ele>
        <time>2018-01-14T13:41:25Z</time>
      </trkpt>
      <trkpt lat="46.80353" lon="-1.89758">
        <ele>18</ele>
        <time>2018-01-14T13:42:25Z</time>
      </trkpt>
      <trkpt lat="46.80346" lon="-1.89785">
        <ele>19</ele>
        <time>2018-01-14T13:43:25Z</time>
      </trkpt>
      <trkpt lat="46.80321" lon="-1.89887">
        <ele>19</ele>
        <time>2018-01-14T13:44:25Z</time>
      </trkpt>
      <trkpt lat="46.80314" lon="-1.89916">
        <ele>19</ele>
        <time>2018-01-14T13:45:25Z</time>
      </trkpt>
      <trkpt lat="46.80297" lon="-1.89985">
        <ele>20</ele>
        <time>2018-01-14T13:46:25Z</time>
      </trkpt>
      <trkpt lat="46.80286" lon="-1.90028">
        <ele>20</ele>
        <time>2018-01-14T13:47:25Z</time>
      </trkpt>
      <trkpt lat="46.80282" lon="-1.90045">
        <ele>19</ele>
        <time>2018-01-14T13:48:25Z</time>
      </trkpt>
      <trkpt lat="46.8027" lon="-1.90099">
        <ele>18</ele>
        <time>2018-01-14T13:49:25Z</time>
      </trkpt>
      <trkpt lat="46.80263" lon="-1.90128">
        <ele>18</ele>
        <time>2018-01-14T13:50:25Z</time>
      </trkpt>
      <trkpt lat="46.80259" lon="-1.90155">
        <ele>17</ele>
        <time>2018-01-14T13:51:25Z</time>
      </trkpt>
      <trkpt lat="46.80254" lon="-1.90187">
        <ele>17</ele>
        <time>2018-01-14T13:52:25Z</time>
      </trkpt>
      <trkpt lat="46.80249" lon="-1.90235">
        <ele>17</ele>
        <time>2018-01-14T13:53:25Z</time>
      </trkpt>
      <trkpt lat="46.80241" lon="-1.90357">
        <ele>17</ele>
        <time>2018-01-14T13:54:25Z</time>
      </trkpt>
      <trkpt lat="46.8024" lon="-1.90393">
        <ele>16</ele>
        <time>2018-01-14T13:55:25Z</time>
      </trkpt>
      <trkpt lat="46.8024" lon="-1.90425">
        <ele>16</ele>
        <time>2018-01-14T13:56:25Z</time>
      </trkpt>
      <trkpt lat="46.8024" lon="-1.90445">
        <ele>16</ele>
        <time>2018-01-14T13:57:25Z</time>
      </trkpt>
      <trkpt lat="46.80241" lon="-1.90463">
        <ele>15</ele>
        <time>2018-01-14T13:58:25Z</time>
      </trkpt>
      <trkpt lat="46.80241" lon="-1.9047">
        <ele>15</ele>
        <time>2018-01-14T13:59:25Z</time>
      </trkpt>
      <trkpt lat="46.80241" lon="-1.90472">
        <ele>15</ele>
        <time>2018-01-14T14:00:25Z</time>
      </trkpt>
      <trkpt lat="46.80243" lon="-1.90501">
        <ele>15</ele>
        <time>2018-01-14T14:01:25Z</time>
      </trkpt>
      <trkpt lat="46.80248" lon="-1.90557">
        <ele>15</ele>
        <time>2018-01-14T14:02:25Z</time>
      </trkpt>
      <trkpt lat="46.80256" lon="-1.90649">
        <ele>14</ele>
        <time>2018-01-14T14:03:25Z</time>
      </trkpt>
      <trkpt lat="46.80257" lon="-1.90671">
        <ele>14</ele>
        <time>2018-01-14T14:04:25Z</time>
      </trkpt>
      <trkpt lat="46.80258" lon="-1.90693">
        <ele>13</ele>
        <time>2018-01-14T14:05:25Z</time>
      </trkpt>
      <trkpt lat="46.8026" lon="-1.90727">
        <ele>13</ele>
        <time>2018-01-14T14:06:25Z</time>
      </trkpt>
      <trkpt lat="46.80261" lon="-1.90764">
        <ele>12</ele>
        <time>2018-01-14T14:07:25Z</time>
      </trkpt>
      <trkpt lat="46.80264" lon="-1.90802">
        <ele>12</ele>
        <time>2018-01-14T14:08:25Z</time>
      </trkpt>
      <trkpt lat="46.80268" lon="-1.90855">
        <ele>12</ele>
        <time>2018-01-14T14:09:25Z</time>
      </trkpt>
      <trkpt lat="46.80271" lon="-1.90899">
        <ele>12</ele>
        <time>2018-01-14T14:10:25Z</time>
      </trkpt>
      <trkpt lat="46.80271" lon="-1.9091">
        <ele>12</ele>
        <time>2018-01-14T14:11:25Z</time>
      </trkpt>
      <trkpt lat="46.80267" lon="-1.90923">
        <ele>12</ele>
        <time>2018-01-14T14:12:25Z</time>
      </trkpt>
      <trkpt lat="46.80267" lon="-1.90923">
        <ele>12</ele>
        <time>2018-01-14T14:13:25Z</time>
      </trkpt>
      <trkpt lat="46.80272" lon="-1.90939">
        <ele>12</ele>
        <time>2018-01-14T14:14:25Z</time>
      </trkpt>
      <trkpt lat="46.80273" lon="-1.9094">
        <ele>12</ele>
        <time>2018-01-14T14:15:25Z</time>
      </trkpt>
      <trkpt lat="46.80276" lon="-1.90948">
        <ele>12</ele>
        <time>2018-01-14T14:16:25Z</time>
      </trkpt>
      <trkpt lat="46.8028" lon="-1.90962">
        <ele>12</ele>
        <time>2018-01-14T14:17:25Z</time>
      </trkpt>
      <trkpt lat="46.80285" lon="-1.9098">
        <ele>12</ele>
        <time>2018-01-14T14:18:25Z</time>
      </trkpt>
      <trkpt lat="46.80288" lon="-1.90996">
        <ele>12</ele>
        <time>2018-01-14T14:19:25Z</time>
      </trkpt>
      <trkpt lat="46.80288" lon="-1.90998">
        <ele>11</ele>
        <time>2018-01-14T14:20:25Z</time>
      </trkpt>
      <trkpt lat="46.80292" lon="-1.91027">
        <ele>11</ele>
        <time>2018-01-14T14:21:25Z</time>
      </trkpt>
      <trkpt lat="46.80295" lon="-1.91048">
        <ele>10</ele>
        <time>2018-01-14T14:22:25Z</time>
      </trkpt>
      <trkpt lat="46.80298" lon="-1.91076">
        <ele>9</ele>
        <time>2018-01-14T14:23:25Z</time>
      </trkpt>
      <trkpt lat="46.80298" lon="-1.91077">
        <ele>9</ele>
        <time>2018-01-14T14:24:25Z</time>
      </trkpt>
      <trkpt lat="46.80307" lon="-1.9116">
        <ele>8</ele>
        <time>2018-01-14T14:25:25Z</time>
      </trkpt>
      <trkpt lat="46.80315" lon="-1.91235">
        <ele>8</ele>
        <time>2018-01-14T14:26:25Z</time>
      </trkpt>
      <trkpt lat="46.80318" lon="-1.9126">
        <ele>8</ele>
        <time>2018-01-14T14:27:25Z</time>
      </trkpt>
      <trkpt lat="46.80318" lon="-1.91265">
        <ele>8</ele>
        <time>2018-01-14T14:28:25Z</time>
      </trkpt>
      <trkpt lat="46.80321" lon="-1.91277">
        <ele>8</ele>
        <time>2018-01-14T14:29:25Z</time>
      </trkpt>
      <trkpt lat="46.80323" lon="-1.91291">
        <ele>8</ele>
        <time>2018-01-14T14:30:25Z</time>
      </trkpt>
      <trkpt lat="46.80327" lon="-1.9131">
        <ele>8</ele>
        <time>2018-01-14T14:31:25Z</time>
      </trkpt>
      <trkpt lat="46.80333" lon="-1.91328">
        <ele>8</ele>
        <time>2018-01-14T14:32:25Z</time>
      </trkpt>
      <trkpt lat="46.80339" lon="-1.91346">
        <ele>8</ele>
        <time>2018-01-14T14:33:25Z</time>
      </trkpt>
      <trkpt lat="46.80346" lon="-1.91361">
        <ele>8</ele>
        <time>2018-01-14T14:34:25Z</time>
      </trkpt>
      <trkpt lat="46.80351" lon="-1.91372">
        <ele>8</ele>
        <time>2018-01-14T14:35:25Z</time>
      </trkpt>
      <trkpt lat="46.80354" lon="-1.91379">
        <ele>8</ele>
        <time>2018-01-14T14:36:25Z</time>
      </trkpt>
      <trkpt lat="46.80366" lon="-1.91399">
        <ele>8</ele>
        <time>2018-01-14T14:37:25Z</time>
      </trkpt>
      <trkpt lat="46.80384" lon="-1.91425">
        <ele>8</ele>
        <time>2018-01-14T14:38:25Z</time>
      </trkpt>
      <trkpt lat="46.80398" lon="-1.91445">
        <ele>8</ele>
        <time>2018-01-14T14:39:25Z</time>
      </trkpt>
      <trkpt lat="46.80412" lon="-1.91464">
        <ele>8</ele>
        <time>2018-01-14T14:40:25Z</time>
      </trkpt>
      <trkpt lat="46.80458" lon="-1.91527">
        <ele>8</ele>
        <time>2018-01-14T14:41:25Z</time>
      </trkpt>
      <trkpt lat="46.80475" lon="-1.91547">
        <ele>8</ele>
        <time>2018-01-14T14:42:25Z</time>
      </trkpt>
      <trkpt lat="46.80488" lon="-1.91562">
        <ele>8</ele>
        <time>2018-01-14T14:43:25Z</time>
      </trkpt>
      <trkpt lat="46.8051" lon="-1.91583">
        <ele>8</ele>
        <time>2018-01-14T14:44:25Z</time>
      </trkpt>
      <trkpt lat="46.80542" lon="-1.91609">
        <ele>7</ele>
        <time>2018-01-14T14:45:25Z</time>
      </trkpt>
      <trkpt lat="46.80555" lon="-1.91623">
        <ele>7</ele>
        <time>2018-01-14T14:46:25Z</time>
      </trkpt>
      <trkpt lat="46.80569" lon="-1.91638">
        <ele>6</ele>
        <time>2018-01-14T14:47:25Z</time>
      </trkpt>
      <trkpt lat="46.80575" lon="-1.91647">
        <ele>6</ele>
        <time>2018-01-14T14:48:25Z</time>
      </trkpt>
      <trkpt lat="46.80582" lon="-1.91662">
        <ele>6</ele>
        <time>2018-01-14T14:49:25Z</time>
      </trkpt>
      <trkpt lat="46.80585" lon="-1.91669">
        <ele>6</ele>
        <time>2018-01-14T14:50:25Z</time>
      </trkpt>
      <trkpt lat="46.80591" lon="-1.91683">
        <ele>6</ele>
        <time>2018-01-14T14:51:25Z</time>
      </trkpt>
      <trkpt lat="46.80596" lon="-1.91699">
        <ele>5</ele>
        <time>2018-01-14T14:52:25Z</time>
      </trkpt>
      <trkpt lat="46.806" lon="-1.91717">
        <ele>5</ele>
        <time>2018-01-14T14:53:25Z</time>
      </trkpt>
      <trkpt lat="46.80604" lon="-1.91749">
        <ele>5</ele>
        <time>2018-01-14T14:54:25Z</time>
      </trkpt>
      <trkpt lat="46.80607" lon="-1.91785">
        <ele>5</ele>
        <time>2018-01-14T14:55:25Z</time>
      </trkpt>
      <trkpt lat="46.8061" lon="-1.91803">
        <ele>5</ele>
        <time>2018-01-14T14:56:25Z</time>
      </trkpt>
      <trkpt lat="46.80613" lon="-1.91824">
        <ele>5</ele>
        <time>2018-01-14T14:57:25Z</time>
      </trkpt>
      <trkpt lat="46.80617" lon="-1.91842">
        <ele>5</ele>
        <time>2018-01-14T14:58:25Z</time>
      </trkpt>
      <trkpt lat="46.8062" lon="-1.91857">
        <ele>5</ele>
        <time>2018-01-14T14:59:25Z</time>
      </trkpt>
      <trkpt lat="46.80621" lon="-1.91862">
        <ele>5</ele>
        <time>2018-01-14T15:00:25Z</time>
      </trkpt>
      <trkpt lat="46.80627" lon="-1.91883">
        <ele>5</ele>
        <time>2018-01-14T15:01:25Z</time>
      </trkpt>
      <trkpt lat="46.80634" lon="-1.91902">
        <ele>5</ele>
        <time>2018-01-14T15:02:25Z</time>
      </trkpt>
      <trkpt lat="46.8064" lon="-1.91921">
        <ele>5</ele>
        <time>2018-01-14T15:03:25Z</time>
      </trkpt>
      <trkpt lat="46.80652" lon="-1.91948">
        <ele>5</ele>
        <time>2018-01-14T15:04:25Z</time>
      </trkpt>
      <trkpt lat="46.80676" lon="-1.91991">
        <ele>4</ele>
        <time>2018-01-14T15:05:25Z</time>
      </trkpt>
      <trkpt lat="46.807" lon="-1.92035">
        <ele>4</ele>
        <time>2018-01-14T15:06:25Z</time>
      </trkpt>
      <trkpt lat="46.80734" lon="-1.92103">
        <ele>4</ele>
        <time>2018-01-14T15:07:25Z</time>
      </trkpt>
      <trkpt lat="46.80767" lon="-1.92165">
        <ele>4</ele>
        <time>2018-01-14T15:08:25Z</time>
      </trkpt>
      <trkpt lat="46.80773" lon="-1.92177">
        <ele>4</ele>
        <time>2018-01-14T15:09:25Z</time>
      </trkpt>
      <trkpt lat="46.80775" lon="-1.9218">
        <ele>4</ele>
        <time>2018-01-14T15:10:25Z</time>
      </trkpt>
      <trkpt lat="46.80781" lon="-1.92196">
        <ele>4</ele>
        <time>2018-01-14T15:11:25Z</time>
      </trkpt>
      <trkpt lat="46.80789" lon="-1.92216">
        <ele>4</ele>
        <time>2018-01-14T15:12:25Z</time>
      </trkpt>
      <trkpt lat="46.80796" lon="-1.92232">
        <ele>5</ele>
        <time>2018-01-14T15:13:25Z</time>
      </trkpt>
      <trkpt lat="46.80802" lon="-1.92248">
        <ele>5</ele>
        <time>2018-01-14T15:14:25Z</time>
      </trkpt>
      <trkpt lat="46.8081" lon="-1.92272">
        <ele>5</ele>
        <time>2018-01-14T15:15:25Z</time>
      </trkpt>
      <trkpt lat="46.80818" lon="-1.92297">
        <ele>5</ele>
        <time>2018-01-14T15:16:25Z</time>
      </trkpt>
      <trkpt lat="46.80824" lon="-1.92313">
        <ele>5</ele>
        <time>2018-01-14T15:17:25Z</time>
      </trkpt>
      <trkpt lat="46.80828" lon="-1.92327">
        <ele>5</ele>
        <time>2018-01-14T15:18:25Z</time>
      </trkpt>
      <trkpt lat="46.80831" lon="-1.92338">
        <ele>5</ele>
        <time>2018-01-14T15:19:25Z</time>
      </trkpt>
      <trkpt lat="46.80839" lon="-1.92364">
        <ele>5</ele>
        <time>2018-01-14T15:20:25Z</time>
      </trkpt>
      <trkpt lat="46.80844" lon="-1.92383">
        <ele>4</ele>
        <time>2018-01-14T15:21:25Z</time>
      </trkpt>
      <trkpt lat="46.80848" lon="-1.92404">
        <ele>4</ele>
        <time>2018-01-14T15:22:25Z</time>
      </trkpt>
      <trkpt lat="46.80851" lon="-1.92424">
        <ele>4</ele>
        <time>2018-01-14T15:23:25Z</time>
      </trkpt>
      <trkpt lat="46.80852" lon="-1.92442">
        <ele>3</ele>
        <time>2018-01-14T15:24:25Z</time>
      </trkpt>
      <trkpt lat="46.80853" lon="-1.92459">
        <ele>3</ele>
        <time>2018-01-14T15:25:25Z</time>
      </trkpt>
      <trkpt lat="46.80853" lon="-1.92462">
        <ele>3</ele>
        <time>2018-01-14T15:26:25Z</time>
      </trkpt>
      <trkpt lat="46.80853" lon="-1.92478">
        <ele>2</ele>
        <time>2018-01-14T15:27:25Z</time>
      </trkpt>
      <trkpt lat="46.80852" lon="-1.925">
        <ele>2</ele>
        <time>2018-01-14T15:28:25Z</time>
      </trkpt>
      <trkpt lat="46.8085" lon="-1.92539">
        <ele>1</ele>
        <time>2018-01-14T15:29:25Z</time>
      </trkpt>
      <trkpt lat="46.80849" lon="-1.92548">
        <ele>1</ele>
        <time>2018-01-14T15:30:25Z</time>
      </trkpt>
      <trkpt lat="46.80845" lon="-1.92603">
        <ele>2.2</ele>
        <time>2018-01-14T15:31:25Z</time>
      </trkpt>
      <trkpt lat="46.80845" lon="-1.92618">
        <ele>1.9</ele>
        <time>2018-01-14T15:32:25Z</time>
      </trkpt>
      <trkpt lat="46.80846" lon="-1.92633">
        <ele>1.6</ele>
        <time>2018-01-14T15:33:25Z</time>
      </trkpt>
      <trkpt lat="46.80848" lon="-1.92648">
        <ele>1.5</ele>
        <time>2018-01-14T15:34:25Z</time>
      </trkpt>
      <trkpt lat="46.8085" lon="-1.92663">
        <ele>1.4</ele>
        <time>2018-01-14T15:35:25Z</time>
      </trkpt>
      <trkpt lat="46.80854" lon="-1.92678">
        <ele>1.5</ele>
        <time>2018-01-14T15:36:25Z</time>
      </trkpt>
      <trkpt lat="46.80864" lon="-1.92712">
        <ele>1.9</ele>
        <time>2018-01-14T15:37:25Z</time>
      </trkpt>
      <trkpt lat="46.80874" lon="-1.92747">
        <ele>1.5</ele>
        <time>2018-01-14T15:38:25Z</time>
      </trkpt>
      <trkpt lat="46.80881" lon="-1.92775">
        <ele>1.9</ele>
        <time>2018-01-14T15:39:25Z</time>
      </trkpt>
      <trkpt lat="46.80885" lon="-1.92799">
        <ele>1.3</ele>
        <time>2018-01-14T15:40:25Z</time>
      </trkpt>
      <trkpt lat="46.80886" lon="-1.92822">
        <ele>1.1</ele>
        <time>2018-01-14T15:41:25Z</time>
      </trkpt>
      <trkpt lat="46.80885" lon="-1.92842">
        <ele>1.1</ele>
        <time>2018-01-14T15:42:25Z</time>
      </trkpt>
      <trkpt lat="46.80883" lon="-1.92863">
        <ele>1.2</ele>
        <time>2018-01-14T15:43:25Z</time>
      </trkpt>
      <trkpt lat="46.8088" lon="-1.92882">
        <ele>1.1</ele>
        <time>2018-01-14T15:44:25Z</time>
      </trkpt>
      <trkpt lat="46.80875" lon="-1.92901">
        <ele>1.4</ele>
        <time>2018-01-14T15:45:25Z</time>
      </trkpt>
      <trkpt lat="46.80868" lon="-1.92922">
        <ele>1</ele>
        <time>2018-01-14T15:46:25Z</time>
      </trkpt>
      <trkpt lat="46.80857" lon="-1.92955">
        <ele>1</ele>
        <time>2018-01-14T15:47:25Z</time>
      </trkpt>
      <trkpt lat="46.80836" lon="-1.9301">
        <ele>1</ele>
        <time>2018-01-14T15:48:25Z</time>
      </trkpt>
      <trkpt lat="46.80814" lon="-1.93072">
        <ele>1</ele>
        <time>2018-01-14T15:49:25Z</time>
      </trkpt>
      <trkpt lat="46.80805" lon="-1.93096">
        <ele>2.1</ele>
        <time>2018-01-14T15:50:25Z</time>
      </trkpt>
      <trkpt lat="46.80802" lon="-1.93104">
        <ele>1.5</ele>
        <time>2018-01-14T15:51:25Z</time>
      </trkpt>
      <trkpt lat="46.80799" lon="-1.9311">
        <ele>1.1</ele>
        <time>2018-01-14T15:52:25Z</time>
      </trkpt>
      <trkpt lat="46.80798" lon="-1.93115">
        <ele>1.1</ele>
        <time>2018-01-14T15:53:25Z</time>
      </trkpt>
      <trkpt lat="46.80797" lon="-1.93117">
        <ele>1.1</ele>
        <time>2018-01-14T15:54:25Z</time>
      </trkpt>
      <trkpt lat="46.80793" lon="-1.93132">
        <ele>1.4</ele>
        <time>2018-01-14T15:55:25Z</time>
      </trkpt>
      <trkpt lat="46.80789" lon="-1.93147">
        <ele>1.6</ele>
        <time>2018-01-14T15:56:25Z</time>
      </trkpt>
      <trkpt lat="46.80785" lon="-1.93165">
        <ele>2</ele>
        <time>2018-01-14T15:57:25Z</time>
      </trkpt>
      <trkpt lat="46.80781" lon="-1.93183">
        <ele>2</ele>
        <time>2018-01-14T15:58:25Z</time>
      </trkpt>
      <trkpt lat="46.80778" lon="-1.93203">
        <ele>2</ele>
        <time>2018-01-14T15:59:25Z</time>
      </trkpt>
      <trkpt lat="46.80776" lon="-1.93224">
        <ele>2</ele>
        <time>2018-01-14T16:00:25Z</time>
      </trkpt>
      <trkpt lat="46.80775" lon="-1.93249">
        <ele>1.9</ele>
        <time>2018-01-14T16:01:25Z</time>
      </trkpt>
      <trkpt lat="46.80774" lon="-1.93304">
        <ele>1</ele>
        <time>2018-01-14T16:02:25Z</time>
      </trkpt>
      <trkpt lat="46.80773" lon="-1.93346">
        <ele>1</ele>
        <time>2018-01-14T16:03:25Z</time>
      </trkpt>
      <trkpt lat="46.80772" lon="-1.93378">
        <ele>1</ele>
        <time>2018-01-14T16:04:25Z</time>
      </trkpt>
      <trkpt lat="46.80771" lon="-1.93409">
        <ele>1</ele>
        <time>2018-01-14T16:05:25Z</time>
      </trkpt>
      <trkpt lat="46.80769" lon="-1.93455">
        <ele>1</ele>
        <time>2018-01-14T16:06:25Z</time>
      </trkpt>
      <trkpt lat="46.80768" lon="-1.93481">
        <ele>1</ele>
        <time>2018-01-14T16:07:25Z</time>
      </trkpt>
      <trkpt lat="46.80767" lon="-1.93516">
        <ele>1</ele>
        <time>2018-01-14T16:08:25Z</time>
      </trkpt>
      <trkpt lat="46.80766" lon="-1.9355">
        <ele>1</ele>
        <time>2018-01-14T16:09:25Z</time>
      </trkpt>
      <trkpt lat="46.80764" lon="-1.93577">
        <ele>2</ele>
        <time>2018-01-14T16:10:25Z</time>
      </trkpt>
      <trkpt lat="46.80763" lon="-1.93592">
        <ele>2</ele>
        <time>2018-01-14T16:11:25Z</time>
      </trkpt>
      <trkpt lat="46.8076" lon="-1.93608">
        <ele>2</ele>
        <time>2018-01-14T16:12:25Z</time>
      </trkpt>
      <trkpt lat="46.80759" lon="-1.93616">
        <ele>2</ele>
        <time>2018-01-14T16:13:25Z</time>
      </trkpt>
      <trkpt lat="46.80751" lon="-1.93641">
        <ele>2</ele>
        <time>2018-01-14T16:14:25Z</time>
      </trkpt>
      <trkpt lat="46.80738" lon="-1.93674">
        <ele>2</ele>
        <time>2018-01-14T16:15:25Z</time>
      </trkpt>
      <trkpt lat="46.80725" lon="-1.93706">
        <ele>2</ele>
        <time>2018-01-14T16:16:25Z</time>
      </trkpt>
      <trkpt lat="46.80711" lon="-1.93739">
        <ele>1</ele>
        <time>2018-01-14T16:17:25Z</time>
      </trkpt>
      <trkpt lat="46.807" lon="-1.93766">
        <ele>1</ele>
        <time>2018-01-14T16:18:25Z</time>
      </trkpt>
      <trkpt lat="46.80691" lon="-1.93785">
        <ele>1</ele>
        <time>2018-01-14T16:19:25Z</time>
      </trkpt>
      <trkpt lat="46.8068" lon="-1.93812">
        <ele>1.6</ele>
        <time>2018-01-14T16:20:25Z</time>
      </trkpt>
      <trkpt lat="46.80677" lon="-1.93821">
        <ele>1.8</ele>
        <time>2018-01-14T16:21:25Z</time>
      </trkpt>
      <trkpt lat="46.80671" lon="-1.93836">
        <ele>2</ele>
        <time>2018-01-14T16:22:25Z</time>
      </trkpt>
      <trkpt lat="46.80666" lon="-1.93852">
        <ele>2</ele>
        <time>2018-01-14T16:23:25Z</time>
      </trkpt>
      <trkpt lat="46.80661" lon="-1.93872">
        <ele>1.6</ele>
        <time>2018-01-14T16:24:25Z</time>
      </trkpt>
      <trkpt lat="46.80657" lon="-1.93896">
        <ele>1</ele>
        <time>2018-01-14T16:25:25Z</time>
      </trkpt>
      <trkpt lat="46.80653" lon="-1.93929">
        <ele>1</ele>
        <time>2018-01-14T16:26:25Z</time>
      </trkpt>
      <trkpt lat="46.8065" lon="-1.93966">
        <ele>1.5</ele>
        <time>2018-01-14T16:27:25Z</time>
      </trkpt>
      <trkpt lat="46.80647" lon="-1.94004">
        <ele>1.7</ele>
        <time>2018-01-14T16:28:25Z</time>
      </trkpt>
      <trkpt lat="46.80645" lon="-1.94036">
        <ele>1.8</ele>
        <time>2018-01-14T16:29:25Z</time>
      </trkpt>
      <trkpt lat="46.80642" lon="-1.94074">
        <ele>2</ele>
        <time>2018-01-14T16:30:25Z</time>
      </trkpt>
      <trkpt lat="46.80638" lon="-1.94119">
        <ele>1</ele>
        <time>2018-01-14T16:31:25Z</time>
      </trkpt>
      <trkpt lat="46.80635" lon="-1.9416">
        <ele>1</ele>
        <time>2018-01-14T16:32:25Z</time>
      </trkpt>
      <trkpt lat="46.80633" lon="-1.9419">
        <ele>1</ele>
        <time>2018-01-14T16:33:25Z</time>
      </trkpt>
      <trkpt lat="46.80629" lon="-1.94244">
        <ele>1</ele>
        <time>2018-01-14T16:34:25Z</time>
      </trkpt>
      <trkpt lat="46.80625" lon="-1.94294">
        <ele>2</ele>
        <time>2018-01-14T16:35:25Z</time>
      </trkpt>
      <trkpt lat="46.80621" lon="-1.94336">
        <ele>2</ele>
        <time>2018-01-14T16:36:25Z</time>
      </trkpt>
      <trkpt lat="46.80618" lon="-1.94386">
        <ele>1.8</ele>
        <time>2018-01-14T16:37:25Z</time>
      </trkpt>
      <trkpt lat="46.80614" lon="-1.94432">
        <ele>2</ele>
        <time>2018-01-14T16:38:25Z</time>
      </trkpt>
      <trkpt lat="46.80612" lon="-1.94462">
        <ele>2</ele>
        <time>2018-01-14T16:39:25Z</time>
      </trkpt>
      <trkpt lat="46.80608" lon="-1.94516">
        <ele>2</ele>
        <time>2018-01-14T16:40:25Z</time>
      </trkpt>
      <trkpt lat="46.80603" lon="-1.94575">
        <ele>1.2</ele>
        <time>2018-01-14T16:41:25Z</time>
      </trkpt>
      <trkpt lat="46.806" lon="-1.94613">
        <ele>1</ele>
        <time>2018-01-14T16:42:25Z</time>
      </trkpt>
      <trkpt lat="46.80596" lon="-1.94663">
        <ele>1</ele>
        <time>2018-01-14T16:43:25Z</time>
      </trkpt>
      <trkpt lat="46.80593" lon="-1.94712">
        <ele>1</ele>
        <time>2018-01-14T16:44:25Z</time>
      </trkpt>
      <trkpt lat="46.8059" lon="-1.94749">
        <ele>2</ele>
        <time>2018-01-14T16:45:25Z</time>
      </trkpt>
      <trkpt lat="46.8059" lon="-1.94754">
        <ele>1</ele>
        <time>2018-01-14T16:46:25Z</time>
      </trkpt>
      <trkpt lat="46.80588" lon="-1.94779">
        <ele>1</ele>
        <time>2018-01-14T16:47:25Z</time>
      </trkpt>
      <trkpt lat="46.80584" lon="-1.94805">
        <ele>1</ele>
        <time>2018-01-14T16:48:25Z</time>
      </trkpt>
      <trkpt lat="46.80578" lon="-1.94832">
        <ele>1</ele>
        <time>2018-01-14T16:49:25Z</time>
      </trkpt>
      <trkpt lat="46.80568" lon="-1.94861">
        <ele>1</ele>
        <time>2018-01-14T16:50:25Z</time>
      </trkpt>
      <trkpt lat="46.80566" lon="-1.94868">
        <ele>1</ele>
        <time>2018-01-14T16:51:25Z</time>
      </trkpt>
      <trkpt lat="46.80561" lon="-1.9488">
        <ele>1</ele>
        <time>2018-01-14T16:52:25Z</time>
      </trkpt>
      <trkpt lat="46.8055" lon="-1.94908">
        <ele>1</ele>
        <time>2018-01-14T16:53:25Z</time>
      </trkpt>
      <trkpt lat="46.80536" lon="-1.94945">
        <ele>2</ele>
        <time>2018-01-14T16:54:25Z</time>
      </trkpt>
      <trkpt lat="46.80523" lon="-1.9498">
        <ele>1</ele>
        <time>2018-01-14T16:55:25Z</time>
      </trkpt>
      <trkpt lat="46.80512" lon="-1.95008">
        <ele>1</ele>
        <time>2018-01-14T16:56:25Z</time>
      </trkpt>
      <trkpt lat="46.80499" lon="-1.95041">
        <ele>1</ele>
        <time>2018-01-14T16:57:25Z</time>
      </trkpt>
      <trkpt lat="46.80489" lon="-1.95069">
        <ele>2</ele>
        <time>2018-01-14T16:58:25Z</time>
      </trkpt>
      <trkpt lat="46.80477" lon="-1.95099">
        <ele>2</ele>
        <time>2018-01-14T16:59:25Z</time>
      </trkpt>
      <trkpt lat="46.80465" lon="-1.95136">
        <ele>1</ele>
        <time>2018-01-14T17:00:25Z</time>
      </trkpt>
      <trkpt lat="46.80452" lon="-1.9518">
        <ele>1.9</ele>
        <time>2018-01-14T17:01:25Z</time>
      </trkpt>
      <trkpt lat="46.80436" lon="-1.95231">
        <ele>1.3</ele>
        <time>2018-01-14T17:02:25Z</time>
      </trkpt>
      <trkpt lat="46.80427" lon="-1.95265">
        <ele>1.8</ele>
        <time>2018-01-14T17:03:25Z</time>
      </trkpt>
      <trkpt lat="46.80419" lon="-1.95289">
        <ele>2</ele>
        <time>2018-01-14T17:04:25Z</time>
      </trkpt>
      <trkpt lat="46.80411" lon="-1.95312">
        <ele>1.8</ele>
        <time>2018-01-14T17:05:25Z</time>
      </trkpt>
      <trkpt lat="46.80403" lon="-1.9534">
        <ele>1</ele>
        <time>2018-01-14T17:06:25Z</time>
      </trkpt>
      <trkpt lat="46.80389" lon="-1.95384">
        <ele>1</ele>
        <time>2018-01-14T17:07:25Z</time>
      </trkpt>
      <trkpt lat="46.80373" lon="-1.95436">
        <ele>1.3</ele>
        <time>2018-01-14T17:08:25Z</time>
      </trkpt>
      <trkpt lat="46.80355" lon="-1.95493">
        <ele>1.3</ele>
        <time>2018-01-14T17:09:25Z</time>
      </trkpt>
      <trkpt lat="46.80339" lon="-1.95545">
        <ele>1.8</ele>
        <time>2018-01-14T17:10:25Z</time>
      </trkpt>
      <trkpt lat="46.80323" lon="-1.95594">
        <ele>1.8</ele>
        <time>2018-01-14T17:11:25Z</time>
      </trkpt>
      <trkpt lat="46.8031" lon="-1.95636">
        <ele>2</ele>
        <time>2018-01-14T17:12:25Z</time>
      </trkpt>
      <trkpt lat="46.80297" lon="-1.95677">
        <ele>2</ele>
        <time>2018-01-14T17:13:25Z</time>
      </trkpt>
      <trkpt lat="46.80291" lon="-1.95697">
        <ele>2</ele>
        <time>2018-01-14T17:14:25Z</time>
      </trkpt>
      <trkpt lat="46.80288" lon="-1.95704">
        <ele>1.9</ele>
        <time>2018-01-14T17:15:25Z</time>
      </trkpt>
      <trkpt lat="46.80285" lon="-1.95713">
        <ele>1.8</ele>
        <time>2018-01-14T17:16:25Z</time>
      </trkpt>
      <trkpt lat="46.8028" lon="-1.95733">
        <ele>2.3</ele>
        <time>2018-01-14T17:17:25Z</time>
      </trkpt>
      <trkpt lat="46.80275" lon="-1.95756">
        <ele>1</ele>
        <time>2018-01-14T17:18:25Z</time>
      </trkpt>
      <trkpt lat="46.80271" lon="-1.95781">
        <ele>1</ele>
        <time>2018-01-14T17:19:25Z</time>
      </trkpt>
      <trkpt lat="46.80268" lon="-1.95806">
        <ele>1</ele>
        <time>2018-01-14T17:20:25Z</time>
      </trkpt>
      <trkpt lat="46.80266" lon="-1.95828">
        <ele>1</ele>
        <time>2018-01-14T17:21:25Z</time>
      </trkpt>
      <trkpt lat="46.80264" lon="-1.95854">
        <ele>1</ele>
        <time>2018-01-14T17:22:25Z</time>
      </trkpt>
      <trkpt lat="46.8026" lon="-1.95909">
        <ele>1</ele>
        <time>2018-01-14T17:23:25Z</time>
      </trkpt>
      <trkpt lat="46.80254" lon="-1.95975">
        <ele>2</ele>
        <time>2018-01-14T17:24:25Z</time>
      </trkpt>
      <trkpt lat="46.80248" lon="-1.96048">
        <ele>2</ele>
        <time>2018-01-14T17:25:25Z</time>
      </trkpt>
      <trkpt lat="46.80244" lon="-1.96102">
        <ele>1</ele>
        <time>2018-01-14T17:26:25Z</time>
      </trkpt>
      <trkpt lat="46.80242" lon="-1.96122">
        <ele>1</ele>
        <time>2018-01-14T17:27:25Z</time>
      </trkpt>
      <trkpt lat="46.80241" lon="-1.96142">
        <ele>1</ele>
        <time>2018-01-14T17:28:25Z</time>
      </trkpt>
      <trkpt lat="46.80242" lon="-1.9617">
        <ele>2</ele>
        <time>2018-01-14T17:29:25Z</time>
      </trkpt>
      <trkpt lat="46.80244" lon="-1.96202">
        <ele>2</ele>
        <time>2018-01-14T17:30:25Z</time>
      </trkpt>
      <trkpt lat="46.8025" lon="-1.96237">
        <ele>1</ele>
        <time>2018-01-14T17:31:25Z</time>
      </trkpt>
      <trkpt lat="46.80258" lon="-1.96268">
        <ele>1</ele>
        <time>2018-01-14T17:32:25Z</time>
      </trkpt>
      <trkpt lat="46.80265" lon="-1.96289">
        <ele>1</ele>
        <time>2018-01-14T17:33:25Z</time>
      </trkpt>
      <trkpt lat="46.8027" lon="-1.96305">
        <ele>1</ele>
        <time>2018-01-14T17:34:25Z</time>
      </trkpt>
      <trkpt lat="46.80282" lon="-1.96344">
        <ele>1</ele>
        <time>2018-01-14T17:35:25Z</time>
      </trkpt>
      <trkpt lat="46.80289" lon="-1.96365">
        <ele>1</ele>
        <time>2018-01-14T17:36:25Z</time>
      </trkpt>
      <trkpt lat="46.80298" lon="-1.96393">
        <ele>1</ele>
        <time>2018-01-14T17:37:25Z</time>
      </trkpt>
      <trkpt lat="46.80311" lon="-1.96432">
        <ele>2</ele>
        <time>2018-01-14T17:38:25Z</time>
      </trkpt>
      <trkpt lat="46.80323" lon="-1.96471">
        <ele>2</ele>
        <time>2018-01-14T17:39:25Z</time>
      </trkpt>
      <trkpt lat="46.80333" lon="-1.96502">
        <ele>3</ele>
        <time>2018-01-14T17:40:25Z</time>
      </trkpt>
      <trkpt lat="46.80343" lon="-1.96535">
        <ele>3</ele>
        <time>2018-01-14T17:41:25Z</time>
      </trkpt>
      <trkpt lat="46.80352" lon="-1.96566">
        <ele>2</ele>
        <time>2018-01-14T17:42:25Z</time>
      </trkpt>
      <trkpt lat="46.80354" lon="-1.96574">
        <ele>2</ele>
        <time>2018-01-14T17:43:25Z</time>
      </trkpt>
      <trkpt lat="46.80356" lon="-1.96583">
        <ele>2</ele>
        <time>2018-01-14T17:44:25Z</time>
      </trkpt>
      <trkpt lat="46.80524" lon="-1.97308">
        <ele>1</ele>
        <time>2018-01-14T17:45:25Z</time>
      </trkpt>
      <trkpt lat="46.80527" lon="-1.97318">
        <ele>1</ele>
        <time>2018-01-14T17:46:25Z</time>
      </trkpt>
      <trkpt lat="46.80537" lon="-1.97346">
        <ele>1</ele>
        <time>2018-01-14T17:47:25Z</time>
      </trkpt>
      <trkpt lat="46.80554" lon="-1.97385">
        <ele>2</ele>
        <time>2018-01-14T17:48:25Z</time>
      </trkpt>
      <trkpt lat="46.80585" lon="-1.97457">
        <ele>2</ele>
        <time>2018-01-14T17:49:25Z</time>
      </trkpt>
      <trkpt lat="46.80599" lon="-1.97498">
        <ele>2</ele>
        <time>2018-01-14T17:50:25Z</time>
      </trkpt>
      <trkpt lat="46.80603" lon="-1.97512">
        <ele>1</ele>
        <time>2018-01-14T17:51:25Z</time>
      </trkpt>
      <trkpt lat="46.80607" lon="-1.97531">
        <ele>1</ele>
        <time>2018-01-14T17:52:25Z</time>
      </trkpt>
      <trkpt lat="46.8061" lon="-1.97549">
        <ele>1</ele>
        <time>2018-01-14T17:53:25Z</time>
      </trkpt>
      <trkpt lat="46.80612" lon="-1.97567">
        <ele>1</ele>
        <time>2018-01-14T17:54:25Z</time>
      </trkpt>
      <trkpt lat="46.80614" lon="-1.97596">
        <ele>1</ele>
        <time>2018-01-14T17:55:25Z</time>
      </trkpt>
      <trkpt lat="46.80615" lon="-1.97615">
        <ele>1</ele>
        <time>2018-01-14T17:56:25Z</time>
      </trkpt>
      <trkpt lat="46.80612" lon="-1.97659">
        <ele>1</ele>
        <time>2018-01-14T17:57:25Z</time>
      </trkpt>
      <trkpt lat="46.80611" lon="-1.97672">
        <ele>1</ele>
        <time>2018-01-14T17:58:25Z</time>
      </trkpt>
      <trkpt lat="46.80607" lon="-1.97705">
        <ele>1</ele>
        <time>2018-01-14T17:59:25Z</time>
      </trkpt>
      <trkpt lat="46.80602" lon="-1.97728">
        <ele>1</ele>
        <time>2018-01-14T18:00:25Z</time>
      </trkpt>
      <trkpt lat="46.80593" lon="-1.97774">
        <ele>1</ele>
        <time>2018-01-14T18:01:25Z</time>
      </trkpt>
      <trkpt lat="46.80583" lon="-1.97807">
        <ele>1</ele>
        <time>2018-01-14T18:02:25Z</time>
      </trkpt>
      <trkpt lat="46.80571" lon="-1.97842">
        <ele>1</ele>
        <time>2018-01-14T18:03:25Z</time>
      </trkpt>
      <trkpt lat="46.80549" lon="-1.97909">
        <ele>1</ele>
        <time>2018-01-14T18:04:25Z</time>
      </trkpt>
      <trkpt lat="46.80528" lon="-1.97968">
        <ele>1</ele>
        <time>2018-01-14T18:05:25Z</time>
      </trkpt>
      <trkpt lat="46.80525" lon="-1.97978">
        <ele>1</ele>
        <time>2018-01-14T18:06:25Z</time>
      </trkpt>
      <trkpt lat="46.80513" lon="-1.98009">
        <ele>1</ele>
        <time>2018-01-14T18:07:25Z</time>
      </trkpt>
      <trkpt lat="46.80497" lon="-1.98037">
        <ele>1</ele>
        <time>2018-01-14T18:08:25Z</time>
      </trkpt>
      <trkpt lat="46.80479" lon="-1.98066">
        <ele>1</ele>
        <time>2018-01-14T18:09:25Z</time>
      </trkpt>
      <trkpt lat="46.80413" lon="-1.98157">
        <ele>2</ele>
        <time>2018-01-14T18:10:25Z</time>
      </trkpt>
      <trkpt lat="46.80368" lon="-1.98222">
        <ele>2</ele>
        <time>2018-01-14T18:11:25Z</time>
      </trkpt>
      <trkpt lat="46.80368" lon="-1.98222">
        <ele>2</ele>
        <time>2018-01-14T18:12:25Z</time>
      </trkpt>
      <trkpt lat="46.80354" lon="-1.98206">
        <ele>2</ele>
        <time>2018-01-14T18:13:25Z</time>
      </trkpt>
      <trkpt lat="46.8033" lon="-1.98178">
        <ele>1</ele>
        <time>2018-01-14T18:14:25Z</time>
      </trkpt>
      <trkpt lat="46.80307" lon="-1.98155">
        <ele>1</ele>
        <time>2018-01-14T18:15:25Z</time>
      </trkpt>
      <trkpt lat="46.80291" lon="-1.98135">
        <ele>2</ele>
        <time>2018-01-14T18:16:25Z</time>
      </trkpt>
      <trkpt lat="46.8029" lon="-1.98133">
        <ele>2</ele>
        <time>2018-01-14T18:17:25Z</time>
      </trkpt>
      <trkpt lat="46.80276" lon="-1.98119">
        <ele>2</ele>
        <time>2018-01-14T18:18:25Z</time>
      </trkpt>
      <trkpt lat="46.80262" lon="-1.98105">
        <ele>2</ele>
        <time>2018-01-14T18:19:25Z</time>
      </trkpt>
      <trkpt lat="46.80244" lon="-1.98094">
        <ele>2</ele>
        <time>2018-01-14T18:20:25Z</time>
      </trkpt>
      <trkpt lat="46.80226" lon="-1.98085">
        <ele>2</ele>
        <time>2018-01-14T18:21:25Z</time>
      </trkpt>
      <trkpt lat="46.80212" lon="-1.9808">
        <ele>2</ele>
        <time>2018-01-14T18:22:25Z</time>
      </trkpt>
      <trkpt lat="46.80188" lon="-1.9807">
        <ele>2</ele>
        <time>2018-01-14T18:23:25Z</time>
      </trkpt>
      <trkpt lat="46.8016" lon="-1.98058">
        <ele>1</ele>
        <time>2018-01-14T18:24:25Z</time>
      </trkpt>
      <trkpt lat="46.8014" lon="-1.9805">
        <ele>1</ele>
        <time>2018-01-14T18:25:25Z</time>
      </trkpt>
      <trkpt lat="46.80128" lon="-1.98045">
        <ele>1</ele>
        <time>2018-01-14T18:26:25Z</time>
      </trkpt>
      <trkpt lat="46.80126" lon="-1.98045">
        <ele>1</ele>
        <time>2018-01-14T18:27:25Z</time>
      </trkpt>
      <trkpt lat="46.80097" lon="-1.98034">
        <ele>2</ele>
        <time>2018-01-14T18:28:25Z</time>
      </trkpt>
      <trkpt lat="46.80063" lon="-1.98017">
        <ele>2</ele>
        <time>2018-01-14T18:29:25Z</time>
      </trkpt>
      <trkpt lat="46.80035" lon="-1.98003">
        <ele>2.7</ele>
        <time>2018-01-14T18:30:25Z</time>
      </trkpt>
      <trkpt lat="46.80027" lon="-1.97997">
        <ele>2.9</ele>
        <time>2018-01-14T18:31:25Z</time>
      </trkpt>
      <trkpt lat="46.80002" lon="-1.97973">
        <ele>2</ele>
        <time>2018-01-14T18:32:25Z</time>
      </trkpt>
      <trkpt lat="46.79974" lon="-1.9794">
        <ele>2</ele>
        <time>2018-01-14T18:33:25Z</time>
      </trkpt>
      <trkpt lat="46.79972" lon="-1.97938">
        <ele>2</ele>
        <time>2018-01-14T18:34:25Z</time>
      </trkpt>
      <trkpt lat="46.79941" lon="-1.97903">
        <ele>2</ele>
        <time>2018-01-14T18:35:25Z</time>
      </trkpt>
      <trkpt lat="46.79912" lon="-1.97874">
        <ele>2</ele>
        <time>2018-01-14T18:36:25Z</time>
      </trkpt>
      <trkpt lat="46.79879" lon="-1.97853">
        <ele>2</ele>
        <time>2018-01-14T18:37:25Z</time>
      </trkpt>
      <trkpt lat="46.79845" lon="-1.97834">
        <ele>2</ele>
        <time>2018-01-14T18:38:25Z</time>
      </trkpt>
      <trkpt lat="46.79818" lon="-1.97823">
        <ele>2</ele>
        <time>2018-01-14T18:39:25Z</time>
      </trkpt>
      <trkpt lat="46.79791" lon="-1.97817">
        <ele>2</ele>
        <time>2018-01-14T18:40:25Z</time>
      </trkpt>
      <trkpt lat="46.7977" lon="-1.97818">
        <ele>1</ele>
        <time>2018-01-14T18:41:25Z</time>
      </trkpt>
      <trkpt lat="46.79753" lon="-1.97822">
        <ele>1</ele>
        <time>2018-01-14T18:42:25Z</time>
      </trkpt>
      <trkpt lat="46.79728" lon="-1.97832">
        <ele>1</ele>
        <time>2018-01-14T18:43:25Z</time>
      </trkpt>
      <trkpt lat="46.79705" lon="-1.97841">
        <ele>1</ele>
        <time>2018-01-14T18:44:25Z</time>
      </trkpt>
      <trkpt lat="46.79681" lon="-1.97851">
        <ele>1</ele>
        <time>2018-01-14T18:45:25Z</time>
      </trkpt>
      <trkpt lat="46.79642" lon="-1.97867">
        <ele>1</ele>
        <time>2018-01-14T18:46:25Z</time>
      </trkpt>
      <trkpt lat="46.79616" lon="-1.97877">
        <ele>2</ele>
        <time>2018-01-14T18:47:25Z</time>
      </trkpt>
      <trkpt lat="46.7959" lon="-1.97887">
        <ele>2</ele>
        <time>2018-01-14T18:48:25Z</time>
      </trkpt>
      <trkpt lat="46.79571" lon="-1.97892">
        <ele>2</ele>
        <time>2018-01-14T18:49:25Z</time>
      </trkpt>
      <trkpt lat="46.79557" lon="-1.97895">
        <ele>2</ele>
        <time>2018-01-14T18:50:25Z</time>
      </trkpt>
      <trkpt lat="46.79537" lon="-1.97898">
        <ele>1.8</ele>
        <time>2018-01-14T18:51:25Z</time>
      </trkpt>
      <trkpt lat="46.7949" lon="-1.97903">
        <ele>1.8</ele>
        <time>2018-01-14T18:52:25Z</time>
      </trkpt>
      <trkpt lat="46.79423" lon="-1.97912">
        <ele>2</ele>
        <time>2018-01-14T18:53:25Z</time>
      </trkpt>
      <trkpt lat="46.79351" lon="-1.9792">
        <ele>1</ele>
        <time>2018-01-14T18:54:25Z</time>
      </trkpt>
      <trkpt lat="46.79312" lon="-1.97923">
        <ele>1</ele>
        <time>2018-01-14T18:55:25Z</time>
      </trkpt>
      <trkpt lat="46.793" lon="-1.97923">
        <ele>1</ele>
        <time>2018-01-14T18:56:25Z</time>
      </trkpt>
      <trkpt lat="46.79294" lon="-1.97921">
        <ele>1</ele>
        <time>2018-01-14T18:57:25Z</time>
      </trkpt>
      <trkpt lat="46.79291" lon="-1.9792">
        <ele>1</ele>
        <time>2018-01-14T18:58:25Z</time>
      </trkpt>
      <trkpt lat="46.79287" lon="-1.97918">
        <ele>1</ele>
        <time>2018-01-14T18:59:25Z</time>
      </trkpt>
      <trkpt lat="46.79277" lon="-1.97913">
        <ele>1</ele>
        <time>2018-01-14T19:00:25Z</time>
      </trkpt>
      <trkpt lat="46.79273" lon="-1.9791">
        <ele>1</ele>
        <time>2018-01-14T19:01:25Z</time>
      </trkpt>
      <trkpt lat="46.79268" lon="-1.97907">
        <ele>1</ele>
        <time>2018-01-14T19:02:25Z</time>
      </trkpt>
      <trkpt lat="46.79261" lon="-1.97899">
        <ele>1</ele>
        <time>2018-01-14T19:03:25Z</time>
      </trkpt>
      <trkpt lat="46.79256" lon="-1.97893">
        <ele>1</ele>
        <time>2018-01-14T19:04:25Z</time>
      </trkpt>
      <trkpt lat="46.79245" lon="-1.97877">
        <ele>1</ele>
        <time>2018-01-14T19:05:25Z</time>
      </trkpt>
      <trkpt lat="46.79227" lon="-1.97845">
        <ele>1</ele>
        <time>2018-01-14T19:06:25Z</time>
      </trkpt>
      <trkpt lat="46.79202" lon="-1.97797">
        <ele>1</ele>
        <time>2018-01-14T19:07:25Z</time>
      </trkpt>
      <trkpt lat="46.79154" lon="-1.97705">
        <ele>2</ele>
        <time>2018-01-14T19:08:25Z</time>
      </trkpt>
      <trkpt lat="46.79132" lon="-1.97662">
        <ele>1.8</ele>
        <time>2018-01-14T19:09:25Z</time>
      </trkpt>
      <trkpt lat="46.79111" lon="-1.97621">
        <ele>1</ele>
        <time>2018-01-14T19:10:25Z</time>
      </trkpt>
      <trkpt lat="46.79076" lon="-1.97554">
        <ele>1</ele>
        <time>2018-01-14T19:11:25Z</time>
      </trkpt>
      <trkpt lat="46.7907" lon="-1.97542">
        <ele>1</ele>
        <time>2018-01-14T19:12:25Z</time>
      </trkpt>
      <trkpt lat="46.79053" lon="-1.9751">
        <ele>1</ele>
        <time>2018-01-14T19:13:25Z</time>
      </trkpt>
      <trkpt lat="46.7903" lon="-1.97473">
        <ele>1</ele>
        <time>2018-01-14T19:14:25Z</time>
      </trkpt>
      <trkpt lat="46.79006" lon="-1.97445">
        <ele>2</ele>
        <time>2018-01-14T19:15:25Z</time>
      </trkpt>
      <trkpt lat="46.78983" lon="-1.97425">
        <ele>2</ele>
        <time>2018-01-14T19:16:25Z</time>
      </trkpt>
      <trkpt lat="46.78968" lon="-1.97414">
        <ele>2</ele>
        <time>2018-01-14T19:17:25Z</time>
      </trkpt>
      <trkpt lat="46.78959" lon="-1.97409">
        <ele>2</ele>
        <time>2018-01-14T19:18:25Z</time>
      </trkpt>
      <trkpt lat="46.78935" lon="-1.97397">
        <ele>2</ele>
        <time>2018-01-14T19:19:25Z</time>
      </trkpt>
      <trkpt lat="46.78896" lon="-1.97382">
        <ele>3</ele>
        <time>2018-01-14T19:20:25Z</time>
      </trkpt>
      <trkpt lat="46.78843" lon="-1.97362">
        <ele>5</ele>
        <time>2018-01-14T19:21:25Z</time>
      </trkpt>
      <trkpt lat="46.78761" lon="-1.97331">
        <ele>3</ele>
        <time>2018-01-14T19:22:25Z</time>
      </trkpt>
      <trkpt lat="46.78708" lon="-1.97311">
        <ele>3</ele>
        <time>2018-01-14T19:23:25Z</time>
      </trkpt>
      <trkpt lat="46.78647" lon="-1.97287">
        <ele>3</ele>
        <time>2018-01-14T19:24:25Z</time>
      </trkpt>
      <trkpt lat="46.78638" lon="-1.97284">
        <ele>3</ele>
        <time>2018-01-14T19:25:25Z</time>
      </trkpt>
      <trkpt lat="46.78612" lon="-1.97274">
        <ele>4</ele>
        <time>2018-01-14T19:26:25Z</time>
      </trkpt>
      <trkpt lat="46.78587" lon="-1.97263">
        <ele>5</ele>
        <time>2018-01-14T19:27:25Z</time>
      </trkpt>
      <trkpt lat="46.7852" lon="-1.97238">
        <ele>5</ele>
        <time>2018-01-14T19:28:25Z</time>
      </trkpt>
      <trkpt lat="46.78503" lon="-1.97232">
        <ele>4</ele>
        <time>2018-01-14T19:29:25Z</time>
      </trkpt>
      <trkpt lat="46.78465" lon="-1.97216">
        <ele>4</ele>
        <time>2018-01-14T19:30:25Z</time>
      </trkpt>
      <trkpt lat="46.78423" lon="-1.97197">
        <ele>5</ele>
        <time>2018-01-14T19:31:25Z</time>
      </trkpt>
      <trkpt lat="46.78307" lon="-1.97133">
        <ele>5</ele>
        <time>2018-01-14T19:32:25Z</time>
      </trkpt>
      <trkpt lat="46.78282" lon="-1.97119">
        <ele>4</ele>
        <time>2018-01-14T19:33:25Z</time>
      </trkpt>
      <trkpt lat="46.78249" lon="-1.971">
        <ele>3</ele>
        <time>2018-01-14T19:34:25Z</time>
      </trkpt>
      <trkpt lat="46.7822" lon="-1.97084">
        <ele>3</ele>
        <time>2018-01-14T19:35:25Z</time>
      </trkpt>
      <trkpt lat="46.78207" lon="-1.97077">
        <ele>3</ele>
        <time>2018-01-14T19:36:25Z</time>
      </trkpt>
      <trkpt lat="46.78183" lon="-1.97064">
        <ele>3</ele>
        <time>2018-01-14T19:37:25Z</time>
      </trkpt>
      <trkpt lat="46.78149" lon="-1.97046">
        <ele>4</ele>
        <time>2018-01-14T19:38:25Z</time>
      </trkpt>
      <trkpt lat="46.78108" lon="-1.97022">
        <ele>5</ele>
        <time>2018-01-14T19:39:25Z</time>
      </trkpt>
      <trkpt lat="46.78048" lon="-1.96989">
        <ele>5</ele>
        <time>2018-01-14T19:40:25Z</time>
      </trkpt>
      <trkpt lat="46.77993" lon="-1.96959">
        <ele>4</ele>
        <time>2018-01-14T19:41:25Z</time>
      </trkpt>
      <trkpt lat="46.7796" lon="-1.9694">
        <ele>4</ele>
        <time>2018-01-14T19:42:25Z</time>
      </trkpt>
      <trkpt lat="46.77938" lon="-1.96929">
        <ele>3</ele>
        <time>2018-01-14T19:43:25Z</time>
      </trkpt>
      <trkpt lat="46.77917" lon="-1.96918">
        <ele>3</ele>
        <time>2018-01-14T19:44:25Z</time>
      </trkpt>
      <trkpt lat="46.77886" lon="-1.96906">
        <ele>4</ele>
        <time>2018-01-14T19:45:25Z</time>
      </trkpt>
      <trkpt lat="46.77842" lon="-1.96888">
        <ele>5</ele>
        <time>2018-01-14T19:46:25Z</time>
      </trkpt>
      <trkpt lat="46.77818" lon="-1.96879">
        <ele>5</ele>
        <time>2018-01-14T19:47:25Z</time>
      </trkpt>
      <trkpt lat="46.77782" lon="-1.96865">
        <ele>4</ele>
        <time>2018-01-14T19:48:25Z</time>
      </trkpt>
      <trkpt lat="46.77755" lon="-1.96851">
        <ele>4</ele>
        <time>2018-01-14T19:49:25Z</time>
      </trkpt>
      <trkpt lat="46.77731" lon="-1.96834">
        <ele>4</ele>
        <time>2018-01-14T19:50:25Z</time>
      </trkpt>
      <trkpt lat="46.77701" lon="-1.9681">
        <ele>3</ele>
        <time>2018-01-14T19:51:25Z</time>
      </trkpt>
      <trkpt lat="46.77684" lon="-1.96793">
        <ele>3</ele>
        <time>2018-01-14T19:52:25Z</time>
      </trkpt>
      <trkpt lat="46.77571" lon="-1.96688">
        <ele>5</ele>
        <time>2018-01-14T19:53:25Z</time>
      </trkpt>
      <trkpt lat="46.77524" lon="-1.96644">
        <ele>6</ele>
        <time>2018-01-14T19:54:25Z</time>
      </trkpt>
      <trkpt lat="46.77518" lon="-1.96641">
        <ele>6</ele>
        <time>2018-01-14T19:55:25Z</time>
      </trkpt>
      <trkpt lat="46.77481" lon="-1.96606">
        <ele>6</ele>
        <time>2018-01-14T19:56:25Z</time>
      </trkpt>
      <trkpt lat="46.77477" lon="-1.96599">
        <ele>6</ele>
        <time>2018-01-14T19:57:25Z</time>
      </trkpt>
      <trkpt lat="46.77468" lon="-1.9659">
        <ele>6</ele>
        <time>2018-01-14T19:58:25Z</time>
      </trkpt>
      <trkpt lat="46.77467" lon="-1.96589">
        <ele>6</ele>
        <time>2018-01-14T19:59:25Z</time>
      </trkpt>
      <trkpt lat="46.77365" lon="-1.96485">
        <ele>4</ele>
        <time>2018-01-14T20:00:25Z</time>
      </trkpt>
      <trkpt lat="46.77363" lon="-1.96484">
        <ele>4</ele>
        <time>2018-01-14T20:01:25Z</time>
      </trkpt>
      <trkpt lat="46.77306" lon="-1.96428">
        <ele>5</ele>
        <time>2018-01-14T20:02:25Z</time>
      </trkpt>
      <trkpt lat="46.77281" lon="-1.96404">
        <ele>5</ele>
        <time>2018-01-14T20:03:25Z</time>
      </trkpt>
      <trkpt lat="46.77263" lon="-1.96387">
        <ele>4</ele>
        <time>2018-01-14T20:04:25Z</time>
      </trkpt>
      <trkpt lat="46.77211" lon="-1.96338">
        <ele>5</ele>
        <time>2018-01-14T20:05:25Z</time>
      </trkpt>
      <trkpt lat="46.77186" lon="-1.9632">
        <ele>6</ele>
        <time>2018-01-14T20:06:25Z</time>
      </trkpt>
      <trkpt lat="46.77166" lon="-1.96314">
        <ele>7</ele>
        <time>2018-01-14T20:07:25Z</time>
      </trkpt>
      <trkpt lat="46.77166" lon="-1.96319">
        <ele>7</ele>
        <time>2018-01-14T20:08:25Z</time>
      </trkpt>
      <trkpt lat="46.77166" lon="-1.96322">
        <ele>7</ele>
        <time>2018-01-14T20:09:25Z</time>
      </trkpt>
      <trkpt lat="46.77165" lon="-1.96324">
        <ele>7</ele>
        <time>2018-01-14T20:10:25Z</time>
      </trkpt>
      <trkpt lat="46.77164" lon="-1.96327">
        <ele>7</ele>
        <time>2018-01-14T20:11:25Z</time>
      </trkpt>
      <trkpt lat="46.77162" lon="-1.96328">
        <ele>7</ele>
        <time>2018-01-14T20:12:25Z</time>
      </trkpt>
      <trkpt lat="46.7716" lon="-1.9633">
        <ele>7</ele>
        <time>2018-01-14T20:13:25Z</time>
      </trkpt>
      <trkpt lat="46.77158" lon="-1.9633">
        <ele>7</ele>
        <time>2018-01-14T20:14:25Z</time>
      </trkpt>
      <trkpt lat="46.77156" lon="-1.96329">
        <ele>7</ele>
        <time>2018-01-14T20:15:25Z</time>
      </trkpt>
      <trkpt lat="46.77154" lon="-1.96328">
        <ele>7</ele>
        <time>2018-01-14T20:16:25Z</time>
      </trkpt>
      <trkpt lat="46.77153" lon="-1.96326">
        <ele>7</ele>
        <time>2018-01-14T20:17:25Z</time>
      </trkpt>
      <trkpt lat="46.77152" lon="-1.96324">
        <ele>7</ele>
        <time>2018-01-14T20:18:25Z</time>
      </trkpt>
      <trkpt lat="46.77151" lon="-1.9632">
        <ele>7</ele>
        <time>2018-01-14T20:19:25Z</time>
      </trkpt>
      <trkpt lat="46.77151" lon="-1.96317">
        <ele>6</ele>
        <time>2018-01-14T20:20:25Z</time>
      </trkpt>
      <trkpt lat="46.77151" lon="-1.96315">
        <ele>6</ele>
        <time>2018-01-14T20:21:25Z</time>
      </trkpt>
      <trkpt lat="46.77132" lon="-1.96302">
        <ele>6</ele>
        <time>2018-01-14T20:22:25Z</time>
      </trkpt>
      <trkpt lat="46.77103" lon="-1.96298">
        <ele>6</ele>
        <time>2018-01-14T20:23:25Z</time>
      </trkpt>
      <trkpt lat="46.77029" lon="-1.96289">
        <ele>4</ele>
        <time>2018-01-14T20:24:25Z</time>
      </trkpt>
      <trkpt lat="46.77023" lon="-1.96289">
        <ele>3</ele>
        <time>2018-01-14T20:25:25Z</time>
      </trkpt>
      <trkpt lat="46.76955" lon="-1.96283">
        <ele>3</ele>
        <time>2018-01-14T20:26:25Z</time>
      </trkpt>
      <trkpt lat="46.76928" lon="-1.96281">
        <ele>3</ele>
        <time>2018-01-14T20:27:25Z</time>
      </trkpt>
      <trkpt lat="46.76887" lon="-1.96274">
        <ele>4</ele>
        <time>2018-01-14T20:28:25Z</time>
      </trkpt>
      <trkpt lat="46.76872" lon="-1.96271">
        <ele>3</ele>
        <time>2018-01-14T20:29:25Z</time>
      </trkpt>
      <trkpt lat="46.76817" lon="-1.96263">
        <ele>3</ele>
        <time>2018-01-14T20:30:25Z</time>
      </trkpt>
      <trkpt lat="46.76785" lon="-1.96253">
        <ele>3</ele>
        <time>2018-01-14T20:31:25Z</time>
      </trkpt>
      <trkpt lat="46.76722" lon="-1.9623">
        <ele>3</ele>
        <time>2018-01-14T20:32:25Z</time>
      </trkpt>
      <trkpt lat="46.76618" lon="-1.96189">
        <ele>4</ele>
        <time>2018-01-14T20:33:25Z</time>
      </trkpt>
      <trkpt lat="46.76539" lon="-1.9616">
        <ele>3</ele>
        <time>2018-01-14T20:34:25Z</time>
      </trkpt>
      <trkpt lat="46.76513" lon="-1.9615">
        <ele>3</ele>
        <time>2018-01-14T20:35:25Z</time>
      </trkpt>
      <trkpt lat="46.76485" lon="-1.96139">
        <ele>2</ele>
        <time>2018-01-14T20:36:25Z</time>
      </trkpt>
      <trkpt lat="46.76435" lon="-1.96123">
        <ele>2</ele>
        <time>2018-01-14T20:37:25Z</time>
      </trkpt>
      <trkpt lat="46.76431" lon="-1.96121">
        <ele>2</ele>
        <time>2018-01-14T20:38:25Z</time>
      </trkpt>
      <trkpt lat="46.76411" lon="-1.96114">
        <ele>2</ele>
        <time>2018-01-14T20:39:25Z</time>
      </trkpt>
      <trkpt lat="46.76383" lon="-1.96105">
        <ele>2</ele>
        <time>2018-01-14T20:40:25Z</time>
      </trkpt>
      <trkpt lat="46.76353" lon="-1.96093">
        <ele>3</ele>
        <time>2018-01-14T20:41:25Z</time>
      </trkpt>
      <trkpt lat="46.76325" lon="-1.9608">
        <ele>3</ele>
        <time>2018-01-14T20:42:25Z</time>
      </trkpt>
      <trkpt lat="46.76318" lon="-1.96076">
        <ele>3</ele>
        <time>2018-01-14T20:43:25Z</time>
      </trkpt>
      <trkpt lat="46.76308" lon="-1.9607">
        <ele>3</ele>
        <time>2018-01-14T20:44:25Z</time>
      </trkpt>
      <trkpt lat="46.76286" lon="-1.96055">
        <ele>3</ele>
        <time>2018-01-14T20:45:25Z</time>
      </trkpt>
      <trkpt lat="46.76249" lon="-1.96029">
        <ele>4</ele>
        <time>2018-01-14T20:46:25Z</time>
      </trkpt>
      <trkpt lat="46.76226" lon="-1.96014">
        <ele>4</ele>
        <time>2018-01-14T20:47:25Z</time>
      </trkpt>
      <trkpt lat="46.76203" lon="-1.96002">
        <ele>4</ele>
        <time>2018-01-14T20:48:25Z</time>
      </trkpt>
      <trkpt lat="46.76153" lon="-1.95979">
        <ele>3</ele>
        <time>2018-01-14T20:49:25Z</time>
      </trkpt>
      <trkpt lat="46.76101" lon="-1.95956">
        <ele>4</ele>
        <time>2018-01-14T20:50:25Z</time>
      </trkpt>
      <trkpt lat="46.76057" lon="-1.95938">
        <ele>5</ele>
        <time>2018-01-14T20:51:25Z</time>
      </trkpt>
      <trkpt lat="46.7605" lon="-1.95936">
        <ele>5</ele>
        <time>2018-01-14T20:52:25Z</time>
      </trkpt>
      <trkpt lat="46.76034" lon="-1.95931">
        <ele>5</ele>
        <time>2018-01-14T20:53:25Z</time>
      </trkpt>
      <trkpt lat="46.7602" lon="-1.95927">
        <ele>5</ele>
        <time>2018-01-14T20:54:25Z</time>
      </trkpt>
      <trkpt lat="46.76002" lon="-1.95925">
        <ele>6</ele>
        <time>2018-01-14T20:55:25Z</time>
      </trkpt>
      <trkpt lat="46.75982" lon="-1.95923">
        <ele>5</ele>
        <time>2018-01-14T20:56:25Z</time>
      </trkpt>
      <trkpt lat="46.75927" lon="-1.9592">
        <ele>4</ele>
        <time>2018-01-14T20:57:25Z</time>
      </trkpt>
      <trkpt lat="46.75906" lon="-1.9592">
        <ele>4</ele>
        <time>2018-01-14T20:58:25Z</time>
      </trkpt>
      <trkpt lat="46.75903" lon="-1.9592">
        <ele>4</ele>
        <time>2018-01-14T20:59:25Z</time>
      </trkpt>
      <trkpt lat="46.75857" lon="-1.95917">
        <ele>3</ele>
        <time>2018-01-14T21:00:25Z</time>
      </trkpt>
      <trkpt lat="46.75855" lon="-1.95917">
        <ele>3</ele>
        <time>2018-01-14T21:01:25Z</time>
      </trkpt>
      <trkpt lat="46.75766" lon="-1.95913">
        <ele>2</ele>
        <time>2018-01-14T21:02:25Z</time>
      </trkpt>
      <trkpt lat="46.75724" lon="-1.95909">
        <ele>3</ele>
        <time>2018-01-14T21:03:25Z</time>
      </trkpt>
      <trkpt lat="46.75696" lon="-1.95905">
        <ele>3</ele>
        <time>2018-01-14T21:04:25Z</time>
      </trkpt>
      <trkpt lat="46.75657" lon="-1.95895">
        <ele>3</ele>
        <time>2018-01-14T21:05:25Z</time>
      </trkpt>
      <trkpt lat="46.75612" lon="-1.95882">
        <ele>2</ele>
        <time>2018-01-14T21:06:25Z</time>
      </trkpt>
      <trkpt lat="46.75565" lon="-1.95868">
        <ele>1</ele>
        <time>2018-01-14T21:07:25Z</time>
      </trkpt>
      <trkpt lat="46.75564" lon="-1.95868">
        <ele>1</ele>
        <time>2018-01-14T21:08:25Z</time>
      </trkpt>
      <trkpt lat="46.7553" lon="-1.95855">
        <ele>2</ele>
        <time>2018-01-14T21:09:25Z</time>
      </trkpt>
      <trkpt lat="46.75522" lon="-1.95849">
        <ele>2</ele>
        <time>2018-01-14T21:10:25Z</time>
      </trkpt>
      <trkpt lat="46.75506" lon="-1.9584">
        <ele>3</ele>
        <time>2018-01-14T21:11:25Z</time>
      </trkpt>
      <trkpt lat="46.75477" lon="-1.95826">
        <ele>2</ele>
        <time>2018-01-14T21:12:25Z</time>
      </trkpt>
      <trkpt lat="46.75427" lon="-1.95799">
        <ele>2</ele>
        <time>2018-01-14T21:13:25Z</time>
      </trkpt>
      <trkpt lat="46.75367" lon="-1.95767">
        <ele>1</ele>
        <time>2018-01-14T21:14:25Z</time>
      </trkpt>
      <trkpt lat="46.75348" lon="-1.95757">
        <ele>1</ele>
        <time>2018-01-14T21:15:25Z</time>
      </trkpt>
      <trkpt lat="46.7531" lon="-1.95737">
        <ele>1</ele>
        <time>2018-01-14T21:16:25Z</time>
      </trkpt>
      <trkpt lat="46.75274" lon="-1.9572">
        <ele>1</ele>
        <time>2018-01-14T21:17:25Z</time>
      </trkpt>
      <trkpt lat="46.75243" lon="-1.95711">
        <ele>1</ele>
        <time>2018-01-14T21:18:25Z</time>
      </trkpt>
      <trkpt lat="46.75236" lon="-1.95709">
        <ele>1</ele>
        <time>2018-01-14T21:19:25Z</time>
      </trkpt>
      <trkpt lat="46.75217" lon="-1.95706">
        <ele>2</ele>
        <time>2018-01-14T21:20:25Z</time>
      </trkpt>
      <trkpt lat="46.75193" lon="-1.95706">
        <ele>1</ele>
        <time>2018-01-14T21:21:25Z</time>
      </trkpt>
      <trkpt lat="46.75163" lon="-1.95705">
        <ele>1</ele>
        <time>2018-01-14T21:22:25Z</time>
      </trkpt>
      <trkpt lat="46.75128" lon="-1.95704">
        <ele>1</ele>
        <time>2018-01-14T21:23:25Z</time>
      </trkpt>
      <trkpt lat="46.75102" lon="-1.95701">
        <ele>1</ele>
        <time>2018-01-14T21:24:25Z</time>
      </trkpt>
      <trkpt lat="46.7508" lon="-1.95696">
        <ele>1</ele>
        <time>2018-01-14T21:25:25Z</time>
      </trkpt>
      <trkpt lat="46.75053" lon="-1.95686">
        <ele>1</ele>
        <time>2018-01-14T21:26:25Z</time>
      </trkpt>
      <trkpt lat="46.75029" lon="-1.95675">
        <ele>1</ele>
        <time>2018-01-14T21:27:25Z</time>
      </trkpt>
      <trkpt lat="46.74994" lon="-1.95658">
        <ele>2</ele>
        <time>2018-01-14T21:28:25Z</time>
      </trkpt>
      <trkpt lat="46.74953" lon="-1.95639">
        <ele>1</ele>
        <time>2018-01-14T21:29:25Z</time>
      </trkpt>
      <trkpt lat="46.74928" lon="-1.95627">
        <ele>1</ele>
        <time>2018-01-14T21:30:25Z</time>
      </trkpt>
      <trkpt lat="46.7492" lon="-1.95623">
        <ele>1</ele>
        <time>2018-01-14T21:31:25Z</time>
      </trkpt>
      <trkpt lat="46.74893" lon="-1.95608">
        <ele>1</ele>
        <time>2018-01-14T21:32:25Z</time>
      </trkpt>
      <trkpt lat="46.74872" lon="-1.95599">
        <ele>1</ele>
        <time>2018-01-14T21:33:25Z</time>
      </trkpt>
      <trkpt lat="46.74848" lon="-1.95588">
        <ele>2</ele>
        <time>2018-01-14T21:34:25Z</time>
      </trkpt>
      <trkpt lat="46.74826" lon="-1.9558">
        <ele>2</ele>
        <time>2018-01-14T21:35:25Z</time>
      </trkpt>
      <trkpt lat="46.74806" lon="-1.95574">
        <ele>2</ele>
        <time>2018-01-14T21:36:25Z</time>
      </trkpt>
      <trkpt lat="46.74785" lon="-1.95572">
        <ele>1</ele>
        <time>2018-01-14T21:37:25Z</time>
      </trkpt>
      <trkpt lat="46.74771" lon="-1.9557">
        <ele>1</ele>
        <time>2018-01-14T21:38:25Z</time>
      </trkpt>
      <trkpt lat="46.74762" lon="-1.95571">
        <ele>1</ele>
        <time>2018-01-14T21:39:25Z</time>
      </trkpt>
      <trkpt lat="46.74738" lon="-1.95572">
        <ele>1</ele>
        <time>2018-01-14T21:40:25Z</time>
      </trkpt>
      <trkpt lat="46.74708" lon="-1.95575">
        <ele>2</ele>
        <time>2018-01-14T21:41:25Z</time>
      </trkpt>
      <trkpt lat="46.74688" lon="-1.95576">
        <ele>2</ele>
        <time>2018-01-14T21:42:25Z</time>
      </trkpt>
      <trkpt lat="46.74666" lon="-1.95578">
        <ele>2</ele>
        <time>2018-01-14T21:43:25Z</time>
      </trkpt>
      <trkpt lat="46.74644" lon="-1.95576">
        <ele>2</ele>
        <time>2018-01-14T21:44:25Z</time>
      </trkpt>
      <trkpt lat="46.7462" lon="-1.95573">
        <ele>2</ele>
        <time>2018-01-14T21:45:25Z</time>
      </trkpt>
      <trkpt lat="46.74591" lon="-1.95567">
        <ele>3</ele>
        <time>2018-01-14T21:46:25Z</time>
      </trkpt>
      <trkpt lat="46.74567" lon="-1.95561">
        <ele>3</ele>
        <time>2018-01-14T21:47:25Z</time>
      </trkpt>
      <trkpt lat="46.74562" lon="-1.9556">
        <ele>2</ele>
        <time>2018-01-14T21:48:25Z</time>
      </trkpt>
      <trkpt lat="46.74562" lon="-1.9556">
        <ele>2</ele>
        <time>2018-01-14T21:49:25Z</time>
      </trkpt>
      <trkpt lat="46.74531" lon="-1.95554">
        <ele>2</ele>
        <time>2018-01-14T21:50:25Z</time>
      </trkpt>
      <trkpt lat="46.74509" lon="-1.95549">
        <ele>2</ele>
        <time>2018-01-14T21:51:25Z</time>
      </trkpt>
      <trkpt lat="46.74493" lon="-1.95545">
        <ele>2</ele>
        <time>2018-01-14T21:52:25Z</time>
      </trkpt>
      <trkpt lat="46.74484" lon="-1.95541">
        <ele>1</ele>
        <time>2018-01-14T21:53:25Z</time>
      </trkpt>
      <trkpt lat="46.7448" lon="-1.9554">
        <ele>1</ele>
        <time>2018-01-14T21:54:25Z</time>
      </trkpt>
      <trkpt lat="46.74469" lon="-1.95537">
        <ele>1</ele>
        <time>2018-01-14T21:55:25Z</time>
      </trkpt>
      <trkpt lat="46.74469" lon="-1.95537">
        <ele>1</ele>
        <time>2018-01-14T21:56:25Z</time>
      </trkpt>
      <trkpt lat="46.74468" lon="-1.95542">
        <ele>2</ele>
        <time>2018-01-14T21:57:25Z</time>
      </trkpt>
      <trkpt lat="46.74466" lon="-1.95544">
        <ele>2</ele>
        <time>2018-01-14T21:58:25Z</time>
      </trkpt>
      <trkpt lat="46.74464" lon="-1.95547">
        <ele>2</ele>
        <time>2018-01-14T21:59:25Z</time>
      </trkpt>
      <trkpt lat="46.74461" lon="-1.95548">
        <ele>2</ele>
        <time>2018-01-14T22:00:25Z</time>
      </trkpt>
      <trkpt lat="46.74457" lon="-1.95548">
        <ele>1</ele>
        <time>2018-01-14T22:01:25Z</time>
      </trkpt>
      <trkpt lat="46.74452" lon="-1.95546">
        <ele>1</ele>
        <time>2018-01-14T22:02:25Z</time>
      </trkpt>
      <trkpt lat="46.74448" lon="-1.95542">
        <ele>1</ele>
        <time>2018-01-14T22:03:25Z</time>
      </trkpt>
      <trkpt lat="46.74447" lon="-1.95537">
        <ele>2</ele>
        <time>2018-01-14T22:04:25Z</time>
      </trkpt>
      <trkpt lat="46.74447" lon="-1.9553">
        <ele>2</ele>
        <time>2018-01-14T22:05:25Z</time>
      </trkpt>
      <trkpt lat="46.74432" lon="-1.95514">
        <ele>2</ele>
        <time>2018-01-14T22:06:25Z</time>
      </trkpt>
      <trkpt lat="46.74425" lon="-1.95511">
        <ele>2</ele>
        <time>2018-01-14T22:07:25Z</time>
      </trkpt>
      <trkpt lat="46.74416" lon="-1.95507">
        <ele>2</ele>
        <time>2018-01-14T22:08:25Z</time>
      </trkpt>
      <trkpt lat="46.74394" lon="-1.95502">
        <ele>2</ele>
        <time>2018-01-14T22:09:25Z</time>
      </trkpt>
      <trkpt lat="46.74368" lon="-1.95497">
        <ele>1</ele>
        <time>2018-01-14T22:10:25Z</time>
      </trkpt>
      <trkpt lat="46.7433" lon="-1.9549">
        <ele>1</ele>
        <time>2018-01-14T22:11:25Z</time>
      </trkpt>
      <trkpt lat="46.74293" lon="-1.95482">
        <ele>1</ele>
        <time>2018-01-14T22:12:25Z</time>
      </trkpt>
      <trkpt lat="46.74259" lon="-1.95474">
        <ele>1</ele>
        <time>2018-01-14T22:13:25Z</time>
      </trkpt>
      <trkpt lat="46.74234" lon="-1.95466">
        <ele>1</ele>
        <time>2018-01-14T22:14:25Z</time>
      </trkpt>
      <trkpt lat="46.74206" lon="-1.95455">
        <ele>2</ele>
        <time>2018-01-14T22:15:25Z</time>
      </trkpt>
      <trkpt lat="46.74188" lon="-1.95446">
        <ele>2</ele>
        <time>2018-01-14T22:16:25Z</time>
      </trkpt>
      <trkpt lat="46.74158" lon="-1.95432">
        <ele>2</ele>
        <time>2018-01-14T22:17:25Z</time>
      </trkpt>
      <trkpt lat="46.74136" lon="-1.95419">
        <ele>2</ele>
        <time>2018-01-14T22:18:25Z</time>
      </trkpt>
      <trkpt lat="46.74111" lon="-1.95404">
        <ele>3</ele>
        <time>2018-01-14T22:19:25Z</time>
      </trkpt>
      <trkpt lat="46.74106" lon="-1.954">
        <ele>3</ele>
        <time>2018-01-14T22:20:25Z</time>
      </trkpt>
      <trkpt lat="46.74095" lon="-1.95392">
        <ele>4</ele>
        <time>2018-01-14T22:21:25Z</time>
      </trkpt>
      <trkpt lat="46.7408" lon="-1.95382">
        <ele>5</ele>
        <time>2018-01-14T22:22:25Z</time>
      </trkpt>
      <trkpt lat="46.74062" lon="-1.9537">
        <ele>5</ele>
        <time>2018-01-14T22:23:25Z</time>
      </trkpt>
      <trkpt lat="46.74038" lon="-1.95351">
        <ele>5</ele>
        <time>2018-01-14T22:24:25Z</time>
      </trkpt>
      <trkpt lat="46.7402" lon="-1.95337">
        <ele>5</ele>
        <time>2018-01-14T22:25:25Z</time>
      </trkpt>
      <trkpt lat="46.74006" lon="-1.95327">
        <ele>5</ele>
        <time>2018-01-14T22:26:25Z</time>
      </trkpt>
      <trkpt lat="46.73984" lon="-1.95313">
        <ele>4</ele>
        <time>2018-01-14T22:27:25Z</time>
      </trkpt>
      <trkpt lat="46.73962" lon="-1.95302">
        <ele>4</ele>
        <time>2018-01-14T22:28:25Z</time>
      </trkpt>
      <trkpt lat="46.73939" lon="-1.95292">
        <ele>4</ele>
        <time>2018-01-14T22:29:25Z</time>
      </trkpt>
      <trkpt lat="46.7391" lon="-1.95281">
        <ele>3</ele>
        <time>2018-01-14T22:30:25Z</time>
      </trkpt>
      <trkpt lat="46.7389" lon="-1.95273">
        <ele>3</ele>
        <time>2018-01-14T22:31:25Z</time>
      </trkpt>
      <trkpt lat="46.73862" lon="-1.95261">
        <ele>3</ele>
        <time>2018-01-14T22:32:25Z</time>
      </trkpt>
      <trkpt lat="46.73826" lon="-1.95246">
        <ele>3</ele>
        <time>2018-01-14T22:33:25Z</time>
      </trkpt>
      <trkpt lat="46.73804" lon="-1.95237">
        <ele>4</ele>
        <time>2018-01-14T22:34:25Z</time>
      </trkpt>
      <trkpt lat="46.73784" lon="-1.95228">
        <ele>4</ele>
        <time>2018-01-14T22:35:25Z</time>
      </trkpt>
      <trkpt lat="46.73762" lon="-1.95218">
        <ele>4</ele>
        <time>2018-01-14T22:36:25Z</time>
      </trkpt>
      <trkpt lat="46.73742" lon="-1.95206">
        <ele>4</ele>
        <time>2018-01-14T22:37:25Z</time>
      </trkpt>
      <trkpt lat="46.73714" lon="-1.95191">
        <ele>3</ele>
        <time>2018-01-14T22:38:25Z</time>
      </trkpt>
      <trkpt lat="46.73687" lon="-1.95175">
        <ele>3</ele>
        <time>2018-01-14T22:39:25Z</time>
      </trkpt>
      <trkpt lat="46.73663" lon="-1.95161">
        <ele>3</ele>
        <time>2018-01-14T22:40:25Z</time>
      </trkpt>
      <trkpt lat="46.73662" lon="-1.9516">
        <ele>3</ele>
        <time>2018-01-14T22:41:25Z</time>
      </trkpt>
      <trkpt lat="46.73634" lon="-1.95144">
        <ele>2</ele>
        <time>2018-01-14T22:42:25Z</time>
      </trkpt>
      <trkpt lat="46.73609" lon="-1.9513">
        <ele>2</ele>
        <time>2018-01-14T22:43:25Z</time>
      </trkpt>
      <trkpt lat="46.73589" lon="-1.95117">
        <ele>2</ele>
        <time>2018-01-14T22:44:25Z</time>
      </trkpt>
      <trkpt lat="46.73573" lon="-1.95108">
        <ele>2</ele>
        <time>2018-01-14T22:45:25Z</time>
      </trkpt>
      <trkpt lat="46.73559" lon="-1.951">
        <ele>3</ele>
        <time>2018-01-14T22:46:25Z</time>
      </trkpt>
      <trkpt lat="46.73533" lon="-1.95087">
        <ele>3</ele>
        <time>2018-01-14T22:47:25Z</time>
      </trkpt>
      <trkpt lat="46.73524" lon="-1.95083">
        <ele>4</ele>
        <time>2018-01-14T22:48:25Z</time>
      </trkpt>
      <trkpt lat="46.73513" lon="-1.95077">
        <ele>4</ele>
        <time>2018-01-14T22:49:25Z</time>
      </trkpt>
      <trkpt lat="46.73507" lon="-1.95073">
        <ele>4</ele>
        <time>2018-01-14T22:50:25Z</time>
      </trkpt>
      <trkpt lat="46.73501" lon="-1.95069">
        <ele>4</ele>
        <time>2018-01-14T22:51:25Z</time>
      </trkpt>
      <trkpt lat="46.73497" lon="-1.95067">
        <ele>4</ele>
        <time>2018-01-14T22:52:25Z</time>
      </trkpt>
      <trkpt lat="46.7349" lon="-1.95067">
        <ele>4</ele>
        <time>2018-01-14T22:53:25Z</time>
      </trkpt>
      <trkpt lat="46.73483" lon="-1.95069">
        <ele>4</ele>
        <time>2018-01-14T22:54:25Z</time>
      </trkpt>
      <trkpt lat="46.73475" lon="-1.9507">
        <ele>4</ele>
        <time>2018-01-14T22:55:25Z</time>
      </trkpt>
      <trkpt lat="46.7347" lon="-1.9507">
        <ele>4</ele>
        <time>2018-01-14T22:56:25Z</time>
      </trkpt>
      <trkpt lat="46.73467" lon="-1.95069">
        <ele>4</ele>
        <time>2018-01-14T22:57:25Z</time>
      </trkpt>
      <trkpt lat="46.73456" lon="-1.95066">
        <ele>5</ele>
        <time>2018-01-14T22:58:25Z</time>
      </trkpt>
      <trkpt lat="46.73447" lon="-1.95064">
        <ele>5</ele>
        <time>2018-01-14T22:59:25Z</time>
      </trkpt>
      <trkpt lat="46.73421" lon="-1.9506">
        <ele>5</ele>
        <time>2018-01-14T23:00:25Z</time>
      </trkpt>
      <trkpt lat="46.73413" lon="-1.95056">
        <ele>5</ele>
        <time>2018-01-14T23:01:25Z</time>
      </trkpt>
      <trkpt lat="46.73392" lon="-1.95052">
        <ele>4</ele>
        <time>2018-01-14T23:02:25Z</time>
      </trkpt>
      <trkpt lat="46.73347" lon="-1.95044">
        <ele>4</ele>
        <time>2018-01-14T23:03:25Z</time>
      </trkpt>
      <trkpt lat="46.73309" lon="-1.95037">
        <ele>4</ele>
        <time>2018-01-14T23:04:25Z</time>
      </trkpt>
      <trkpt lat="46.73267" lon="-1.95029">
        <ele>4</ele>
        <time>2018-01-14T23:05:25Z</time>
      </trkpt>
      <trkpt lat="46.73184" lon="-1.95014">
        <ele>6</ele>
        <time>2018-01-14T23:06:25Z</time>
      </trkpt>
      <trkpt lat="46.73133" lon="-1.95002">
        <ele>7</ele>
        <time>2018-01-14T23:07:25Z</time>
      </trkpt>
      <trkpt lat="46.73121" lon="-1.95001">
        <ele>7</ele>
        <time>2018-01-14T23:08:25Z</time>
      </trkpt>
      <trkpt lat="46.73114" lon="-1.94997">
        <ele>7</ele>
        <time>2018-01-14T23:09:25Z</time>
      </trkpt>
      <trkpt lat="46.73055" lon="-1.94978">
        <ele>7</ele>
        <time>2018-01-14T23:10:25Z</time>
      </trkpt>
      <trkpt lat="46.73025" lon="-1.94967">
        <ele>6</ele>
        <time>2018-01-14T23:11:25Z</time>
      </trkpt>
      <trkpt lat="46.73" lon="-1.94957">
        <ele>5</ele>
        <time>2018-01-14T23:12:25Z</time>
      </trkpt>
      <trkpt lat="46.7298" lon="-1.9495">
        <ele>5</ele>
        <time>2018-01-14T23:13:25Z</time>
      </trkpt>
      <trkpt lat="46.72956" lon="-1.94942">
        <ele>5</ele>
        <time>2018-01-14T23:14:25Z</time>
      </trkpt>
      <trkpt lat="46.72938" lon="-1.94935">
        <ele>4</ele>
        <time>2018-01-14T23:15:25Z</time>
      </trkpt>
      <trkpt lat="46.72925" lon="-1.9493">
        <ele>4</ele>
        <time>2018-01-14T23:16:25Z</time>
      </trkpt>
      <trkpt lat="46.72917" lon="-1.94928">
        <ele>4</ele>
        <time>2018-01-14T23:17:25Z</time>
      </trkpt>
      <trkpt lat="46.72906" lon="-1.94925">
        <ele>4</ele>
        <time>2018-01-14T23:18:25Z</time>
      </trkpt>
      <trkpt lat="46.72898" lon="-1.94923">
        <ele>4</ele>
        <time>2018-01-14T23:19:25Z</time>
      </trkpt>
      <trkpt lat="46.72891" lon="-1.94922">
        <ele>4</ele>
        <time>2018-01-14T23:20:25Z</time>
      </trkpt>
      <trkpt lat="46.72884" lon="-1.94922">
        <ele>4</ele>
        <time>2018-01-14T23:21:25Z</time>
      </trkpt>
      <trkpt lat="46.72852" lon="-1.94927">
        <ele>4</ele>
        <time>2018-01-14T23:22:25Z</time>
      </trkpt>
      <trkpt lat="46.72831" lon="-1.94934">
        <ele>4</ele>
        <time>2018-01-14T23:23:25Z</time>
      </trkpt>
      <trkpt lat="46.72823" lon="-1.94937">
        <ele>4</ele>
        <time>2018-01-14T23:24:25Z</time>
      </trkpt>
      <trkpt lat="46.72811" lon="-1.94943">
        <ele>4</ele>
        <time>2018-01-14T23:25:25Z</time>
      </trkpt>
      <trkpt lat="46.72811" lon="-1.94943">
        <ele>4</ele>
        <time>2018-01-14T23:26:25Z</time>
      </trkpt>
      <trkpt lat="46.7281" lon="-1.94944">
        <ele>4</ele>
        <time>2018-01-14T23:27:25Z</time>
      </trkpt>
      <trkpt lat="46.7281" lon="-1.94946">
        <ele>4</ele>
        <time>2018-01-14T23:28:25Z</time>
      </trkpt>
      <trkpt lat="46.72809" lon="-1.94947">
        <ele>4</ele>
        <time>2018-01-14T23:29:25Z</time>
      </trkpt>
      <trkpt lat="46.72808" lon="-1.94949">
        <ele>4</ele>
        <time>2018-01-14T23:30:25Z</time>
      </trkpt>
      <trkpt lat="46.72807" lon="-1.9495">
        <ele>4</ele>
        <time>2018-01-14T23:31:25Z</time>
      </trkpt>
      <trkpt lat="46.72806" lon="-1.94952">
        <ele>4</ele>
        <time>2018-01-14T23:32:25Z</time>
      </trkpt>
      <trkpt lat="46.72805" lon="-1.94953">
        <ele>4</ele>
        <time>2018-01-14T23:33:25Z</time>
      </trkpt>
      <trkpt lat="46.72804" lon="-1.94955">
        <ele>4</ele>
        <time>2018-01-14T23:34:25Z</time>
      </trkpt>
      <trkpt lat="46.72801" lon="-1.94958">
        <ele>4</ele>
        <time>2018-01-14T23:35:25Z</time>
      </trkpt>
      <trkpt lat="46.72798" lon="-1.94961">
        <ele>4</ele>
        <time>2018-01-14T23:36:25Z</time>
      </trkpt>
      <trkpt lat="46.72795" lon="-1.94963">
        <ele>4</ele>
        <time>2018-01-14T23:37:25Z</time>
      </trkpt>
      <trkpt lat="46.72792" lon="-1.94965">
        <ele>4</ele>
        <time>2018-01-14T23:38:25Z</time>
      </trkpt>
      <trkpt lat="46.72788" lon="-1.94966">
        <ele>4</ele>
        <time>2018-01-14T23:39:25Z</time>
      </trkpt>
      <trkpt lat="46.72784" lon="-1.94967">
        <ele>4</ele>
        <time>2018-01-14T23:40:25Z</time>
      </trkpt>
      <trkpt lat="46.72781" lon="-1.94967">
        <ele>4</ele>
        <time>2018-01-14T23:41:25Z</time>
      </trkpt>
      <trkpt lat="46.72777" lon="-1.94967">
        <ele>4</ele>
        <time>2018-01-14T23:42:25Z</time>
      </trkpt>
      <trkpt lat="46.72776" lon="-1.94967">
        <ele>4</ele>
        <time>2018-01-14T23:43:25Z</time>
      </trkpt>
      <trkpt lat="46.72775" lon="-1.94966">
        <ele>4</ele>
        <time>2018-01-14T23:44:25Z</time>
      </trkpt>
      <trkpt lat="46.72774" lon="-1.94966">
        <ele>4</ele>
        <time>2018-01-14T23:45:25Z</time>
      </trkpt>
      <trkpt lat="46.72773" lon="-1.94966">
        <ele>4</ele>
        <time>2018-01-14T23:46:25Z</time>
      </trkpt>
      <trkpt lat="46.72772" lon="-1.94965">
        <ele>4</ele>
        <time>2018-01-14T23:47:25Z</time>
      </trkpt>
      <trkpt lat="46.72771" lon="-1.94965">
        <ele>4</ele>
        <time>2018-01-14T23:48:25Z</time>
      </trkpt>
      <trkpt lat="46.7277" lon="-1.94964">
        <ele>4</ele>
        <time>2018-01-14T23:49:25Z</time>
      </trkpt>
      <trkpt lat="46.72768" lon="-1.94964">
        <ele>4</ele>
        <time>2018-01-14T23:50:25Z</time>
      </trkpt>
      <trkpt lat="46.72767" lon="-1.94963">
        <ele>4</ele>
        <time>2018-01-14T23:51:25Z</time>
      </trkpt>
      <trkpt lat="46.72766" lon="-1.94962">
        <ele>4</ele>
        <time>2018-01-14T23:52:25Z</time>
      </trkpt>
      <trkpt lat="46.72765" lon="-1.94961">
        <ele>4</ele>
        <time>2018-01-14T23:53:25Z</time>
      </trkpt>
      <trkpt lat="46.72764" lon="-1.94961">
        <ele>4</ele>
        <time>2018-01-14T23:54:25Z</time>
      </trkpt>
      <trkpt lat="46.72763" lon="-1.9496">
        <ele>4</ele>
        <time>2018-01-14T23:55:25Z</time>
      </trkpt>
      <trkpt lat="46.72762" lon="-1.94959">
        <ele>4</ele>
        <time>2018-01-14T23:56:25Z</time>
      </trkpt>
      <trkpt lat="46.72761" lon="-1.94958">
        <ele>4</ele>
        <time>2018-01-14T23:57:25Z</time>
      </trkpt>
      <trkpt lat="46.72758" lon="-1.94954">
        <ele>4</ele>
        <time>2018-01-14T23:58:25Z</time>
      </trkpt>
      <trkpt lat="46.72755" lon="-1.94949">
        <ele>4</ele>
        <time>2018-01-14T23:59:25Z</time>
      </trkpt>
      <trkpt lat="46.72753" lon="-1.94944">
        <ele>4</ele>
        <time>2018-01-15T00:00:25Z</time>
      </trkpt>
      <trkpt lat="46.72751" lon="-1.94939">
        <ele>4</ele>
        <time>2018-01-15T00:01:25Z</time>
      </trkpt>
      <trkpt lat="46.7275" lon="-1.94933">
        <ele>4</ele>
        <time>2018-01-15T00:02:25Z</time>
      </trkpt>
      <trkpt lat="46.72749" lon="-1.94927">
        <ele>4</ele>
        <time>2018-01-15T00:03:25Z</time>
      </trkpt>
      <trkpt lat="46.72748" lon="-1.94921">
        <ele>4</ele>
        <time>2018-01-15T00:04:25Z</time>
      </trkpt>
      <trkpt lat="46.72749" lon="-1.94915">
        <ele>4</ele>
        <time>2018-01-15T00:05:25Z</time>
      </trkpt>
      <trkpt lat="46.72749" lon="-1.94912">
        <ele>4</ele>
        <time>2018-01-15T00:06:25Z</time>
      </trkpt>
      <trkpt lat="46.7275" lon="-1.94909">
        <ele>4</ele>
        <time>2018-01-15T00:07:25Z</time>
      </trkpt>
      <trkpt lat="46.72751" lon="-1.94905">
        <ele>4</ele>
        <time>2018-01-15T00:08:25Z</time>
      </trkpt>
      <trkpt lat="46.72752" lon="-1.94902">
        <ele>4</ele>
        <time>2018-01-15T00:09:25Z</time>
      </trkpt>
      <trkpt lat="46.72753" lon="-1.94899">
        <ele>4</ele>
        <time>2018-01-15T00:10:25Z</time>
      </trkpt>
      <trkpt lat="46.72754" lon="-1.94897">
        <ele>4</ele>
        <time>2018-01-15T00:11:25Z</time>
      </trkpt>
      <trkpt lat="46.72755" lon="-1.94894">
        <ele>5</ele>
        <time>2018-01-15T00:12:25Z</time>
      </trkpt>
      <trkpt lat="46.72756" lon="-1.94891">
        <ele>5</ele>
        <time>2018-01-15T00:13:25Z</time>
      </trkpt>
      <trkpt lat="46.72757" lon="-1.94873">
        <ele>5</ele>
        <time>2018-01-15T00:14:25Z</time>
      </trkpt>
      <trkpt lat="46.72756" lon="-1.94856">
        <ele>5</ele>
        <time>2018-01-15T00:15:25Z</time>
      </trkpt>
      <trkpt lat="46.72755" lon="-1.94851">
        <ele>5</ele>
        <time>2018-01-15T00:16:25Z</time>
      </trkpt>
      <trkpt lat="46.72755" lon="-1.94848">
        <ele>6</ele>
        <time>2018-01-15T00:17:25Z</time>
      </trkpt>
      <trkpt lat="46.72754" lon="-1.94845">
        <ele>6</ele>
        <time>2018-01-15T00:18:25Z</time>
      </trkpt>
      <trkpt lat="46.72753" lon="-1.94842">
        <ele>6</ele>
        <time>2018-01-15T00:19:25Z</time>
      </trkpt>
      <trkpt lat="46.72751" lon="-1.94838">
        <ele>6</ele>
        <time>2018-01-15T00:20:25Z</time>
      </trkpt>
      <trkpt lat="46.72748" lon="-1.94831">
        <ele>6</ele>
        <time>2018-01-15T00:21:25Z</time>
      </trkpt>
      <trkpt lat="46.72745" lon="-1.94823">
        <ele>5</ele>
        <time>2018-01-15T00:22:25Z</time>
      </trkpt>
      <trkpt lat="46.72674" lon="-1.94695">
        <ele>4</ele>
        <time>2018-01-15T00:23:25Z</time>
      </trkpt>
      <trkpt lat="46.7266" lon="-1.94672">
        <ele>4</ele>
        <time>2018-01-15T00:24:25Z</time>
      </trkpt>
      <trkpt lat="46.72583" lon="-1.94534">
        <ele>4</ele>
        <time>2018-01-15T00:25:25Z</time>
      </trkpt>
      <trkpt lat="46.72545" lon="-1.94468">
        <ele>4</ele>
        <time>2018-01-15T00:26:25Z</time>
      </trkpt>
      <trkpt lat="46.72541" lon="-1.94464">
        <ele>4</ele>
        <time>2018-01-15T00:27:25Z</time>
      </trkpt>
      <trkpt lat="46.72495" lon="-1.94381">
        <ele>4</ele>
        <time>2018-01-15T00:28:25Z</time>
      </trkpt>
      <trkpt lat="46.72467" lon="-1.94332">
        <ele>4</ele>
        <time>2018-01-15T00:29:25Z</time>
      </trkpt>
      <trkpt lat="46.72457" lon="-1.94315">
        <ele>4</ele>
        <time>2018-01-15T00:30:25Z</time>
      </trkpt>
      <trkpt lat="46.72435" lon="-1.94276">
        <ele>4</ele>
        <time>2018-01-15T00:31:25Z</time>
      </trkpt>
      <trkpt lat="46.72404" lon="-1.94221">
        <ele>4</ele>
        <time>2018-01-15T00:32:25Z</time>
      </trkpt>
      <trkpt lat="46.72396" lon="-1.94206">
        <ele>3</ele>
        <time>2018-01-15T00:33:25Z</time>
      </trkpt>
      <trkpt lat="46.72383" lon="-1.94183">
        <ele>3</ele>
        <time>2018-01-15T00:34:25Z</time>
      </trkpt>
      <trkpt lat="46.72378" lon="-1.94176">
        <ele>4</ele>
        <time>2018-01-15T00:35:25Z</time>
      </trkpt>
      <trkpt lat="46.72376" lon="-1.94172">
        <ele>4</ele>
        <time>2018-01-15T00:36:25Z</time>
      </trkpt>
      <trkpt lat="46.72373" lon="-1.94167">
        <ele>4</ele>
        <time>2018-01-15T00:37:25Z</time>
      </trkpt>
      <trkpt lat="46.7237" lon="-1.94162">
        <ele>4</ele>
        <time>2018-01-15T00:38:25Z</time>
      </trkpt>
      <trkpt lat="46.72366" lon="-1.94156">
        <ele>4</ele>
        <time>2018-01-15T00:39:25Z</time>
      </trkpt>
      <trkpt lat="46.7236" lon="-1.94146">
        <ele>4</ele>
        <time>2018-01-15T00:40:25Z</time>
      </trkpt>
      <trkpt lat="46.72357" lon="-1.94138">
        <ele>4</ele>
        <time>2018-01-15T00:41:25Z</time>
      </trkpt>
      <trkpt lat="46.72354" lon="-1.94133">
        <ele>4</ele>
        <time>2018-01-15T00:42:25Z</time>
      </trkpt>
      <trkpt lat="46.7235" lon="-1.94128">
        <ele>4</ele>
        <time>2018-01-15T00:43:25Z</time>
      </trkpt>
      <trkpt lat="46.72346" lon="-1.94123">
        <ele>4</ele>
        <time>2018-01-15T00:44:25Z</time>
      </trkpt>
      <trkpt lat="46.72342" lon="-1.94117">
        <ele>4</ele>
        <time>2018-01-15T00:45:25Z</time>
      </trkpt>
      <trkpt lat="46.72334" lon="-1.94107">
        <ele>4</ele>
        <time>2018-01-15T00:46:25Z</time>
      </trkpt>
      <trkpt lat="46.72327" lon="-1.94099">
        <ele>4</ele>
        <time>2018-01-15T00:47:25Z</time>
      </trkpt>
      <trkpt lat="46.72321" lon="-1.94092">
        <ele>4</ele>
        <time>2018-01-15T00:48:25Z</time>
      </trkpt>
      <trkpt lat="46.72313" lon="-1.94083">
        <ele>4</ele>
        <time>2018-01-15T00:49:25Z</time>
      </trkpt>
      <trkpt lat="46.72306" lon="-1.94075">
        <ele>3</ele>
        <time>2018-01-15T00:50:25Z</time>
      </trkpt>
      <trkpt lat="46.723" lon="-1.94069">
        <ele>3</ele>
        <time>2018-01-15T00:51:25Z</time>
      </trkpt>
      <trkpt lat="46.72291" lon="-1.94061">
        <ele>3</ele>
        <time>2018-01-15T00:52:25Z</time>
      </trkpt>
      <trkpt lat="46.72278" lon="-1.94048">
        <ele>2</ele>
        <time>2018-01-15T00:53:25Z</time>
      </trkpt>
      <trkpt lat="46.72271" lon="-1.94043">
        <ele>2</ele>
        <time>2018-01-15T00:54:25Z</time>
      </trkpt>
      <trkpt lat="46.72262" lon="-1.94035">
        <ele>2</ele>
        <time>2018-01-15T00:55:25Z</time>
      </trkpt>
      <trkpt lat="46.72254" lon="-1.94029">
        <ele>2</ele>
        <time>2018-01-15T00:56:25Z</time>
      </trkpt>
      <trkpt lat="46.72248" lon="-1.94024">
        <ele>2</ele>
        <time>2018-01-15T00:57:25Z</time>
      </trkpt>
      <trkpt lat="46.72241" lon="-1.94019">
        <ele>2</ele>
        <time>2018-01-15T00:58:25Z</time>
      </trkpt>
      <trkpt lat="46.72235" lon="-1.94014">
        <ele>1</ele>
        <time>2018-01-15T00:59:25Z</time>
      </trkpt>
      <trkpt lat="46.72228" lon="-1.94009">
        <ele>1</ele>
        <time>2018-01-15T01:00:25Z</time>
      </trkpt>
      <trkpt lat="46.72222" lon="-1.94005">
        <ele>1</ele>
        <time>2018-01-15T01:01:25Z</time>
      </trkpt>
      <trkpt lat="46.72214" lon="-1.94">
        <ele>1</ele>
        <time>2018-01-15T01:02:25Z</time>
      </trkpt>
      <trkpt lat="46.72208" lon="-1.93997">
        <ele>2</ele>
        <time>2018-01-15T01:03:25Z</time>
      </trkpt>
      <trkpt lat="46.72201" lon="-1.93993">
        <ele>2</ele>
        <time>2018-01-15T01:04:25Z</time>
      </trkpt>
      <trkpt lat="46.72195" lon="-1.9399">
        <ele>2</ele>
        <time>2018-01-15T01:05:25Z</time>
      </trkpt>
      <trkpt lat="46.72191" lon="-1.93987">
        <ele>2</ele>
        <time>2018-01-15T01:06:25Z</time>
      </trkpt>
      <trkpt lat="46.72187" lon="-1.93985">
        <ele>2</ele>
        <time>2018-01-15T01:07:25Z</time>
      </trkpt>
      <trkpt lat="46.72183" lon="-1.93983">
        <ele>2</ele>
        <time>2018-01-15T01:08:25Z</time>
      </trkpt>
      <trkpt lat="46.72178" lon="-1.93981">
        <ele>2</ele>
        <time>2018-01-15T01:09:25Z</time>
      </trkpt>
      <trkpt lat="46.72174" lon="-1.93979">
        <ele>2</ele>
        <time>2018-01-15T01:10:25Z</time>
      </trkpt>
      <trkpt lat="46.72167" lon="-1.93976">
        <ele>2</ele>
        <time>2018-01-15T01:11:25Z</time>
      </trkpt>
      <trkpt lat="46.72158" lon="-1.93972">
        <ele>2</ele>
        <time>2018-01-15T01:12:25Z</time>
      </trkpt>
      <trkpt lat="46.72149" lon="-1.93969">
        <ele>2</ele>
        <time>2018-01-15T01:13:25Z</time>
      </trkpt>
      <trkpt lat="46.72139" lon="-1.93966">
        <ele>2</ele>
        <time>2018-01-15T01:14:25Z</time>
      </trkpt>
      <trkpt lat="46.72129" lon="-1.93963">
        <ele>2</ele>
        <time>2018-01-15T01:15:25Z</time>
      </trkpt>
      <trkpt lat="46.72117" lon="-1.93959">
        <ele>2</ele>
        <time>2018-01-15T01:16:25Z</time>
      </trkpt>
      <trkpt lat="46.72106" lon="-1.93957">
        <ele>2</ele>
        <time>2018-01-15T01:17:25Z</time>
      </trkpt>
      <trkpt lat="46.72094" lon="-1.93955">
        <ele>2</ele>
        <time>2018-01-15T01:18:25Z</time>
      </trkpt>
      <trkpt lat="46.72086" lon="-1.93954">
        <ele>2</ele>
        <time>2018-01-15T01:19:25Z</time>
      </trkpt>
      <trkpt lat="46.7208" lon="-1.93953">
        <ele>2</ele>
        <time>2018-01-15T01:20:25Z</time>
      </trkpt>
      <trkpt lat="46.7207" lon="-1.93952">
        <ele>2</ele>
        <time>2018-01-15T01:21:25Z</time>
      </trkpt>
      <trkpt lat="46.72062" lon="-1.93951">
        <ele>2</ele>
        <time>2018-01-15T01:22:25Z</time>
      </trkpt>
      <trkpt lat="46.72054" lon="-1.93951">
        <ele>2</ele>
        <time>2018-01-15T01:23:25Z</time>
      </trkpt>
      <trkpt lat="46.72049" lon="-1.93951">
        <ele>2</ele>
        <time>2018-01-15T01:24:25Z</time>
      </trkpt>
      <trkpt lat="46.72043" lon="-1.9395">
        <ele>2</ele>
        <time>2018-01-15T01:25:25Z</time>
      </trkpt>
      <trkpt lat="46.72036" lon="-1.9395">
        <ele>2</ele>
        <time>2018-01-15T01:26:25Z</time>
      </trkpt>
      <trkpt lat="46.72029" lon="-1.93951">
        <ele>2</ele>
        <time>2018-01-15T01:27:25Z</time>
      </trkpt>
      <trkpt lat="46.72021" lon="-1.93951">
        <ele>2</ele>
        <time>2018-01-15T01:28:25Z</time>
      </trkpt>
      <trkpt lat="46.72012" lon="-1.93952">
        <ele>2</ele>
        <time>2018-01-15T01:29:25Z</time>
      </trkpt>
      <trkpt lat="46.71994" lon="-1.93954">
        <ele>2</ele>
        <time>2018-01-15T01:30:25Z</time>
      </trkpt>
      <trkpt lat="46.71981" lon="-1.93957">
        <ele>2</ele>
        <time>2018-01-15T01:31:25Z</time>
      </trkpt>
      <trkpt lat="46.71967" lon="-1.93959">
        <ele>2</ele>
        <time>2018-01-15T01:32:25Z</time>
      </trkpt>
      <trkpt lat="46.71946" lon="-1.93964">
        <ele>1</ele>
        <time>2018-01-15T01:33:25Z</time>
      </trkpt>
      <trkpt lat="46.71884" lon="-1.93978">
        <ele>1</ele>
        <time>2018-01-15T01:34:25Z</time>
      </trkpt>
      <trkpt lat="46.71876" lon="-1.9398">
        <ele>1</ele>
        <time>2018-01-15T01:35:25Z</time>
      </trkpt>
      <trkpt lat="46.71843" lon="-1.93992">
        <ele>1</ele>
        <time>2018-01-15T01:36:25Z</time>
      </trkpt>
      <trkpt lat="46.7184" lon="-1.93994">
        <ele>1</ele>
        <time>2018-01-15T01:37:25Z</time>
      </trkpt>
      <trkpt lat="46.71837" lon="-1.93996">
        <ele>1</ele>
        <time>2018-01-15T01:38:25Z</time>
      </trkpt>
      <trkpt lat="46.71834" lon="-1.93997">
        <ele>1</ele>
        <time>2018-01-15T01:39:25Z</time>
      </trkpt>
      <trkpt lat="46.71824" lon="-1.94003">
        <ele>1</ele>
        <time>2018-01-15T01:40:25Z</time>
      </trkpt>
      <trkpt lat="46.71824" lon="-1.94004">
        <ele>1</ele>
        <time>2018-01-15T01:41:25Z</time>
      </trkpt>
      <trkpt lat="46.71823" lon="-1.94004">
        <ele>1</ele>
        <time>2018-01-15T01:42:25Z</time>
      </trkpt>
      <trkpt lat="46.71823" lon="-1.94005">
        <ele>1</ele>
        <time>2018-01-15T01:43:25Z</time>
      </trkpt>
      <trkpt lat="46.71822" lon="-1.94007">
        <ele>1</ele>
        <time>2018-01-15T01:44:25Z</time>
      </trkpt>
      <trkpt lat="46.71821" lon="-1.94008">
        <ele>1</ele>
        <time>2018-01-15T01:45:25Z</time>
      </trkpt>
      <trkpt lat="46.7182" lon="-1.94009">
        <ele>1</ele>
        <time>2018-01-15T01:46:25Z</time>
      </trkpt>
      <trkpt lat="46.71819" lon="-1.9401">
        <ele>1</ele>
        <time>2018-01-15T01:47:25Z</time>
      </trkpt>
      <trkpt lat="46.71818" lon="-1.94011">
        <ele>1</ele>
        <time>2018-01-15T01:48:25Z</time>
      </trkpt>
      <trkpt lat="46.71817" lon="-1.94012">
        <ele>1</ele>
        <time>2018-01-15T01:49:25Z</time>
      </trkpt>
      <trkpt lat="46.71816" lon="-1.94013">
        <ele>1</ele>
        <time>2018-01-15T01:50:25Z</time>
      </trkpt>
      <trkpt lat="46.71815" lon="-1.94014">
        <ele>1</ele>
        <time>2018-01-15T01:51:25Z</time>
      </trkpt>
      <trkpt lat="46.71814" lon="-1.94014">
        <ele>1</ele>
        <time>2018-01-15T01:52:25Z</time>
      </trkpt>
      <trkpt lat="46.71814" lon="-1.94015">
        <ele>1</ele>
        <time>2018-01-15T01:53:25Z</time>
      </trkpt>
      <trkpt lat="46.71813" lon="-1.94015">
        <ele>1</ele>
        <time>2018-01-15T01:54:25Z</time>
      </trkpt>
      <trkpt lat="46.71812" lon="-1.94015">
        <ele>1</ele>
        <time>2018-01-15T01:55:25Z</time>
      </trkpt>
      <trkpt lat="46.7181" lon="-1.94015">
        <ele>1</ele>
        <time>2018-01-15T01:56:25Z</time>
      </trkpt>
      <trkpt lat="46.71809" lon="-1.94015">
        <ele>1</ele>
        <time>2018-01-15T01:57:25Z</time>
      </trkpt>
      <trkpt lat="46.71808" lon="-1.94015">
        <ele>1</ele>
        <time>2018-01-15T01:58:25Z</time>
      </trkpt>
      <trkpt lat="46.71807" lon="-1.94015">
        <ele>1</ele>
        <time>2018-01-15T01:59:25Z</time>
      </trkpt>
      <trkpt lat="46.71807" lon="-1.94014">
        <ele>1</ele>
        <time>2018-01-15T02:00:25Z</time>
      </trkpt>
      <trkpt lat="46.71806" lon="-1.94014">
        <ele>1</ele>
        <time>2018-01-15T02:01:25Z</time>
      </trkpt>
      <trkpt lat="46.71805" lon="-1.94013">
        <ele>1</ele>
        <time>2018-01-15T02:02:25Z</time>
      </trkpt>
      <trkpt lat="46.71804" lon="-1.94013">
        <ele>1</ele>
        <time>2018-01-15T02:03:25Z</time>
      </trkpt>
      <trkpt lat="46.71803" lon="-1.94012">
        <ele>1</ele>
        <time>2018-01-15T02:04:25Z</time>
      </trkpt>
      <trkpt lat="46.71802" lon="-1.94011">
        <ele>1</ele>
        <time>2018-01-15T02:05:25Z</time>
      </trkpt>
      <trkpt lat="46.71801" lon="-1.9401">
        <ele>1</ele>
        <time>2018-01-15T02:06:25Z</time>
      </trkpt>
      <trkpt lat="46.71801" lon="-1.94009">
        <ele>1</ele>
        <time>2018-01-15T02:07:25Z</time>
      </trkpt>
      <trkpt lat="46.718" lon="-1.94009">
        <ele>1</ele>
        <time>2018-01-15T02:08:25Z</time>
      </trkpt>
      <trkpt lat="46.718" lon="-1.94008">
        <ele>1</ele>
        <time>2018-01-15T02:09:25Z</time>
      </trkpt>
      <trkpt lat="46.71795" lon="-1.94007">
        <ele>1</ele>
        <time>2018-01-15T02:10:25Z</time>
      </trkpt>
      <trkpt lat="46.71793" lon="-1.94007">
        <ele>1</ele>
        <time>2018-01-15T02:11:25Z</time>
      </trkpt>
      <trkpt lat="46.7179" lon="-1.94007">
        <ele>1</ele>
        <time>2018-01-15T02:12:25Z</time>
      </trkpt>
      <trkpt lat="46.71787" lon="-1.94007">
        <ele>1</ele>
        <time>2018-01-15T02:13:25Z</time>
      </trkpt>
      <trkpt lat="46.71784" lon="-1.94007">
        <ele>1</ele>
        <time>2018-01-15T02:14:25Z</time>
      </trkpt>
      <trkpt lat="46.71782" lon="-1.94007">
        <ele>1</ele>
        <time>2018-01-15T02:15:25Z</time>
      </trkpt>
      <trkpt lat="46.71743" lon="-1.94011">
        <ele>2</ele>
        <time>2018-01-15T02:16:25Z</time>
      </trkpt>
      <trkpt lat="46.71736" lon="-1.94013">
        <ele>2</ele>
        <time>2018-01-15T02:17:25Z</time>
      </trkpt>
      <trkpt lat="46.71362" lon="-1.94099">
        <ele>4</ele>
        <time>2018-01-15T02:18:25Z</time>
      </trkpt>
      <trkpt lat="46.71344" lon="-1.94103">
        <ele>4</ele>
        <time>2018-01-15T02:19:25Z</time>
      </trkpt>
      <trkpt lat="46.71263" lon="-1.94122">
        <ele>2</ele>
        <time>2018-01-15T02:20:25Z</time>
      </trkpt>
      <trkpt lat="46.71093" lon="-1.94162">
        <ele>1</ele>
        <time>2018-01-15T02:21:25Z</time>
      </trkpt>
      <trkpt lat="46.71004" lon="-1.94182">
        <ele>2</ele>
        <time>2018-01-15T02:22:25Z</time>
      </trkpt>
      <trkpt lat="46.70987" lon="-1.94186">
        <ele>2</ele>
        <time>2018-01-15T02:23:25Z</time>
      </trkpt>
      <trkpt lat="46.7097" lon="-1.94189">
        <ele>3</ele>
        <time>2018-01-15T02:24:25Z</time>
      </trkpt>
      <trkpt lat="46.7093" lon="-1.94197">
        <ele>4</ele>
        <time>2018-01-15T02:25:25Z</time>
      </trkpt>
      <trkpt lat="46.70887" lon="-1.94205">
        <ele>4</ele>
        <time>2018-01-15T02:26:25Z</time>
      </trkpt>
      <trkpt lat="46.70869" lon="-1.94208">
        <ele>5</ele>
        <time>2018-01-15T02:27:25Z</time>
      </trkpt>
      <trkpt lat="46.70857" lon="-1.94209">
        <ele>5</ele>
        <time>2018-01-15T02:28:25Z</time>
      </trkpt>
      <trkpt lat="46.70847" lon="-1.94211">
        <ele>5</ele>
        <time>2018-01-15T02:29:25Z</time>
      </trkpt>
      <trkpt lat="46.70834" lon="-1.94212">
        <ele>5</ele>
        <time>2018-01-15T02:30:25Z</time>
      </trkpt>
      <trkpt lat="46.70823" lon="-1.94213">
        <ele>5</ele>
        <time>2018-01-15T02:31:25Z</time>
      </trkpt>
      <trkpt lat="46.70812" lon="-1.94214">
        <ele>5</ele>
        <time>2018-01-15T02:32:25Z</time>
      </trkpt>
      <trkpt lat="46.70799" lon="-1.94216">
        <ele>5</ele>
        <time>2018-01-15T02:33:25Z</time>
      </trkpt>
      <trkpt lat="46.70783" lon="-1.94217">
        <ele>6</ele>
        <time>2018-01-15T02:34:25Z</time>
      </trkpt>
      <trkpt lat="46.70775" lon="-1.94218">
        <ele>6</ele>
        <time>2018-01-15T02:35:25Z</time>
      </trkpt>
      <trkpt lat="46.70767" lon="-1.94218">
        <ele>6</ele>
        <time>2018-01-15T02:36:25Z</time>
      </trkpt>
      <trkpt lat="46.70763" lon="-1.94218">
        <ele>6</ele>
        <time>2018-01-15T02:37:25Z</time>
      </trkpt>
      <trkpt lat="46.70758" lon="-1.94219">
        <ele>6</ele>
        <time>2018-01-15T02:38:25Z</time>
      </trkpt>
      <trkpt lat="46.70753" lon="-1.94219">
        <ele>6</ele>
        <time>2018-01-15T02:39:25Z</time>
      </trkpt>
      <trkpt lat="46.70747" lon="-1.94219">
        <ele>6</ele>
        <time>2018-01-15T02:40:25Z</time>
      </trkpt>
      <trkpt lat="46.70742" lon="-1.94219">
        <ele>6</ele>
        <time>2018-01-15T02:41:25Z</time>
      </trkpt>
      <trkpt lat="46.70737" lon="-1.94219">
        <ele>6</ele>
        <time>2018-01-15T02:42:25Z</time>
      </trkpt>
      <trkpt lat="46.70732" lon="-1.94219">
        <ele>6</ele>
        <time>2018-01-15T02:43:25Z</time>
      </trkpt>
      <trkpt lat="46.70726" lon="-1.94219">
        <ele>6</ele>
        <time>2018-01-15T02:44:25Z</time>
      </trkpt>
      <trkpt lat="46.70706" lon="-1.94229">
        <ele>6</ele>
        <time>2018-01-15T02:45:25Z</time>
      </trkpt>
      <trkpt lat="46.70706" lon="-1.94229">
        <ele>6</ele>
        <time>2018-01-15T02:46:25Z</time>
      </trkpt>
      <trkpt lat="46.70706" lon="-1.9423">
        <ele>5</ele>
        <time>2018-01-15T02:47:25Z</time>
      </trkpt>
      <trkpt lat="46.70705" lon="-1.9423">
        <ele>5</ele>
        <time>2018-01-15T02:48:25Z</time>
      </trkpt>
      <trkpt lat="46.70705" lon="-1.94231">
        <ele>5</ele>
        <time>2018-01-15T02:49:25Z</time>
      </trkpt>
      <trkpt lat="46.70705" lon="-1.94232">
        <ele>5</ele>
        <time>2018-01-15T02:50:25Z</time>
      </trkpt>
      <trkpt lat="46.70704" lon="-1.94232">
        <ele>5</ele>
        <time>2018-01-15T02:51:25Z</time>
      </trkpt>
      <trkpt lat="46.70704" lon="-1.94233">
        <ele>5</ele>
        <time>2018-01-15T02:52:25Z</time>
      </trkpt>
      <trkpt lat="46.70703" lon="-1.94234">
        <ele>5</ele>
        <time>2018-01-15T02:53:25Z</time>
      </trkpt>
      <trkpt lat="46.70703" lon="-1.94235">
        <ele>5</ele>
        <time>2018-01-15T02:54:25Z</time>
      </trkpt>
      <trkpt lat="46.70702" lon="-1.94235">
        <ele>5</ele>
        <time>2018-01-15T02:55:25Z</time>
      </trkpt>
      <trkpt lat="46.70702" lon="-1.94236">
        <ele>5</ele>
        <time>2018-01-15T02:56:25Z</time>
      </trkpt>
      <trkpt lat="46.70701" lon="-1.94236">
        <ele>5</ele>
        <time>2018-01-15T02:57:25Z</time>
      </trkpt>
      <trkpt lat="46.707" lon="-1.94237">
        <ele>5</ele>
        <time>2018-01-15T02:58:25Z</time>
      </trkpt>
      <trkpt lat="46.70699" lon="-1.94237">
        <ele>5</ele>
        <time>2018-01-15T02:59:25Z</time>
      </trkpt>
      <trkpt lat="46.70698" lon="-1.94237">
        <ele>5</ele>
        <time>2018-01-15T03:00:25Z</time>
      </trkpt>
      <trkpt lat="46.70697" lon="-1.94237">
        <ele>5</ele>
        <time>2018-01-15T03:01:25Z</time>
      </trkpt>
      <trkpt lat="46.70696" lon="-1.94237">
        <ele>5</ele>
        <time>2018-01-15T03:02:25Z</time>
      </trkpt>
      <trkpt lat="46.70695" lon="-1.94237">
        <ele>5</ele>
        <time>2018-01-15T03:03:25Z</time>
      </trkpt>
      <trkpt lat="46.70694" lon="-1.94237">
        <ele>5</ele>
        <time>2018-01-15T03:04:25Z</time>
      </trkpt>
      <trkpt lat="46.70693" lon="-1.94236">
        <ele>5</ele>
        <time>2018-01-15T03:05:25Z</time>
      </trkpt>
      <trkpt lat="46.70692" lon="-1.94236">
        <ele>5</ele>
        <time>2018-01-15T03:06:25Z</time>
      </trkpt>
      <trkpt lat="46.70692" lon="-1.94235">
        <ele>5</ele>
        <time>2018-01-15T03:07:25Z</time>
      </trkpt>
      <trkpt lat="46.70691" lon="-1.94235">
        <ele>5</ele>
        <time>2018-01-15T03:08:25Z</time>
      </trkpt>
      <trkpt lat="46.70691" lon="-1.94234">
        <ele>5</ele>
        <time>2018-01-15T03:09:25Z</time>
      </trkpt>
      <trkpt lat="46.7069" lon="-1.94234">
        <ele>5</ele>
        <time>2018-01-15T03:10:25Z</time>
      </trkpt>
      <trkpt lat="46.7069" lon="-1.94233">
        <ele>5</ele>
        <time>2018-01-15T03:11:25Z</time>
      </trkpt>
      <trkpt lat="46.70689" lon="-1.94233">
        <ele>5</ele>
        <time>2018-01-15T03:12:25Z</time>
      </trkpt>
      <trkpt lat="46.70689" lon="-1.94232">
        <ele>5</ele>
        <time>2018-01-15T03:13:25Z</time>
      </trkpt>
      <trkpt lat="46.70689" lon="-1.94231">
        <ele>5</ele>
        <time>2018-01-15T03:14:25Z</time>
      </trkpt>
      <trkpt lat="46.70688" lon="-1.9423">
        <ele>5</ele>
        <time>2018-01-15T03:15:25Z</time>
      </trkpt>
      <trkpt lat="46.70688" lon="-1.94229">
        <ele>6</ele>
        <time>2018-01-15T03:16:25Z</time>
      </trkpt>
      <trkpt lat="46.70687" lon="-1.94228">
        <ele>6</ele>
        <time>2018-01-15T03:17:25Z</time>
      </trkpt>
      <trkpt lat="46.70678" lon="-1.94222">
        <ele>6</ele>
        <time>2018-01-15T03:18:25Z</time>
      </trkpt>
      <trkpt lat="46.70676" lon="-1.94221">
        <ele>6</ele>
        <time>2018-01-15T03:19:25Z</time>
      </trkpt>
      <trkpt lat="46.70674" lon="-1.9422">
        <ele>6</ele>
        <time>2018-01-15T03:20:25Z</time>
      </trkpt>
      <trkpt lat="46.70672" lon="-1.9422">
        <ele>6</ele>
        <time>2018-01-15T03:21:25Z</time>
      </trkpt>
      <trkpt lat="46.7066" lon="-1.94214">
        <ele>6</ele>
        <time>2018-01-15T03:22:25Z</time>
      </trkpt>
      <trkpt lat="46.70649" lon="-1.94213">
        <ele>6</ele>
        <time>2018-01-15T03:23:25Z</time>
      </trkpt>
      <trkpt lat="46.70641" lon="-1.94212">
        <ele>5</ele>
        <time>2018-01-15T03:24:25Z</time>
      </trkpt>
      <trkpt lat="46.70635" lon="-1.94211">
        <ele>5</ele>
        <time>2018-01-15T03:25:25Z</time>
      </trkpt>
      <trkpt lat="46.70629" lon="-1.9421">
        <ele>5</ele>
        <time>2018-01-15T03:26:25Z</time>
      </trkpt>
      <trkpt lat="46.70624" lon="-1.94209">
        <ele>5</ele>
        <time>2018-01-15T03:27:25Z</time>
      </trkpt>
      <trkpt lat="46.70617" lon="-1.94208">
        <ele>5</ele>
        <time>2018-01-15T03:28:25Z</time>
      </trkpt>
      <trkpt lat="46.70607" lon="-1.94205">
        <ele>5</ele>
        <time>2018-01-15T03:29:25Z</time>
      </trkpt>
      <trkpt lat="46.70598" lon="-1.94204">
        <ele>5</ele>
        <time>2018-01-15T03:30:25Z</time>
      </trkpt>
      <trkpt lat="46.70588" lon="-1.94201">
        <ele>5</ele>
        <time>2018-01-15T03:31:25Z</time>
      </trkpt>
      <trkpt lat="46.70577" lon="-1.94199">
        <ele>5</ele>
        <time>2018-01-15T03:32:25Z</time>
      </trkpt>
      <trkpt lat="46.70568" lon="-1.94196">
        <ele>5</ele>
        <time>2018-01-15T03:33:25Z</time>
      </trkpt>
      <trkpt lat="46.70562" lon="-1.94194">
        <ele>4</ele>
        <time>2018-01-15T03:34:25Z</time>
      </trkpt>
      <trkpt lat="46.70555" lon="-1.94192">
        <ele>4</ele>
        <time>2018-01-15T03:35:25Z</time>
      </trkpt>
      <trkpt lat="46.70549" lon="-1.9419">
        <ele>4</ele>
        <time>2018-01-15T03:36:25Z</time>
      </trkpt>
      <trkpt lat="46.70544" lon="-1.94189">
        <ele>4</ele>
        <time>2018-01-15T03:37:25Z</time>
      </trkpt>
      <trkpt lat="46.70539" lon="-1.94187">
        <ele>4</ele>
        <time>2018-01-15T03:38:25Z</time>
      </trkpt>
      <trkpt lat="46.70534" lon="-1.94185">
        <ele>4</ele>
        <time>2018-01-15T03:39:25Z</time>
      </trkpt>
      <trkpt lat="46.70528" lon="-1.94183">
        <ele>4</ele>
        <time>2018-01-15T03:40:25Z</time>
      </trkpt>
      <trkpt lat="46.70522" lon="-1.94181">
        <ele>4</ele>
        <time>2018-01-15T03:41:25Z</time>
      </trkpt>
      <trkpt lat="46.70515" lon="-1.94178">
        <ele>4</ele>
        <time>2018-01-15T03:42:25Z</time>
      </trkpt>
      <trkpt lat="46.70506" lon="-1.94174">
        <ele>4</ele>
        <time>2018-01-15T03:43:25Z</time>
      </trkpt>
      <trkpt lat="46.705" lon="-1.94171">
        <ele>4</ele>
        <time>2018-01-15T03:44:25Z</time>
      </trkpt>
      <trkpt lat="46.70494" lon="-1.94169">
        <ele>4</ele>
        <time>2018-01-15T03:45:25Z</time>
      </trkpt>
      <trkpt lat="46.70489" lon="-1.94166">
        <ele>4</ele>
        <time>2018-01-15T03:46:25Z</time>
      </trkpt>
      <trkpt lat="46.70485" lon="-1.94164">
        <ele>4</ele>
        <time>2018-01-15T03:47:25Z</time>
      </trkpt>
      <trkpt lat="46.70481" lon="-1.94162">
        <ele>4</ele>
        <time>2018-01-15T03:48:25Z</time>
      </trkpt>
      <trkpt lat="46.70476" lon="-1.94159">
        <ele>4</ele>
        <time>2018-01-15T03:49:25Z</time>
      </trkpt>
      <trkpt lat="46.70467" lon="-1.94154">
        <ele>5</ele>
        <time>2018-01-15T03:50:25Z</time>
      </trkpt>
      <trkpt lat="46.70458" lon="-1.94149">
        <ele>5</ele>
        <time>2018-01-15T03:51:25Z</time>
      </trkpt>
      <trkpt lat="46.70452" lon="-1.94145">
        <ele>5</ele>
        <time>2018-01-15T03:52:25Z</time>
      </trkpt>
      <trkpt lat="46.70447" lon="-1.94142">
        <ele>5</ele>
        <time>2018-01-15T03:53:25Z</time>
      </trkpt>
      <trkpt lat="46.7044" lon="-1.94137">
        <ele>5</ele>
        <time>2018-01-15T03:54:25Z</time>
      </trkpt>
      <trkpt lat="46.70434" lon="-1.94132">
        <ele>5</ele>
        <time>2018-01-15T03:55:25Z</time>
      </trkpt>
      <trkpt lat="46.70428" lon="-1.94128">
        <ele>5</ele>
        <time>2018-01-15T03:56:25Z</time>
      </trkpt>
      <trkpt lat="46.70423" lon="-1.94124">
        <ele>5</ele>
        <time>2018-01-15T03:57:25Z</time>
      </trkpt>
      <trkpt lat="46.70416" lon="-1.94119">
        <ele>5</ele>
        <time>2018-01-15T03:58:25Z</time>
      </trkpt>
      <trkpt lat="46.70411" lon="-1.94114">
        <ele>5</ele>
        <time>2018-01-15T03:59:25Z</time>
      </trkpt>
      <trkpt lat="46.70405" lon="-1.94109">
        <ele>4</ele>
        <time>2018-01-15T04:00:25Z</time>
      </trkpt>
      <trkpt lat="46.70396" lon="-1.94101">
        <ele>4</ele>
        <time>2018-01-15T04:01:25Z</time>
      </trkpt>
      <trkpt lat="46.70393" lon="-1.94098">
        <ele>4</ele>
        <time>2018-01-15T04:02:25Z</time>
      </trkpt>
      <trkpt lat="46.7039" lon="-1.94095">
        <ele>4</ele>
        <time>2018-01-15T04:03:25Z</time>
      </trkpt>
      <trkpt lat="46.70387" lon="-1.94093">
        <ele>4</ele>
        <time>2018-01-15T04:04:25Z</time>
      </trkpt>
      <trkpt lat="46.70384" lon="-1.9409">
        <ele>4</ele>
        <time>2018-01-15T04:05:25Z</time>
      </trkpt>
      <trkpt lat="46.70382" lon="-1.94087">
        <ele>4</ele>
        <time>2018-01-15T04:06:25Z</time>
      </trkpt>
      <trkpt lat="46.7038" lon="-1.94085">
        <ele>4</ele>
        <time>2018-01-15T04:07:25Z</time>
      </trkpt>
      <trkpt lat="46.70374" lon="-1.94079">
        <ele>4</ele>
        <time>2018-01-15T04:08:25Z</time>
      </trkpt>
      <trkpt lat="46.70368" lon="-1.94075">
        <ele>4</ele>
        <time>2018-01-15T04:09:25Z</time>
      </trkpt>
      <trkpt lat="46.70364" lon="-1.94071">
        <ele>4</ele>
        <time>2018-01-15T04:10:25Z</time>
      </trkpt>
      <trkpt lat="46.7036" lon="-1.94066">
        <ele>4</ele>
        <time>2018-01-15T04:11:25Z</time>
      </trkpt>
      <trkpt lat="46.70354" lon="-1.9406">
        <ele>4</ele>
        <time>2018-01-15T04:12:25Z</time>
      </trkpt>
      <trkpt lat="46.70346" lon="-1.9405">
        <ele>4</ele>
        <time>2018-01-15T04:13:25Z</time>
      </trkpt>
      <trkpt lat="46.70337" lon="-1.94039">
        <ele>3</ele>
        <time>2018-01-15T04:14:25Z</time>
      </trkpt>
      <trkpt lat="46.70331" lon="-1.94032">
        <ele>3</ele>
        <time>2018-01-15T04:15:25Z</time>
      </trkpt>
      <trkpt lat="46.70326" lon="-1.94025">
        <ele>3</ele>
        <time>2018-01-15T04:16:25Z</time>
      </trkpt>
      <trkpt lat="46.70321" lon="-1.94019">
        <ele>3</ele>
        <time>2018-01-15T04:17:25Z</time>
      </trkpt>
      <trkpt lat="46.70316" lon="-1.94013">
        <ele>3</ele>
        <time>2018-01-15T04:18:25Z</time>
      </trkpt>
      <trkpt lat="46.70311" lon="-1.94006">
        <ele>3</ele>
        <time>2018-01-15T04:19:25Z</time>
      </trkpt>
      <trkpt lat="46.70307" lon="-1.94">
        <ele>3</ele>
        <time>2018-01-15T04:20:25Z</time>
      </trkpt>
      <trkpt lat="46.70292" lon="-1.93977">
        <ele>3</ele>
        <time>2018-01-15T04:21:25Z</time>
      </trkpt>
      <trkpt lat="46.70281" lon="-1.93959">
        <ele>3</ele>
        <time>2018-01-15T04:22:25Z</time>
      </trkpt>
      <trkpt lat="46.70277" lon="-1.93952">
        <ele>3</ele>
        <time>2018-01-15T04:23:25Z</time>
      </trkpt>
      <trkpt lat="46.70273" lon="-1.93946">
        <ele>3</ele>
        <time>2018-01-15T04:24:25Z</time>
      </trkpt>
      <trkpt lat="46.7027" lon="-1.93941">
        <ele>2</ele>
        <time>2018-01-15T04:25:25Z</time>
      </trkpt>
      <trkpt lat="46.70267" lon="-1.93937">
        <ele>2</ele>
        <time>2018-01-15T04:26:25Z</time>
      </trkpt>
      <trkpt lat="46.70262" lon="-1.93932">
        <ele>2</ele>
        <time>2018-01-15T04:27:25Z</time>
      </trkpt>
      <trkpt lat="46.70262" lon="-1.93932">
        <ele>2</ele>
        <time>2018-01-15T04:28:25Z</time>
      </trkpt>
      <trkpt lat="46.70261" lon="-1.93932">
        <ele>2</ele>
        <time>2018-01-15T04:29:25Z</time>
      </trkpt>
      <trkpt lat="46.7026" lon="-1.93932">
        <ele>2</ele>
        <time>2018-01-15T04:30:25Z</time>
      </trkpt>
      <trkpt lat="46.70259" lon="-1.93932">
        <ele>2</ele>
        <time>2018-01-15T04:31:25Z</time>
      </trkpt>
      <trkpt lat="46.70257" lon="-1.93932">
        <ele>2</ele>
        <time>2018-01-15T04:32:25Z</time>
      </trkpt>
      <trkpt lat="46.70256" lon="-1.93932">
        <ele>2</ele>
        <time>2018-01-15T04:33:25Z</time>
      </trkpt>
      <trkpt lat="46.70255" lon="-1.93931">
        <ele>2</ele>
        <time>2018-01-15T04:34:25Z</time>
      </trkpt>
      <trkpt lat="46.70254" lon="-1.93931">
        <ele>2</ele>
        <time>2018-01-15T04:35:25Z</time>
      </trkpt>
      <trkpt lat="46.70252" lon="-1.9393">
        <ele>2</ele>
        <time>2018-01-15T04:36:25Z</time>
      </trkpt>
      <trkpt lat="46.70251" lon="-1.93928">
        <ele>2</ele>
        <time>2018-01-15T04:37:25Z</time>
      </trkpt>
      <trkpt lat="46.70249" lon="-1.93927">
        <ele>2</ele>
        <time>2018-01-15T04:38:25Z</time>
      </trkpt>
      <trkpt lat="46.70248" lon="-1.93926">
        <ele>2</ele>
        <time>2018-01-15T04:39:25Z</time>
      </trkpt>
      <trkpt lat="46.70247" lon="-1.93925">
        <ele>2</ele>
        <time>2018-01-15T04:40:25Z</time>
      </trkpt>
      <trkpt lat="46.70247" lon="-1.93924">
        <ele>2</ele>
        <time>2018-01-15T04:41:25Z</time>
      </trkpt>
      <trkpt lat="46.70246" lon="-1.93922">
        <ele>2</ele>
        <time>2018-01-15T04:42:25Z</time>
      </trkpt>
      <trkpt lat="46.70245" lon="-1.93921">
        <ele>2</ele>
        <time>2018-01-15T04:43:25Z</time>
      </trkpt>
      <trkpt lat="46.70244" lon="-1.93919">
        <ele>2</ele>
        <time>2018-01-15T04:44:25Z</time>
      </trkpt>
      <trkpt lat="46.70244" lon="-1.93917">
        <ele>2</ele>
        <time>2018-01-15T04:45:25Z</time>
      </trkpt>
      <trkpt lat="46.70243" lon="-1.93916">
        <ele>2</ele>
        <time>2018-01-15T04:46:25Z</time>
      </trkpt>
      <trkpt lat="46.70243" lon="-1.93914">
        <ele>2</ele>
        <time>2018-01-15T04:47:25Z</time>
      </trkpt>
      <trkpt lat="46.70243" lon="-1.93912">
        <ele>2</ele>
        <time>2018-01-15T04:48:25Z</time>
      </trkpt>
      <trkpt lat="46.70242" lon="-1.9391">
        <ele>2</ele>
        <time>2018-01-15T04:49:25Z</time>
      </trkpt>
      <trkpt lat="46.70242" lon="-1.93906">
        <ele>2</ele>
        <time>2018-01-15T04:50:25Z</time>
      </trkpt>
      <trkpt lat="46.70243" lon="-1.93905">
        <ele>2</ele>
        <time>2018-01-15T04:51:25Z</time>
      </trkpt>
      <trkpt lat="46.70243" lon="-1.93903">
        <ele>2</ele>
        <time>2018-01-15T04:52:25Z</time>
      </trkpt>
      <trkpt lat="46.70243" lon="-1.93902">
        <ele>2</ele>
        <time>2018-01-15T04:53:25Z</time>
      </trkpt>
      <trkpt lat="46.70244" lon="-1.939">
        <ele>2</ele>
        <time>2018-01-15T04:54:25Z</time>
      </trkpt>
      <trkpt lat="46.70244" lon="-1.93899">
        <ele>2</ele>
        <time>2018-01-15T04:55:25Z</time>
      </trkpt>
      <trkpt lat="46.70245" lon="-1.93897">
        <ele>3</ele>
        <time>2018-01-15T04:56:25Z</time>
      </trkpt>
      <trkpt lat="46.70245" lon="-1.93896">
        <ele>3</ele>
        <time>2018-01-15T04:57:25Z</time>
      </trkpt>
      <trkpt lat="46.70246" lon="-1.93894">
        <ele>3</ele>
        <time>2018-01-15T04:58:25Z</time>
      </trkpt>
      <trkpt lat="46.70246" lon="-1.93889">
        <ele>3</ele>
        <time>2018-01-15T04:59:25Z</time>
      </trkpt>
      <trkpt lat="46.70245" lon="-1.93885">
        <ele>3</ele>
        <time>2018-01-15T05:00:25Z</time>
      </trkpt>
      <trkpt lat="46.70245" lon="-1.93882">
        <ele>3</ele>
        <time>2018-01-15T05:01:25Z</time>
      </trkpt>
      <trkpt lat="46.70244" lon="-1.93878">
        <ele>3</ele>
        <time>2018-01-15T05:02:25Z</time>
      </trkpt>
      <trkpt lat="46.70244" lon="-1.93875">
        <ele>3</ele>
        <time>2018-01-15T05:03:25Z</time>
      </trkpt>
      <trkpt lat="46.70243" lon="-1.93871">
        <ele>3</ele>
        <time>2018-01-15T05:04:25Z</time>
      </trkpt>
      <trkpt lat="46.70241" lon="-1.93867">
        <ele>3</ele>
        <time>2018-01-15T05:05:25Z</time>
      </trkpt>
      <trkpt lat="46.70241" lon="-1.93864">
        <ele>3</ele>
        <time>2018-01-15T05:06:25Z</time>
      </trkpt>
      <trkpt lat="46.70238" lon="-1.93857">
        <ele>3</ele>
        <time>2018-01-15T05:07:25Z</time>
      </trkpt>
      <trkpt lat="46.70224" lon="-1.93811">
        <ele>4</ele>
        <time>2018-01-15T05:08:25Z</time>
      </trkpt>
      <trkpt lat="46.7022" lon="-1.93799">
        <ele>3</ele>
        <time>2018-01-15T05:09:25Z</time>
      </trkpt>
      <trkpt lat="46.70218" lon="-1.93792">
        <ele>3</ele>
        <time>2018-01-15T05:10:25Z</time>
      </trkpt>
      <trkpt lat="46.70216" lon="-1.93784">
        <ele>3</ele>
        <time>2018-01-15T05:11:25Z</time>
      </trkpt>
      <trkpt lat="46.70214" lon="-1.93775">
        <ele>3</ele>
        <time>2018-01-15T05:12:25Z</time>
      </trkpt>
      <trkpt lat="46.70211" lon="-1.93767">
        <ele>3</ele>
        <time>2018-01-15T05:13:25Z</time>
      </trkpt>
      <trkpt lat="46.70203" lon="-1.93733">
        <ele>3</ele>
        <time>2018-01-15T05:14:25Z</time>
      </trkpt>
      <trkpt lat="46.70194" lon="-1.93693">
        <ele>2</ele>
        <time>2018-01-15T05:15:25Z</time>
      </trkpt>
      <trkpt lat="46.70183" lon="-1.93647">
        <ele>1</ele>
        <time>2018-01-15T05:16:25Z</time>
      </trkpt>
      <trkpt lat="46.70173" lon="-1.936">
        <ele>1</ele>
        <time>2018-01-15T05:17:25Z</time>
      </trkpt>
      <trkpt lat="46.70157" lon="-1.93532">
        <ele>1</ele>
        <time>2018-01-15T05:18:25Z</time>
      </trkpt>
      <trkpt lat="46.70136" lon="-1.93442">
        <ele>1</ele>
        <time>2018-01-15T05:19:25Z</time>
      </trkpt>
      <trkpt lat="46.70134" lon="-1.93434">
        <ele>1</ele>
        <time>2018-01-15T05:20:25Z</time>
      </trkpt>
      <trkpt lat="46.70132" lon="-1.93425">
        <ele>1</ele>
        <time>2018-01-15T05:21:25Z</time>
      </trkpt>
      <trkpt lat="46.7013" lon="-1.93419">
        <ele>1</ele>
        <time>2018-01-15T05:22:25Z</time>
      </trkpt>
      <trkpt lat="46.70129" lon="-1.93416">
        <ele>1</ele>
        <time>2018-01-15T05:23:25Z</time>
      </trkpt>
      <trkpt lat="46.70128" lon="-1.93414">
        <ele>1</ele>
        <time>2018-01-15T05:24:25Z</time>
      </trkpt>
      <trkpt lat="46.70127" lon="-1.93411">
        <ele>1</ele>
        <time>2018-01-15T05:25:25Z</time>
      </trkpt>
      <trkpt lat="46.70125" lon="-1.93409">
        <ele>1</ele>
        <time>2018-01-15T05:26:25Z</time>
      </trkpt>
      <trkpt lat="46.70125" lon="-1.93409">
        <ele>1</ele>
        <time>2018-01-15T05:27:25Z</time>
      </trkpt>
      <trkpt lat="46.70124" lon="-1.93408">
        <ele>2</ele>
        <time>2018-01-15T05:28:25Z</time>
      </trkpt>
      <trkpt lat="46.70123" lon="-1.93408">
        <ele>2</ele>
        <time>2018-01-15T05:29:25Z</time>
      </trkpt>
      <trkpt lat="46.70122" lon="-1.93407">
        <ele>2</ele>
        <time>2018-01-15T05:30:25Z</time>
      </trkpt>
      <trkpt lat="46.70121" lon="-1.93407">
        <ele>2</ele>
        <time>2018-01-15T05:31:25Z</time>
      </trkpt>
      <trkpt lat="46.7012" lon="-1.93406">
        <ele>2</ele>
        <time>2018-01-15T05:32:25Z</time>
      </trkpt>
      <trkpt lat="46.7012" lon="-1.93405">
        <ele>2</ele>
        <time>2018-01-15T05:33:25Z</time>
      </trkpt>
      <trkpt lat="46.70119" lon="-1.93405">
        <ele>2</ele>
        <time>2018-01-15T05:34:25Z</time>
      </trkpt>
      <trkpt lat="46.70107" lon="-1.93404">
        <ele>2</ele>
        <time>2018-01-15T05:35:25Z</time>
      </trkpt>
      <trkpt lat="46.701" lon="-1.93405">
        <ele>2</ele>
        <time>2018-01-15T05:36:25Z</time>
      </trkpt>
      <trkpt lat="46.70092" lon="-1.93406">
        <ele>2</ele>
        <time>2018-01-15T05:37:25Z</time>
      </trkpt>
      <trkpt lat="46.70088" lon="-1.93406">
        <ele>2</ele>
        <time>2018-01-15T05:38:25Z</time>
      </trkpt>
      <trkpt lat="46.70085" lon="-1.93405">
        <ele>2</ele>
        <time>2018-01-15T05:39:25Z</time>
      </trkpt>
      <trkpt lat="46.70083" lon="-1.93405">
        <ele>2</ele>
        <time>2018-01-15T05:40:25Z</time>
      </trkpt>
      <trkpt lat="46.70062" lon="-1.93405">
        <ele>2</ele>
        <time>2018-01-15T05:41:25Z</time>
      </trkpt>
      <trkpt lat="46.70062" lon="-1.93406">
        <ele>2</ele>
        <time>2018-01-15T05:42:25Z</time>
      </trkpt>
      <trkpt lat="46.70062" lon="-1.93407">
        <ele>2</ele>
        <time>2018-01-15T05:43:25Z</time>
      </trkpt>
      <trkpt lat="46.70062" lon="-1.93408">
        <ele>2</ele>
        <time>2018-01-15T05:44:25Z</time>
      </trkpt>
      <trkpt lat="46.70062" lon="-1.93409">
        <ele>2</ele>
        <time>2018-01-15T05:45:25Z</time>
      </trkpt>
      <trkpt lat="46.70062" lon="-1.9341">
        <ele>2</ele>
        <time>2018-01-15T05:46:25Z</time>
      </trkpt>
      <trkpt lat="46.70061" lon="-1.9341">
        <ele>2</ele>
        <time>2018-01-15T05:47:25Z</time>
      </trkpt>
      <trkpt lat="46.70061" lon="-1.93411">
        <ele>2</ele>
        <time>2018-01-15T05:48:25Z</time>
      </trkpt>
      <trkpt lat="46.7006" lon="-1.93411">
        <ele>2</ele>
        <time>2018-01-15T05:49:25Z</time>
      </trkpt>
      <trkpt lat="46.7006" lon="-1.93412">
        <ele>2</ele>
        <time>2018-01-15T05:50:25Z</time>
      </trkpt>
      <trkpt lat="46.70059" lon="-1.93412">
        <ele>2</ele>
        <time>2018-01-15T05:51:25Z</time>
      </trkpt>
      <trkpt lat="46.70059" lon="-1.93413">
        <ele>2</ele>
        <time>2018-01-15T05:52:25Z</time>
      </trkpt>
      <trkpt lat="46.70058" lon="-1.93413">
        <ele>2</ele>
        <time>2018-01-15T05:53:25Z</time>
      </trkpt>
      <trkpt lat="46.70057" lon="-1.93413">
        <ele>2</ele>
        <time>2018-01-15T05:54:25Z</time>
      </trkpt>
      <trkpt lat="46.70056" lon="-1.93413">
        <ele>2</ele>
        <time>2018-01-15T05:55:25Z</time>
      </trkpt>
      <trkpt lat="46.70055" lon="-1.93413">
        <ele>2</ele>
        <time>2018-01-15T05:56:25Z</time>
      </trkpt>
      <trkpt lat="46.70055" lon="-1.93412">
        <ele>2</ele>
        <time>2018-01-15T05:57:25Z</time>
      </trkpt>
      <trkpt lat="46.70054" lon="-1.93412">
        <ele>2</ele>
        <time>2018-01-15T05:58:25Z</time>
      </trkpt>
      <trkpt lat="46.70054" lon="-1.93411">
        <ele>2</ele>
        <time>2018-01-15T05:59:25Z</time>
      </trkpt>
      <trkpt lat="46.70053" lon="-1.93411">
        <ele>2</ele>
        <time>2018-01-15T06:00:25Z</time>
      </trkpt>
      <trkpt lat="46.70053" lon="-1.9341">
        <ele>2</ele>
        <time>2018-01-15T06:01:25Z</time>
      </trkpt>
      <trkpt lat="46.70053" lon="-1.93409">
        <ele>2</ele>
        <time>2018-01-15T06:02:25Z</time>
      </trkpt>
      <trkpt lat="46.70052" lon="-1.93409">
        <ele>2</ele>
        <time>2018-01-15T06:03:25Z</time>
      </trkpt>
      <trkpt lat="46.70052" lon="-1.93408">
        <ele>2</ele>
        <time>2018-01-15T06:04:25Z</time>
      </trkpt>
      <trkpt lat="46.70052" lon="-1.93407">
        <ele>2</ele>
        <time>2018-01-15T06:05:25Z</time>
      </trkpt>
      <trkpt lat="46.70052" lon="-1.93406">
        <ele>2</ele>
        <time>2018-01-15T06:06:25Z</time>
      </trkpt>
      <trkpt lat="46.70052" lon="-1.93405">
        <ele>2</ele>
        <time>2018-01-15T06:07:25Z</time>
      </trkpt>
      <trkpt lat="46.70046" lon="-1.93402">
        <ele>2</ele>
        <time>2018-01-15T06:08:25Z</time>
      </trkpt>
      <trkpt lat="46.70043" lon="-1.93401">
        <ele>2</ele>
        <time>2018-01-15T06:09:25Z</time>
      </trkpt>
      <trkpt lat="46.70041" lon="-1.934">
        <ele>2</ele>
        <time>2018-01-15T06:10:25Z</time>
      </trkpt>
      <trkpt lat="46.70038" lon="-1.93398">
        <ele>2</ele>
        <time>2018-01-15T06:11:25Z</time>
      </trkpt>
      <trkpt lat="46.70036" lon="-1.93397">
        <ele>2</ele>
        <time>2018-01-15T06:12:25Z</time>
      </trkpt>
      <trkpt lat="46.70033" lon="-1.93394">
        <ele>2</ele>
        <time>2018-01-15T06:13:25Z</time>
      </trkpt>
      <trkpt lat="46.7003" lon="-1.93391">
        <ele>3</ele>
        <time>2018-01-15T06:14:25Z</time>
      </trkpt>
      <trkpt lat="46.70028" lon="-1.93388">
        <ele>3</ele>
        <time>2018-01-15T06:15:25Z</time>
      </trkpt>
      <trkpt lat="46.70025" lon="-1.93386">
        <ele>3</ele>
        <time>2018-01-15T06:16:25Z</time>
      </trkpt>
      <trkpt lat="46.70023" lon="-1.93384">
        <ele>3</ele>
        <time>2018-01-15T06:17:25Z</time>
      </trkpt>
      <trkpt lat="46.7002" lon="-1.93382">
        <ele>3</ele>
        <time>2018-01-15T06:18:25Z</time>
      </trkpt>
      <trkpt lat="46.70015" lon="-1.9338">
        <ele>3</ele>
        <time>2018-01-15T06:19:25Z</time>
      </trkpt>
      <trkpt lat="46.70002" lon="-1.93375">
        <ele>3</ele>
        <time>2018-01-15T06:20:25Z</time>
      </trkpt>
      <trkpt lat="46.69987" lon="-1.93369">
        <ele>3</ele>
        <time>2018-01-15T06:21:25Z</time>
      </trkpt>
      <trkpt lat="46.69982" lon="-1.93367">
        <ele>3</ele>
        <time>2018-01-15T06:22:25Z</time>
      </trkpt>
      <trkpt lat="46.69979" lon="-1.93366">
        <ele>3</ele>
        <time>2018-01-15T06:23:25Z</time>
      </trkpt>
      <trkpt lat="46.69978" lon="-1.93366">
        <ele>3</ele>
        <time>2018-01-15T06:24:25Z</time>
      </trkpt>
      <trkpt lat="46.69976" lon="-1.93367">
        <ele>4</ele>
        <time>2018-01-15T06:25:25Z</time>
      </trkpt>
      <trkpt lat="46.69973" lon="-1.93367">
        <ele>4</ele>
        <time>2018-01-15T06:26:25Z</time>
      </trkpt>
      <trkpt lat="46.69969" lon="-1.9337">
        <ele>4</ele>
        <time>2018-01-15T06:27:25Z</time>
      </trkpt>
      <trkpt lat="46.69963" lon="-1.93373">
        <ele>4</ele>
        <time>2018-01-15T06:28:25Z</time>
      </trkpt>
      <trkpt lat="46.69958" lon="-1.93375">
        <ele>4</ele>
        <time>2018-01-15T06:29:25Z</time>
      </trkpt>
      <trkpt lat="46.69953" lon="-1.93377">
        <ele>4</ele>
        <time>2018-01-15T06:30:25Z</time>
      </trkpt>
      <trkpt lat="46.69949" lon="-1.93379">
        <ele>4</ele>
        <time>2018-01-15T06:31:25Z</time>
      </trkpt>
      <trkpt lat="46.69944" lon="-1.93381">
        <ele>4</ele>
        <time>2018-01-15T06:32:25Z</time>
      </trkpt>
      <trkpt lat="46.69935" lon="-1.93382">
        <ele>4</ele>
        <time>2018-01-15T06:33:25Z</time>
      </trkpt>
      <trkpt lat="46.69925" lon="-1.93383">
        <ele>4</ele>
        <time>2018-01-15T06:34:25Z</time>
      </trkpt>
      <trkpt lat="46.69922" lon="-1.93383">
        <ele>4</ele>
        <time>2018-01-15T06:35:25Z</time>
      </trkpt>
      <trkpt lat="46.69915" lon="-1.93383">
        <ele>4</ele>
        <time>2018-01-15T06:36:25Z</time>
      </trkpt>
      <trkpt lat="46.69915" lon="-1.93383">
        <ele>4</ele>
        <time>2018-01-15T06:37:25Z</time>
      </trkpt>
      <trkpt lat="46.69915" lon="-1.93384">
        <ele>4</ele>
        <time>2018-01-15T06:38:25Z</time>
      </trkpt>
      <trkpt lat="46.69913" lon="-1.93385">
        <ele>4</ele>
        <time>2018-01-15T06:39:25Z</time>
      </trkpt>
      <trkpt lat="46.69912" lon="-1.93386">
        <ele>4</ele>
        <time>2018-01-15T06:40:25Z</time>
      </trkpt>
      <trkpt lat="46.69911" lon="-1.93386">
        <ele>4</ele>
        <time>2018-01-15T06:41:25Z</time>
      </trkpt>
      <trkpt lat="46.69909" lon="-1.93385">
        <ele>4</ele>
        <time>2018-01-15T06:42:25Z</time>
      </trkpt>
      <trkpt lat="46.69908" lon="-1.93383">
        <ele>4</ele>
        <time>2018-01-15T06:43:25Z</time>
      </trkpt>
      <trkpt lat="46.69907" lon="-1.93379">
        <ele>5</ele>
        <time>2018-01-15T06:44:25Z</time>
      </trkpt>
      <trkpt lat="46.69908" lon="-1.93377">
        <ele>5</ele>
        <time>2018-01-15T06:45:25Z</time>
      </trkpt>
    </trkseg>
  </trk>
</gpx>